<?xml version='1.0' encoding='UTF-8'?><gpx version="1.1" creator="JPX - https://github.com/jenetics/jpx" xmlns="http://www.topografix.com/GPX/1/1"><trk><trkseg><trkpt lat="46.1111497" lon="12.1888496"><ele>345.0</ele><time>2026-04-26T12:08:06.623Z</time></trkpt><trkpt lat="46.111069" lon="12.1888692"><ele>345.0</ele><time>2026-04-26T12:08:09.635Z</time></trkpt><trkpt lat="46.1109812" lon="12.1888937"><ele>345.0</ele><time>2026-04-26T12:08:12.607Z</time></trkpt><trkpt lat="46.1109182" lon="12.1889151"><ele>345.0</ele><time>2026-04-26T12:08:14.636Z</time></trkpt><trkpt lat="46.1108535" lon="12.1889353"><ele>345.0</ele><time>2026-04-26T12:08:16.609Z</time></trkpt><trkpt lat="46.1107868" lon="12.1889508"><ele>345.0</ele><time>2026-04-26T12:08:18.603Z</time></trkpt><trkpt lat="46.1107187" lon="12.188959"><ele>345.0</ele><time>2026-04-26T12:08:20.602Z</time></trkpt><trkpt lat="46.1106473" lon="12.1889582"><ele>345.5</ele><time>2026-04-26T12:08:22.602Z</time></trkpt><trkpt lat="46.1105751" lon="12.1889519"><ele>346.0</ele><time>2026-04-26T12:08:24.647Z</time></trkpt><trkpt lat="46.1104982" lon="12.1889534"><ele>346.5</ele><time>2026-04-26T12:08:26.634Z</time></trkpt><trkpt lat="46.1104211" lon="12.1889652"><ele>347.0</ele><time>2026-04-26T12:08:28.599Z</time></trkpt><trkpt lat="46.1103413" lon="12.1889937"><ele>347.5</ele><time>2026-04-26T12:08:30.63Z</time></trkpt><trkpt lat="46.1102617" lon="12.189046"><ele>348.0</ele><time>2026-04-26T12:08:32.636Z</time></trkpt><trkpt lat="46.1101855" lon="12.1891164"><ele>348.0</ele><time>2026-04-26T12:08:34.632Z</time></trkpt><trkpt lat="46.1101131" lon="12.1891888"><ele>348.0</ele><time>2026-04-26T12:08:36.636Z</time></trkpt><trkpt lat="46.110044" lon="12.1892685"><ele>348.0</ele><time>2026-04-26T12:08:38.637Z</time></trkpt><trkpt lat="46.1099745" lon="12.1893444"><ele>348.0</ele><time>2026-04-26T12:08:40.648Z</time></trkpt><trkpt lat="46.1099067" lon="12.1894173"><ele>348.0</ele><time>2026-04-26T12:08:42.634Z</time></trkpt><trkpt lat="46.1098396" lon="12.1894916"><ele>348.0</ele><time>2026-04-26T12:08:44.634Z</time></trkpt><trkpt lat="46.1097715" lon="12.1895615"><ele>348.6666666666667</ele><time>2026-04-26T12:08:46.628Z</time></trkpt><trkpt lat="46.1097063" lon="12.1896292"><ele>349.3333333333333</ele><time>2026-04-26T12:08:48.635Z</time></trkpt><trkpt lat="46.109639" lon="12.1896986"><ele>350.0</ele><time>2026-04-26T12:08:50.634Z</time></trkpt><trkpt lat="46.109572" lon="12.1897727"><ele>350.66666666666663</ele><time>2026-04-26T12:08:52.625Z</time></trkpt><trkpt lat="46.1095053" lon="12.1898486"><ele>351.3333333333333</ele><time>2026-04-26T12:08:54.647Z</time></trkpt><trkpt lat="46.1094361" lon="12.1899165"><ele>352.0</ele><time>2026-04-26T12:08:56.61Z</time></trkpt><trkpt lat="46.10937" lon="12.1899906"><ele>352.0</ele><time>2026-04-26T12:08:58.635Z</time></trkpt><trkpt lat="46.1092985" lon="12.1900538"><ele>352.0</ele><time>2026-04-26T12:09:00.635Z</time></trkpt><trkpt lat="46.1092241" lon="12.1901129"><ele>352.0</ele><time>2026-04-26T12:09:02.612Z</time></trkpt><trkpt lat="46.1091514" lon="12.1901803"><ele>352.0</ele><time>2026-04-26T12:09:04.603Z</time></trkpt><trkpt lat="46.1090791" lon="12.1902404"><ele>352.0</ele><time>2026-04-26T12:09:06.63Z</time></trkpt><trkpt lat="46.1090073" lon="12.1902979"><ele>352.0</ele><time>2026-04-26T12:09:08.633Z</time></trkpt><trkpt lat="46.1089343" lon="12.19036"><ele>352.0</ele><time>2026-04-26T12:09:10.633Z</time></trkpt><trkpt lat="46.1088633" lon="12.1904201"><ele>352.0</ele><time>2026-04-26T12:09:12.632Z</time></trkpt><trkpt lat="46.1087944" lon="12.19048"><ele>352.0</ele><time>2026-04-26T12:09:14.642Z</time></trkpt><trkpt lat="46.1087246" lon="12.1905441"><ele>352.0</ele><time>2026-04-26T12:09:16.631Z</time></trkpt><trkpt lat="46.1086533" lon="12.1906066"><ele>352.0</ele><time>2026-04-26T12:09:18.633Z</time></trkpt><trkpt lat="46.1085787" lon="12.1906687"><ele>352.0</ele><time>2026-04-26T12:09:20.625Z</time></trkpt><trkpt lat="46.108507" lon="12.1907407"><ele>352.3333333333333</ele><time>2026-04-26T12:09:22.627Z</time></trkpt><trkpt lat="46.1084348" lon="12.1908115"><ele>352.66666666666663</ele><time>2026-04-26T12:09:24.634Z</time></trkpt><trkpt lat="46.1083646" lon="12.1908762"><ele>353.0</ele><time>2026-04-26T12:09:26.633Z</time></trkpt><trkpt lat="46.1083007" lon="12.1909419"><ele>353.3333333333333</ele><time>2026-04-26T12:09:28.627Z</time></trkpt><trkpt lat="46.1082407" lon="12.1910117"><ele>353.6666666666667</ele><time>2026-04-26T12:09:30.603Z</time></trkpt><trkpt lat="46.1082133" lon="12.1911357"><ele>354.0</ele><time>2026-04-26T12:09:33.628Z</time></trkpt><trkpt lat="46.1082785" lon="12.191209"><ele>354.0</ele><time>2026-04-26T12:09:35.629Z</time></trkpt><trkpt lat="46.1083595" lon="12.191278"><ele>354.0</ele><time>2026-04-26T12:09:37.623Z</time></trkpt><trkpt lat="46.1084353" lon="12.1913644"><ele>354.0</ele><time>2026-04-26T12:09:39.624Z</time></trkpt><trkpt lat="46.1085133" lon="12.1914541"><ele>354.0</ele><time>2026-04-26T12:09:41.629Z</time></trkpt><trkpt lat="46.108598" lon="12.1915517"><ele>354.0</ele><time>2026-04-26T12:09:43.622Z</time></trkpt><trkpt lat="46.108678" lon="12.1916673"><ele>354.6</ele><time>2026-04-26T12:09:45.601Z</time></trkpt><trkpt lat="46.1087689" lon="12.1917677"><ele>355.2</ele><time>2026-04-26T12:09:47.627Z</time></trkpt><trkpt lat="46.1088821" lon="12.1918091"><ele>355.8</ele><time>2026-04-26T12:09:49.63Z</time></trkpt><trkpt lat="46.108949" lon="12.1917941"><ele>356.40000000000003</ele><time>2026-04-26T12:09:50.602Z</time></trkpt><trkpt lat="46.1090178" lon="12.1917496"><ele>357.0</ele><time>2026-04-26T12:09:51.633Z</time></trkpt><trkpt lat="46.109092" lon="12.1917108"><ele>355.8333333333333</ele><time>2026-04-26T12:09:52.602Z</time></trkpt><trkpt lat="46.1091576" lon="12.1916544"><ele>354.6666666666667</ele><time>2026-04-26T12:09:53.632Z</time></trkpt><trkpt lat="46.1092193" lon="12.1916082"><ele>353.5</ele><time>2026-04-26T12:09:54.629Z</time></trkpt><trkpt lat="46.1093169" lon="12.1916233"><ele>352.33333333333337</ele><time>2026-04-26T12:09:56.601Z</time></trkpt><trkpt lat="46.1093547" lon="12.1917348"><ele>351.1666666666667</ele><time>2026-04-26T12:09:58.631Z</time></trkpt><trkpt lat="46.10939" lon="12.1918483"><ele>350.0</ele><time>2026-04-26T12:10:00.622Z</time></trkpt><trkpt lat="46.1094527" lon="12.1919526"><ele>350.0</ele><time>2026-04-26T12:10:02.609Z</time></trkpt><trkpt lat="46.1095238" lon="12.1920541"><ele>350.0</ele><time>2026-04-26T12:10:04.604Z</time></trkpt><trkpt lat="46.1095851" lon="12.1921513"><ele>350.0</ele><time>2026-04-26T12:10:06.632Z</time></trkpt><trkpt lat="46.109651" lon="12.1922405"><ele>350.0</ele><time>2026-04-26T12:10:08.631Z</time></trkpt><trkpt lat="46.1097115" lon="12.1923246"><ele>350.0</ele><time>2026-04-26T12:10:10.644Z</time></trkpt><trkpt lat="46.1097762" lon="12.1924063"><ele>348.57142857142856</ele><time>2026-04-26T12:10:12.645Z</time></trkpt><trkpt lat="46.1098336" lon="12.1924916"><ele>347.1428571428571</ele><time>2026-04-26T12:10:14.634Z</time></trkpt><trkpt lat="46.1098708" lon="12.1925847"><ele>345.7142857142857</ele><time>2026-04-26T12:10:16.625Z</time></trkpt><trkpt lat="46.1098438" lon="12.1926708"><ele>344.2857142857143</ele><time>2026-04-26T12:10:18.602Z</time></trkpt><trkpt lat="46.1097783" lon="12.1927219"><ele>342.85714285714283</ele><time>2026-04-26T12:10:20.601Z</time></trkpt><trkpt lat="46.1097232" lon="12.1927778"><ele>341.42857142857144</ele><time>2026-04-26T12:10:22.608Z</time></trkpt><trkpt lat="46.1096652" lon="12.1928291"><ele>340.0</ele><time>2026-04-26T12:10:24.61Z</time></trkpt><trkpt lat="46.1096043" lon="12.1928893"><ele>340.0</ele><time>2026-04-26T12:10:26.626Z</time></trkpt><trkpt lat="46.1095437" lon="12.1929533"><ele>340.0</ele><time>2026-04-26T12:10:28.63Z</time></trkpt><trkpt lat="46.1094763" lon="12.1930237"><ele>340.0</ele><time>2026-04-26T12:10:30.72Z</time></trkpt><trkpt lat="46.1094103" lon="12.1931105"><ele>340.0</ele><time>2026-04-26T12:10:32.601Z</time></trkpt><trkpt lat="46.1093372" lon="12.1931952"><ele>340.0</ele><time>2026-04-26T12:10:34.629Z</time></trkpt><trkpt lat="46.1092679" lon="12.1932817"><ele>340.0</ele><time>2026-04-26T12:10:36.632Z</time></trkpt><trkpt lat="46.1091962" lon="12.1933669"><ele>340.2</ele><time>2026-04-26T12:10:38.625Z</time></trkpt><trkpt lat="46.1091193" lon="12.1934521"><ele>340.4</ele><time>2026-04-26T12:10:40.633Z</time></trkpt><trkpt lat="46.1090404" lon="12.1935395"><ele>340.6</ele><time>2026-04-26T12:10:42.624Z</time></trkpt><trkpt lat="46.1089679" lon="12.1936275"><ele>340.8</ele><time>2026-04-26T12:10:44.636Z</time></trkpt><trkpt lat="46.1089004" lon="12.1937165"><ele>341.0</ele><time>2026-04-26T12:10:46.604Z</time></trkpt><trkpt lat="46.1088412" lon="12.1937961"><ele>342.0</ele><time>2026-04-26T12:10:48.617Z</time></trkpt><trkpt lat="46.1087748" lon="12.1938865"><ele>343.0</ele><time>2026-04-26T12:10:50.627Z</time></trkpt><trkpt lat="46.1087088" lon="12.1939666"><ele>344.0</ele><time>2026-04-26T12:10:52.608Z</time></trkpt><trkpt lat="46.1086344" lon="12.1940506"><ele>345.0</ele><time>2026-04-26T12:10:54.613Z</time></trkpt><trkpt lat="46.1085481" lon="12.1941069"><ele>346.0</ele><time>2026-04-26T12:10:56.601Z</time></trkpt><trkpt lat="46.1084467" lon="12.1941425"><ele>346.0</ele><time>2026-04-26T12:10:58.606Z</time></trkpt><trkpt lat="46.1083412" lon="12.1941645"><ele>346.0</ele><time>2026-04-26T12:11:00.633Z</time></trkpt><trkpt lat="46.1082356" lon="12.1941963"><ele>346.0</ele><time>2026-04-26T12:11:02.631Z</time></trkpt><trkpt lat="46.1081312" lon="12.194238"><ele>346.0</ele><time>2026-04-26T12:11:04.611Z</time></trkpt><trkpt lat="46.108028" lon="12.1942933"><ele>346.0</ele><time>2026-04-26T12:11:06.626Z</time></trkpt><trkpt lat="46.1079305" lon="12.1943504"><ele>348.0</ele><time>2026-04-26T12:11:08.611Z</time></trkpt><trkpt lat="46.1078391" lon="12.1944184"><ele>350.0</ele><time>2026-04-26T12:11:10.609Z</time></trkpt><trkpt lat="46.1077627" lon="12.1945029"><ele>352.0</ele><time>2026-04-26T12:11:12.611Z</time></trkpt><trkpt lat="46.1077052" lon="12.1945903"><ele>354.0</ele><time>2026-04-26T12:11:14.631Z</time></trkpt><trkpt lat="46.1076602" lon="12.1946662"><ele>356.0</ele><time>2026-04-26T12:11:16.607Z</time></trkpt><trkpt lat="46.1076102" lon="12.194724"><ele>358.0</ele><time>2026-04-26T12:11:18.609Z</time></trkpt><trkpt lat="46.1075606" lon="12.1948312"><ele>357.3333333333333</ele><time>2026-04-26T12:11:21.611Z</time></trkpt><trkpt lat="46.1075076" lon="12.1949345"><ele>356.66666666666663</ele><time>2026-04-26T12:11:24.608Z</time></trkpt><trkpt lat="46.1074765" lon="12.1950163"><ele>356.0</ele><time>2026-04-26T12:11:26.634Z</time></trkpt><trkpt lat="46.1074542" lon="12.1951419"><ele>355.3333333333333</ele><time>2026-04-26T12:11:29.608Z</time></trkpt><trkpt lat="46.1074466" lon="12.1952735"><ele>354.6666666666667</ele><time>2026-04-26T12:11:32.629Z</time></trkpt><trkpt lat="46.1074409" lon="12.1954044"><ele>354.0</ele><time>2026-04-26T12:11:35.633Z</time></trkpt><trkpt lat="46.1074336" lon="12.1955299"><ele>354.0</ele><time>2026-04-26T12:11:38.607Z</time></trkpt><trkpt lat="46.1074208" lon="12.1956405"><ele>354.0</ele><time>2026-04-26T12:11:41.632Z</time></trkpt><trkpt lat="46.1074182" lon="12.195745"><ele>354.0</ele><time>2026-04-26T12:11:44.6Z</time></trkpt><trkpt lat="46.107427" lon="12.1958863"><ele>354.0</ele><time>2026-04-26T12:11:47.604Z</time></trkpt><trkpt lat="46.1074331" lon="12.1959978"><ele>354.0</ele><time>2026-04-26T12:11:49.601Z</time></trkpt><trkpt lat="46.107441" lon="12.1961129"><ele>354.0</ele><time>2026-04-26T12:11:51.627Z</time></trkpt><trkpt lat="46.1074588" lon="12.1962411"><ele>353.6666666666667</ele><time>2026-04-26T12:11:53.605Z</time></trkpt><trkpt lat="46.1074797" lon="12.1963998"><ele>353.3333333333333</ele><time>2026-04-26T12:11:55.605Z</time></trkpt><trkpt lat="46.107494" lon="12.1964895"><ele>353.0</ele><time>2026-04-26T12:11:56.61Z</time></trkpt><trkpt lat="46.1075175" lon="12.1965804"><ele>352.66666666666663</ele><time>2026-04-26T12:11:57.626Z</time></trkpt><trkpt lat="46.1075429" lon="12.1966678"><ele>352.3333333333333</ele><time>2026-04-26T12:11:58.603Z</time></trkpt><trkpt lat="46.1075652" lon="12.1967573"><ele>352.0</ele><time>2026-04-26T12:11:59.61Z</time></trkpt><trkpt lat="46.1076118" lon="12.1969227"><ele>351.6</ele><time>2026-04-26T12:12:01.6Z</time></trkpt><trkpt lat="46.1076344" lon="12.1970089"><ele>351.20000000000005</ele><time>2026-04-26T12:12:02.6Z</time></trkpt><trkpt lat="46.1076801" lon="12.1971684"><ele>350.8</ele><time>2026-04-26T12:12:04.601Z</time></trkpt><trkpt lat="46.1077369" lon="12.1973096"><ele>350.4</ele><time>2026-04-26T12:12:06.641Z</time></trkpt><trkpt lat="46.1077934" lon="12.197449"><ele>350.0</ele><time>2026-04-26T12:12:08.598Z</time></trkpt><trkpt lat="46.1078484" lon="12.1975779"><ele>349.8</ele><time>2026-04-26T12:12:10.598Z</time></trkpt><trkpt lat="46.1079146" lon="12.1976899"><ele>349.6</ele><time>2026-04-26T12:12:12.636Z</time></trkpt><trkpt lat="46.1079871" lon="12.1977963"><ele>349.4</ele><time>2026-04-26T12:12:14.622Z</time></trkpt><trkpt lat="46.1080676" lon="12.1978928"><ele>349.2</ele><time>2026-04-26T12:12:16.647Z</time></trkpt><trkpt lat="46.1081543" lon="12.1979789"><ele>349.0</ele><time>2026-04-26T12:12:18.61Z</time></trkpt><trkpt lat="46.1082446" lon="12.198064"><ele>349.4</ele><time>2026-04-26T12:12:20.668Z</time></trkpt><trkpt lat="46.1083407" lon="12.1981436"><ele>349.79999999999995</ele><time>2026-04-26T12:12:22.602Z</time></trkpt><trkpt lat="46.1084409" lon="12.1982132"><ele>350.20000000000005</ele><time>2026-04-26T12:12:24.634Z</time></trkpt><trkpt lat="46.1085451" lon="12.1982748"><ele>350.6</ele><time>2026-04-26T12:12:26.637Z</time></trkpt><trkpt lat="46.1086491" lon="12.1983281"><ele>351.0</ele><time>2026-04-26T12:12:28.602Z</time></trkpt><trkpt lat="46.1087548" lon="12.1983671"><ele>351.20000000000005</ele><time>2026-04-26T12:12:30.617Z</time></trkpt><trkpt lat="46.1088571" lon="12.1983891"><ele>351.40000000000003</ele><time>2026-04-26T12:12:32.632Z</time></trkpt><trkpt lat="46.1089571" lon="12.1984065"><ele>351.6</ele><time>2026-04-26T12:12:34.605Z</time></trkpt><trkpt lat="46.1090556" lon="12.1984163"><ele>351.8</ele><time>2026-04-26T12:12:36.625Z</time></trkpt><trkpt lat="46.1091551" lon="12.1984233"><ele>352.0</ele><time>2026-04-26T12:12:38.613Z</time></trkpt><trkpt lat="46.1092599" lon="12.1984302"><ele>352.20000000000005</ele><time>2026-04-26T12:12:40.631Z</time></trkpt><trkpt lat="46.1093647" lon="12.1984394"><ele>352.4</ele><time>2026-04-26T12:12:42.635Z</time></trkpt><trkpt lat="46.1094687" lon="12.1984454"><ele>352.6</ele><time>2026-04-26T12:12:44.638Z</time></trkpt><trkpt lat="46.1095648" lon="12.1984475"><ele>352.79999999999995</ele><time>2026-04-26T12:12:46.61Z</time></trkpt><trkpt lat="46.1096621" lon="12.1984598"><ele>353.0</ele><time>2026-04-26T12:12:48.608Z</time></trkpt><trkpt lat="46.1097594" lon="12.1984825"><ele>353.0</ele><time>2026-04-26T12:12:50.601Z</time></trkpt><trkpt lat="46.1098623" lon="12.1985127"><ele>353.0</ele><time>2026-04-26T12:12:52.611Z</time></trkpt><trkpt lat="46.1099655" lon="12.1985338"><ele>353.0</ele><time>2026-04-26T12:12:54.623Z</time></trkpt><trkpt lat="46.1100734" lon="12.198541"><ele>353.0</ele><time>2026-04-26T12:12:56.628Z</time></trkpt><trkpt lat="46.1101835" lon="12.1985494"><ele>353.0</ele><time>2026-04-26T12:12:58.611Z</time></trkpt><trkpt lat="46.1102969" lon="12.1985589"><ele>353.0</ele><time>2026-04-26T12:13:00.612Z</time></trkpt><trkpt lat="46.1104085" lon="12.1985663"><ele>353.0</ele><time>2026-04-26T12:13:02.631Z</time></trkpt><trkpt lat="46.1105208" lon="12.1985776"><ele>353.0</ele><time>2026-04-26T12:13:04.608Z</time></trkpt><trkpt lat="46.1106325" lon="12.1985814"><ele>353.0</ele><time>2026-04-26T12:13:06.6Z</time></trkpt><trkpt lat="46.1107419" lon="12.1985815"><ele>353.0</ele><time>2026-04-26T12:13:08.628Z</time></trkpt><trkpt lat="46.1108618" lon="12.1985908"><ele>353.0</ele><time>2026-04-26T12:13:10.61Z</time></trkpt><trkpt lat="46.1109792" lon="12.1985979"><ele>353.0</ele><time>2026-04-26T12:13:12.632Z</time></trkpt><trkpt lat="46.1110999" lon="12.1986019"><ele>353.0</ele><time>2026-04-26T12:13:14.622Z</time></trkpt><trkpt lat="46.1111648" lon="12.1986026"><ele>353.0</ele><time>2026-04-26T12:13:15.625Z</time></trkpt><trkpt lat="46.1112848" lon="12.1986111"><ele>353.0</ele><time>2026-04-26T12:13:17.634Z</time></trkpt><trkpt lat="46.1114104" lon="12.1986228"><ele>353.0</ele><time>2026-04-26T12:13:19.601Z</time></trkpt><trkpt lat="46.111474" lon="12.1986297"><ele>353.0</ele><time>2026-04-26T12:13:20.633Z</time></trkpt><trkpt lat="46.1115372" lon="12.1986379"><ele>353.0</ele><time>2026-04-26T12:13:21.635Z</time></trkpt><trkpt lat="46.1116015" lon="12.198646"><ele>353.0</ele><time>2026-04-26T12:13:22.638Z</time></trkpt><trkpt lat="46.1116659" lon="12.1986591"><ele>353.0</ele><time>2026-04-26T12:13:23.599Z</time></trkpt><trkpt lat="46.1117854" lon="12.1986802"><ele>353.0</ele><time>2026-04-26T12:13:25.602Z</time></trkpt><trkpt lat="46.1119051" lon="12.1986955"><ele>352.75</ele><time>2026-04-26T12:13:27.632Z</time></trkpt><trkpt lat="46.1120214" lon="12.1987148"><ele>352.5</ele><time>2026-04-26T12:13:29.609Z</time></trkpt><trkpt lat="46.11214" lon="12.1987525"><ele>352.25</ele><time>2026-04-26T12:13:31.633Z</time></trkpt><trkpt lat="46.1122459" lon="12.1987951"><ele>352.0</ele><time>2026-04-26T12:13:33.631Z</time></trkpt><trkpt lat="46.1123539" lon="12.1988382"><ele>352.0</ele><time>2026-04-26T12:13:35.608Z</time></trkpt><trkpt lat="46.1124283" lon="12.1989336"><ele>352.0</ele><time>2026-04-26T12:13:37.625Z</time></trkpt><trkpt lat="46.1124186" lon="12.19907"><ele>352.0</ele><time>2026-04-26T12:13:39.612Z</time></trkpt><trkpt lat="46.1123899" lon="12.1992057"><ele>352.0</ele><time>2026-04-26T12:13:41.63Z</time></trkpt><trkpt lat="46.1123673" lon="12.1993568"><ele>352.0</ele><time>2026-04-26T12:13:43.609Z</time></trkpt><trkpt lat="46.1123482" lon="12.1995095"><ele>352.8</ele><time>2026-04-26T12:13:45.602Z</time></trkpt><trkpt lat="46.1123323" lon="12.199657"><ele>353.6</ele><time>2026-04-26T12:13:47.612Z</time></trkpt><trkpt lat="46.1123179" lon="12.1997971"><ele>354.40000000000003</ele><time>2026-04-26T12:13:49.61Z</time></trkpt><trkpt lat="46.112297" lon="12.199989"><ele>355.20000000000005</ele><time>2026-04-26T12:13:52.608Z</time></trkpt><trkpt lat="46.112285" lon="12.2001048"><ele>356.0</ele><time>2026-04-26T12:13:54.607Z</time></trkpt><trkpt lat="46.1122702" lon="12.2002129"><ele>356.5</ele><time>2026-04-26T12:13:56.624Z</time></trkpt><trkpt lat="46.1122575" lon="12.2003242"><ele>357.0</ele><time>2026-04-26T12:13:58.608Z</time></trkpt><trkpt lat="46.1122457" lon="12.2004371"><ele>357.5</ele><time>2026-04-26T12:14:00.603Z</time></trkpt><trkpt lat="46.1122328" lon="12.2005507"><ele>358.0</ele><time>2026-04-26T12:14:02.617Z</time></trkpt><trkpt lat="46.1122205" lon="12.2006632"><ele>358.5</ele><time>2026-04-26T12:14:04.598Z</time></trkpt><trkpt lat="46.1122076" lon="12.2007709"><ele>359.0</ele><time>2026-04-26T12:14:06.61Z</time></trkpt><trkpt lat="46.1121972" lon="12.2008796"><ele>359.8571428571429</ele><time>2026-04-26T12:14:08.609Z</time></trkpt><trkpt lat="46.1121875" lon="12.2009884"><ele>360.7142857142857</ele><time>2026-04-26T12:14:10.608Z</time></trkpt><trkpt lat="46.1121804" lon="12.2010923"><ele>361.57142857142856</ele><time>2026-04-26T12:14:12.624Z</time></trkpt><trkpt lat="46.1121756" lon="12.2011973"><ele>362.42857142857144</ele><time>2026-04-26T12:14:14.608Z</time></trkpt><trkpt lat="46.1121695" lon="12.2013004"><ele>363.2857142857143</ele><time>2026-04-26T12:14:16.61Z</time></trkpt><trkpt lat="46.1121578" lon="12.201395"><ele>364.14285714285717</ele><time>2026-04-26T12:14:18.626Z</time></trkpt><trkpt lat="46.1121511" lon="12.2014951"><ele>365.0</ele><time>2026-04-26T12:14:20.619Z</time></trkpt><trkpt lat="46.1121449" lon="12.2015934"><ele>365.42857142857144</ele><time>2026-04-26T12:14:22.636Z</time></trkpt><trkpt lat="46.1121392" lon="12.2016882"><ele>365.8571428571429</ele><time>2026-04-26T12:14:24.6Z</time></trkpt><trkpt lat="46.1121323" lon="12.2017806"><ele>366.28571428571433</ele><time>2026-04-26T12:14:26.627Z</time></trkpt><trkpt lat="46.1121189" lon="12.2018731"><ele>366.7142857142857</ele><time>2026-04-26T12:14:28.604Z</time></trkpt><trkpt lat="46.112103" lon="12.201967"><ele>367.1428571428571</ele><time>2026-04-26T12:14:30.625Z</time></trkpt><trkpt lat="46.1120845" lon="12.2020605"><ele>367.5714285714286</ele><time>2026-04-26T12:14:32.603Z</time></trkpt><trkpt lat="46.1120632" lon="12.2021528"><ele>368.0</ele><time>2026-04-26T12:14:34.601Z</time></trkpt><trkpt lat="46.1120451" lon="12.2022403"><ele>368.0</ele><time>2026-04-26T12:14:36.623Z</time></trkpt><trkpt lat="46.1120248" lon="12.2023284"><ele>368.0</ele><time>2026-04-26T12:14:38.609Z</time></trkpt><trkpt lat="46.112003" lon="12.2024182"><ele>368.0</ele><time>2026-04-26T12:14:40.609Z</time></trkpt><trkpt lat="46.1119833" lon="12.2025089"><ele>368.0</ele><time>2026-04-26T12:14:42.609Z</time></trkpt><trkpt lat="46.1119621" lon="12.2025954"><ele>368.0</ele><time>2026-04-26T12:14:44.608Z</time></trkpt><trkpt lat="46.1119427" lon="12.2026819"><ele>368.0</ele><time>2026-04-26T12:14:46.61Z</time></trkpt><trkpt lat="46.1119216" lon="12.2027675"><ele>368.0</ele><time>2026-04-26T12:14:48.61Z</time></trkpt><trkpt lat="46.1118946" lon="12.2028929"><ele>368.5714285714286</ele><time>2026-04-26T12:14:51.613Z</time></trkpt><trkpt lat="46.1118666" lon="12.2030239"><ele>369.1428571428571</ele><time>2026-04-26T12:14:54.609Z</time></trkpt><trkpt lat="46.1118521" lon="12.2031181"><ele>369.7142857142857</ele><time>2026-04-26T12:14:56.626Z</time></trkpt><trkpt lat="46.1118463" lon="12.2032147"><ele>370.28571428571433</ele><time>2026-04-26T12:14:58.613Z</time></trkpt><trkpt lat="46.1118412" lon="12.2033092"><ele>370.8571428571429</ele><time>2026-04-26T12:15:00.608Z</time></trkpt><trkpt lat="46.1118507" lon="12.2034017"><ele>371.42857142857144</ele><time>2026-04-26T12:15:02.602Z</time></trkpt><trkpt lat="46.1118677" lon="12.2034957"><ele>372.0</ele><time>2026-04-26T12:15:04.634Z</time></trkpt><trkpt lat="46.1118925" lon="12.2035966"><ele>372.3333333333333</ele><time>2026-04-26T12:15:06.606Z</time></trkpt><trkpt lat="46.1119224" lon="12.2036981"><ele>372.6666666666667</ele><time>2026-04-26T12:15:08.609Z</time></trkpt><trkpt lat="46.1119542" lon="12.2037981"><ele>373.0</ele><time>2026-04-26T12:15:10.596Z</time></trkpt><trkpt lat="46.1119857" lon="12.2038948"><ele>373.33333333333337</ele><time>2026-04-26T12:15:12.602Z</time></trkpt><trkpt lat="46.1120142" lon="12.2039945"><ele>373.6666666666667</ele><time>2026-04-26T12:15:14.61Z</time></trkpt><trkpt lat="46.1120448" lon="12.2040929"><ele>374.0</ele><time>2026-04-26T12:15:16.606Z</time></trkpt><trkpt lat="46.1120763" lon="12.2041893"><ele>374.5</ele><time>2026-04-26T12:15:18.633Z</time></trkpt><trkpt lat="46.112108" lon="12.2042865"><ele>375.0</ele><time>2026-04-26T12:15:20.609Z</time></trkpt><trkpt lat="46.1121382" lon="12.2043846"><ele>375.5</ele><time>2026-04-26T12:15:22.602Z</time></trkpt><trkpt lat="46.1121679" lon="12.2044869"><ele>376.0</ele><time>2026-04-26T12:15:24.606Z</time></trkpt><trkpt lat="46.1122017" lon="12.2045912"><ele>376.5</ele><time>2026-04-26T12:15:26.68Z</time></trkpt><trkpt lat="46.1122341" lon="12.2046946"><ele>377.0</ele><time>2026-04-26T12:15:28.602Z</time></trkpt><trkpt lat="46.112264" lon="12.2047946"><ele>377.1666666666667</ele><time>2026-04-26T12:15:30.61Z</time></trkpt><trkpt lat="46.1122963" lon="12.2048947"><ele>377.33333333333337</ele><time>2026-04-26T12:15:32.606Z</time></trkpt><trkpt lat="46.1123252" lon="12.204995"><ele>377.5</ele><time>2026-04-26T12:15:34.612Z</time></trkpt><trkpt lat="46.1123536" lon="12.2050957"><ele>377.6666666666667</ele><time>2026-04-26T12:15:36.611Z</time></trkpt><trkpt lat="46.112377" lon="12.2051992"><ele>377.8333333333333</ele><time>2026-04-26T12:15:38.61Z</time></trkpt><trkpt lat="46.1124023" lon="12.2052917"><ele>378.0</ele><time>2026-04-26T12:15:40.603Z</time></trkpt><trkpt lat="46.1124331" lon="12.2054033"><ele>378.59999999999997</ele><time>2026-04-26T12:15:42.596Z</time></trkpt><trkpt lat="46.1124633" lon="12.2055237"><ele>379.2</ele><time>2026-04-26T12:15:44.621Z</time></trkpt><trkpt lat="46.1125006" lon="12.2056496"><ele>379.8</ele><time>2026-04-26T12:15:46.629Z</time></trkpt><trkpt lat="46.1125337" lon="12.2057804"><ele>380.4</ele><time>2026-04-26T12:15:48.609Z</time></trkpt><trkpt lat="46.1125473" lon="12.2059206"><ele>381.0</ele><time>2026-04-26T12:15:50.61Z</time></trkpt><trkpt lat="46.1125454" lon="12.2060612"><ele>381.0</ele><time>2026-04-26T12:15:52.602Z</time></trkpt><trkpt lat="46.1125176" lon="12.2062007"><ele>381.0</ele><time>2026-04-26T12:15:54.601Z</time></trkpt><trkpt lat="46.1124665" lon="12.2063302"><ele>381.0</ele><time>2026-04-26T12:15:56.609Z</time></trkpt><trkpt lat="46.1124065" lon="12.2064529"><ele>381.0</ele><time>2026-04-26T12:15:58.609Z</time></trkpt><trkpt lat="46.1123393" lon="12.2065895"><ele>381.0</ele><time>2026-04-26T12:16:00.612Z</time></trkpt><trkpt lat="46.112262" lon="12.2067223"><ele>380.57142857142856</ele><time>2026-04-26T12:16:02.599Z</time></trkpt><trkpt lat="46.1122232" lon="12.2067942"><ele>380.14285714285717</ele><time>2026-04-26T12:16:03.608Z</time></trkpt><trkpt lat="46.1121871" lon="12.2068699"><ele>379.7142857142857</ele><time>2026-04-26T12:16:04.599Z</time></trkpt><trkpt lat="46.1121462" lon="12.2069517"><ele>379.2857142857143</ele><time>2026-04-26T12:16:05.6Z</time></trkpt><trkpt lat="46.112071" lon="12.2070864"><ele>378.8571428571429</ele><time>2026-04-26T12:16:07.623Z</time></trkpt><trkpt lat="46.1120278" lon="12.2071587"><ele>378.42857142857144</ele><time>2026-04-26T12:16:08.609Z</time></trkpt><trkpt lat="46.1119811" lon="12.2072248"><ele>378.0</ele><time>2026-04-26T12:16:09.6Z</time></trkpt><trkpt lat="46.1119347" lon="12.2072871"><ele>378.79999999999995</ele><time>2026-04-26T12:16:10.606Z</time></trkpt><trkpt lat="46.1118837" lon="12.2073511"><ele>379.6</ele><time>2026-04-26T12:16:11.634Z</time></trkpt><trkpt lat="46.1117878" lon="12.2074526"><ele>380.4</ele><time>2026-04-26T12:16:13.608Z</time></trkpt><trkpt lat="46.1116885" lon="12.2075451"><ele>381.20000000000005</ele><time>2026-04-26T12:16:15.607Z</time></trkpt><trkpt lat="46.1115869" lon="12.2076361"><ele>382.0</ele><time>2026-04-26T12:16:17.603Z</time></trkpt><trkpt lat="46.1114935" lon="12.207721"><ele>382.40000000000003</ele><time>2026-04-26T12:16:19.609Z</time></trkpt><trkpt lat="46.1114014" lon="12.2077911"><ele>382.8</ele><time>2026-04-26T12:16:21.639Z</time></trkpt><trkpt lat="46.1113167" lon="12.2078578"><ele>383.2</ele><time>2026-04-26T12:16:23.609Z</time></trkpt><trkpt lat="46.1112326" lon="12.2079252"><ele>383.6</ele><time>2026-04-26T12:16:25.607Z</time></trkpt><trkpt lat="46.1111582" lon="12.2079965"><ele>384.0</ele><time>2026-04-26T12:16:27.6Z</time></trkpt><trkpt lat="46.1110862" lon="12.2080686"><ele>384.0</ele><time>2026-04-26T12:16:29.599Z</time></trkpt><trkpt lat="46.1110248" lon="12.2081377"><ele>384.0</ele><time>2026-04-26T12:16:31.61Z</time></trkpt><trkpt lat="46.1109569" lon="12.2082071"><ele>384.0</ele><time>2026-04-26T12:16:33.608Z</time></trkpt><trkpt lat="46.1108923" lon="12.2082789"><ele>384.0</ele><time>2026-04-26T12:16:35.597Z</time></trkpt><trkpt lat="46.11083" lon="12.2083514"><ele>384.0</ele><time>2026-04-26T12:16:37.605Z</time></trkpt><trkpt lat="46.11077" lon="12.2084239"><ele>384.0</ele><time>2026-04-26T12:16:39.611Z</time></trkpt><trkpt lat="46.110708" lon="12.2084935"><ele>385.1666666666667</ele><time>2026-04-26T12:16:41.609Z</time></trkpt><trkpt lat="46.1106463" lon="12.2085641"><ele>386.33333333333337</ele><time>2026-04-26T12:16:43.609Z</time></trkpt><trkpt lat="46.1105869" lon="12.2086391"><ele>387.5</ele><time>2026-04-26T12:16:45.604Z</time></trkpt><trkpt lat="46.1105252" lon="12.2087009"><ele>388.6666666666667</ele><time>2026-04-26T12:16:47.611Z</time></trkpt><trkpt lat="46.1104639" lon="12.208762"><ele>389.83333333333337</ele><time>2026-04-26T12:16:49.608Z</time></trkpt><trkpt lat="46.1104047" lon="12.2088267"><ele>391.0</ele><time>2026-04-26T12:16:51.609Z</time></trkpt><trkpt lat="46.1103476" lon="12.2088897"><ele>390.99999999999994</ele><time>2026-04-26T12:16:53.608Z</time></trkpt><trkpt lat="46.1102848" lon="12.208949"><ele>391.0</ele><time>2026-04-26T12:16:55.609Z</time></trkpt><trkpt lat="46.110224" lon="12.2090159"><ele>391.0</ele><time>2026-04-26T12:16:57.61Z</time></trkpt><trkpt lat="46.1101683" lon="12.2090805"><ele>391.0</ele><time>2026-04-26T12:16:59.608Z</time></trkpt><trkpt lat="46.1101228" lon="12.209152"><ele>391.0</ele><time>2026-04-26T12:17:01.602Z</time></trkpt><trkpt lat="46.1100867" lon="12.2092473"><ele>390.99999999999994</ele><time>2026-04-26T12:17:03.609Z</time></trkpt><trkpt lat="46.1100537" lon="12.2093357"><ele>391.0</ele><time>2026-04-26T12:17:05.601Z</time></trkpt><trkpt lat="46.1100236" lon="12.2094408"><ele>392.33333333333337</ele><time>2026-04-26T12:17:07.609Z</time></trkpt><trkpt lat="46.1099915" lon="12.2095373"><ele>393.6666666666667</ele><time>2026-04-26T12:17:09.602Z</time></trkpt><trkpt lat="46.1099608" lon="12.2096378"><ele>395.0</ele><time>2026-04-26T12:17:11.609Z</time></trkpt><trkpt lat="46.1099273" lon="12.2097452"><ele>396.33333333333337</ele><time>2026-04-26T12:17:13.599Z</time></trkpt><trkpt lat="46.1098901" lon="12.209859"><ele>397.6666666666667</ele><time>2026-04-26T12:17:15.61Z</time></trkpt><trkpt lat="46.1098528" lon="12.2099886"><ele>399.0</ele><time>2026-04-26T12:17:17.601Z</time></trkpt><trkpt lat="46.1098087" lon="12.2101127"><ele>399.4</ele><time>2026-04-26T12:17:19.61Z</time></trkpt><trkpt lat="46.1097654" lon="12.2102316"><ele>399.79999999999995</ele><time>2026-04-26T12:17:21.607Z</time></trkpt><trkpt lat="46.1097112" lon="12.2103515"><ele>400.20000000000005</ele><time>2026-04-26T12:17:23.609Z</time></trkpt><trkpt lat="46.1096397" lon="12.2104705"><ele>400.6</ele><time>2026-04-26T12:17:25.607Z</time></trkpt><trkpt lat="46.1095556" lon="12.2105997"><ele>401.0</ele><time>2026-04-26T12:17:27.61Z</time></trkpt><trkpt lat="46.1095137" lon="12.2106687"><ele>400.99999999999994</ele><time>2026-04-26T12:17:28.61Z</time></trkpt><trkpt lat="46.109469" lon="12.2107429"><ele>401.0</ele><time>2026-04-26T12:17:29.608Z</time></trkpt><trkpt lat="46.1094259" lon="12.2108269"><ele>401.0</ele><time>2026-04-26T12:17:30.609Z</time></trkpt><trkpt lat="46.1093858" lon="12.2109132"><ele>401.0</ele><time>2026-04-26T12:17:31.609Z</time></trkpt><trkpt lat="46.109345" lon="12.2110105"><ele>400.99999999999994</ele><time>2026-04-26T12:17:32.624Z</time></trkpt><trkpt lat="46.109308" lon="12.2111087"><ele>401.0</ele><time>2026-04-26T12:17:33.605Z</time></trkpt><trkpt lat="46.1092725" lon="12.2112145"><ele>400.99999999999994</ele><time>2026-04-26T12:17:34.605Z</time></trkpt><trkpt lat="46.1092386" lon="12.211319"><ele>401.0</ele><time>2026-04-26T12:17:35.61Z</time></trkpt><trkpt lat="46.1092052" lon="12.211425"><ele>401.0</ele><time>2026-04-26T12:17:36.61Z</time></trkpt><trkpt lat="46.1091692" lon="12.2115336"><ele>401.0</ele><time>2026-04-26T12:17:37.612Z</time></trkpt><trkpt lat="46.1091321" lon="12.2116366"><ele>400.99999999999994</ele><time>2026-04-26T12:17:38.61Z</time></trkpt><trkpt lat="46.1090948" lon="12.2117477"><ele>401.0</ele><time>2026-04-26T12:17:39.61Z</time></trkpt><trkpt lat="46.1090584" lon="12.2118589"><ele>399.8333333333333</ele><time>2026-04-26T12:17:40.609Z</time></trkpt><trkpt lat="46.1090149" lon="12.2119694"><ele>398.66666666666663</ele><time>2026-04-26T12:17:41.599Z</time></trkpt><trkpt lat="46.1089765" lon="12.2120727"><ele>397.5</ele><time>2026-04-26T12:17:42.629Z</time></trkpt><trkpt lat="46.1089292" lon="12.212175"><ele>396.33333333333337</ele><time>2026-04-26T12:17:43.61Z</time></trkpt><trkpt lat="46.1088758" lon="12.2122729"><ele>395.1666666666667</ele><time>2026-04-26T12:17:44.609Z</time></trkpt><trkpt lat="46.1088189" lon="12.2123525"><ele>394.0</ele><time>2026-04-26T12:17:45.609Z</time></trkpt><trkpt lat="46.1087553" lon="12.2124294"><ele>394.0</ele><time>2026-04-26T12:17:46.624Z</time></trkpt><trkpt lat="46.1086976" lon="12.2125015"><ele>394.0</ele><time>2026-04-26T12:17:47.606Z</time></trkpt><trkpt lat="46.1086373" lon="12.2125647"><ele>394.0</ele><time>2026-04-26T12:17:48.602Z</time></trkpt><trkpt lat="46.1085727" lon="12.2126252"><ele>394.0</ele><time>2026-04-26T12:17:49.607Z</time></trkpt><trkpt lat="46.1085135" lon="12.2126872"><ele>394.0</ele><time>2026-04-26T12:17:50.6Z</time></trkpt><trkpt lat="46.1084561" lon="12.2127483"><ele>394.0</ele><time>2026-04-26T12:17:51.636Z</time></trkpt><trkpt lat="46.1084" lon="12.2128061"><ele>394.0</ele><time>2026-04-26T12:17:52.608Z</time></trkpt><trkpt lat="46.1083451" lon="12.2128627"><ele>394.00000000000006</ele><time>2026-04-26T12:17:53.611Z</time></trkpt><trkpt lat="46.1082927" lon="12.2129194"><ele>394.0</ele><time>2026-04-26T12:17:54.605Z</time></trkpt><trkpt lat="46.1082434" lon="12.2129784"><ele>394.0</ele><time>2026-04-26T12:17:55.602Z</time></trkpt><trkpt lat="46.1081481" lon="12.2130887"><ele>394.0</ele><time>2026-04-26T12:17:57.601Z</time></trkpt><trkpt lat="46.1080529" lon="12.2131935"><ele>394.00000000000006</ele><time>2026-04-26T12:17:59.599Z</time></trkpt><trkpt lat="46.1080032" lon="12.2132517"><ele>394.0</ele><time>2026-04-26T12:18:00.62Z</time></trkpt><trkpt lat="46.1079564" lon="12.2133158"><ele>394.0</ele><time>2026-04-26T12:18:01.594Z</time></trkpt><trkpt lat="46.1078695" lon="12.213442"><ele>394.0</ele><time>2026-04-26T12:18:03.604Z</time></trkpt><trkpt lat="46.1077795" lon="12.2135645"><ele>394.0</ele><time>2026-04-26T12:18:05.602Z</time></trkpt><trkpt lat="46.1076888" lon="12.2136731"><ele>394.0</ele><time>2026-04-26T12:18:07.598Z</time></trkpt><trkpt lat="46.1076051" lon="12.2137747"><ele>394.0</ele><time>2026-04-26T12:18:09.599Z</time></trkpt><trkpt lat="46.1075262" lon="12.2138822"><ele>394.0</ele><time>2026-04-26T12:18:11.628Z</time></trkpt><trkpt lat="46.1074448" lon="12.2139907"><ele>394.0</ele><time>2026-04-26T12:18:13.608Z</time></trkpt><trkpt lat="46.1073627" lon="12.2140962"><ele>394.0</ele><time>2026-04-26T12:18:15.6Z</time></trkpt><trkpt lat="46.1072872" lon="12.2142078"><ele>394.0</ele><time>2026-04-26T12:18:17.61Z</time></trkpt><trkpt lat="46.1072098" lon="12.2143235"><ele>394.6</ele><time>2026-04-26T12:18:19.609Z</time></trkpt><trkpt lat="46.1071315" lon="12.2144301"><ele>395.2</ele><time>2026-04-26T12:18:21.62Z</time></trkpt><trkpt lat="46.107064" lon="12.2145435"><ele>395.8</ele><time>2026-04-26T12:18:23.626Z</time></trkpt><trkpt lat="46.1069933" lon="12.2146532"><ele>396.40000000000003</ele><time>2026-04-26T12:18:25.602Z</time></trkpt><trkpt lat="46.1069271" lon="12.2147592"><ele>397.0</ele><time>2026-04-26T12:18:27.598Z</time></trkpt><trkpt lat="46.1068644" lon="12.2148611"><ele>397.6</ele><time>2026-04-26T12:18:29.6Z</time></trkpt><trkpt lat="46.1067998" lon="12.2149792"><ele>398.20000000000005</ele><time>2026-04-26T12:18:31.617Z</time></trkpt><trkpt lat="46.1067362" lon="12.2151001"><ele>398.8</ele><time>2026-04-26T12:18:33.626Z</time></trkpt><trkpt lat="46.1066697" lon="12.2152145"><ele>399.4</ele><time>2026-04-26T12:18:35.618Z</time></trkpt><trkpt lat="46.1066056" lon="12.215332"><ele>400.0</ele><time>2026-04-26T12:18:37.609Z</time></trkpt><trkpt lat="46.1065411" lon="12.2154437"><ele>399.4</ele><time>2026-04-26T12:18:39.609Z</time></trkpt><trkpt lat="46.1064726" lon="12.2155516"><ele>398.8</ele><time>2026-04-26T12:18:41.605Z</time></trkpt><trkpt lat="46.1064069" lon="12.2156611"><ele>398.20000000000005</ele><time>2026-04-26T12:18:43.598Z</time></trkpt><trkpt lat="46.1063423" lon="12.215773"><ele>397.6</ele><time>2026-04-26T12:18:45.599Z</time></trkpt><trkpt lat="46.10628" lon="12.2158893"><ele>397.0</ele><time>2026-04-26T12:18:47.61Z</time></trkpt><trkpt lat="46.1062171" lon="12.2160047"><ele>397.0</ele><time>2026-04-26T12:18:49.608Z</time></trkpt><trkpt lat="46.1061169" lon="12.2161746"><ele>397.0</ele><time>2026-04-26T12:18:52.603Z</time></trkpt><trkpt lat="46.1060454" lon="12.2162837"><ele>397.0</ele><time>2026-04-26T12:18:54.633Z</time></trkpt><trkpt lat="46.1059782" lon="12.2163968"><ele>397.0</ele><time>2026-04-26T12:18:56.635Z</time></trkpt><trkpt lat="46.105918" lon="12.2165114"><ele>398.6</ele><time>2026-04-26T12:18:58.61Z</time></trkpt><trkpt lat="46.1058652" lon="12.2166366"><ele>400.20000000000005</ele><time>2026-04-26T12:19:00.603Z</time></trkpt><trkpt lat="46.1058187" lon="12.2167631"><ele>401.8</ele><time>2026-04-26T12:19:02.601Z</time></trkpt><trkpt lat="46.1057895" lon="12.216889"><ele>403.4</ele><time>2026-04-26T12:19:04.609Z</time></trkpt><trkpt lat="46.1057553" lon="12.2170165"><ele>405.0</ele><time>2026-04-26T12:19:06.607Z</time></trkpt><trkpt lat="46.1057172" lon="12.2171429"><ele>402.0</ele><time>2026-04-26T12:19:08.606Z</time></trkpt><trkpt lat="46.1056989" lon="12.2172742"><ele>399.0</ele><time>2026-04-26T12:19:10.614Z</time></trkpt><trkpt lat="46.105687" lon="12.2174068"><ele>396.0</ele><time>2026-04-26T12:19:12.606Z</time></trkpt><trkpt lat="46.1056546" lon="12.217546"><ele>393.0</ele><time>2026-04-26T12:19:14.603Z</time></trkpt><trkpt lat="46.1056231" lon="12.217697"><ele>390.0</ele><time>2026-04-26T12:19:16.604Z</time></trkpt><trkpt lat="46.1055927" lon="12.2178326"><ele>390.0</ele><time>2026-04-26T12:19:18.608Z</time></trkpt><trkpt lat="46.1055632" lon="12.2179758"><ele>390.0</ele><time>2026-04-26T12:19:20.608Z</time></trkpt><trkpt lat="46.1055305" lon="12.2181205"><ele>390.0</ele><time>2026-04-26T12:19:22.61Z</time></trkpt><trkpt lat="46.1055031" lon="12.2182574"><ele>390.0</ele><time>2026-04-26T12:19:24.604Z</time></trkpt><trkpt lat="46.1054691" lon="12.2184047"><ele>390.0</ele><time>2026-04-26T12:19:26.608Z</time></trkpt><trkpt lat="46.1054355" lon="12.2185548"><ele>390.8</ele><time>2026-04-26T12:19:28.608Z</time></trkpt><trkpt lat="46.1054014" lon="12.2186973"><ele>391.6</ele><time>2026-04-26T12:19:30.604Z</time></trkpt><trkpt lat="46.1053685" lon="12.2188517"><ele>392.4</ele><time>2026-04-26T12:19:32.61Z</time></trkpt><trkpt lat="46.1053337" lon="12.2189945"><ele>393.2</ele><time>2026-04-26T12:19:34.608Z</time></trkpt><trkpt lat="46.105301" lon="12.2191354"><ele>394.0</ele><time>2026-04-26T12:19:36.608Z</time></trkpt><trkpt lat="46.105258" lon="12.2192698"><ele>395.79999999999995</ele><time>2026-04-26T12:19:38.605Z</time></trkpt><trkpt lat="46.1052046" lon="12.2193923"><ele>397.59999999999997</ele><time>2026-04-26T12:19:40.608Z</time></trkpt><trkpt lat="46.1051419" lon="12.2195073"><ele>399.4</ele><time>2026-04-26T12:19:42.608Z</time></trkpt><trkpt lat="46.1050773" lon="12.2196309"><ele>401.2</ele><time>2026-04-26T12:19:44.613Z</time></trkpt><trkpt lat="46.1050117" lon="12.2197475"><ele>403.0</ele><time>2026-04-26T12:19:46.606Z</time></trkpt><trkpt lat="46.1049483" lon="12.2198588"><ele>402.0</ele><time>2026-04-26T12:19:48.599Z</time></trkpt><trkpt lat="46.104885" lon="12.2199768"><ele>401.0</ele><time>2026-04-26T12:19:50.609Z</time></trkpt><trkpt lat="46.1048182" lon="12.2200906"><ele>400.0</ele><time>2026-04-26T12:19:52.599Z</time></trkpt><trkpt lat="46.1047449" lon="12.2202004"><ele>399.0</ele><time>2026-04-26T12:19:54.613Z</time></trkpt><trkpt lat="46.1046852" lon="12.2203192"><ele>398.0</ele><time>2026-04-26T12:19:56.609Z</time></trkpt><trkpt lat="46.1046439" lon="12.2204564"><ele>398.0</ele><time>2026-04-26T12:19:58.602Z</time></trkpt><trkpt lat="46.1046389" lon="12.2206013"><ele>398.0</ele><time>2026-04-26T12:20:00.609Z</time></trkpt><trkpt lat="46.1046595" lon="12.2207487"><ele>398.0</ele><time>2026-04-26T12:20:02.609Z</time></trkpt><trkpt lat="46.104703" lon="12.220888"><ele>398.0</ele><time>2026-04-26T12:20:04.6Z</time></trkpt><trkpt lat="46.10475" lon="12.2210215"><ele>398.0</ele><time>2026-04-26T12:20:06.608Z</time></trkpt><trkpt lat="46.1047997" lon="12.2211693"><ele>402.0</ele><time>2026-04-26T12:20:08.623Z</time></trkpt><trkpt lat="46.1048477" lon="12.221323"><ele>406.0</ele><time>2026-04-26T12:20:10.608Z</time></trkpt><trkpt lat="46.1049008" lon="12.2214761"><ele>410.0</ele><time>2026-04-26T12:20:12.601Z</time></trkpt><trkpt lat="46.1049503" lon="12.2216401"><ele>414.0</ele><time>2026-04-26T12:20:14.609Z</time></trkpt><trkpt lat="46.1049998" lon="12.2217995"><ele>414.5</ele><time>2026-04-26T12:20:16.609Z</time></trkpt><trkpt lat="46.1050304" lon="12.2219605"><ele>415.0</ele><time>2026-04-26T12:20:18.609Z</time></trkpt><trkpt lat="46.1049807" lon="12.2221062"><ele>415.5</ele><time>2026-04-26T12:20:20.601Z</time></trkpt><trkpt lat="46.1048986" lon="12.2222248"><ele>416.0</ele><time>2026-04-26T12:20:22.61Z</time></trkpt><trkpt lat="46.1047999" lon="12.2223185"><ele>416.75</ele><time>2026-04-26T12:20:24.599Z</time></trkpt><trkpt lat="46.1046944" lon="12.2224075"><ele>417.5</ele><time>2026-04-26T12:20:26.602Z</time></trkpt><trkpt lat="46.104591" lon="12.2224946"><ele>418.25</ele><time>2026-04-26T12:20:28.606Z</time></trkpt><trkpt lat="46.1044887" lon="12.2225725"><ele>419.0</ele><time>2026-04-26T12:20:30.609Z</time></trkpt><trkpt lat="46.1043913" lon="12.2226411"><ele>419.0</ele><time>2026-04-26T12:20:32.609Z</time></trkpt><trkpt lat="46.1042918" lon="12.222692"><ele>419.0</ele><time>2026-04-26T12:20:34.608Z</time></trkpt><trkpt lat="46.1041876" lon="12.2227064"><ele>419.0</ele><time>2026-04-26T12:20:36.599Z</time></trkpt><trkpt lat="46.1040954" lon="12.2227123"><ele>419.0</ele><time>2026-04-26T12:20:38.598Z</time></trkpt><trkpt lat="46.1040018" lon="12.2227126"><ele>419.0</ele><time>2026-04-26T12:20:40.609Z</time></trkpt><trkpt lat="46.103919" lon="12.222731"><ele>419.3333333333333</ele><time>2026-04-26T12:20:42.621Z</time></trkpt><trkpt lat="46.1038451" lon="12.2227639"><ele>419.66666666666663</ele><time>2026-04-26T12:20:44.599Z</time></trkpt><trkpt lat="46.1037769" lon="12.2228132"><ele>420.0</ele><time>2026-04-26T12:20:46.61Z</time></trkpt><trkpt lat="46.1037116" lon="12.2228741"><ele>420.33333333333337</ele><time>2026-04-26T12:20:48.599Z</time></trkpt><trkpt lat="46.1036474" lon="12.2229422"><ele>420.6666666666667</ele><time>2026-04-26T12:20:50.609Z</time></trkpt><trkpt lat="46.103582" lon="12.2230156"><ele>421.0</ele><time>2026-04-26T12:20:52.602Z</time></trkpt><trkpt lat="46.1035161" lon="12.223093"><ele>421.33333333333337</ele><time>2026-04-26T12:20:54.608Z</time></trkpt><trkpt lat="46.1034472" lon="12.2231711"><ele>421.6666666666667</ele><time>2026-04-26T12:20:56.609Z</time></trkpt><trkpt lat="46.1033795" lon="12.2232512"><ele>422.0</ele><time>2026-04-26T12:20:58.607Z</time></trkpt><trkpt lat="46.1033127" lon="12.2233256"><ele>422.33333333333337</ele><time>2026-04-26T12:21:00.625Z</time></trkpt><trkpt lat="46.103243" lon="12.2234045"><ele>422.6666666666667</ele><time>2026-04-26T12:21:02.61Z</time></trkpt><trkpt lat="46.1031722" lon="12.2234867"><ele>423.0</ele><time>2026-04-26T12:21:04.609Z</time></trkpt><trkpt lat="46.103097" lon="12.2235565"><ele>423.3333333333333</ele><time>2026-04-26T12:21:06.603Z</time></trkpt><trkpt lat="46.1030215" lon="12.223627"><ele>423.66666666666663</ele><time>2026-04-26T12:21:08.607Z</time></trkpt><trkpt lat="46.1029482" lon="12.2236996"><ele>424.0</ele><time>2026-04-26T12:21:10.599Z</time></trkpt><trkpt lat="46.1028795" lon="12.2237754"><ele>424.3333333333333</ele><time>2026-04-26T12:21:12.609Z</time></trkpt><trkpt lat="46.1028141" lon="12.2238544"><ele>424.66666666666663</ele><time>2026-04-26T12:21:14.6Z</time></trkpt><trkpt lat="46.102748" lon="12.2239292"><ele>425.0</ele><time>2026-04-26T12:21:16.61Z</time></trkpt><trkpt lat="46.102683" lon="12.2240073"><ele>425.8333333333333</ele><time>2026-04-26T12:21:18.604Z</time></trkpt><trkpt lat="46.1026254" lon="12.2240838"><ele>426.66666666666663</ele><time>2026-04-26T12:21:20.608Z</time></trkpt><trkpt lat="46.1025813" lon="12.2241726"><ele>427.5</ele><time>2026-04-26T12:21:22.602Z</time></trkpt><trkpt lat="46.1025924" lon="12.2242709"><ele>428.33333333333337</ele><time>2026-04-26T12:21:24.601Z</time></trkpt><trkpt lat="46.1026569" lon="12.2243085"><ele>429.1666666666667</ele><time>2026-04-26T12:21:26.607Z</time></trkpt><trkpt lat="46.102733" lon="12.2243115"><ele>430.0</ele><time>2026-04-26T12:21:28.607Z</time></trkpt><trkpt lat="46.1028146" lon="12.2243109"><ele>430.00000000000006</ele><time>2026-04-26T12:21:30.6Z</time></trkpt><trkpt lat="46.1028949" lon="12.2243161"><ele>430.0</ele><time>2026-04-26T12:21:32.61Z</time></trkpt><trkpt lat="46.102977" lon="12.2243323"><ele>430.0</ele><time>2026-04-26T12:21:34.603Z</time></trkpt><trkpt lat="46.1030594" lon="12.2243612"><ele>430.0</ele><time>2026-04-26T12:21:36.608Z</time></trkpt><trkpt lat="46.1031417" lon="12.2243971"><ele>430.00000000000006</ele><time>2026-04-26T12:21:38.608Z</time></trkpt><trkpt lat="46.1032222" lon="12.2244312"><ele>430.0</ele><time>2026-04-26T12:21:40.607Z</time></trkpt><trkpt lat="46.1033027" lon="12.22447"><ele>429.6666666666667</ele><time>2026-04-26T12:21:42.6Z</time></trkpt><trkpt lat="46.1033852" lon="12.2245061"><ele>429.33333333333337</ele><time>2026-04-26T12:21:44.61Z</time></trkpt><trkpt lat="46.1034682" lon="12.2245326"><ele>429.0</ele><time>2026-04-26T12:21:46.609Z</time></trkpt><trkpt lat="46.1035522" lon="12.2245512"><ele>428.66666666666663</ele><time>2026-04-26T12:21:48.601Z</time></trkpt><trkpt lat="46.1036377" lon="12.2245634"><ele>428.3333333333333</ele><time>2026-04-26T12:21:50.595Z</time></trkpt><trkpt lat="46.1037208" lon="12.2245829"><ele>428.0</ele><time>2026-04-26T12:21:52.597Z</time></trkpt><trkpt lat="46.1037993" lon="12.2246145"><ele>427.99999999999994</ele><time>2026-04-26T12:21:54.597Z</time></trkpt><trkpt lat="46.10388" lon="12.2246426"><ele>428.0</ele><time>2026-04-26T12:21:56.598Z</time></trkpt><trkpt lat="46.1039587" lon="12.2246786"><ele>428.0</ele><time>2026-04-26T12:21:58.635Z</time></trkpt><trkpt lat="46.1040359" lon="12.2247209"><ele>428.0</ele><time>2026-04-26T12:22:00.601Z</time></trkpt><trkpt lat="46.1041123" lon="12.2247641"><ele>427.99999999999994</ele><time>2026-04-26T12:22:02.599Z</time></trkpt><trkpt lat="46.1041875" lon="12.2248088"><ele>428.0</ele><time>2026-04-26T12:22:04.624Z</time></trkpt><trkpt lat="46.1042648" lon="12.2248531"><ele>428.99999999999994</ele><time>2026-04-26T12:22:06.611Z</time></trkpt><trkpt lat="46.1043443" lon="12.224895"><ele>430.0</ele><time>2026-04-26T12:22:08.611Z</time></trkpt><trkpt lat="46.1044229" lon="12.2249396"><ele>431.0</ele><time>2026-04-26T12:22:10.601Z</time></trkpt><trkpt lat="46.1045025" lon="12.2249849"><ele>432.0</ele><time>2026-04-26T12:22:12.606Z</time></trkpt><trkpt lat="46.1045814" lon="12.2250302"><ele>432.99999999999994</ele><time>2026-04-26T12:22:14.601Z</time></trkpt><trkpt lat="46.1046622" lon="12.2250716"><ele>434.0</ele><time>2026-04-26T12:22:16.6Z</time></trkpt><trkpt lat="46.1047413" lon="12.2251135"><ele>433.99999999999994</ele><time>2026-04-26T12:22:18.601Z</time></trkpt><trkpt lat="46.1048201" lon="12.2251616"><ele>434.0</ele><time>2026-04-26T12:22:20.601Z</time></trkpt><trkpt lat="46.1048995" lon="12.2252038"><ele>434.0</ele><time>2026-04-26T12:22:22.604Z</time></trkpt><trkpt lat="46.1049746" lon="12.2252489"><ele>434.0</ele><time>2026-04-26T12:22:24.6Z</time></trkpt><trkpt lat="46.105039" lon="12.2253045"><ele>433.99999999999994</ele><time>2026-04-26T12:22:26.6Z</time></trkpt><trkpt lat="46.1050969" lon="12.2253641"><ele>434.0</ele><time>2026-04-26T12:22:28.602Z</time></trkpt><trkpt lat="46.1050982" lon="12.2255021"><ele>434.42857142857144</ele><time>2026-04-26T12:22:31.607Z</time></trkpt><trkpt lat="46.1050581" lon="12.2255889"><ele>434.8571428571429</ele><time>2026-04-26T12:22:33.6Z</time></trkpt><trkpt lat="46.1050229" lon="12.2256658"><ele>435.2857142857143</ele><time>2026-04-26T12:22:35.602Z</time></trkpt><trkpt lat="46.1049881" lon="12.2257493"><ele>435.7142857142857</ele><time>2026-04-26T12:22:37.601Z</time></trkpt><trkpt lat="46.1049362" lon="12.2258539"><ele>436.14285714285717</ele><time>2026-04-26T12:22:40.604Z</time></trkpt><trkpt lat="46.1048979" lon="12.2259424"><ele>436.57142857142856</ele><time>2026-04-26T12:22:43.61Z</time></trkpt><trkpt lat="46.1048637" lon="12.2260374"><ele>437.0</ele><time>2026-04-26T12:22:46.596Z</time></trkpt><trkpt lat="46.1048301" lon="12.2261514"><ele>438.3333333333333</ele><time>2026-04-26T12:22:49.609Z</time></trkpt><trkpt lat="46.104797" lon="12.2262595"><ele>439.66666666666663</ele><time>2026-04-26T12:22:52.601Z</time></trkpt><trkpt lat="46.1047606" lon="12.2263624"><ele>441.0</ele><time>2026-04-26T12:22:55.599Z</time></trkpt><trkpt lat="46.1047282" lon="12.2264594"><ele>442.33333333333337</ele><time>2026-04-26T12:22:58.606Z</time></trkpt><trkpt lat="46.1046935" lon="12.2265618"><ele>443.6666666666667</ele><time>2026-04-26T12:23:01.605Z</time></trkpt><trkpt lat="46.1046602" lon="12.2266658"><ele>445.0</ele><time>2026-04-26T12:23:04.61Z</time></trkpt><trkpt lat="46.104631" lon="12.2267474"><ele>446.28571428571433</ele><time>2026-04-26T12:23:07.609Z</time></trkpt><trkpt lat="46.1046014" lon="12.2268322"><ele>447.57142857142856</ele><time>2026-04-26T12:23:10.609Z</time></trkpt><trkpt lat="46.1045635" lon="12.2269352"><ele>448.8571428571429</ele><time>2026-04-26T12:23:14.603Z</time></trkpt><trkpt lat="46.1045218" lon="12.2270076"><ele>450.14285714285717</ele><time>2026-04-26T12:23:18.608Z</time></trkpt><trkpt lat="46.104456" lon="12.2270817"><ele>451.42857142857144</ele><time>2026-04-26T12:23:22.602Z</time></trkpt><trkpt lat="46.1044026" lon="12.2271379"><ele>452.7142857142857</ele><time>2026-04-26T12:23:25.606Z</time></trkpt><trkpt lat="46.1043482" lon="12.2271971"><ele>454.0</ele><time>2026-04-26T12:23:28.603Z</time></trkpt><trkpt lat="46.1043022" lon="12.227265"><ele>454.7142857142857</ele><time>2026-04-26T12:23:31.607Z</time></trkpt><trkpt lat="46.1042644" lon="12.2273601"><ele>455.42857142857144</ele><time>2026-04-26T12:23:35.61Z</time></trkpt><trkpt lat="46.1042278" lon="12.2274641"><ele>456.14285714285717</ele><time>2026-04-26T12:23:40.599Z</time></trkpt><trkpt lat="46.1042037" lon="12.2275486"><ele>456.8571428571429</ele><time>2026-04-26T12:23:43.608Z</time></trkpt><trkpt lat="46.1041857" lon="12.2276594"><ele>457.57142857142856</ele><time>2026-04-26T12:23:47.608Z</time></trkpt><trkpt lat="46.1041666" lon="12.2277594"><ele>458.28571428571433</ele><time>2026-04-26T12:23:51.599Z</time></trkpt><trkpt lat="46.1041712" lon="12.2278537"><ele>459.0</ele><time>2026-04-26T12:23:54.63Z</time></trkpt><trkpt lat="46.1041808" lon="12.2279584"><ele>459.0</ele><time>2026-04-26T12:23:58.609Z</time></trkpt><trkpt lat="46.104178" lon="12.2280516"><ele>459.0</ele><time>2026-04-26T12:24:01.608Z</time></trkpt><trkpt lat="46.104184" lon="12.2281735"><ele>459.0</ele><time>2026-04-26T12:24:05.6Z</time></trkpt><trkpt lat="46.1041805" lon="12.2282691"><ele>459.0</ele><time>2026-04-26T12:24:08.6Z</time></trkpt><trkpt lat="46.1041693" lon="12.2283679"><ele>459.0</ele><time>2026-04-26T12:24:11.611Z</time></trkpt><trkpt lat="46.1041583" lon="12.2284865"><ele>459.0</ele><time>2026-04-26T12:24:14.597Z</time></trkpt><trkpt lat="46.1041591" lon="12.2286083"><ele>459.5</ele><time>2026-04-26T12:24:17.599Z</time></trkpt><trkpt lat="46.1041949" lon="12.2287029"><ele>460.0</ele><time>2026-04-26T12:24:19.599Z</time></trkpt><trkpt lat="46.1042352" lon="12.2287937"><ele>460.5</ele><time>2026-04-26T12:24:21.6Z</time></trkpt><trkpt lat="46.1042629" lon="12.2288845"><ele>461.0</ele><time>2026-04-26T12:24:23.634Z</time></trkpt><trkpt lat="46.1042718" lon="12.22898"><ele>461.5</ele><time>2026-04-26T12:24:25.602Z</time></trkpt><trkpt lat="46.1042381" lon="12.2291119"><ele>462.0</ele><time>2026-04-26T12:24:27.612Z</time></trkpt><trkpt lat="46.1042133" lon="12.2292734"><ele>462.0</ele><time>2026-04-26T12:24:29.599Z</time></trkpt><trkpt lat="46.1041953" lon="12.2294235"><ele>462.00000000000006</ele><time>2026-04-26T12:24:31.607Z</time></trkpt><trkpt lat="46.1041959" lon="12.2295718"><ele>462.00000000000006</ele><time>2026-04-26T12:24:33.604Z</time></trkpt><trkpt lat="46.1042217" lon="12.2297116"><ele>462.0</ele><time>2026-04-26T12:24:35.599Z</time></trkpt><trkpt lat="46.1042693" lon="12.2298236"><ele>462.0</ele><time>2026-04-26T12:24:37.608Z</time></trkpt><trkpt lat="46.104317" lon="12.2299438"><ele>461.6666666666667</ele><time>2026-04-26T12:24:39.611Z</time></trkpt><trkpt lat="46.1043671" lon="12.2300588"><ele>461.33333333333337</ele><time>2026-04-26T12:24:41.609Z</time></trkpt><trkpt lat="46.1044074" lon="12.2301706"><ele>461.0</ele><time>2026-04-26T12:24:43.6Z</time></trkpt><trkpt lat="46.1044381" lon="12.2302979"><ele>460.6666666666667</ele><time>2026-04-26T12:24:45.607Z</time></trkpt><trkpt lat="46.1044311" lon="12.2304095"><ele>460.33333333333337</ele><time>2026-04-26T12:24:47.608Z</time></trkpt><trkpt lat="46.1044107" lon="12.2305019"><ele>460.0</ele><time>2026-04-26T12:24:49.605Z</time></trkpt><trkpt lat="46.1043611" lon="12.230591"><ele>460.5714285714285</ele><time>2026-04-26T12:24:51.608Z</time></trkpt><trkpt lat="46.1043243" lon="12.2306749"><ele>461.1428571428571</ele><time>2026-04-26T12:24:53.609Z</time></trkpt><trkpt lat="46.1042731" lon="12.2307456"><ele>461.7142857142857</ele><time>2026-04-26T12:24:55.609Z</time></trkpt><trkpt lat="46.1042155" lon="12.2308325"><ele>462.2857142857143</ele><time>2026-04-26T12:24:58.606Z</time></trkpt><trkpt lat="46.1041658" lon="12.2309049"><ele>462.8571428571429</ele><time>2026-04-26T12:25:01.608Z</time></trkpt><trkpt lat="46.1041225" lon="12.2309792"><ele>463.4285714285715</ele><time>2026-04-26T12:25:04.607Z</time></trkpt><trkpt lat="46.1040629" lon="12.2310497"><ele>464.00000000000006</ele><time>2026-04-26T12:25:08.607Z</time></trkpt><trkpt lat="46.1040094" lon="12.2311077"><ele>465.49999999999994</ele><time>2026-04-26T12:25:11.606Z</time></trkpt><trkpt lat="46.1039457" lon="12.2311404"><ele>467.0</ele><time>2026-04-26T12:25:15.6Z</time></trkpt><trkpt lat="46.1038617" lon="12.2311622"><ele>468.5</ele><time>2026-04-26T12:25:19.6Z</time></trkpt><trkpt lat="46.1037759" lon="12.2311882"><ele>470.0</ele><time>2026-04-26T12:25:22.604Z</time></trkpt><trkpt lat="46.103691" lon="12.2312339"><ele>471.49999999999994</ele><time>2026-04-26T12:25:25.607Z</time></trkpt><trkpt lat="46.1036159" lon="12.2312965"><ele>473.0</ele><time>2026-04-26T12:25:28.608Z</time></trkpt><trkpt lat="46.103552" lon="12.2313767"><ele>472.99999999999994</ele><time>2026-04-26T12:25:31.607Z</time></trkpt><trkpt lat="46.1034986" lon="12.2314504"><ele>473.0</ele><time>2026-04-26T12:25:34.609Z</time></trkpt><trkpt lat="46.1034313" lon="12.2315562"><ele>473.0</ele><time>2026-04-26T12:25:38.607Z</time></trkpt><trkpt lat="46.1033768" lon="12.2316341"><ele>473.0</ele><time>2026-04-26T12:25:41.611Z</time></trkpt><trkpt lat="46.1033219" lon="12.2317214"><ele>472.99999999999994</ele><time>2026-04-26T12:25:44.63Z</time></trkpt><trkpt lat="46.1032968" lon="12.2318126"><ele>473.0</ele><time>2026-04-26T12:25:47.607Z</time></trkpt><trkpt lat="46.1033055" lon="12.2319028"><ele>473.7142857142857</ele><time>2026-04-26T12:25:50.609Z</time></trkpt><trkpt lat="46.1033178" lon="12.2320055"><ele>474.42857142857144</ele><time>2026-04-26T12:25:53.606Z</time></trkpt><trkpt lat="46.1033392" lon="12.232102"><ele>475.14285714285717</ele><time>2026-04-26T12:25:56.61Z</time></trkpt><trkpt lat="46.1033649" lon="12.2322026"><ele>475.8571428571429</ele><time>2026-04-26T12:25:59.599Z</time></trkpt><trkpt lat="46.1033832" lon="12.2323033"><ele>476.57142857142856</ele><time>2026-04-26T12:26:02.601Z</time></trkpt><trkpt lat="46.1033973" lon="12.2323933"><ele>477.28571428571433</ele><time>2026-04-26T12:26:05.607Z</time></trkpt><trkpt lat="46.1034113" lon="12.2325144"><ele>478.00000000000006</ele><time>2026-04-26T12:26:08.608Z</time></trkpt><trkpt lat="46.1034367" lon="12.2326164"><ele>479.33333333333337</ele><time>2026-04-26T12:26:11.606Z</time></trkpt><trkpt lat="46.1034615" lon="12.2327161"><ele>480.6666666666667</ele><time>2026-04-26T12:26:14.609Z</time></trkpt><trkpt lat="46.1034908" lon="12.2328118"><ele>482.0</ele><time>2026-04-26T12:26:17.607Z</time></trkpt><trkpt lat="46.1035139" lon="12.2329106"><ele>483.33333333333337</ele><time>2026-04-26T12:26:20.606Z</time></trkpt><trkpt lat="46.103526" lon="12.2330206"><ele>484.6666666666667</ele><time>2026-04-26T12:26:23.607Z</time></trkpt><trkpt lat="46.1035553" lon="12.233145"><ele>486.0</ele><time>2026-04-26T12:26:26.598Z</time></trkpt><trkpt lat="46.103584" lon="12.2332627"><ele>486.8333333333333</ele><time>2026-04-26T12:26:29.633Z</time></trkpt><trkpt lat="46.1036096" lon="12.2333657"><ele>487.66666666666663</ele><time>2026-04-26T12:26:32.607Z</time></trkpt><trkpt lat="46.1036319" lon="12.2334913"><ele>488.5</ele><time>2026-04-26T12:26:35.609Z</time></trkpt><trkpt lat="46.1036747" lon="12.2336144"><ele>489.3333333333333</ele><time>2026-04-26T12:26:38.611Z</time></trkpt><trkpt lat="46.1037186" lon="12.2337291"><ele>490.16666666666663</ele><time>2026-04-26T12:26:41.627Z</time></trkpt><trkpt lat="46.1037535" lon="12.2338531"><ele>491.0</ele><time>2026-04-26T12:26:44.608Z</time></trkpt><trkpt lat="46.1037739" lon="12.2339396"><ele>491.66666666666663</ele><time>2026-04-26T12:26:46.608Z</time></trkpt><trkpt lat="46.1038005" lon="12.2340243"><ele>492.3333333333333</ele><time>2026-04-26T12:26:48.629Z</time></trkpt><trkpt lat="46.1038415" lon="12.2341454"><ele>493.0</ele><time>2026-04-26T12:26:51.608Z</time></trkpt><trkpt lat="46.1038752" lon="12.2342659"><ele>493.66666666666663</ele><time>2026-04-26T12:26:54.604Z</time></trkpt><trkpt lat="46.1038962" lon="12.2343778"><ele>494.3333333333333</ele><time>2026-04-26T12:26:57.608Z</time></trkpt><trkpt lat="46.1038335" lon="12.234447"><ele>495.0</ele><time>2026-04-26T12:27:02.6Z</time></trkpt><trkpt lat="46.1037858" lon="12.2345149"><ele>495.0</ele><time>2026-04-26T12:27:05.602Z</time></trkpt><trkpt lat="46.1037377" lon="12.2345836"><ele>495.0</ele><time>2026-04-26T12:27:08.608Z</time></trkpt><trkpt lat="46.1036585" lon="12.2346252"><ele>495.0</ele><time>2026-04-26T12:27:11.607Z</time></trkpt><trkpt lat="46.1035763" lon="12.2346105"><ele>495.0</ele><time>2026-04-26T12:27:13.604Z</time></trkpt><trkpt lat="46.1034965" lon="12.2345571"><ele>495.0</ele><time>2026-04-26T12:27:15.599Z</time></trkpt><trkpt lat="46.1034142" lon="12.2344939"><ele>495.0</ele><time>2026-04-26T12:27:17.607Z</time></trkpt><trkpt lat="46.103338" lon="12.2344411"><ele>494.99999999999994</ele><time>2026-04-26T12:27:19.61Z</time></trkpt><trkpt lat="46.1032649" lon="12.234398"><ele>495.0</ele><time>2026-04-26T12:27:21.607Z</time></trkpt><trkpt lat="46.1031971" lon="12.234371"><ele>494.99999999999994</ele><time>2026-04-26T12:27:23.6Z</time></trkpt><trkpt lat="46.1031321" lon="12.2343646"><ele>494.99999999999994</ele><time>2026-04-26T12:27:25.594Z</time></trkpt><trkpt lat="46.1030589" lon="12.2343401"><ele>495.0</ele><time>2026-04-26T12:27:27.593Z</time></trkpt><trkpt lat="46.1029915" lon="12.2343162"><ele>494.99999999999994</ele><time>2026-04-26T12:27:29.596Z</time></trkpt><trkpt lat="46.1029225" lon="12.2343158"><ele>494.99999999999994</ele><time>2026-04-26T12:27:31.599Z</time></trkpt><trkpt lat="46.1028351" lon="12.2343443"><ele>495.1428571428571</ele><time>2026-04-26T12:27:34.613Z</time></trkpt><trkpt lat="46.1027688" lon="12.2344041"><ele>495.2857142857143</ele><time>2026-04-26T12:27:37.6Z</time></trkpt><trkpt lat="46.1027107" lon="12.2344837"><ele>495.42857142857144</ele><time>2026-04-26T12:27:40.599Z</time></trkpt><trkpt lat="46.1026647" lon="12.2345616"><ele>495.57142857142856</ele><time>2026-04-26T12:27:43.603Z</time></trkpt><trkpt lat="46.1026192" lon="12.2346273"><ele>495.7142857142858</ele><time>2026-04-26T12:27:46.608Z</time></trkpt><trkpt lat="46.1025724" lon="12.2346896"><ele>495.8571428571429</ele><time>2026-04-26T12:27:49.6Z</time></trkpt><trkpt lat="46.1025214" lon="12.2347559"><ele>496.0</ele><time>2026-04-26T12:27:52.603Z</time></trkpt><trkpt lat="46.1024814" lon="12.2348334"><ele>496.7142857142857</ele><time>2026-04-26T12:27:55.607Z</time></trkpt><trkpt lat="46.1024343" lon="12.2349405"><ele>497.42857142857144</ele><time>2026-04-26T12:27:59.606Z</time></trkpt><trkpt lat="46.102409" lon="12.2350367"><ele>498.14285714285717</ele><time>2026-04-26T12:28:02.599Z</time></trkpt><trkpt lat="46.1023938" lon="12.235149"><ele>498.8571428571429</ele><time>2026-04-26T12:28:06.607Z</time></trkpt><trkpt lat="46.1023904" lon="12.235242"><ele>499.57142857142856</ele><time>2026-04-26T12:28:09.601Z</time></trkpt><trkpt lat="46.1023861" lon="12.2353409"><ele>500.28571428571433</ele><time>2026-04-26T12:28:13.608Z</time></trkpt><trkpt lat="46.1023798" lon="12.23545"><ele>501.0</ele><time>2026-04-26T12:28:17.599Z</time></trkpt><trkpt lat="46.1023749" lon="12.2355498"><ele>502.14285714285717</ele><time>2026-04-26T12:28:21.608Z</time></trkpt><trkpt lat="46.102365" lon="12.2356424"><ele>503.2857142857142</ele><time>2026-04-26T12:28:24.608Z</time></trkpt><trkpt lat="46.1023404" lon="12.2357493"><ele>504.4285714285714</ele><time>2026-04-26T12:28:29.606Z</time></trkpt><trkpt lat="46.1023147" lon="12.2358458"><ele>505.57142857142856</ele><time>2026-04-26T12:28:33.607Z</time></trkpt><trkpt lat="46.1022938" lon="12.2359583"><ele>506.71428571428567</ele><time>2026-04-26T12:28:37.609Z</time></trkpt><trkpt lat="46.1022688" lon="12.2360487"><ele>507.8571428571428</ele><time>2026-04-26T12:28:40.614Z</time></trkpt><trkpt lat="46.1022374" lon="12.2361559"><ele>508.99999999999994</ele><time>2026-04-26T12:28:43.608Z</time></trkpt><trkpt lat="46.1021917" lon="12.2362645"><ele>508.99999999999994</ele><time>2026-04-26T12:28:46.611Z</time></trkpt><trkpt lat="46.1021474" lon="12.2363379"><ele>509.0</ele><time>2026-04-26T12:28:49.599Z</time></trkpt><trkpt lat="46.1020834" lon="12.2363819"><ele>508.99999999999994</ele><time>2026-04-26T12:28:52.6Z</time></trkpt><trkpt lat="46.1020014" lon="12.2363581"><ele>508.99999999999994</ele><time>2026-04-26T12:28:55.628Z</time></trkpt><trkpt lat="46.1019338" lon="12.2363586"><ele>509.0</ele><time>2026-04-26T12:28:57.596Z</time></trkpt><trkpt lat="46.1018622" lon="12.23637"><ele>508.99999999999994</ele><time>2026-04-26T12:28:59.597Z</time></trkpt><trkpt lat="46.1017874" lon="12.2363844"><ele>508.99999999999994</ele><time>2026-04-26T12:29:01.597Z</time></trkpt><trkpt lat="46.1017192" lon="12.2364121"><ele>508.99999999999994</ele><time>2026-04-26T12:29:03.599Z</time></trkpt><trkpt lat="46.1016596" lon="12.2364528"><ele>509.0</ele><time>2026-04-26T12:29:05.597Z</time></trkpt><trkpt lat="46.1015898" lon="12.2365397"><ele>509.0</ele><time>2026-04-26T12:29:08.601Z</time></trkpt><trkpt lat="46.1015401" lon="12.2366368"><ele>509.0</ele><time>2026-04-26T12:29:11.606Z</time></trkpt><trkpt lat="46.101498" lon="12.2367293"><ele>508.99999999999994</ele><time>2026-04-26T12:29:14.609Z</time></trkpt><trkpt lat="46.1014628" lon="12.2368194"><ele>509.0</ele><time>2026-04-26T12:29:17.603Z</time></trkpt><trkpt lat="46.1014279" lon="12.2369004"><ele>509.5714285714285</ele><time>2026-04-26T12:29:20.597Z</time></trkpt><trkpt lat="46.1014047" lon="12.2369957"><ele>510.1428571428571</ele><time>2026-04-26T12:29:23.608Z</time></trkpt><trkpt lat="46.1014123" lon="12.2370978"><ele>510.7142857142857</ele><time>2026-04-26T12:29:26.597Z</time></trkpt><trkpt lat="46.1014394" lon="12.2371866"><ele>511.2857142857143</ele><time>2026-04-26T12:29:29.593Z</time></trkpt><trkpt lat="46.1014757" lon="12.2372646"><ele>511.8571428571429</ele><time>2026-04-26T12:29:32.598Z</time></trkpt><trkpt lat="46.1015123" lon="12.2373439"><ele>512.4285714285714</ele><time>2026-04-26T12:29:35.61Z</time></trkpt><trkpt lat="46.1015539" lon="12.2374396"><ele>513.0</ele><time>2026-04-26T12:29:39.61Z</time></trkpt><trkpt lat="46.101602" lon="12.2375374"><ele>516.0000000000001</ele><time>2026-04-26T12:29:43.596Z</time></trkpt><trkpt lat="46.1016394" lon="12.2376154"><ele>519.0</ele><time>2026-04-26T12:29:46.601Z</time></trkpt><trkpt lat="46.1016763" lon="12.2376971"><ele>522.0</ele><time>2026-04-26T12:29:49.597Z</time></trkpt><trkpt lat="46.101712" lon="12.2377805"><ele>525.0</ele><time>2026-04-26T12:29:52.6Z</time></trkpt><trkpt lat="46.1017482" lon="12.2378655"><ele>528.0</ele><time>2026-04-26T12:29:55.599Z</time></trkpt><trkpt lat="46.1017834" lon="12.2379474"><ele>531.0000000000001</ele><time>2026-04-26T12:29:58.602Z</time></trkpt><trkpt lat="46.1018185" lon="12.238039"><ele>534.0</ele><time>2026-04-26T12:30:01.599Z</time></trkpt><trkpt lat="46.1018553" lon="12.2381239"><ele>535.1666666666666</ele><time>2026-04-26T12:30:04.601Z</time></trkpt><trkpt lat="46.1018502" lon="12.2382191"><ele>536.3333333333334</ele><time>2026-04-26T12:30:07.595Z</time></trkpt><trkpt lat="46.1018496" lon="12.2383339"><ele>537.5</ele><time>2026-04-26T12:30:10.601Z</time></trkpt><trkpt lat="46.1018812" lon="12.2384477"><ele>538.6666666666667</ele><time>2026-04-26T12:30:13.601Z</time></trkpt><trkpt lat="46.1019197" lon="12.2385756"><ele>539.8333333333334</ele><time>2026-04-26T12:30:16.6Z</time></trkpt><trkpt lat="46.1019537" lon="12.23868"><ele>541.0</ele><time>2026-04-26T12:30:18.6Z</time></trkpt><trkpt lat="46.1019722" lon="12.2387714"><ele>541.0</ele><time>2026-04-26T12:30:20.611Z</time></trkpt><trkpt lat="46.1019973" lon="12.2388953"><ele>541.0</ele><time>2026-04-26T12:30:23.607Z</time></trkpt><trkpt lat="46.10199" lon="12.2390122"><ele>541.0</ele><time>2026-04-26T12:30:26.609Z</time></trkpt><trkpt lat="46.101987" lon="12.2391182"><ele>541.0</ele><time>2026-04-26T12:30:29.61Z</time></trkpt><trkpt lat="46.1020654" lon="12.2391073"><ele>541.0</ele><time>2026-04-26T12:30:33.604Z</time></trkpt><trkpt lat="46.1021389" lon="12.2390632"><ele>541.0</ele><time>2026-04-26T12:30:37.599Z</time></trkpt><trkpt lat="46.1022065" lon="12.2390106"><ele>541.0000000000001</ele><time>2026-04-26T12:30:40.598Z</time></trkpt><trkpt lat="46.1022794" lon="12.2389676"><ele>541.0</ele><time>2026-04-26T12:30:43.6Z</time></trkpt><trkpt lat="46.1023452" lon="12.2389303"><ele>541.0</ele><time>2026-04-26T12:30:46.599Z</time></trkpt><trkpt lat="46.1024103" lon="12.2388955"><ele>541.0</ele><time>2026-04-26T12:30:49.625Z</time></trkpt><trkpt lat="46.1024824" lon="12.2388878"><ele>541.0</ele><time>2026-04-26T12:30:52.607Z</time></trkpt><trkpt lat="46.1025483" lon="12.2389116"><ele>541.0000000000001</ele><time>2026-04-26T12:30:55.597Z</time></trkpt><trkpt lat="46.1025938" lon="12.2390061"><ele>541.0</ele><time>2026-04-26T12:31:00.599Z</time></trkpt><trkpt lat="46.1026579" lon="12.2390499"><ele>542.1666666666667</ele><time>2026-04-26T12:31:03.608Z</time></trkpt><trkpt lat="46.1027305" lon="12.2390685"><ele>543.3333333333334</ele><time>2026-04-26T12:31:08.595Z</time></trkpt><trkpt lat="46.1028132" lon="12.2390695"><ele>544.5</ele><time>2026-04-26T12:31:12.728Z</time></trkpt><trkpt lat="46.1028961" lon="12.2391084"><ele>545.6666666666666</ele><time>2026-04-26T12:31:15.603Z</time></trkpt><trkpt lat="46.1029711" lon="12.2391649"><ele>546.8333333333333</ele><time>2026-04-26T12:31:18.597Z</time></trkpt><trkpt lat="46.1030283" lon="12.2392226"><ele>548.0</ele><time>2026-04-26T12:31:21.606Z</time></trkpt><trkpt lat="46.1030951" lon="12.2392965"><ele>548.0</ele><time>2026-04-26T12:31:24.61Z</time></trkpt><trkpt lat="46.1031618" lon="12.2393772"><ele>548.0</ele><time>2026-04-26T12:31:27.608Z</time></trkpt><trkpt lat="46.1032188" lon="12.2394481"><ele>548.0</ele><time>2026-04-26T12:31:29.607Z</time></trkpt><trkpt lat="46.1032882" lon="12.2395324"><ele>548.0</ele><time>2026-04-26T12:31:31.608Z</time></trkpt><trkpt lat="46.1033407" lon="12.2396315"><ele>548.0</ele><time>2026-04-26T12:31:33.61Z</time></trkpt><trkpt lat="46.1033845" lon="12.2397279"><ele>548.0</ele><time>2026-04-26T12:31:35.603Z</time></trkpt><trkpt lat="46.1034236" lon="12.2398211"><ele>548.2857142857143</ele><time>2026-04-26T12:31:37.606Z</time></trkpt><trkpt lat="46.1034559" lon="12.2399129"><ele>548.5714285714286</ele><time>2026-04-26T12:31:39.61Z</time></trkpt><trkpt lat="46.1034794" lon="12.2400091"><ele>548.8571428571429</ele><time>2026-04-26T12:31:41.611Z</time></trkpt><trkpt lat="46.1035102" lon="12.2401019"><ele>549.1428571428571</ele><time>2026-04-26T12:31:43.61Z</time></trkpt><trkpt lat="46.1035306" lon="12.2401958"><ele>549.4285714285714</ele><time>2026-04-26T12:31:45.613Z</time></trkpt><trkpt lat="46.1035397" lon="12.2402925"><ele>549.7142857142858</ele><time>2026-04-26T12:31:47.597Z</time></trkpt><trkpt lat="46.1035469" lon="12.2403877"><ele>550.0</ele><time>2026-04-26T12:31:49.611Z</time></trkpt><trkpt lat="46.1035562" lon="12.2405183"><ele>550.0</ele><time>2026-04-26T12:31:52.602Z</time></trkpt><trkpt lat="46.1035832" lon="12.2406157"><ele>550.0</ele><time>2026-04-26T12:31:57.608Z</time></trkpt><trkpt lat="46.1034212" lon="12.2412174"><ele>551.0</ele><time>2026-04-26T12:33:40.603Z</time></trkpt><trkpt lat="46.1033464" lon="12.2412854"><ele>552.0</ele><time>2026-04-26T12:33:43.601Z</time></trkpt><trkpt lat="46.1032656" lon="12.2413551"><ele>553.0</ele><time>2026-04-26T12:33:46.602Z</time></trkpt><trkpt lat="46.103183" lon="12.2414168"><ele>554.0</ele><time>2026-04-26T12:33:49.617Z</time></trkpt><trkpt lat="46.103094" lon="12.2414568"><ele>555.0</ele><time>2026-04-26T12:33:52.61Z</time></trkpt><trkpt lat="46.1030054" lon="12.2414812"><ele>556.8333333333334</ele><time>2026-04-26T12:33:55.608Z</time></trkpt><trkpt lat="46.1029182" lon="12.2414902"><ele>558.6666666666666</ele><time>2026-04-26T12:33:58.609Z</time></trkpt><trkpt lat="46.1028336" lon="12.2415"><ele>560.5</ele><time>2026-04-26T12:34:01.608Z</time></trkpt><trkpt lat="46.1027561" lon="12.2415153"><ele>562.3333333333333</ele><time>2026-04-26T12:34:04.611Z</time></trkpt><trkpt lat="46.1026791" lon="12.241541"><ele>564.1666666666666</ele><time>2026-04-26T12:34:07.601Z</time></trkpt><trkpt lat="46.1026042" lon="12.2415753"><ele>566.0</ele><time>2026-04-26T12:34:10.61Z</time></trkpt><trkpt lat="46.1025325" lon="12.2416136"><ele>566.0</ele><time>2026-04-26T12:34:13.606Z</time></trkpt><trkpt lat="46.1024561" lon="12.2416463"><ele>566.0</ele><time>2026-04-26T12:34:16.607Z</time></trkpt><trkpt lat="46.1023787" lon="12.2416785"><ele>566.0</ele><time>2026-04-26T12:34:19.602Z</time></trkpt><trkpt lat="46.1023046" lon="12.2417062"><ele>566.0</ele><time>2026-04-26T12:34:22.603Z</time></trkpt><trkpt lat="46.1022274" lon="12.2417395"><ele>566.0</ele><time>2026-04-26T12:34:25.612Z</time></trkpt><trkpt lat="46.1021502" lon="12.2417757"><ele>566.0</ele><time>2026-04-26T12:34:28.601Z</time></trkpt><trkpt lat="46.102076" lon="12.2418097"><ele>566.8333333333333</ele><time>2026-04-26T12:34:31.602Z</time></trkpt><trkpt lat="46.1019997" lon="12.2418387"><ele>567.6666666666666</ele><time>2026-04-26T12:34:34.604Z</time></trkpt><trkpt lat="46.1019318" lon="12.2418889"><ele>568.5</ele><time>2026-04-26T12:34:37.611Z</time></trkpt><trkpt lat="46.101863" lon="12.2419392"><ele>569.3333333333334</ele><time>2026-04-26T12:34:40.599Z</time></trkpt><trkpt lat="46.1018065" lon="12.242018"><ele>570.1666666666667</ele><time>2026-04-26T12:34:43.603Z</time></trkpt><trkpt lat="46.101787" lon="12.2421375"><ele>571.0</ele><time>2026-04-26T12:34:46.611Z</time></trkpt><trkpt lat="46.1018215" lon="12.2422429"><ele>573.3333333333334</ele><time>2026-04-26T12:34:49.61Z</time></trkpt><trkpt lat="46.1018959" lon="12.2423078"><ele>575.6666666666667</ele><time>2026-04-26T12:34:52.601Z</time></trkpt><trkpt lat="46.1019756" lon="12.2423615"><ele>578.0</ele><time>2026-04-26T12:34:55.749Z</time></trkpt><trkpt lat="46.1020555" lon="12.2424212"><ele>580.3333333333334</ele><time>2026-04-26T12:34:58.605Z</time></trkpt><trkpt lat="46.1021322" lon="12.2424916"><ele>582.6666666666666</ele><time>2026-04-26T12:35:01.599Z</time></trkpt><trkpt lat="46.1021924" lon="12.2425802"><ele>585.0</ele><time>2026-04-26T12:35:04.598Z</time></trkpt><trkpt lat="46.1022605" lon="12.2426637"><ele>585.0</ele><time>2026-04-26T12:35:07.601Z</time></trkpt><trkpt lat="46.1023242" lon="12.2427525"><ele>585.0</ele><time>2026-04-26T12:35:10.605Z</time></trkpt><trkpt lat="46.1023817" lon="12.2428463"><ele>585.0</ele><time>2026-04-26T12:35:13.603Z</time></trkpt><trkpt lat="46.1024406" lon="12.2429304"><ele>585.0</ele><time>2026-04-26T12:35:16.612Z</time></trkpt><trkpt lat="46.1024998" lon="12.2430106"><ele>585.0</ele><time>2026-04-26T12:35:19.612Z</time></trkpt><trkpt lat="46.1025578" lon="12.243096"><ele>585.0</ele><time>2026-04-26T12:35:22.602Z</time></trkpt><trkpt lat="46.102616" lon="12.2431814"><ele>586.1666666666666</ele><time>2026-04-26T12:35:25.61Z</time></trkpt><trkpt lat="46.102668" lon="12.2432737"><ele>587.3333333333334</ele><time>2026-04-26T12:35:28.603Z</time></trkpt><trkpt lat="46.1027232" lon="12.243362"><ele>588.5</ele><time>2026-04-26T12:35:31.6Z</time></trkpt><trkpt lat="46.1027772" lon="12.2434557"><ele>589.6666666666667</ele><time>2026-04-26T12:35:34.613Z</time></trkpt><trkpt lat="46.1028375" lon="12.243538"><ele>590.8333333333334</ele><time>2026-04-26T12:35:37.603Z</time></trkpt><trkpt lat="46.1028948" lon="12.2436213"><ele>592.0</ele><time>2026-04-26T12:35:40.609Z</time></trkpt><trkpt lat="46.1029572" lon="12.2437038"><ele>592.0</ele><time>2026-04-26T12:35:43.603Z</time></trkpt><trkpt lat="46.103023" lon="12.2437867"><ele>592.0</ele><time>2026-04-26T12:35:46.61Z</time></trkpt><trkpt lat="46.103088" lon="12.2438736"><ele>592.0</ele><time>2026-04-26T12:35:49.613Z</time></trkpt><trkpt lat="46.1031385" lon="12.2439816"><ele>592.0</ele><time>2026-04-26T12:35:52.6Z</time></trkpt><trkpt lat="46.1031763" lon="12.2440928"><ele>592.0</ele><time>2026-04-26T12:35:55.624Z</time></trkpt><trkpt lat="46.103212" lon="12.2442088"><ele>592.0</ele><time>2026-04-26T12:35:58.609Z</time></trkpt><trkpt lat="46.1032539" lon="12.244317"><ele>593.0</ele><time>2026-04-26T12:36:01.608Z</time></trkpt><trkpt lat="46.1032825" lon="12.2444373"><ele>594.0</ele><time>2026-04-26T12:36:04.61Z</time></trkpt><trkpt lat="46.1032869" lon="12.2445654"><ele>595.0</ele><time>2026-04-26T12:36:07.606Z</time></trkpt><trkpt lat="46.1032846" lon="12.2446932"><ele>596.0</ele><time>2026-04-26T12:36:10.606Z</time></trkpt><trkpt lat="46.1032817" lon="12.2448127"><ele>597.0</ele><time>2026-04-26T12:36:13.603Z</time></trkpt><trkpt lat="46.103268" lon="12.2449284"><ele>598.0</ele><time>2026-04-26T12:36:16.601Z</time></trkpt><trkpt lat="46.1032557" lon="12.2450454"><ele>599.3333333333334</ele><time>2026-04-26T12:36:19.61Z</time></trkpt><trkpt lat="46.1032475" lon="12.2451595"><ele>600.6666666666667</ele><time>2026-04-26T12:36:22.608Z</time></trkpt><trkpt lat="46.1032317" lon="12.245277"><ele>602.0</ele><time>2026-04-26T12:36:25.607Z</time></trkpt><trkpt lat="46.1032006" lon="12.2453944"><ele>603.3333333333334</ele><time>2026-04-26T12:36:28.598Z</time></trkpt><trkpt lat="46.1031683" lon="12.2455078"><ele>604.6666666666666</ele><time>2026-04-26T12:36:31.601Z</time></trkpt><trkpt lat="46.1031245" lon="12.2456108"><ele>606.0</ele><time>2026-04-26T12:36:34.602Z</time></trkpt><trkpt lat="46.1030746" lon="12.2457092"><ele>607.3333333333334</ele><time>2026-04-26T12:36:37.605Z</time></trkpt><trkpt lat="46.1030288" lon="12.2458109"><ele>608.6666666666666</ele><time>2026-04-26T12:36:40.607Z</time></trkpt><trkpt lat="46.1029953" lon="12.2459279"><ele>610.0</ele><time>2026-04-26T12:36:43.601Z</time></trkpt><trkpt lat="46.1029712" lon="12.2460527"><ele>611.3333333333333</ele><time>2026-04-26T12:36:46.607Z</time></trkpt><trkpt lat="46.1029469" lon="12.2461732"><ele>612.6666666666666</ele><time>2026-04-26T12:36:49.608Z</time></trkpt><trkpt lat="46.1029239" lon="12.2462978"><ele>614.0</ele><time>2026-04-26T12:36:52.608Z</time></trkpt><trkpt lat="46.1028925" lon="12.2464199"><ele>614.5</ele><time>2026-04-26T12:36:55.609Z</time></trkpt><trkpt lat="46.1028658" lon="12.2465427"><ele>615.0</ele><time>2026-04-26T12:36:58.609Z</time></trkpt><trkpt lat="46.1028359" lon="12.2466599"><ele>615.5</ele><time>2026-04-26T12:37:01.608Z</time></trkpt><trkpt lat="46.1028065" lon="12.2467742"><ele>616.0</ele><time>2026-04-26T12:37:04.608Z</time></trkpt><trkpt lat="46.1027758" lon="12.2468889"><ele>616.5</ele><time>2026-04-26T12:37:07.606Z</time></trkpt><trkpt lat="46.1027441" lon="12.2470014"><ele>617.0</ele><time>2026-04-26T12:37:10.607Z</time></trkpt><trkpt lat="46.102718" lon="12.2471158"><ele>617.0</ele><time>2026-04-26T12:37:13.607Z</time></trkpt><trkpt lat="46.1026935" lon="12.2472265"><ele>617.0</ele><time>2026-04-26T12:37:16.61Z</time></trkpt><trkpt lat="46.1026708" lon="12.2473421"><ele>617.0</ele><time>2026-04-26T12:37:19.605Z</time></trkpt><trkpt lat="46.1026502" lon="12.2474608"><ele>617.0</ele><time>2026-04-26T12:37:22.605Z</time></trkpt><trkpt lat="46.1026327" lon="12.2475747"><ele>617.0</ele><time>2026-04-26T12:37:25.61Z</time></trkpt><trkpt lat="46.1026166" lon="12.2476889"><ele>617.0</ele><time>2026-04-26T12:37:28.614Z</time></trkpt><trkpt lat="46.1025893" lon="12.2478029"><ele>618.5</ele><time>2026-04-26T12:37:31.609Z</time></trkpt><trkpt lat="46.1025192" lon="12.2478855"><ele>620.0</ele><time>2026-04-26T12:37:34.613Z</time></trkpt><trkpt lat="46.1024283" lon="12.2478811"><ele>621.5</ele><time>2026-04-26T12:37:37.612Z</time></trkpt><trkpt lat="46.1023361" lon="12.2478762"><ele>623.0</ele><time>2026-04-26T12:37:40.611Z</time></trkpt><trkpt lat="46.1022718" lon="12.2478918"><ele>624.5</ele><time>2026-04-26T12:37:42.611Z</time></trkpt><trkpt lat="46.1022061" lon="12.247924"><ele>626.0</ele><time>2026-04-26T12:37:44.61Z</time></trkpt><trkpt lat="46.1021466" lon="12.2479685"><ele>627.1428571428571</ele><time>2026-04-26T12:37:46.613Z</time></trkpt><trkpt lat="46.1020881" lon="12.2480108"><ele>628.2857142857143</ele><time>2026-04-26T12:37:48.607Z</time></trkpt><trkpt lat="46.1020297" lon="12.2480622"><ele>629.4285714285714</ele><time>2026-04-26T12:37:50.601Z</time></trkpt><trkpt lat="46.1019702" lon="12.2481087"><ele>630.5714285714286</ele><time>2026-04-26T12:37:52.603Z</time></trkpt><trkpt lat="46.1019122" lon="12.2481554"><ele>631.7142857142857</ele><time>2026-04-26T12:37:54.606Z</time></trkpt><trkpt lat="46.1018325" lon="12.2482238"><ele>632.8571428571429</ele><time>2026-04-26T12:37:57.612Z</time></trkpt><trkpt lat="46.1017786" lon="12.2482717"><ele>634.0</ele><time>2026-04-26T12:37:59.61Z</time></trkpt><trkpt lat="46.1016989" lon="12.2483272"><ele>634.6666666666667</ele><time>2026-04-26T12:38:02.606Z</time></trkpt><trkpt lat="46.1016111" lon="12.2483403"><ele>635.3333333333334</ele><time>2026-04-26T12:38:05.609Z</time></trkpt><trkpt lat="46.1015303" lon="12.2483044"><ele>636.0</ele><time>2026-04-26T12:38:08.613Z</time></trkpt><trkpt lat="46.1014712" lon="12.2482284"><ele>636.6666666666666</ele><time>2026-04-26T12:38:11.602Z</time></trkpt><trkpt lat="46.1014115" lon="12.2481556"><ele>637.3333333333333</ele><time>2026-04-26T12:38:14.61Z</time></trkpt><trkpt lat="46.1013395" lon="12.2481207"><ele>638.0</ele><time>2026-04-26T12:38:17.6Z</time></trkpt><trkpt lat="46.1012647" lon="12.2481586"><ele>640.3333333333333</ele><time>2026-04-26T12:38:20.608Z</time></trkpt><trkpt lat="46.1011987" lon="12.2482176"><ele>642.6666666666666</ele><time>2026-04-26T12:38:23.609Z</time></trkpt><trkpt lat="46.1011306" lon="12.2482813"><ele>645.0</ele><time>2026-04-26T12:38:26.609Z</time></trkpt><trkpt lat="46.1010639" lon="12.2483451"><ele>647.3333333333334</ele><time>2026-04-26T12:38:29.6Z</time></trkpt><trkpt lat="46.1010033" lon="12.248407"><ele>649.6666666666667</ele><time>2026-04-26T12:38:32.612Z</time></trkpt><trkpt lat="46.1009461" lon="12.248475"><ele>652.0</ele><time>2026-04-26T12:38:35.61Z</time></trkpt><trkpt lat="46.1008849" lon="12.2485205"><ele>652.0</ele><time>2026-04-26T12:38:38.61Z</time></trkpt><trkpt lat="46.1008189" lon="12.2485459"><ele>652.0</ele><time>2026-04-26T12:38:41.603Z</time></trkpt><trkpt lat="46.1007511" lon="12.2484775"><ele>652.0</ele><time>2026-04-26T12:38:45.608Z</time></trkpt><trkpt lat="46.1007029" lon="12.248407"><ele>652.0</ele><time>2026-04-26T12:38:48.61Z</time></trkpt><trkpt lat="46.1006553" lon="12.2483341"><ele>652.0</ele><time>2026-04-26T12:38:52.611Z</time></trkpt><trkpt lat="46.1005839" lon="12.2482901"><ele>652.0</ele><time>2026-04-26T12:38:56.61Z</time></trkpt><trkpt lat="46.1005146" lon="12.248342"><ele>652.0</ele><time>2026-04-26T12:39:00.61Z</time></trkpt><trkpt lat="46.1004661" lon="12.2484092"><ele>652.1428571428572</ele><time>2026-04-26T12:39:03.611Z</time></trkpt><trkpt lat="46.1004189" lon="12.2484795"><ele>652.2857142857142</ele><time>2026-04-26T12:39:06.605Z</time></trkpt><trkpt lat="46.1003754" lon="12.2485492"><ele>652.4285714285714</ele><time>2026-04-26T12:39:09.61Z</time></trkpt><trkpt lat="46.1003384" lon="12.2486371"><ele>652.5714285714287</ele><time>2026-04-26T12:39:12.612Z</time></trkpt><trkpt lat="46.1003076" lon="12.2487346"><ele>652.7142857142858</ele><time>2026-04-26T12:39:15.611Z</time></trkpt><trkpt lat="46.1002872" lon="12.2488363"><ele>652.8571428571429</ele><time>2026-04-26T12:39:18.6Z</time></trkpt><trkpt lat="46.1002719" lon="12.2489328"><ele>653.0</ele><time>2026-04-26T12:39:21.597Z</time></trkpt><trkpt lat="46.1002641" lon="12.249035"><ele>654.2857142857143</ele><time>2026-04-26T12:39:24.598Z</time></trkpt><trkpt lat="46.1002609" lon="12.2491424"><ele>655.5714285714286</ele><time>2026-04-26T12:39:27.611Z</time></trkpt><trkpt lat="46.1002555" lon="12.2492463"><ele>656.8571428571429</ele><time>2026-04-26T12:39:30.6Z</time></trkpt><trkpt lat="46.1002503" lon="12.2493504"><ele>658.1428571428571</ele><time>2026-04-26T12:39:33.597Z</time></trkpt><trkpt lat="46.10024" lon="12.2494499"><ele>659.4285714285714</ele><time>2026-04-26T12:39:36.607Z</time></trkpt><trkpt lat="46.1002366" lon="12.2495434"><ele>660.7142857142858</ele><time>2026-04-26T12:39:39.608Z</time></trkpt><trkpt lat="46.1002288" lon="12.2496485"><ele>662.0</ele><time>2026-04-26T12:39:42.609Z</time></trkpt><trkpt lat="46.1002194" lon="12.2497604"><ele>663.0</ele><time>2026-04-26T12:39:45.609Z</time></trkpt><trkpt lat="46.100217" lon="12.2498677"><ele>664.0</ele><time>2026-04-26T12:39:48.611Z</time></trkpt><trkpt lat="46.1002095" lon="12.2499702"><ele>665.0</ele><time>2026-04-26T12:39:51.612Z</time></trkpt><trkpt lat="46.1001926" lon="12.2500671"><ele>666.0</ele><time>2026-04-26T12:39:54.606Z</time></trkpt><trkpt lat="46.1001672" lon="12.250159"><ele>667.0</ele><time>2026-04-26T12:39:57.61Z</time></trkpt><trkpt lat="46.1001431" lon="12.2502521"><ele>668.0</ele><time>2026-04-26T12:40:00.612Z</time></trkpt><trkpt lat="46.1001114" lon="12.2503414"><ele>669.0</ele><time>2026-04-26T12:40:03.61Z</time></trkpt><trkpt lat="46.1000718" lon="12.2504288"><ele>669.0</ele><time>2026-04-26T12:40:06.61Z</time></trkpt><trkpt lat="46.1000264" lon="12.250516"><ele>669.0</ele><time>2026-04-26T12:40:09.608Z</time></trkpt><trkpt lat="46.0999722" lon="12.250593"><ele>669.0</ele><time>2026-04-26T12:40:12.609Z</time></trkpt><trkpt lat="46.0999169" lon="12.2506529"><ele>669.0</ele><time>2026-04-26T12:40:15.612Z</time></trkpt><trkpt lat="46.0998569" lon="12.25069"><ele>669.0</ele><time>2026-04-26T12:40:18.606Z</time></trkpt><trkpt lat="46.0997991" lon="12.2507302"><ele>669.0</ele><time>2026-04-26T12:40:21.612Z</time></trkpt><trkpt lat="46.0997461" lon="12.2507901"><ele>669.0</ele><time>2026-04-26T12:40:24.618Z</time></trkpt><trkpt lat="46.0996986" lon="12.2508618"><ele>671.8571428571429</ele><time>2026-04-26T12:40:27.607Z</time></trkpt><trkpt lat="46.0996681" lon="12.2509439"><ele>674.7142857142857</ele><time>2026-04-26T12:40:30.601Z</time></trkpt><trkpt lat="46.0997142" lon="12.2510202"><ele>677.5714285714286</ele><time>2026-04-26T12:40:33.609Z</time></trkpt><trkpt lat="46.0997815" lon="12.2510325"><ele>680.4285714285714</ele><time>2026-04-26T12:40:36.605Z</time></trkpt><trkpt lat="46.0998589" lon="12.2510359"><ele>683.2857142857143</ele><time>2026-04-26T12:40:40.615Z</time></trkpt><trkpt lat="46.0999328" lon="12.2510337"><ele>686.1428571428571</ele><time>2026-04-26T12:40:44.614Z</time></trkpt><trkpt lat="46.1000018" lon="12.2510359"><ele>689.0</ele><time>2026-04-26T12:40:48.612Z</time></trkpt><trkpt lat="46.1000807" lon="12.2510318"><ele>689.0</ele><time>2026-04-26T12:40:52.601Z</time></trkpt><trkpt lat="46.1001604" lon="12.2510297"><ele>689.0</ele><time>2026-04-26T12:40:56.612Z</time></trkpt><trkpt lat="46.1002381" lon="12.2510293"><ele>689.0</ele><time>2026-04-26T12:41:01.611Z</time></trkpt><trkpt lat="46.1002934" lon="12.250972"><ele>689.0</ele><time>2026-04-26T12:41:04.614Z</time></trkpt><trkpt lat="46.100348" lon="12.2510297"><ele>689.0</ele><time>2026-04-26T12:41:09.599Z</time></trkpt><trkpt lat="46.100338" lon="12.2511267"><ele>689.0</ele><time>2026-04-26T12:41:13.611Z</time></trkpt><trkpt lat="46.100274" lon="12.2511754"><ele>689.0</ele><time>2026-04-26T12:41:18.608Z</time></trkpt><trkpt lat="46.1001974" lon="12.2511984"><ele>689.0</ele><time>2026-04-26T12:41:22.606Z</time></trkpt><trkpt lat="46.100135" lon="12.2512382"><ele>689.0</ele><time>2026-04-26T12:41:26.609Z</time></trkpt><trkpt lat="46.10007" lon="12.251292"><ele>689.0</ele><time>2026-04-26T12:41:30.626Z</time></trkpt><trkpt lat="46.1000057" lon="12.251323"><ele>689.0</ele><time>2026-04-26T12:41:33.606Z</time></trkpt><trkpt lat="46.0999363" lon="12.2513706"><ele>689.0</ele><time>2026-04-26T12:41:37.616Z</time></trkpt><trkpt lat="46.0998948" lon="12.2514612"><ele>689.0</ele><time>2026-04-26T12:41:42.612Z</time></trkpt><trkpt lat="46.0999582" lon="12.2515241"><ele>689.0</ele><time>2026-04-26T12:41:46.61Z</time></trkpt><trkpt lat="46.1000212" lon="12.251529"><ele>692.5714285714286</ele><time>2026-04-26T12:41:49.613Z</time></trkpt><trkpt lat="46.1000854" lon="12.2515211"><ele>696.1428571428571</ele><time>2026-04-26T12:41:52.6Z</time></trkpt><trkpt lat="46.1001526" lon="12.2515143"><ele>699.7142857142858</ele><time>2026-04-26T12:41:55.604Z</time></trkpt><trkpt lat="46.1002175" lon="12.251511"><ele>703.2857142857142</ele><time>2026-04-26T12:41:58.611Z</time></trkpt><trkpt lat="46.1002931" lon="12.2515173"><ele>706.8571428571429</ele><time>2026-04-26T12:42:01.611Z</time></trkpt><trkpt lat="46.1003586" lon="12.2515229"><ele>710.4285714285714</ele><time>2026-04-26T12:42:04.609Z</time></trkpt><trkpt lat="46.1004297" lon="12.2515399"><ele>714.0</ele><time>2026-04-26T12:42:07.609Z</time></trkpt><trkpt lat="46.1005032" lon="12.2515657"><ele>714.0</ele><time>2026-04-26T12:42:11.599Z</time></trkpt><trkpt lat="46.1005644" lon="12.2515986"><ele>714.0</ele><time>2026-04-26T12:42:14.609Z</time></trkpt><trkpt lat="46.1006228" lon="12.2516417"><ele>714.0</ele><time>2026-04-26T12:42:17.61Z</time></trkpt><trkpt lat="46.1006804" lon="12.2516943"><ele>714.0</ele><time>2026-04-26T12:42:20.596Z</time></trkpt><trkpt lat="46.1007502" lon="12.251754"><ele>714.0</ele><time>2026-04-26T12:42:23.609Z</time></trkpt><trkpt lat="46.1008099" lon="12.2517921"><ele>714.0</ele><time>2026-04-26T12:42:26.603Z</time></trkpt><trkpt lat="46.1008823" lon="12.2518355"><ele>714.0</ele><time>2026-04-26T12:42:30.604Z</time></trkpt><trkpt lat="46.1009442" lon="12.2518892"><ele>714.0</ele><time>2026-04-26T12:42:34.609Z</time></trkpt><trkpt lat="46.1010156" lon="12.2519445"><ele>714.0</ele><time>2026-04-26T12:42:38.612Z</time></trkpt><trkpt lat="46.1010816" lon="12.2519739"><ele>714.0</ele><time>2026-04-26T12:42:41.612Z</time></trkpt><trkpt lat="46.1011475" lon="12.2520121"><ele>714.0</ele><time>2026-04-26T12:42:44.613Z</time></trkpt><trkpt lat="46.1012185" lon="12.2520485"><ele>714.0</ele><time>2026-04-26T12:42:47.611Z</time></trkpt><trkpt lat="46.1012976" lon="12.2520892"><ele>714.0</ele><time>2026-04-26T12:42:51.602Z</time></trkpt><trkpt lat="46.1013736" lon="12.2521312"><ele>714.0</ele><time>2026-04-26T12:42:55.613Z</time></trkpt><trkpt lat="46.1014494" lon="12.2521818"><ele>714.0</ele><time>2026-04-26T12:42:59.611Z</time></trkpt><trkpt lat="46.1015265" lon="12.2522154"><ele>714.0</ele><time>2026-04-26T12:43:03.61Z</time></trkpt><trkpt lat="46.1015871" lon="12.2522581"><ele>714.0</ele><time>2026-04-26T12:43:07.61Z</time></trkpt><trkpt lat="46.1016545" lon="12.2522783"><ele>714.0</ele><time>2026-04-26T12:43:10.609Z</time></trkpt><trkpt lat="46.101731" lon="12.2523009"><ele>714.0</ele><time>2026-04-26T12:43:13.615Z</time></trkpt><trkpt lat="46.1017994" lon="12.2523205"><ele>714.0</ele><time>2026-04-26T12:43:16.603Z</time></trkpt><trkpt lat="46.1018651" lon="12.2523386"><ele>717.4285714285714</ele><time>2026-04-26T12:43:19.61Z</time></trkpt><trkpt lat="46.1019374" lon="12.2523828"><ele>720.8571428571429</ele><time>2026-04-26T12:43:22.6Z</time></trkpt><trkpt lat="46.1019996" lon="12.2524652"><ele>724.2857142857142</ele><time>2026-04-26T12:43:26.609Z</time></trkpt><trkpt lat="46.1020433" lon="12.2525395"><ele>727.7142857142858</ele><time>2026-04-26T12:43:29.607Z</time></trkpt><trkpt lat="46.1020857" lon="12.2526077"><ele>731.1428571428571</ele><time>2026-04-26T12:43:32.601Z</time></trkpt><trkpt lat="46.1021448" lon="12.2526694"><ele>734.5714285714286</ele><time>2026-04-26T12:43:36.609Z</time></trkpt><trkpt lat="46.1021923" lon="12.2527334"><ele>738.0</ele><time>2026-04-26T12:43:39.606Z</time></trkpt><trkpt lat="46.1022409" lon="12.2528049"><ele>738.0</ele><time>2026-04-26T12:43:42.607Z</time></trkpt><trkpt lat="46.1023051" lon="12.2528599"><ele>738.0</ele><time>2026-04-26T12:43:45.608Z</time></trkpt><trkpt lat="46.1023629" lon="12.2529196"><ele>738.0</ele><time>2026-04-26T12:43:49.61Z</time></trkpt><trkpt lat="46.1024077" lon="12.252989"><ele>738.0</ele><time>2026-04-26T12:43:52.597Z</time></trkpt><trkpt lat="46.1024497" lon="12.2530628"><ele>738.0</ele><time>2026-04-26T12:43:55.601Z</time></trkpt><trkpt lat="46.1024786" lon="12.2531773"><ele>738.0</ele><time>2026-04-26T12:43:59.609Z</time></trkpt><trkpt lat="46.1025148" lon="12.2532644"><ele>738.0</ele><time>2026-04-26T12:44:02.601Z</time></trkpt><trkpt lat="46.1025528" lon="12.2533442"><ele>740.8333333333334</ele><time>2026-04-26T12:44:05.61Z</time></trkpt><trkpt lat="46.1026063" lon="12.2534155"><ele>743.6666666666666</ele><time>2026-04-26T12:44:08.607Z</time></trkpt><trkpt lat="46.1026776" lon="12.2534688"><ele>746.5</ele><time>2026-04-26T12:44:11.607Z</time></trkpt><trkpt lat="46.1027656" lon="12.2534645"><ele>749.3333333333333</ele><time>2026-04-26T12:44:14.607Z</time></trkpt><trkpt lat="46.1028304" lon="12.2534395"><ele>752.1666666666666</ele><time>2026-04-26T12:44:16.61Z</time></trkpt><trkpt lat="46.1029073" lon="12.2534132"><ele>755.0</ele><time>2026-04-26T12:44:18.611Z</time></trkpt><trkpt lat="46.1029958" lon="12.253369"><ele>755.0</ele><time>2026-04-26T12:44:21.604Z</time></trkpt><trkpt lat="46.1030608" lon="12.2533336"><ele>755.0</ele><time>2026-04-26T12:44:23.611Z</time></trkpt><trkpt lat="46.1031409" lon="12.253285"><ele>755.0</ele><time>2026-04-26T12:44:26.609Z</time></trkpt><trkpt lat="46.1032125" lon="12.2532639"><ele>755.0</ele><time>2026-04-26T12:44:29.608Z</time></trkpt><trkpt lat="46.103276" lon="12.2532788"><ele>755.0</ele><time>2026-04-26T12:44:32.599Z</time></trkpt><trkpt lat="46.10334" lon="12.2533017"><ele>755.0</ele><time>2026-04-26T12:44:35.6Z</time></trkpt><trkpt lat="46.10341" lon="12.2533053"><ele>755.0</ele><time>2026-04-26T12:44:38.61Z</time></trkpt><trkpt lat="46.1034741" lon="12.2533609"><ele>753.8333333333333</ele><time>2026-04-26T12:44:41.594Z</time></trkpt><trkpt lat="46.1035331" lon="12.2534501"><ele>752.6666666666666</ele><time>2026-04-26T12:44:44.607Z</time></trkpt><trkpt lat="46.103615" lon="12.2534825"><ele>751.5</ele><time>2026-04-26T12:44:47.608Z</time></trkpt><trkpt lat="46.1036879" lon="12.253517"><ele>750.3333333333334</ele><time>2026-04-26T12:44:50.595Z</time></trkpt><trkpt lat="46.1037632" lon="12.2535898"><ele>749.1666666666667</ele><time>2026-04-26T12:44:53.609Z</time></trkpt><trkpt lat="46.1038107" lon="12.2536993"><ele>748.0</ele><time>2026-04-26T12:44:56.608Z</time></trkpt><trkpt lat="46.1038519" lon="12.2537989"><ele>748.0</ele><time>2026-04-26T12:44:59.608Z</time></trkpt><trkpt lat="46.1039426" lon="12.2538353"><ele>748.0</ele><time>2026-04-26T12:45:02.61Z</time></trkpt><trkpt lat="46.1040131" lon="12.2538028"><ele>748.0</ele><time>2026-04-26T12:45:05.603Z</time></trkpt><trkpt lat="46.104089" lon="12.2537454"><ele>748.0</ele><time>2026-04-26T12:45:09.613Z</time></trkpt><trkpt lat="46.1041493" lon="12.2537087"><ele>748.0</ele><time>2026-04-26T12:45:11.603Z</time></trkpt><trkpt lat="46.1042118" lon="12.2536857"><ele>748.0</ele><time>2026-04-26T12:45:13.61Z</time></trkpt><trkpt lat="46.1043014" lon="12.253706"><ele>746.7142857142857</ele><time>2026-04-26T12:45:16.607Z</time></trkpt><trkpt lat="46.1043613" lon="12.2537636"><ele>745.4285714285714</ele><time>2026-04-26T12:45:18.604Z</time></trkpt><trkpt lat="46.1044232" lon="12.2538277"><ele>744.1428571428571</ele><time>2026-04-26T12:45:20.609Z</time></trkpt><trkpt lat="46.1044888" lon="12.2538904"><ele>742.8571428571429</ele><time>2026-04-26T12:45:22.608Z</time></trkpt><trkpt lat="46.1045457" lon="12.2539474"><ele>741.5714285714287</ele><time>2026-04-26T12:45:24.61Z</time></trkpt><trkpt lat="46.1046183" lon="12.2539702"><ele>740.2857142857143</ele><time>2026-04-26T12:45:26.606Z</time></trkpt><trkpt lat="46.1046961" lon="12.2539614"><ele>739.0</ele><time>2026-04-26T12:45:28.606Z</time></trkpt><trkpt lat="46.1047819" lon="12.2539321"><ele>739.0</ele><time>2026-04-26T12:45:31.627Z</time></trkpt><trkpt lat="46.1048483" lon="12.2539428"><ele>739.0</ele><time>2026-04-26T12:45:34.61Z</time></trkpt><trkpt lat="46.1049068" lon="12.253978"><ele>739.0</ele><time>2026-04-26T12:45:36.609Z</time></trkpt><trkpt lat="46.1049662" lon="12.2540319"><ele>739.0</ele><time>2026-04-26T12:45:38.603Z</time></trkpt><trkpt lat="46.1050245" lon="12.2540879"><ele>739.0</ele><time>2026-04-26T12:45:40.608Z</time></trkpt><trkpt lat="46.1050814" lon="12.2541388"><ele>739.0</ele><time>2026-04-26T12:45:42.611Z</time></trkpt><trkpt lat="46.1051356" lon="12.254189"><ele>739.0</ele><time>2026-04-26T12:45:44.609Z</time></trkpt><trkpt lat="46.1051952" lon="12.2542426"><ele>742.1666666666667</ele><time>2026-04-26T12:45:46.599Z</time></trkpt><trkpt lat="46.1052521" lon="12.254289"><ele>745.3333333333334</ele><time>2026-04-26T12:45:48.608Z</time></trkpt><trkpt lat="46.1053197" lon="12.2543364"><ele>748.5</ele><time>2026-04-26T12:45:50.61Z</time></trkpt><trkpt lat="46.105386" lon="12.2543746"><ele>751.6666666666666</ele><time>2026-04-26T12:45:52.611Z</time></trkpt><trkpt lat="46.1054642" lon="12.2544314"><ele>754.8333333333333</ele><time>2026-04-26T12:45:55.61Z</time></trkpt><trkpt lat="46.1055481" lon="12.2545"><ele>758.0</ele><time>2026-04-26T12:45:58.608Z</time></trkpt><trkpt lat="46.1056047" lon="12.2545536"><ele>758.0000000000001</ele><time>2026-04-26T12:46:00.607Z</time></trkpt><trkpt lat="46.1056575" lon="12.254614"><ele>758.0</ele><time>2026-04-26T12:46:02.609Z</time></trkpt><trkpt lat="46.1056933" lon="12.2546973"><ele>758.0</ele><time>2026-04-26T12:46:04.614Z</time></trkpt><trkpt lat="46.1057263" lon="12.2547921"><ele>758.0</ele><time>2026-04-26T12:46:06.614Z</time></trkpt><trkpt lat="46.1057614" lon="12.2548832"><ele>758.0</ele><time>2026-04-26T12:46:08.61Z</time></trkpt><trkpt lat="46.1058067" lon="12.254972"><ele>758.0000000000001</ele><time>2026-04-26T12:46:10.612Z</time></trkpt><trkpt lat="46.1058534" lon="12.2550472"><ele>758.0</ele><time>2026-04-26T12:46:12.608Z</time></trkpt><trkpt lat="46.1058971" lon="12.255119"><ele>759.3333333333333</ele><time>2026-04-26T12:46:14.602Z</time></trkpt><trkpt lat="46.10595" lon="12.2552141"><ele>760.6666666666666</ele><time>2026-04-26T12:46:17.609Z</time></trkpt><trkpt lat="46.1060061" lon="12.2552685"><ele>762.0</ele><time>2026-04-26T12:46:20.596Z</time></trkpt><trkpt lat="46.1060829" lon="12.2553253"><ele>763.3333333333334</ele><time>2026-04-26T12:46:23.611Z</time></trkpt><trkpt lat="46.1061217" lon="12.2553992"><ele>764.6666666666667</ele><time>2026-04-26T12:46:25.603Z</time></trkpt><trkpt lat="46.1061776" lon="12.2554673"><ele>766.0</ele><time>2026-04-26T12:46:28.604Z</time></trkpt><trkpt lat="46.106211" lon="12.2555644"><ele>769.4285714285714</ele><time>2026-04-26T12:46:32.61Z</time></trkpt><trkpt lat="46.1062372" lon="12.2556544"><ele>772.8571428571429</ele><time>2026-04-26T12:46:36.608Z</time></trkpt><trkpt lat="46.1062855" lon="12.2557397"><ele>776.2857142857142</ele><time>2026-04-26T12:46:40.611Z</time></trkpt><trkpt lat="46.1063245" lon="12.2558251"><ele>779.7142857142858</ele><time>2026-04-26T12:46:44.607Z</time></trkpt><trkpt lat="46.1063718" lon="12.2559163"><ele>783.1428571428572</ele><time>2026-04-26T12:46:48.609Z</time></trkpt><trkpt lat="46.1064121" lon="12.2560007"><ele>786.5714285714286</ele><time>2026-04-26T12:46:52.609Z</time></trkpt><trkpt lat="46.1064651" lon="12.2560816"><ele>790.0</ele><time>2026-04-26T12:46:56.613Z</time></trkpt><trkpt lat="46.1065181" lon="12.2561701"><ele>790.0</ele><time>2026-04-26T12:47:00.614Z</time></trkpt><trkpt lat="46.1065676" lon="12.2562588"><ele>790.0</ele><time>2026-04-26T12:47:04.609Z</time></trkpt><trkpt lat="46.1065564" lon="12.2563546"><ele>790.0</ele><time>2026-04-26T12:47:08.609Z</time></trkpt><trkpt lat="46.1064929" lon="12.256359"><ele>790.0</ele><time>2026-04-26T12:47:11.602Z</time></trkpt><trkpt lat="46.1064233" lon="12.256299"><ele>790.0</ele><time>2026-04-26T12:47:15.6Z</time></trkpt><trkpt lat="46.1063615" lon="12.2563178"><ele>790.0</ele><time>2026-04-26T12:47:19.601Z</time></trkpt><trkpt lat="46.1063916" lon="12.2564103"><ele>790.0</ele><time>2026-04-26T12:47:23.608Z</time></trkpt><trkpt lat="46.106442" lon="12.25647"><ele>790.0</ele><time>2026-04-26T12:47:26.61Z</time></trkpt><trkpt lat="46.1064906" lon="12.25654"><ele>790.0</ele><time>2026-04-26T12:47:29.611Z</time></trkpt><trkpt lat="46.1064796" lon="12.2566363"><ele>790.0</ele><time>2026-04-26T12:47:33.608Z</time></trkpt><trkpt lat="46.1064081" lon="12.2566094"><ele>790.0</ele><time>2026-04-26T12:47:37.606Z</time></trkpt><trkpt lat="46.1063541" lon="12.2565474"><ele>790.0</ele><time>2026-04-26T12:47:41.609Z</time></trkpt><trkpt lat="46.1063011" lon="12.2564797"><ele>790.0</ele><time>2026-04-26T12:47:45.603Z</time></trkpt><trkpt lat="46.1062459" lon="12.2564283"><ele>790.0</ele><time>2026-04-26T12:47:48.606Z</time></trkpt><trkpt lat="46.1061839" lon="12.2563709"><ele>790.0</ele><time>2026-04-26T12:47:52.599Z</time></trkpt><trkpt lat="46.1061249" lon="12.256328"><ele>790.0</ele><time>2026-04-26T12:47:55.606Z</time></trkpt><trkpt lat="46.1060718" lon="12.2562717"><ele>790.0</ele><time>2026-04-26T12:47:58.598Z</time></trkpt><trkpt lat="46.1060289" lon="12.2562041"><ele>790.0</ele><time>2026-04-26T12:48:01.605Z</time></trkpt><trkpt lat="46.1059671" lon="12.2561684"><ele>790.0</ele><time>2026-04-26T12:48:04.596Z</time></trkpt><trkpt lat="46.1058926" lon="12.2561533"><ele>790.0</ele><time>2026-04-26T12:48:08.607Z</time></trkpt><trkpt lat="46.1058215" lon="12.256134"><ele>790.0</ele><time>2026-04-26T12:48:11.607Z</time></trkpt><trkpt lat="46.1057485" lon="12.2561171"><ele>792.5714285714286</ele><time>2026-04-26T12:48:14.606Z</time></trkpt><trkpt lat="46.1056756" lon="12.2560889"><ele>795.1428571428572</ele><time>2026-04-26T12:48:17.607Z</time></trkpt><trkpt lat="46.1056053" lon="12.2560738"><ele>797.7142857142858</ele><time>2026-04-26T12:48:20.602Z</time></trkpt><trkpt lat="46.1055393" lon="12.2560516"><ele>800.2857142857142</ele><time>2026-04-26T12:48:23.595Z</time></trkpt><trkpt lat="46.1054713" lon="12.2560029"><ele>802.8571428571429</ele><time>2026-04-26T12:48:26.602Z</time></trkpt><trkpt lat="46.1054055" lon="12.2559695"><ele>805.4285714285714</ele><time>2026-04-26T12:48:29.597Z</time></trkpt><trkpt lat="46.1053393" lon="12.2559355"><ele>808.0</ele><time>2026-04-26T12:48:32.598Z</time></trkpt><trkpt lat="46.1052674" lon="12.2559078"><ele>808.0</ele><time>2026-04-26T12:48:35.603Z</time></trkpt><trkpt lat="46.105202" lon="12.2558826"><ele>808.0</ele><time>2026-04-26T12:48:38.599Z</time></trkpt><trkpt lat="46.1051193" lon="12.2558601"><ele>808.0</ele><time>2026-04-26T12:48:42.596Z</time></trkpt><trkpt lat="46.1050542" lon="12.2558598"><ele>808.0</ele><time>2026-04-26T12:48:45.598Z</time></trkpt><trkpt lat="46.1049889" lon="12.2558748"><ele>808.0</ele><time>2026-04-26T12:48:48.603Z</time></trkpt><trkpt lat="46.104915" lon="12.255885"><ele>808.0</ele><time>2026-04-26T12:48:51.596Z</time></trkpt><trkpt lat="46.1048375" lon="12.25588"><ele>808.0</ele><time>2026-04-26T12:48:55.597Z</time></trkpt><trkpt lat="46.1047606" lon="12.2558685"><ele>809.1428571428571</ele><time>2026-04-26T12:48:59.605Z</time></trkpt><trkpt lat="46.1046935" lon="12.2558688"><ele>810.2857142857142</ele><time>2026-04-26T12:49:02.606Z</time></trkpt><trkpt lat="46.1046284" lon="12.2558695"><ele>811.4285714285714</ele><time>2026-04-26T12:49:05.607Z</time></trkpt><trkpt lat="46.1045455" lon="12.2559143"><ele>812.5714285714286</ele><time>2026-04-26T12:49:09.595Z</time></trkpt><trkpt lat="46.1044705" lon="12.2559525"><ele>813.7142857142858</ele><time>2026-04-26T12:49:12.595Z</time></trkpt><trkpt lat="46.1043989" lon="12.2559938"><ele>814.8571428571429</ele><time>2026-04-26T12:49:15.596Z</time></trkpt><trkpt lat="46.1043384" lon="12.2560499"><ele>816.0</ele><time>2026-04-26T12:49:18.597Z</time></trkpt><trkpt lat="46.1042814" lon="12.2561147"><ele>816.0</ele><time>2026-04-26T12:49:21.593Z</time></trkpt><trkpt lat="46.1042064" lon="12.256132"><ele>816.0</ele><time>2026-04-26T12:49:24.752Z</time></trkpt><trkpt lat="46.1041399" lon="12.2561153"><ele>816.0</ele><time>2026-04-26T12:49:27.605Z</time></trkpt><trkpt lat="46.1040843" lon="12.2560558"><ele>816.0</ele><time>2026-04-26T12:49:30.598Z</time></trkpt><trkpt lat="46.1040177" lon="12.2560293"><ele>816.0</ele><time>2026-04-26T12:49:33.607Z</time></trkpt><trkpt lat="46.1039645" lon="12.2560938"><ele>816.0</ele><time>2026-04-26T12:49:36.59Z</time></trkpt><trkpt lat="46.104" lon="12.2561913"><ele>816.0</ele><time>2026-04-26T12:49:39.599Z</time></trkpt><trkpt lat="46.1040546" lon="12.2562812"><ele>816.0</ele><time>2026-04-26T12:49:43.599Z</time></trkpt><trkpt lat="46.1040934" lon="12.2563623"><ele>816.0</ele><time>2026-04-26T12:49:46.599Z</time></trkpt><trkpt lat="46.1041534" lon="12.2564195"><ele>816.0</ele><time>2026-04-26T12:49:49.604Z</time></trkpt><trkpt lat="46.1042229" lon="12.2564309"><ele>816.0</ele><time>2026-04-26T12:49:52.607Z</time></trkpt><trkpt lat="46.1042956" lon="12.2564121"><ele>816.0</ele><time>2026-04-26T12:49:55.605Z</time></trkpt><trkpt lat="46.1043713" lon="12.2564224"><ele>816.0</ele><time>2026-04-26T12:49:58.597Z</time></trkpt><trkpt lat="46.1044278" lon="12.2564748"><ele>816.0</ele><time>2026-04-26T12:50:01.599Z</time></trkpt><trkpt lat="46.1044725" lon="12.2565565"><ele>818.8571428571429</ele><time>2026-04-26T12:50:04.594Z</time></trkpt><trkpt lat="46.1045208" lon="12.256628"><ele>821.7142857142858</ele><time>2026-04-26T12:50:07.593Z</time></trkpt><trkpt lat="46.1045749" lon="12.2567035"><ele>824.5714285714286</ele><time>2026-04-26T12:50:10.595Z</time></trkpt><trkpt lat="46.1046344" lon="12.2567697"><ele>827.4285714285714</ele><time>2026-04-26T12:50:13.592Z</time></trkpt><trkpt lat="46.1046926" lon="12.2568417"><ele>830.2857142857142</ele><time>2026-04-26T12:50:16.597Z</time></trkpt><trkpt lat="46.1047378" lon="12.2569102"><ele>833.1428571428571</ele><time>2026-04-26T12:50:19.594Z</time></trkpt><trkpt lat="46.1047985" lon="12.2569792"><ele>836.0</ele><time>2026-04-26T12:50:22.596Z</time></trkpt><trkpt lat="46.10485" lon="12.2570367"><ele>835.3333333333334</ele><time>2026-04-26T12:50:25.605Z</time></trkpt><trkpt lat="46.1049171" lon="12.2571049"><ele>834.6666666666667</ele><time>2026-04-26T12:50:28.606Z</time></trkpt><trkpt lat="46.104995" lon="12.2571743"><ele>834.0</ele><time>2026-04-26T12:50:31.596Z</time></trkpt><trkpt lat="46.1050457" lon="12.2572459"><ele>833.3333333333333</ele><time>2026-04-26T12:50:34.597Z</time></trkpt><trkpt lat="46.1051104" lon="12.2573135"><ele>832.6666666666666</ele><time>2026-04-26T12:50:38.598Z</time></trkpt><trkpt lat="46.1051647" lon="12.2573704"><ele>832.0</ele><time>2026-04-26T12:50:41.592Z</time></trkpt><trkpt lat="46.1052198" lon="12.2574437"><ele>835.4999999999999</ele><time>2026-04-26T12:50:44.597Z</time></trkpt><trkpt lat="46.1052895" lon="12.2575096"><ele>839.0</ele><time>2026-04-26T12:50:47.621Z</time></trkpt><trkpt lat="46.1053654" lon="12.2575328"><ele>842.5</ele><time>2026-04-26T12:50:50.598Z</time></trkpt><trkpt lat="46.1054399" lon="12.257551"><ele>846.0</ele><time>2026-04-26T12:50:54.605Z</time></trkpt><trkpt lat="46.1055014" lon="12.2576138"><ele>849.4999999999999</ele><time>2026-04-26T12:50:57.594Z</time></trkpt><trkpt lat="46.105584" lon="12.2576554"><ele>853.0</ele><time>2026-04-26T12:51:00.602Z</time></trkpt><trkpt lat="46.1056529" lon="12.2576907"><ele>853.0</ele><time>2026-04-26T12:51:03.598Z</time></trkpt><trkpt lat="46.105737" lon="12.2577124"><ele>853.0</ele><time>2026-04-26T12:51:49.597Z</time></trkpt><trkpt lat="46.1058022" lon="12.2577525"><ele>853.0</ele><time>2026-04-26T12:52:05.605Z</time></trkpt><trkpt lat="46.1058668" lon="12.2577649"><ele>853.0</ele><time>2026-04-26T12:54:24.595Z</time></trkpt><trkpt lat="46.1059259" lon="12.2578274"><ele>853.0</ele><time>2026-04-26T12:54:29.604Z</time></trkpt><trkpt lat="46.1059808" lon="12.2579034"><ele>853.0</ele><time>2026-04-26T12:54:32.594Z</time></trkpt><trkpt lat="46.1060216" lon="12.2579905"><ele>853.0</ele><time>2026-04-26T12:54:35.603Z</time></trkpt><trkpt lat="46.1060582" lon="12.2580986"><ele>853.6666666666666</ele><time>2026-04-26T12:54:38.605Z</time></trkpt><trkpt lat="46.1060854" lon="12.2582037"><ele>854.3333333333333</ele><time>2026-04-26T12:54:41.605Z</time></trkpt><trkpt lat="46.1061082" lon="12.2583068"><ele>855.0</ele><time>2026-04-26T12:54:44.603Z</time></trkpt><trkpt lat="46.1061323" lon="12.2584138"><ele>855.6666666666667</ele><time>2026-04-26T12:54:47.603Z</time></trkpt><trkpt lat="46.1061486" lon="12.25854"><ele>856.3333333333334</ele><time>2026-04-26T12:54:50.604Z</time></trkpt><trkpt lat="46.1061616" lon="12.258667"><ele>857.0</ele><time>2026-04-26T12:54:53.597Z</time></trkpt><trkpt lat="46.1061999" lon="12.2587813"><ele>857.0000000000001</ele><time>2026-04-26T12:54:56.604Z</time></trkpt><trkpt lat="46.106282" lon="12.2588305"><ele>857.0</ele><time>2026-04-26T12:54:59.605Z</time></trkpt><trkpt lat="46.1063641" lon="12.258778"><ele>857.0</ele><time>2026-04-26T12:55:02.604Z</time></trkpt><trkpt lat="46.1064321" lon="12.2586983"><ele>857.0</ele><time>2026-04-26T12:55:05.602Z</time></trkpt><trkpt lat="46.1065114" lon="12.2586335"><ele>857.0000000000001</ele><time>2026-04-26T12:55:08.605Z</time></trkpt><trkpt lat="46.1065895" lon="12.2586222"><ele>857.0</ele><time>2026-04-26T12:55:11.595Z</time></trkpt><trkpt lat="46.1066623" lon="12.2586678"><ele>857.0</ele><time>2026-04-26T12:55:14.605Z</time></trkpt><trkpt lat="46.1067256" lon="12.2587266"><ele>857.0</ele><time>2026-04-26T12:55:17.604Z</time></trkpt><trkpt lat="46.1067721" lon="12.2588026"><ele>857.0</ele><time>2026-04-26T12:55:20.606Z</time></trkpt><trkpt lat="46.1068206" lon="12.2588729"><ele>857.0</ele><time>2026-04-26T12:55:23.605Z</time></trkpt><trkpt lat="46.1068981" lon="12.2589747"><ele>857.0</ele><time>2026-04-26T12:55:28.6Z</time></trkpt><trkpt lat="46.106939" lon="12.2590465"><ele>857.0</ele><time>2026-04-26T12:55:31.606Z</time></trkpt><trkpt lat="46.1069839" lon="12.2591152"><ele>857.0</ele><time>2026-04-26T12:55:34.606Z</time></trkpt><trkpt lat="46.1070335" lon="12.2591992"><ele>857.0</ele><time>2026-04-26T12:55:38.598Z</time></trkpt><trkpt lat="46.1070795" lon="12.2592959"><ele>857.0</ele><time>2026-04-26T12:55:42.604Z</time></trkpt><trkpt lat="46.107115" lon="12.2593741"><ele>857.0</ele><time>2026-04-26T12:55:45.596Z</time></trkpt><trkpt lat="46.1071501" lon="12.2594531"><ele>857.0</ele><time>2026-04-26T12:55:48.591Z</time></trkpt><trkpt lat="46.1071829" lon="12.2595353"><ele>857.0</ele><time>2026-04-26T12:55:51.593Z</time></trkpt><trkpt lat="46.1072136" lon="12.259617"><ele>857.0</ele><time>2026-04-26T12:55:54.594Z</time></trkpt><trkpt lat="46.1072446" lon="12.2597019"><ele>857.0</ele><time>2026-04-26T12:55:57.594Z</time></trkpt><trkpt lat="46.1072758" lon="12.2598106"><ele>857.8571428571429</ele><time>2026-04-26T12:56:01.593Z</time></trkpt><trkpt lat="46.1073125" lon="12.2598892"><ele>858.7142857142857</ele><time>2026-04-26T12:56:04.591Z</time></trkpt><trkpt lat="46.107345" lon="12.2599703"><ele>859.5714285714287</ele><time>2026-04-26T12:56:07.593Z</time></trkpt><trkpt lat="46.1073908" lon="12.2600575"><ele>860.4285714285714</ele><time>2026-04-26T12:56:10.593Z</time></trkpt><trkpt lat="46.1074431" lon="12.260155"><ele>861.2857142857143</ele><time>2026-04-26T12:56:14.588Z</time></trkpt><trkpt lat="46.107476" lon="12.260244"><ele>862.1428571428572</ele><time>2026-04-26T12:56:17.598Z</time></trkpt><trkpt lat="46.1075066" lon="12.2603428"><ele>863.0</ele><time>2026-04-26T12:56:20.595Z</time></trkpt><trkpt lat="46.1075333" lon="12.2604422"><ele>863.0000000000001</ele><time>2026-04-26T12:56:23.604Z</time></trkpt><trkpt lat="46.1075671" lon="12.2605374"><ele>863.0</ele><time>2026-04-26T12:56:26.604Z</time></trkpt><trkpt lat="46.1076023" lon="12.2606377"><ele>863.0</ele><time>2026-04-26T12:56:29.594Z</time></trkpt><trkpt lat="46.1076321" lon="12.260738"><ele>863.0</ele><time>2026-04-26T12:56:32.594Z</time></trkpt><trkpt lat="46.1076683" lon="12.2608355"><ele>863.0000000000001</ele><time>2026-04-26T12:56:35.59Z</time></trkpt><trkpt lat="46.1076932" lon="12.2609382"><ele>863.0</ele><time>2026-04-26T12:56:38.593Z</time></trkpt><trkpt lat="46.1077251" lon="12.2610321"><ele>865.1666666666667</ele><time>2026-04-26T12:56:41.601Z</time></trkpt><trkpt lat="46.1077598" lon="12.2611154"><ele>867.3333333333334</ele><time>2026-04-26T12:56:44.604Z</time></trkpt><trkpt lat="46.1078048" lon="12.2612162"><ele>869.5</ele><time>2026-04-26T12:56:48.602Z</time></trkpt><trkpt lat="46.107836" lon="12.2612953"><ele>871.6666666666667</ele><time>2026-04-26T12:56:51.602Z</time></trkpt><trkpt lat="46.1078736" lon="12.2613838"><ele>873.8333333333334</ele><time>2026-04-26T12:56:54.6Z</time></trkpt><trkpt lat="46.1079172" lon="12.2615125"><ele>876.0</ele><time>2026-04-26T12:56:58.598Z</time></trkpt><trkpt lat="46.1079486" lon="12.2616098"><ele>878.0</ele><time>2026-04-26T12:57:01.595Z</time></trkpt><trkpt lat="46.1079773" lon="12.2617272"><ele>880.0</ele><time>2026-04-26T12:57:05.595Z</time></trkpt><trkpt lat="46.1080082" lon="12.2618219"><ele>882.0</ele><time>2026-04-26T12:57:08.596Z</time></trkpt><trkpt lat="46.1080358" lon="12.2619216"><ele>884.0</ele><time>2026-04-26T12:57:11.59Z</time></trkpt><trkpt lat="46.1080248" lon="12.2620275"><ele>886.0</ele><time>2026-04-26T12:57:19.592Z</time></trkpt><trkpt lat="46.1080893" lon="12.2620911"><ele>888.0</ele><time>2026-04-26T12:57:22.595Z</time></trkpt><trkpt lat="46.1081699" lon="12.2621748"><ele>888.0</ele><time>2026-04-26T12:57:25.59Z</time></trkpt><trkpt lat="46.1082158" lon="12.2622522"><ele>888.0</ele><time>2026-04-26T12:57:27.595Z</time></trkpt><trkpt lat="46.1082651" lon="12.2623429"><ele>888.0</ele><time>2026-04-26T12:57:30.591Z</time></trkpt><trkpt lat="46.1082885" lon="12.2624418"><ele>888.0</ele><time>2026-04-26T12:57:33.595Z</time></trkpt><trkpt lat="46.1082844" lon="12.2625598"><ele>888.0</ele><time>2026-04-26T12:57:37.596Z</time></trkpt><trkpt lat="46.1082492" lon="12.2626461"><ele>888.0</ele><time>2026-04-26T12:57:41.597Z</time></trkpt><trkpt lat="46.1081964" lon="12.2627122"><ele>888.0</ele><time>2026-04-26T12:57:45.593Z</time></trkpt><trkpt lat="46.1081339" lon="12.262731"><ele>889.1428571428571</ele><time>2026-04-26T12:57:48.606Z</time></trkpt><trkpt lat="46.1080646" lon="12.2627329"><ele>890.2857142857143</ele><time>2026-04-26T12:57:51.603Z</time></trkpt><trkpt lat="46.1080033" lon="12.2627806"><ele>891.4285714285714</ele><time>2026-04-26T12:57:54.596Z</time></trkpt><trkpt lat="46.1079416" lon="12.2628552"><ele>892.5714285714286</ele><time>2026-04-26T12:57:58.601Z</time></trkpt><trkpt lat="46.1078945" lon="12.2629204"><ele>893.7142857142858</ele><time>2026-04-26T12:58:02.602Z</time></trkpt><trkpt lat="46.1078528" lon="12.2629915"><ele>894.8571428571429</ele><time>2026-04-26T12:58:06.595Z</time></trkpt><trkpt lat="46.1078084" lon="12.2630723"><ele>896.0</ele><time>2026-04-26T12:58:10.601Z</time></trkpt><trkpt lat="46.107761" lon="12.2631635"><ele>897.2857142857142</ele><time>2026-04-26T12:58:14.606Z</time></trkpt><trkpt lat="46.1077222" lon="12.2632459"><ele>898.5714285714286</ele><time>2026-04-26T12:58:18.596Z</time></trkpt><trkpt lat="46.1076874" lon="12.2633232"><ele>899.8571428571429</ele><time>2026-04-26T12:58:22.602Z</time></trkpt><trkpt lat="46.1076379" lon="12.2634126"><ele>901.1428571428571</ele><time>2026-04-26T12:58:27.598Z</time></trkpt><trkpt lat="46.1075944" lon="12.2634957"><ele>902.4285714285713</ele><time>2026-04-26T12:58:31.604Z</time></trkpt><trkpt lat="46.1075695" lon="12.2635836"><ele>903.7142857142857</ele><time>2026-04-26T12:58:34.604Z</time></trkpt><trkpt lat="46.1075314" lon="12.2636611"><ele>905.0</ele><time>2026-04-26T12:58:37.601Z</time></trkpt><trkpt lat="46.1074833" lon="12.2637202"><ele>905.0</ele><time>2026-04-26T12:58:40.596Z</time></trkpt><trkpt lat="46.1074261" lon="12.2637926"><ele>904.9999999999999</ele><time>2026-04-26T12:58:44.603Z</time></trkpt><trkpt lat="46.1073646" lon="12.263861"><ele>905.0</ele><time>2026-04-26T12:58:48.595Z</time></trkpt><trkpt lat="46.1072968" lon="12.2638831"><ele>905.0</ele><time>2026-04-26T12:58:52.603Z</time></trkpt><trkpt lat="46.1072703" lon="12.2639674"><ele>904.9999999999999</ele><time>2026-04-26T12:58:57.601Z</time></trkpt><trkpt lat="46.1072593" lon="12.2640813"><ele>905.0</ele><time>2026-04-26T12:59:01.594Z</time></trkpt><trkpt lat="46.1072668" lon="12.2641806"><ele>905.0</ele><time>2026-04-26T12:59:04.592Z</time></trkpt><trkpt lat="46.1072818" lon="12.2642754"><ele>907.1428571428571</ele><time>2026-04-26T12:59:07.596Z</time></trkpt><trkpt lat="46.1072909" lon="12.2643724"><ele>909.2857142857142</ele><time>2026-04-26T12:59:10.595Z</time></trkpt><trkpt lat="46.1072695" lon="12.2644896"><ele>911.4285714285713</ele><time>2026-04-26T12:59:14.594Z</time></trkpt><trkpt lat="46.1072552" lon="12.2645834"><ele>913.5714285714284</ele><time>2026-04-26T12:59:17.604Z</time></trkpt><trkpt lat="46.1072396" lon="12.2646775"><ele>915.7142857142857</ele><time>2026-04-26T12:59:20.597Z</time></trkpt><trkpt lat="46.1072173" lon="12.2647813"><ele>917.8571428571427</ele><time>2026-04-26T12:59:23.6Z</time></trkpt><trkpt lat="46.1071935" lon="12.2648829"><ele>919.9999999999999</ele><time>2026-04-26T12:59:26.602Z</time></trkpt><trkpt lat="46.1071709" lon="12.2649765"><ele>921.0000000000001</ele><time>2026-04-26T12:59:29.602Z</time></trkpt><trkpt lat="46.1071514" lon="12.2650877"><ele>922.0</ele><time>2026-04-26T12:59:32.601Z</time></trkpt><trkpt lat="46.1071282" lon="12.2652043"><ele>923.0</ele><time>2026-04-26T12:59:35.588Z</time></trkpt><trkpt lat="46.1071038" lon="12.2653214"><ele>924.0</ele><time>2026-04-26T12:59:38.595Z</time></trkpt><trkpt lat="46.1070773" lon="12.2654353"><ele>925.0000000000001</ele><time>2026-04-26T12:59:41.606Z</time></trkpt><trkpt lat="46.1070532" lon="12.2655438"><ele>926.0</ele><time>2026-04-26T12:59:44.591Z</time></trkpt><trkpt lat="46.1070309" lon="12.2656461"><ele>927.4285714285713</ele><time>2026-04-26T12:59:47.593Z</time></trkpt><trkpt lat="46.1070065" lon="12.2657484"><ele>928.8571428571428</ele><time>2026-04-26T12:59:50.602Z</time></trkpt><trkpt lat="46.1069824" lon="12.2658367"><ele>930.2857142857142</ele><time>2026-04-26T12:59:53.601Z</time></trkpt><trkpt lat="46.1069634" lon="12.2659236"><ele>931.7142857142858</ele><time>2026-04-26T12:59:56.588Z</time></trkpt><trkpt lat="46.1069382" lon="12.2660362"><ele>933.1428571428572</ele><time>2026-04-26T13:00:00.593Z</time></trkpt><trkpt lat="46.1069167" lon="12.2661264"><ele>934.5714285714287</ele><time>2026-04-26T13:00:03.593Z</time></trkpt><trkpt lat="46.106889" lon="12.2662202"><ele>936.0</ele><time>2026-04-26T13:00:06.596Z</time></trkpt><trkpt lat="46.1068335" lon="12.2663113"><ele>936.0</ele><time>2026-04-26T13:00:10.603Z</time></trkpt><trkpt lat="46.1068255" lon="12.2664017"><ele>936.0000000000001</ele><time>2026-04-26T13:00:13.601Z</time></trkpt><trkpt lat="46.1068261" lon="12.2665026"><ele>936.0</ele><time>2026-04-26T13:00:16.594Z</time></trkpt><trkpt lat="46.1068273" lon="12.2666177"><ele>936.0</ele><time>2026-04-26T13:00:19.597Z</time></trkpt><trkpt lat="46.1068047" lon="12.2667172"><ele>936.0000000000001</ele><time>2026-04-26T13:00:22.602Z</time></trkpt><trkpt lat="46.1067808" lon="12.2668199"><ele>936.0</ele><time>2026-04-26T13:00:25.602Z</time></trkpt><trkpt lat="46.1067575" lon="12.2669139"><ele>936.0</ele><time>2026-04-26T13:00:28.6Z</time></trkpt><trkpt lat="46.1067263" lon="12.2669968"><ele>936.4285714285714</ele><time>2026-04-26T13:00:31.602Z</time></trkpt><trkpt lat="46.1066814" lon="12.2670688"><ele>936.8571428571429</ele><time>2026-04-26T13:00:34.6Z</time></trkpt><trkpt lat="46.1066226" lon="12.2671196"><ele>937.2857142857143</ele><time>2026-04-26T13:00:37.602Z</time></trkpt><trkpt lat="46.1065627" lon="12.2672064"><ele>937.7142857142858</ele><time>2026-04-26T13:00:41.604Z</time></trkpt><trkpt lat="46.1065113" lon="12.2672863"><ele>938.1428571428571</ele><time>2026-04-26T13:00:44.603Z</time></trkpt><trkpt lat="46.1064597" lon="12.2673621"><ele>938.5714285714287</ele><time>2026-04-26T13:00:47.601Z</time></trkpt><trkpt lat="46.1064093" lon="12.2674365"><ele>939.0</ele><time>2026-04-26T13:00:50.603Z</time></trkpt><trkpt lat="46.1063657" lon="12.2675289"><ele>942.5</ele><time>2026-04-26T13:00:54.601Z</time></trkpt><trkpt lat="46.1063202" lon="12.2676055"><ele>946.0</ele><time>2026-04-26T13:00:58.597Z</time></trkpt><trkpt lat="46.1062565" lon="12.2676689"><ele>949.5</ele><time>2026-04-26T13:01:02.601Z</time></trkpt><trkpt lat="46.106187" lon="12.2677372"><ele>953.0</ele><time>2026-04-26T13:01:06.597Z</time></trkpt><trkpt lat="46.1061274" lon="12.2678039"><ele>956.5</ele><time>2026-04-26T13:01:09.603Z</time></trkpt><trkpt lat="46.1060619" lon="12.267871"><ele>960.0</ele><time>2026-04-26T13:01:12.599Z</time></trkpt><trkpt lat="46.1060008" lon="12.2679406"><ele>960.0</ele><time>2026-04-26T13:01:15.603Z</time></trkpt><trkpt lat="46.1059344" lon="12.2680056"><ele>960.0</ele><time>2026-04-26T13:01:18.601Z</time></trkpt><trkpt lat="46.105856" lon="12.268077"><ele>960.0</ele><time>2026-04-26T13:01:21.602Z</time></trkpt><trkpt lat="46.1057776" lon="12.2681464"><ele>960.0</ele><time>2026-04-26T13:01:24.602Z</time></trkpt><trkpt lat="46.105702" lon="12.2682171"><ele>960.0</ele><time>2026-04-26T13:01:27.601Z</time></trkpt><trkpt lat="46.1056308" lon="12.2682676"><ele>960.0</ele><time>2026-04-26T13:01:30.593Z</time></trkpt><trkpt lat="46.1055333" lon="12.2682959"><ele>961.3333333333334</ele><time>2026-04-26T13:01:33.6Z</time></trkpt><trkpt lat="46.1054517" lon="12.2683139"><ele>962.6666666666667</ele><time>2026-04-26T13:01:35.6Z</time></trkpt><trkpt lat="46.1053604" lon="12.2683312"><ele>964.0</ele><time>2026-04-26T13:01:38.6Z</time></trkpt><trkpt lat="46.1052766" lon="12.2683413"><ele>965.3333333333334</ele><time>2026-04-26T13:01:41.603Z</time></trkpt><trkpt lat="46.1052062" lon="12.268357"><ele>966.6666666666667</ele><time>2026-04-26T13:01:44.6Z</time></trkpt><trkpt lat="46.1051324" lon="12.268368"><ele>968.0</ele><time>2026-04-26T13:01:47.601Z</time></trkpt><trkpt lat="46.1050558" lon="12.2683881"><ele>968.0</ele><time>2026-04-26T13:01:50.701Z</time></trkpt><trkpt lat="46.104993" lon="12.2683619"><ele>967.9999999999999</ele><time>2026-04-26T13:01:54.588Z</time></trkpt><trkpt lat="46.1049873" lon="12.26826"><ele>968.0</ele><time>2026-04-26T13:01:58.592Z</time></trkpt><trkpt lat="46.1050104" lon="12.2683522"><ele>968.0</ele><time>2026-04-26T13:04:13.591Z</time></trkpt><trkpt lat="46.1049321" lon="12.2683643"><ele>967.9999999999999</ele><time>2026-04-26T13:04:34.596Z</time></trkpt><trkpt lat="46.1048603" lon="12.2683332"><ele>968.0</ele><time>2026-04-26T13:04:37.601Z</time></trkpt><trkpt lat="46.1047956" lon="12.2683045"><ele>968.0</ele><time>2026-04-26T13:04:40.603Z</time></trkpt><trkpt lat="46.1047364" lon="12.2682582"><ele>969.7142857142857</ele><time>2026-04-26T13:04:43.593Z</time></trkpt><trkpt lat="46.1046788" lon="12.2682143"><ele>971.4285714285713</ele><time>2026-04-26T13:04:46.59Z</time></trkpt><trkpt lat="46.1046104" lon="12.2681632"><ele>973.1428571428571</ele><time>2026-04-26T13:04:50.592Z</time></trkpt><trkpt lat="46.1045487" lon="12.2681167"><ele>974.8571428571429</ele><time>2026-04-26T13:04:54.595Z</time></trkpt><trkpt lat="46.1044877" lon="12.2680711"><ele>976.5714285714286</ele><time>2026-04-26T13:04:58.595Z</time></trkpt><trkpt lat="46.1044269" lon="12.2680406"><ele>978.2857142857142</ele><time>2026-04-26T13:05:01.603Z</time></trkpt><trkpt lat="46.1043605" lon="12.2680114"><ele>980.0</ele><time>2026-04-26T13:05:04.602Z</time></trkpt><trkpt lat="46.1042809" lon="12.2679807"><ele>980.0</ele><time>2026-04-26T13:05:08.597Z</time></trkpt><trkpt lat="46.1042114" lon="12.2679493"><ele>980.0</ele><time>2026-04-26T13:05:12.593Z</time></trkpt><trkpt lat="46.1041318" lon="12.267915"><ele>980.0</ele><time>2026-04-26T13:05:16.599Z</time></trkpt><trkpt lat="46.1040718" lon="12.267887"><ele>980.0</ele><time>2026-04-26T13:05:19.604Z</time></trkpt><trkpt lat="46.1040081" lon="12.2678659"><ele>980.0</ele><time>2026-04-26T13:05:22.591Z</time></trkpt><trkpt lat="46.1039404" lon="12.267856"><ele>980.0</ele><time>2026-04-26T13:05:25.591Z</time></trkpt><trkpt lat="46.1038716" lon="12.2678367"><ele>980.0</ele><time>2026-04-26T13:05:28.594Z</time></trkpt><trkpt lat="46.1038006" lon="12.2678296"><ele>982.1428571428571</ele><time>2026-04-26T13:05:31.6Z</time></trkpt><trkpt lat="46.1037315" lon="12.2678345"><ele>984.2857142857142</ele><time>2026-04-26T13:05:34.595Z</time></trkpt><trkpt lat="46.103661" lon="12.267842"><ele>986.4285714285714</ele><time>2026-04-26T13:05:37.601Z</time></trkpt><trkpt lat="46.1035923" lon="12.2678556"><ele>988.5714285714286</ele><time>2026-04-26T13:05:40.594Z</time></trkpt><trkpt lat="46.1035235" lon="12.2678852"><ele>990.7142857142857</ele><time>2026-04-26T13:05:43.596Z</time></trkpt><trkpt lat="46.1034503" lon="12.2679244"><ele>992.8571428571429</ele><time>2026-04-26T13:05:46.599Z</time></trkpt><trkpt lat="46.1033725" lon="12.2679701"><ele>995.0</ele><time>2026-04-26T13:05:49.595Z</time></trkpt><trkpt lat="46.1032867" lon="12.2680221"><ele>995.1666666666667</ele><time>2026-04-26T13:05:52.603Z</time></trkpt><trkpt lat="46.1032179" lon="12.268061"><ele>995.3333333333334</ele><time>2026-04-26T13:05:54.598Z</time></trkpt><trkpt lat="46.1031425" lon="12.2680971"><ele>995.5</ele><time>2026-04-26T13:05:56.599Z</time></trkpt><trkpt lat="46.1030688" lon="12.2681424"><ele>995.6666666666667</ele><time>2026-04-26T13:05:58.602Z</time></trkpt><trkpt lat="46.1029883" lon="12.2681904"><ele>995.8333333333334</ele><time>2026-04-26T13:06:00.6Z</time></trkpt><trkpt lat="46.1029013" lon="12.2682389"><ele>996.0</ele><time>2026-04-26T13:06:02.594Z</time></trkpt><trkpt lat="46.1028165" lon="12.2682837"><ele>996.0</ele><time>2026-04-26T13:06:04.594Z</time></trkpt><trkpt lat="46.1027265" lon="12.2683342"><ele>995.9999999999999</ele><time>2026-04-26T13:06:06.601Z</time></trkpt><trkpt lat="46.102634" lon="12.2683903"><ele>995.9999999999999</ele><time>2026-04-26T13:06:08.601Z</time></trkpt><trkpt lat="46.1025422" lon="12.2684455"><ele>996.0</ele><time>2026-04-26T13:06:10.6Z</time></trkpt><trkpt lat="46.1024473" lon="12.2685004"><ele>996.0</ele><time>2026-04-26T13:06:12.593Z</time></trkpt><trkpt lat="46.1023519" lon="12.268556"><ele>995.4</ele><time>2026-04-26T13:06:14.599Z</time></trkpt><trkpt lat="46.1022605" lon="12.2686062"><ele>994.8</ele><time>2026-04-26T13:06:16.602Z</time></trkpt><trkpt lat="46.102171" lon="12.2686684"><ele>994.1999999999999</ele><time>2026-04-26T13:06:18.594Z</time></trkpt><trkpt lat="46.1020791" lon="12.2687147"><ele>993.5999999999999</ele><time>2026-04-26T13:06:20.6Z</time></trkpt><trkpt lat="46.1019877" lon="12.2687648"><ele>993.0</ele><time>2026-04-26T13:06:22.591Z</time></trkpt><trkpt lat="46.1018987" lon="12.2688044"><ele>993.0</ele><time>2026-04-26T13:06:24.6Z</time></trkpt><trkpt lat="46.1018138" lon="12.2688637"><ele>993.0</ele><time>2026-04-26T13:06:26.6Z</time></trkpt><trkpt lat="46.1017303" lon="12.2689117"><ele>993.0</ele><time>2026-04-26T13:06:28.602Z</time></trkpt><trkpt lat="46.1016172" lon="12.2689603"><ele>993.0</ele><time>2026-04-26T13:06:30.599Z</time></trkpt><trkpt lat="46.1015552" lon="12.2689785"><ele>993.0</ele><time>2026-04-26T13:06:31.599Z</time></trkpt><trkpt lat="46.1014915" lon="12.2689982"><ele>993.0</ele><time>2026-04-26T13:06:32.599Z</time></trkpt><trkpt lat="46.1014321" lon="12.2690314"><ele>992.4285714285713</ele><time>2026-04-26T13:06:33.601Z</time></trkpt><trkpt lat="46.1013772" lon="12.2690811"><ele>991.8571428571429</ele><time>2026-04-26T13:06:34.598Z</time></trkpt><trkpt lat="46.101324" lon="12.2691452"><ele>991.2857142857142</ele><time>2026-04-26T13:06:35.599Z</time></trkpt><trkpt lat="46.1012779" lon="12.2692207"><ele>990.7142857142857</ele><time>2026-04-26T13:06:36.592Z</time></trkpt><trkpt lat="46.1012283" lon="12.26929"><ele>990.1428571428571</ele><time>2026-04-26T13:06:37.601Z</time></trkpt><trkpt lat="46.1011831" lon="12.2693645"><ele>989.5714285714286</ele><time>2026-04-26T13:06:38.599Z</time></trkpt><trkpt lat="46.1011337" lon="12.2694327"><ele>989.0</ele><time>2026-04-26T13:06:39.6Z</time></trkpt><trkpt lat="46.1010809" lon="12.2694909"><ele>989.0000000000001</ele><time>2026-04-26T13:06:40.6Z</time></trkpt><trkpt lat="46.1009941" lon="12.2695451"><ele>989.0</ele><time>2026-04-26T13:06:42.602Z</time></trkpt><trkpt lat="46.1009106" lon="12.2695584"><ele>989.0</ele><time>2026-04-26T13:06:44.594Z</time></trkpt><trkpt lat="46.1008297" lon="12.2695666"><ele>989.0</ele><time>2026-04-26T13:06:46.594Z</time></trkpt><trkpt lat="46.100755" lon="12.2695836"><ele>989.0000000000001</ele><time>2026-04-26T13:06:48.596Z</time></trkpt><trkpt lat="46.1006802" lon="12.269604"><ele>989.0</ele><time>2026-04-26T13:06:50.698Z</time></trkpt><trkpt lat="46.1005977" lon="12.2696216"><ele>989.0</ele><time>2026-04-26T13:06:52.593Z</time></trkpt><trkpt lat="46.1005177" lon="12.2696549"><ele>989.0000000000001</ele><time>2026-04-26T13:06:54.602Z</time></trkpt><trkpt lat="46.1004365" lon="12.2696887"><ele>989.0000000000001</ele><time>2026-04-26T13:06:56.593Z</time></trkpt><trkpt lat="46.1003537" lon="12.2697428"><ele>989.0</ele><time>2026-04-26T13:06:58.602Z</time></trkpt><trkpt lat="46.1002687" lon="12.2698178"><ele>989.0</ele><time>2026-04-26T13:07:00.6Z</time></trkpt><trkpt lat="46.1001822" lon="12.2698944"><ele>989.0</ele><time>2026-04-26T13:07:02.597Z</time></trkpt><trkpt lat="46.100104" lon="12.269983"><ele>989.0000000000001</ele><time>2026-04-26T13:07:04.624Z</time></trkpt><trkpt lat="46.1000316" lon="12.2700763"><ele>989.0000000000001</ele><time>2026-04-26T13:07:06.599Z</time></trkpt><trkpt lat="46.0999628" lon="12.270187"><ele>989.0</ele><time>2026-04-26T13:07:08.603Z</time></trkpt><trkpt lat="46.0998994" lon="12.2702951"><ele>989.0</ele><time>2026-04-26T13:07:10.602Z</time></trkpt><trkpt lat="46.0998315" lon="12.2703972"><ele>989.3333333333334</ele><time>2026-04-26T13:07:12.598Z</time></trkpt><trkpt lat="46.0997757" lon="12.2704683"><ele>989.6666666666667</ele><time>2026-04-26T13:07:14.603Z</time></trkpt><trkpt lat="46.099713" lon="12.2705491"><ele>990.0</ele><time>2026-04-26T13:07:16.599Z</time></trkpt><trkpt lat="46.0996358" lon="12.2706195"><ele>990.3333333333333</ele><time>2026-04-26T13:07:18.592Z</time></trkpt><trkpt lat="46.0995408" lon="12.2706785"><ele>990.6666666666666</ele><time>2026-04-26T13:07:20.615Z</time></trkpt><trkpt lat="46.0994531" lon="12.2707046"><ele>991.0</ele><time>2026-04-26T13:07:22.6Z</time></trkpt><trkpt lat="46.0993949" lon="12.2706623"><ele>991.0000000000001</ele><time>2026-04-26T13:07:24.601Z</time></trkpt><trkpt lat="46.099336" lon="12.2705775"><ele>991.0</ele><time>2026-04-26T13:07:27.603Z</time></trkpt><trkpt lat="46.0992956" lon="12.2705059"><ele>991.0000000000001</ele><time>2026-04-26T13:07:29.6Z</time></trkpt><trkpt lat="46.099256" lon="12.270428"><ele>991.0000000000001</ele><time>2026-04-26T13:07:31.603Z</time></trkpt><trkpt lat="46.0992239" lon="12.2703331"><ele>991.0</ele><time>2026-04-26T13:07:33.602Z</time></trkpt><trkpt lat="46.0992008" lon="12.2702281"><ele>991.0000000000001</ele><time>2026-04-26T13:07:35.595Z</time></trkpt><trkpt lat="46.099182" lon="12.2701332"><ele>991.0000000000001</ele><time>2026-04-26T13:07:37.601Z</time></trkpt><trkpt lat="46.0991625" lon="12.2700256"><ele>991.0</ele><time>2026-04-26T13:07:39.595Z</time></trkpt><trkpt lat="46.0991603" lon="12.2698873"><ele>990.9999999999999</ele><time>2026-04-26T13:07:41.591Z</time></trkpt><trkpt lat="46.0991623" lon="12.2697591"><ele>990.9999999999999</ele><time>2026-04-26T13:07:43.6Z</time></trkpt><trkpt lat="46.0991575" lon="12.2696259"><ele>991.0</ele><time>2026-04-26T13:07:45.594Z</time></trkpt><trkpt lat="46.0991557" lon="12.2694999"><ele>991.0</ele><time>2026-04-26T13:07:47.607Z</time></trkpt><trkpt lat="46.0991534" lon="12.2693722"><ele>991.0</ele><time>2026-04-26T13:07:49.593Z</time></trkpt><trkpt lat="46.0991632" lon="12.2692582"><ele>990.9999999999999</ele><time>2026-04-26T13:07:51.593Z</time></trkpt><trkpt lat="46.0991646" lon="12.2691465"><ele>990.9999999999999</ele><time>2026-04-26T13:07:53.598Z</time></trkpt><trkpt lat="46.099153" lon="12.2689965"><ele>991.0</ele><time>2026-04-26T13:07:55.611Z</time></trkpt><trkpt lat="46.0991301" lon="12.2688447"><ele>991.0</ele><time>2026-04-26T13:07:57.596Z</time></trkpt><trkpt lat="46.0991031" lon="12.2686981"><ele>990.8</ele><time>2026-04-26T13:07:59.63Z</time></trkpt><trkpt lat="46.0990862" lon="12.2685418"><ele>990.5999999999999</ele><time>2026-04-26T13:08:01.602Z</time></trkpt><trkpt lat="46.0990809" lon="12.2683735"><ele>990.4</ele><time>2026-04-26T13:08:03.602Z</time></trkpt><trkpt lat="46.0990671" lon="12.2682623"><ele>990.2</ele><time>2026-04-26T13:08:06.601Z</time></trkpt><trkpt lat="46.0990016" lon="12.2681948"><ele>990.0</ele><time>2026-04-26T13:08:10.599Z</time></trkpt><trkpt lat="46.0989099" lon="12.268186"><ele>989.9999999999999</ele><time>2026-04-26T13:08:13.601Z</time></trkpt><trkpt lat="46.0988464" lon="12.2682131"><ele>990.0</ele><time>2026-04-26T13:08:15.601Z</time></trkpt><trkpt lat="46.0987792" lon="12.2682005"><ele>989.9999999999999</ele><time>2026-04-26T13:08:17.608Z</time></trkpt><trkpt lat="46.0987161" lon="12.2681827"><ele>989.9999999999999</ele><time>2026-04-26T13:08:19.598Z</time></trkpt><trkpt lat="46.0986315" lon="12.2681668"><ele>990.0</ele><time>2026-04-26T13:08:22.597Z</time></trkpt><trkpt lat="46.0985549" lon="12.2681642"><ele>989.9999999999999</ele><time>2026-04-26T13:08:25.609Z</time></trkpt><trkpt lat="46.0984771" lon="12.2681481"><ele>989.9999999999999</ele><time>2026-04-26T13:08:28.6Z</time></trkpt><trkpt lat="46.0984062" lon="12.2680997"><ele>988.6666666666666</ele><time>2026-04-26T13:08:32.605Z</time></trkpt><trkpt lat="46.0983361" lon="12.2680674"><ele>987.3333333333333</ele><time>2026-04-26T13:08:36.601Z</time></trkpt><trkpt lat="46.0982516" lon="12.2680266"><ele>986.0</ele><time>2026-04-26T13:08:39.595Z</time></trkpt><trkpt lat="46.0982025" lon="12.2679694"><ele>984.6666666666666</ele><time>2026-04-26T13:08:41.6Z</time></trkpt><trkpt lat="46.0981255" lon="12.2679051"><ele>983.3333333333333</ele><time>2026-04-26T13:08:43.599Z</time></trkpt><trkpt lat="46.0980602" lon="12.2678643"><ele>982.0</ele><time>2026-04-26T13:08:45.599Z</time></trkpt><trkpt lat="46.0979905" lon="12.2678378"><ele>981.8571428571428</ele><time>2026-04-26T13:08:47.599Z</time></trkpt><trkpt lat="46.0979287" lon="12.2678091"><ele>981.7142857142856</ele><time>2026-04-26T13:08:49.601Z</time></trkpt><trkpt lat="46.0978652" lon="12.2677908"><ele>981.5714285714286</ele><time>2026-04-26T13:08:51.599Z</time></trkpt><trkpt lat="46.0977977" lon="12.2677841"><ele>981.4285714285713</ele><time>2026-04-26T13:08:53.599Z</time></trkpt><trkpt lat="46.0977189" lon="12.2677777"><ele>981.2857142857142</ele><time>2026-04-26T13:08:55.6Z</time></trkpt><trkpt lat="46.0976431" lon="12.2677678"><ele>981.1428571428571</ele><time>2026-04-26T13:08:57.598Z</time></trkpt><trkpt lat="46.097572" lon="12.2677538"><ele>981.0</ele><time>2026-04-26T13:08:59.605Z</time></trkpt><trkpt lat="46.0974982" lon="12.2677405"><ele>981.0</ele><time>2026-04-26T13:09:01.601Z</time></trkpt><trkpt lat="46.0974301" lon="12.2677247"><ele>981.0</ele><time>2026-04-26T13:09:03.604Z</time></trkpt><trkpt lat="46.0973454" lon="12.2677102"><ele>981.0</ele><time>2026-04-26T13:09:06.593Z</time></trkpt><trkpt lat="46.0972722" lon="12.2676814"><ele>981.0</ele><time>2026-04-26T13:09:08.601Z</time></trkpt><trkpt lat="46.0972072" lon="12.2676833"><ele>981.0</ele><time>2026-04-26T13:09:10.6Z</time></trkpt><trkpt lat="46.0971539" lon="12.2677403"><ele>981.0</ele><time>2026-04-26T13:09:12.602Z</time></trkpt><trkpt lat="46.0971" lon="12.2678279"><ele>981.0</ele><time>2026-04-26T13:09:14.6Z</time></trkpt><trkpt lat="46.0970366" lon="12.2678642"><ele>981.0</ele><time>2026-04-26T13:09:16.603Z</time></trkpt><trkpt lat="46.0969454" lon="12.2678634"><ele>981.0</ele><time>2026-04-26T13:09:19.603Z</time></trkpt><trkpt lat="46.0968823" lon="12.2678645"><ele>981.0</ele><time>2026-04-26T13:09:23.601Z</time></trkpt><trkpt lat="46.0968153" lon="12.2678927"><ele>981.0</ele><time>2026-04-26T13:09:32.601Z</time></trkpt><trkpt lat="46.0969019" lon="12.2678965"><ele>981.0</ele><time>2026-04-26T13:09:43.604Z</time></trkpt><trkpt lat="46.0969673" lon="12.2678829"><ele>981.0</ele><time>2026-04-26T13:09:46.61Z</time></trkpt><trkpt lat="46.0970013" lon="12.2677681"><ele>981.0</ele><time>2026-04-26T13:09:49.599Z</time></trkpt><trkpt lat="46.0970216" lon="12.2676736"><ele>981.0</ele><time>2026-04-26T13:09:51.601Z</time></trkpt><trkpt lat="46.097042" lon="12.2675675"><ele>981.0</ele><time>2026-04-26T13:09:54.598Z</time></trkpt><trkpt lat="46.0970521" lon="12.2674608"><ele>981.0</ele><time>2026-04-26T13:09:59.6Z</time></trkpt><trkpt lat="46.0970487" lon="12.2673524"><ele>981.0</ele><time>2026-04-26T13:10:02.6Z</time></trkpt><trkpt lat="46.0970596" lon="12.2672376"><ele>981.0</ele><time>2026-04-26T13:10:05.598Z</time></trkpt><trkpt lat="46.0970574" lon="12.2671367"><ele>981.0</ele><time>2026-04-26T13:10:07.607Z</time></trkpt><trkpt lat="46.0970597" lon="12.2669925"><ele>979.0</ele><time>2026-04-26T13:10:09.6Z</time></trkpt><trkpt lat="46.0970822" lon="12.2668476"><ele>976.9999999999999</ele><time>2026-04-26T13:10:11.603Z</time></trkpt><trkpt lat="46.097088" lon="12.2667068"><ele>974.9999999999999</ele><time>2026-04-26T13:10:13.609Z</time></trkpt><trkpt lat="46.0970472" lon="12.2665988"><ele>973.0</ele><time>2026-04-26T13:10:15.594Z</time></trkpt><trkpt lat="46.0969652" lon="12.2665658"><ele>971.0</ele><time>2026-04-26T13:10:17.601Z</time></trkpt><trkpt lat="46.0968868" lon="12.2665782"><ele>971.0</ele><time>2026-04-26T13:10:19.613Z</time></trkpt><trkpt lat="46.0968255" lon="12.2666562"><ele>971.0000000000001</ele><time>2026-04-26T13:10:21.595Z</time></trkpt><trkpt lat="46.0967846" lon="12.2667338"><ele>971.0</ele><time>2026-04-26T13:10:23.602Z</time></trkpt><trkpt lat="46.0967522" lon="12.2668122"><ele>971.0</ele><time>2026-04-26T13:10:28.608Z</time></trkpt><trkpt lat="46.0966947" lon="12.2667706"><ele>971.0000000000001</ele><time>2026-04-26T13:10:33.601Z</time></trkpt><trkpt lat="46.096629" lon="12.2668015"><ele>971.0</ele><time>2026-04-26T13:10:39.598Z</time></trkpt><trkpt lat="46.0967058" lon="12.2668047"><ele>971.0</ele><time>2026-04-26T13:10:45.597Z</time></trkpt><trkpt lat="46.0967608" lon="12.2667396"><ele>971.0000000000001</ele><time>2026-04-26T13:10:48.602Z</time></trkpt><trkpt lat="46.0968425" lon="12.2666522"><ele>971.0</ele><time>2026-04-26T13:10:52.595Z</time></trkpt><trkpt lat="46.0969153" lon="12.2666105"><ele>971.0</ele><time>2026-04-26T13:10:55.602Z</time></trkpt><trkpt lat="46.0970086" lon="12.2666179"><ele>971.0</ele><time>2026-04-26T13:10:58.604Z</time></trkpt><trkpt lat="46.097078" lon="12.2666399"><ele>971.0000000000001</ele><time>2026-04-26T13:11:00.602Z</time></trkpt><trkpt lat="46.0971446" lon="12.2666703"><ele>971.0</ele><time>2026-04-26T13:11:02.597Z</time></trkpt><trkpt lat="46.0972172" lon="12.2666989"><ele>971.0000000000001</ele><time>2026-04-26T13:11:04.602Z</time></trkpt><trkpt lat="46.0972886" lon="12.2667237"><ele>971.0</ele><time>2026-04-26T13:11:06.6Z</time></trkpt><trkpt lat="46.0973632" lon="12.2667449"><ele>971.0</ele><time>2026-04-26T13:11:08.602Z</time></trkpt><trkpt lat="46.0974425" lon="12.2667688"><ele>971.0</ele><time>2026-04-26T13:11:10.6Z</time></trkpt><trkpt lat="46.0975288" lon="12.2667888"><ele>971.0000000000001</ele><time>2026-04-26T13:11:12.605Z</time></trkpt><trkpt lat="46.0976126" lon="12.2668087"><ele>971.0</ele><time>2026-04-26T13:11:14.595Z</time></trkpt><trkpt lat="46.0976968" lon="12.2668311"><ele>971.5000000000001</ele><time>2026-04-26T13:11:16.6Z</time></trkpt><trkpt lat="46.0977835" lon="12.2668511"><ele>972.0</ele><time>2026-04-26T13:11:18.61Z</time></trkpt><trkpt lat="46.0978695" lon="12.2668752"><ele>972.5</ele><time>2026-04-26T13:11:20.603Z</time></trkpt><trkpt lat="46.097956" lon="12.2668961"><ele>973.0</ele><time>2026-04-26T13:11:22.601Z</time></trkpt><trkpt lat="46.0980302" lon="12.2669162"><ele>973.5000000000001</ele><time>2026-04-26T13:11:24.597Z</time></trkpt><trkpt lat="46.098106" lon="12.2669361"><ele>974.0</ele><time>2026-04-26T13:11:26.601Z</time></trkpt><trkpt lat="46.0981683" lon="12.2669587"><ele>974.0000000000001</ele><time>2026-04-26T13:11:28.606Z</time></trkpt><trkpt lat="46.0982335" lon="12.2670012"><ele>974.0</ele><time>2026-04-26T13:11:30.602Z</time></trkpt><trkpt lat="46.0983055" lon="12.267057"><ele>974.0</ele><time>2026-04-26T13:11:32.598Z</time></trkpt><trkpt lat="46.0983784" lon="12.2671174"><ele>974.0</ele><time>2026-04-26T13:11:34.607Z</time></trkpt><trkpt lat="46.098452" lon="12.2671673"><ele>974.0000000000001</ele><time>2026-04-26T13:11:36.601Z</time></trkpt><trkpt lat="46.098524" lon="12.2672233"><ele>974.0</ele><time>2026-04-26T13:11:38.595Z</time></trkpt><trkpt lat="46.098595" lon="12.267278"><ele>975.3333333333334</ele><time>2026-04-26T13:11:40.6Z</time></trkpt><trkpt lat="46.0986579" lon="12.267336"><ele>976.6666666666667</ele><time>2026-04-26T13:11:42.6Z</time></trkpt><trkpt lat="46.0987205" lon="12.2673873"><ele>978.0</ele><time>2026-04-26T13:11:44.6Z</time></trkpt><trkpt lat="46.0987903" lon="12.2674522"><ele>979.3333333333333</ele><time>2026-04-26T13:11:47.604Z</time></trkpt><trkpt lat="46.0988676" lon="12.2675199"><ele>980.6666666666666</ele><time>2026-04-26T13:11:50.602Z</time></trkpt><trkpt lat="46.0989333" lon="12.2675901"><ele>982.0</ele><time>2026-04-26T13:11:53.611Z</time></trkpt><trkpt lat="46.098997" lon="12.2676658"><ele>981.9999999999999</ele><time>2026-04-26T13:11:57.606Z</time></trkpt><trkpt lat="46.099048" lon="12.2677352"><ele>982.0</ele><time>2026-04-26T13:12:00.593Z</time></trkpt><trkpt lat="46.099091" lon="12.2678226"><ele>982.0</ele><time>2026-04-26T13:12:03.597Z</time></trkpt><trkpt lat="46.0991129" lon="12.2679338"><ele>982.0</ele><time>2026-04-26T13:12:06.623Z</time></trkpt><trkpt lat="46.0991053" lon="12.2680509"><ele>981.9999999999999</ele><time>2026-04-26T13:12:09.603Z</time></trkpt><trkpt lat="46.0990878" lon="12.2681655"><ele>982.0</ele><time>2026-04-26T13:12:12.6Z</time></trkpt><trkpt lat="46.0990851" lon="12.2682582"><ele>982.5714285714286</ele><time>2026-04-26T13:12:14.593Z</time></trkpt><trkpt lat="46.099086" lon="12.2683591"><ele>983.1428571428571</ele><time>2026-04-26T13:12:16.604Z</time></trkpt><trkpt lat="46.0990871" lon="12.2684619"><ele>983.7142857142857</ele><time>2026-04-26T13:12:18.594Z</time></trkpt><trkpt lat="46.0990931" lon="12.2685636"><ele>984.2857142857142</ele><time>2026-04-26T13:12:20.602Z</time></trkpt><trkpt lat="46.0991006" lon="12.268668"><ele>984.8571428571429</ele><time>2026-04-26T13:12:22.608Z</time></trkpt><trkpt lat="46.0991164" lon="12.2687689"><ele>985.4285714285713</ele><time>2026-04-26T13:12:24.601Z</time></trkpt><trkpt lat="46.0991382" lon="12.2688673"><ele>986.0</ele><time>2026-04-26T13:12:26.594Z</time></trkpt><trkpt lat="46.0991601" lon="12.2689635"><ele>986.7142857142857</ele><time>2026-04-26T13:12:28.598Z</time></trkpt><trkpt lat="46.0991692" lon="12.2690642"><ele>987.4285714285716</ele><time>2026-04-26T13:12:30.626Z</time></trkpt><trkpt lat="46.0991771" lon="12.2691609"><ele>988.1428571428572</ele><time>2026-04-26T13:12:32.601Z</time></trkpt><trkpt lat="46.0991764" lon="12.2692579"><ele>988.8571428571429</ele><time>2026-04-26T13:12:34.603Z</time></trkpt><trkpt lat="46.0991766" lon="12.2693534"><ele>989.5714285714287</ele><time>2026-04-26T13:12:36.616Z</time></trkpt><trkpt lat="46.099169" lon="12.2694598"><ele>990.2857142857144</ele><time>2026-04-26T13:12:38.6Z</time></trkpt><trkpt lat="46.0991691" lon="12.2695795"><ele>991.0000000000001</ele><time>2026-04-26T13:12:40.6Z</time></trkpt><trkpt lat="46.0991755" lon="12.2697054"><ele>990.9999999999999</ele><time>2026-04-26T13:12:42.606Z</time></trkpt><trkpt lat="46.0991769" lon="12.2698271"><ele>991.0</ele><time>2026-04-26T13:12:44.597Z</time></trkpt><trkpt lat="46.0991686" lon="12.2699584"><ele>991.0</ele><time>2026-04-26T13:12:46.602Z</time></trkpt><trkpt lat="46.0991765" lon="12.2700942"><ele>991.0</ele><time>2026-04-26T13:12:48.6Z</time></trkpt><trkpt lat="46.0991997" lon="12.2702141"><ele>990.9999999999999</ele><time>2026-04-26T13:12:50.714Z</time></trkpt><trkpt lat="46.0992212" lon="12.2703363"><ele>991.0</ele><time>2026-04-26T13:12:52.598Z</time></trkpt><trkpt lat="46.0992515" lon="12.2704353"><ele>991.0000000000001</ele><time>2026-04-26T13:12:54.602Z</time></trkpt><trkpt lat="46.099291" lon="12.2705228"><ele>991.0</ele><time>2026-04-26T13:12:56.602Z</time></trkpt><trkpt lat="46.0993335" lon="12.2706074"><ele>991.0000000000001</ele><time>2026-04-26T13:12:58.6Z</time></trkpt><trkpt lat="46.0993878" lon="12.2706888"><ele>991.0000000000001</ele><time>2026-04-26T13:13:01.594Z</time></trkpt><trkpt lat="46.0993247" lon="12.2707212"><ele>991.0</ele><time>2026-04-26T13:13:07.601Z</time></trkpt><trkpt lat="46.0992516" lon="12.2707123"><ele>991.0000000000001</ele><time>2026-04-26T13:13:10.59Z</time></trkpt><trkpt lat="46.0991768" lon="12.2707121"><ele>991.0000000000001</ele><time>2026-04-26T13:13:13.598Z</time></trkpt><trkpt lat="46.0991027" lon="12.2707389"><ele>993.1428571428573</ele><time>2026-04-26T13:13:16.591Z</time></trkpt><trkpt lat="46.0990338" lon="12.2707706"><ele>995.2857142857143</ele><time>2026-04-26T13:13:19.601Z</time></trkpt><trkpt lat="46.0989635" lon="12.2708093"><ele>997.4285714285716</ele><time>2026-04-26T13:13:22.602Z</time></trkpt><trkpt lat="46.0988943" lon="12.2708435"><ele>999.5714285714287</ele><time>2026-04-26T13:13:25.597Z</time></trkpt><trkpt lat="46.098824" lon="12.2708763"><ele>1001.7142857142858</ele><time>2026-04-26T13:13:28.6Z</time></trkpt><trkpt lat="46.0987597" lon="12.2709131"><ele>1003.8571428571429</ele><time>2026-04-26T13:13:31.601Z</time></trkpt><trkpt lat="46.0986901" lon="12.2709481"><ele>1006.0</ele><time>2026-04-26T13:13:34.602Z</time></trkpt><trkpt lat="46.0986318" lon="12.2710264"><ele>1006.0</ele><time>2026-04-26T13:13:38.594Z</time></trkpt><trkpt lat="46.098577" lon="12.2710806"><ele>1006.0000000000001</ele><time>2026-04-26T13:13:41.599Z</time></trkpt><trkpt lat="46.0985156" lon="12.2711255"><ele>1006.0</ele><time>2026-04-26T13:13:44.6Z</time></trkpt><trkpt lat="46.0984576" lon="12.2711677"><ele>1006.0</ele><time>2026-04-26T13:13:47.603Z</time></trkpt><trkpt lat="46.0983971" lon="12.2712088"><ele>1006.0000000000001</ele><time>2026-04-26T13:13:50.598Z</time></trkpt><trkpt lat="46.098331" lon="12.2712511"><ele>1006.0</ele><time>2026-04-26T13:13:53.591Z</time></trkpt><trkpt lat="46.098264" lon="12.2712815"><ele>1006.0</ele><time>2026-04-26T13:13:56.6Z</time></trkpt><trkpt lat="46.0982097" lon="12.2713292"><ele>1006.6666666666666</ele><time>2026-04-26T13:13:59.598Z</time></trkpt><trkpt lat="46.0981337" lon="12.2713694"><ele>1007.3333333333333</ele><time>2026-04-26T13:14:03.599Z</time></trkpt><trkpt lat="46.0980482" lon="12.2713629"><ele>1008.0</ele><time>2026-04-26T13:14:07.598Z</time></trkpt><trkpt lat="46.0979903" lon="12.2714016"><ele>1008.6666666666667</ele><time>2026-04-26T13:14:09.6Z</time></trkpt><trkpt lat="46.0979139" lon="12.2714284"><ele>1009.3333333333334</ele><time>2026-04-26T13:14:11.594Z</time></trkpt><trkpt lat="46.097861" lon="12.271514"><ele>1010.0</ele><time>2026-04-26T13:14:13.592Z</time></trkpt><trkpt lat="46.097864" lon="12.2716231"><ele>1010.0</ele><time>2026-04-26T13:14:15.601Z</time></trkpt><trkpt lat="46.0978743" lon="12.271725"><ele>1009.9999999999999</ele><time>2026-04-26T13:14:17.599Z</time></trkpt><trkpt lat="46.0978889" lon="12.2718303"><ele>1010.0</ele><time>2026-04-26T13:14:19.606Z</time></trkpt><trkpt lat="46.0979056" lon="12.2719381"><ele>1010.0</ele><time>2026-04-26T13:14:21.596Z</time></trkpt><trkpt lat="46.0979211" lon="12.2720428"><ele>1009.9999999999999</ele><time>2026-04-26T13:14:23.607Z</time></trkpt><trkpt lat="46.0979352" lon="12.2721457"><ele>1010.0</ele><time>2026-04-26T13:14:25.603Z</time></trkpt><trkpt lat="46.0979534" lon="12.2722496"><ele>1010.0</ele><time>2026-04-26T13:14:27.593Z</time></trkpt><trkpt lat="46.0979716" lon="12.2723531"><ele>1010.5000000000001</ele><time>2026-04-26T13:14:29.599Z</time></trkpt><trkpt lat="46.0979884" lon="12.2724627"><ele>1011.0</ele><time>2026-04-26T13:14:31.601Z</time></trkpt><trkpt lat="46.0980072" lon="12.2725776"><ele>1011.5</ele><time>2026-04-26T13:14:33.6Z</time></trkpt><trkpt lat="46.098026" lon="12.2726947"><ele>1012.0</ele><time>2026-04-26T13:14:35.6Z</time></trkpt><trkpt lat="46.0980409" lon="12.2728128"><ele>1012.5000000000001</ele><time>2026-04-26T13:14:37.624Z</time></trkpt><trkpt lat="46.0980647" lon="12.2729281"><ele>1013.0</ele><time>2026-04-26T13:14:39.594Z</time></trkpt><trkpt lat="46.098087" lon="12.2730439"><ele>1013.5000000000001</ele><time>2026-04-26T13:14:41.601Z</time></trkpt><trkpt lat="46.0981044" lon="12.2731606"><ele>1014.0</ele><time>2026-04-26T13:14:43.599Z</time></trkpt><trkpt lat="46.098121" lon="12.273275"><ele>1014.5</ele><time>2026-04-26T13:14:45.595Z</time></trkpt><trkpt lat="46.0981394" lon="12.2733921"><ele>1015.0</ele><time>2026-04-26T13:14:47.598Z</time></trkpt><trkpt lat="46.0981399" lon="12.2735075"><ele>1015.5000000000001</ele><time>2026-04-26T13:14:49.606Z</time></trkpt><trkpt lat="46.0981242" lon="12.2736108"><ele>1016.0</ele><time>2026-04-26T13:14:51.597Z</time></trkpt><trkpt lat="46.098098" lon="12.2737104"><ele>1016.0</ele><time>2026-04-26T13:14:53.608Z</time></trkpt><trkpt lat="46.0980762" lon="12.2738065"><ele>1016.0</ele><time>2026-04-26T13:14:55.598Z</time></trkpt><trkpt lat="46.0980583" lon="12.2738984"><ele>1016.0</ele><time>2026-04-26T13:14:57.599Z</time></trkpt><trkpt lat="46.0980375" lon="12.273987"><ele>1016.0</ele><time>2026-04-26T13:14:59.589Z</time></trkpt><trkpt lat="46.0980204" lon="12.2740812"><ele>1016.0</ele><time>2026-04-26T13:15:01.601Z</time></trkpt><trkpt lat="46.0980006" lon="12.2741783"><ele>1016.0</ele><time>2026-04-26T13:15:03.598Z</time></trkpt><trkpt lat="46.0979814" lon="12.2742743"><ele>1016.0</ele><time>2026-04-26T13:15:05.591Z</time></trkpt><trkpt lat="46.0979651" lon="12.2743693"><ele>1016.1666666666667</ele><time>2026-04-26T13:15:07.593Z</time></trkpt><trkpt lat="46.0979445" lon="12.274467"><ele>1016.3333333333334</ele><time>2026-04-26T13:15:09.622Z</time></trkpt><trkpt lat="46.0979254" lon="12.2745684"><ele>1016.5</ele><time>2026-04-26T13:15:11.598Z</time></trkpt><trkpt lat="46.0979106" lon="12.274687"><ele>1016.6666666666667</ele><time>2026-04-26T13:15:13.598Z</time></trkpt><trkpt lat="46.0978894" lon="12.2748145"><ele>1016.8333333333334</ele><time>2026-04-26T13:15:15.598Z</time></trkpt><trkpt lat="46.0978307" lon="12.2748788"><ele>1017.0</ele><time>2026-04-26T13:15:17.597Z</time></trkpt><trkpt lat="46.0977576" lon="12.2748664"><ele>1015.8</ele><time>2026-04-26T13:15:19.606Z</time></trkpt><trkpt lat="46.0976592" lon="12.2748631"><ele>1014.6</ele><time>2026-04-26T13:15:22.605Z</time></trkpt><trkpt lat="46.0975815" lon="12.274861"><ele>1013.3999999999999</ele><time>2026-04-26T13:15:24.596Z</time></trkpt><trkpt lat="46.0974986" lon="12.2748654"><ele>1012.1999999999999</ele><time>2026-04-26T13:15:26.6Z</time></trkpt><trkpt lat="46.0974068" lon="12.2748693"><ele>1011.0</ele><time>2026-04-26T13:15:28.597Z</time></trkpt><trkpt lat="46.0973068" lon="12.2748702"><ele>1011.0</ele><time>2026-04-26T13:15:30.596Z</time></trkpt><trkpt lat="46.0972072" lon="12.2748738"><ele>1010.9999999999999</ele><time>2026-04-26T13:15:32.604Z</time></trkpt><trkpt lat="46.0971041" lon="12.2748685"><ele>1010.9999999999999</ele><time>2026-04-26T13:15:34.606Z</time></trkpt><trkpt lat="46.0969952" lon="12.2748671"><ele>1011.0</ele><time>2026-04-26T13:15:36.59Z</time></trkpt><trkpt lat="46.0968897" lon="12.2748781"><ele>1011.0</ele><time>2026-04-26T13:15:38.598Z</time></trkpt><trkpt lat="46.096789" lon="12.274908"><ele>1011.0</ele><time>2026-04-26T13:15:40.605Z</time></trkpt><trkpt lat="46.0966895" lon="12.2749532"><ele>1010.9999999999999</ele><time>2026-04-26T13:15:42.599Z</time></trkpt><trkpt lat="46.0965889" lon="12.2750147"><ele>1010.9999999999999</ele><time>2026-04-26T13:15:44.6Z</time></trkpt><trkpt lat="46.0964929" lon="12.2750803"><ele>1011.0</ele><time>2026-04-26T13:15:46.593Z</time></trkpt><trkpt lat="46.0963981" lon="12.2751498"><ele>1011.0</ele><time>2026-04-26T13:15:48.6Z</time></trkpt><trkpt lat="46.0963084" lon="12.2752222"><ele>1012.8</ele><time>2026-04-26T13:15:50.607Z</time></trkpt><trkpt lat="46.0962096" lon="12.2752732"><ele>1014.5999999999999</ele><time>2026-04-26T13:15:52.599Z</time></trkpt><trkpt lat="46.0961175" lon="12.2753448"><ele>1016.4</ele><time>2026-04-26T13:15:54.617Z</time></trkpt><trkpt lat="46.0960279" lon="12.2754199"><ele>1018.2</ele><time>2026-04-26T13:15:56.594Z</time></trkpt><trkpt lat="46.0959449" lon="12.275483"><ele>1020.0</ele><time>2026-04-26T13:15:58.604Z</time></trkpt><trkpt lat="46.0958718" lon="12.2755425"><ele>1020.0</ele><time>2026-04-26T13:16:00.602Z</time></trkpt><trkpt lat="46.0957946" lon="12.2756018"><ele>1020.0</ele><time>2026-04-26T13:16:02.596Z</time></trkpt><trkpt lat="46.0957197" lon="12.2756608"><ele>1020.0</ele><time>2026-04-26T13:16:04.604Z</time></trkpt><trkpt lat="46.0956406" lon="12.2757261"><ele>1020.0</ele><time>2026-04-26T13:16:06.593Z</time></trkpt><trkpt lat="46.0955606" lon="12.2757917"><ele>1020.0</ele><time>2026-04-26T13:16:08.622Z</time></trkpt><trkpt lat="46.095484" lon="12.2758542"><ele>1020.0</ele><time>2026-04-26T13:16:10.591Z</time></trkpt><trkpt lat="46.0954063" lon="12.2759178"><ele>1021.6</ele><time>2026-04-26T13:16:12.605Z</time></trkpt><trkpt lat="46.0953275" lon="12.2759832"><ele>1023.2</ele><time>2026-04-26T13:16:14.605Z</time></trkpt><trkpt lat="46.0952387" lon="12.2760427"><ele>1024.8</ele><time>2026-04-26T13:16:16.601Z</time></trkpt><trkpt lat="46.0951599" lon="12.2761142"><ele>1026.4</ele><time>2026-04-26T13:16:18.595Z</time></trkpt><trkpt lat="46.0950822" lon="12.2761793"><ele>1028.0</ele><time>2026-04-26T13:16:20.6Z</time></trkpt><trkpt lat="46.0950078" lon="12.2762357"><ele>1028.0</ele><time>2026-04-26T13:16:22.6Z</time></trkpt><trkpt lat="46.0949308" lon="12.2763024"><ele>1028.0</ele><time>2026-04-26T13:16:24.601Z</time></trkpt><trkpt lat="46.0948537" lon="12.2763555"><ele>1028.0</ele><time>2026-04-26T13:16:26.6Z</time></trkpt><trkpt lat="46.0947697" lon="12.2764045"><ele>1028.0</ele><time>2026-04-26T13:16:28.59Z</time></trkpt><trkpt lat="46.0946792" lon="12.2764257"><ele>1028.0</ele><time>2026-04-26T13:16:30.59Z</time></trkpt><trkpt lat="46.0945973" lon="12.2764626"><ele>1028.0</ele><time>2026-04-26T13:16:32.591Z</time></trkpt><trkpt lat="46.094514" lon="12.2765035"><ele>1028.0</ele><time>2026-04-26T13:16:34.602Z</time></trkpt><trkpt lat="46.0944359" lon="12.2765305"><ele>1028.0</ele><time>2026-04-26T13:16:36.601Z</time></trkpt><trkpt lat="46.0943669" lon="12.2765526"><ele>1028.0</ele><time>2026-04-26T13:16:38.602Z</time></trkpt><trkpt lat="46.0943014" lon="12.2765784"><ele>1028.0</ele><time>2026-04-26T13:16:40.603Z</time></trkpt><trkpt lat="46.0942382" lon="12.2766058"><ele>1028.0</ele><time>2026-04-26T13:16:42.595Z</time></trkpt><trkpt lat="46.0941788" lon="12.2766364"><ele>1028.0</ele><time>2026-04-26T13:16:44.599Z</time></trkpt><trkpt lat="46.0941207" lon="12.2766733"><ele>1028.0</ele><time>2026-04-26T13:16:46.6Z</time></trkpt><trkpt lat="46.0940596" lon="12.2767102"><ele>1030.2857142857142</ele><time>2026-04-26T13:16:48.598Z</time></trkpt><trkpt lat="46.0940008" lon="12.2767567"><ele>1032.5714285714287</ele><time>2026-04-26T13:16:50.593Z</time></trkpt><trkpt lat="46.0939478" lon="12.2768144"><ele>1034.857142857143</ele><time>2026-04-26T13:16:52.602Z</time></trkpt><trkpt lat="46.0938973" lon="12.2768732"><ele>1037.142857142857</ele><time>2026-04-26T13:16:54.598Z</time></trkpt><trkpt lat="46.0938482" lon="12.2769322"><ele>1039.4285714285713</ele><time>2026-04-26T13:16:56.591Z</time></trkpt><trkpt lat="46.0937857" lon="12.2770269"><ele>1041.7142857142858</ele><time>2026-04-26T13:16:59.593Z</time></trkpt><trkpt lat="46.0937294" lon="12.2771333"><ele>1044.0</ele><time>2026-04-26T13:17:02.624Z</time></trkpt><trkpt lat="46.0936729" lon="12.2772347"><ele>1042.8333333333333</ele><time>2026-04-26T13:17:05.6Z</time></trkpt><trkpt lat="46.0936083" lon="12.277271"><ele>1041.6666666666667</ele><time>2026-04-26T13:17:08.601Z</time></trkpt><trkpt lat="46.0935372" lon="12.2773314"><ele>1040.5</ele><time>2026-04-26T13:17:14.596Z</time></trkpt><trkpt lat="46.0934598" lon="12.277389"><ele>1039.3333333333335</ele><time>2026-04-26T13:17:17.6Z</time></trkpt><trkpt lat="46.0933864" lon="12.2774206"><ele>1038.1666666666667</ele><time>2026-04-26T13:17:20.6Z</time></trkpt><trkpt lat="46.0933097" lon="12.2774362"><ele>1037.0</ele><time>2026-04-26T13:17:23.602Z</time></trkpt><trkpt lat="46.0932432" lon="12.2774352"><ele>1036.7142857142858</ele><time>2026-04-26T13:17:26.601Z</time></trkpt><trkpt lat="46.0931758" lon="12.2774263"><ele>1036.4285714285713</ele><time>2026-04-26T13:17:30.595Z</time></trkpt><trkpt lat="46.0930978" lon="12.2774199"><ele>1036.142857142857</ele><time>2026-04-26T13:17:34.601Z</time></trkpt><trkpt lat="46.0930225" lon="12.2773874"><ele>1035.857142857143</ele><time>2026-04-26T13:17:38.596Z</time></trkpt><trkpt lat="46.092959" lon="12.2773934"><ele>1035.5714285714287</ele><time>2026-04-26T13:17:41.601Z</time></trkpt><trkpt lat="46.0928939" lon="12.2774061"><ele>1035.2857142857142</ele><time>2026-04-26T13:17:44.609Z</time></trkpt><trkpt lat="46.0928271" lon="12.2774057"><ele>1035.0</ele><time>2026-04-26T13:17:47.6Z</time></trkpt><trkpt lat="46.0927657" lon="12.2774284"><ele>1035.0</ele><time>2026-04-26T13:17:50.604Z</time></trkpt><trkpt lat="46.0926841" lon="12.2774514"><ele>1035.0</ele><time>2026-04-26T13:17:54.602Z</time></trkpt><trkpt lat="46.0926079" lon="12.2774962"><ele>1035.0</ele><time>2026-04-26T13:17:58.602Z</time></trkpt><trkpt lat="46.0925396" lon="12.2775611"><ele>1035.0</ele><time>2026-04-26T13:18:02.602Z</time></trkpt><trkpt lat="46.0924817" lon="12.2776132"><ele>1035.0</ele><time>2026-04-26T13:18:05.601Z</time></trkpt><trkpt lat="46.0924299" lon="12.2776759"><ele>1035.0</ele><time>2026-04-26T13:18:08.596Z</time></trkpt><trkpt lat="46.0923869" lon="12.2777546"><ele>1034.5714285714284</ele><time>2026-04-26T13:18:11.602Z</time></trkpt><trkpt lat="46.0923538" lon="12.2778457"><ele>1034.142857142857</ele><time>2026-04-26T13:18:14.602Z</time></trkpt><trkpt lat="46.0923215" lon="12.2779366"><ele>1033.7142857142858</ele><time>2026-04-26T13:18:17.602Z</time></trkpt><trkpt lat="46.0922931" lon="12.2780309"><ele>1033.2857142857142</ele><time>2026-04-26T13:18:20.606Z</time></trkpt><trkpt lat="46.0922665" lon="12.2781236"><ele>1032.857142857143</ele><time>2026-04-26T13:18:23.6Z</time></trkpt><trkpt lat="46.0922395" lon="12.2782183"><ele>1032.4285714285713</ele><time>2026-04-26T13:18:26.621Z</time></trkpt><trkpt lat="46.0922125" lon="12.2783077"><ele>1032.0</ele><time>2026-04-26T13:18:29.602Z</time></trkpt><trkpt lat="46.092186" lon="12.2783943"><ele>1033.5714285714284</ele><time>2026-04-26T13:18:32.601Z</time></trkpt><trkpt lat="46.0921596" lon="12.2784829"><ele>1035.142857142857</ele><time>2026-04-26T13:18:35.599Z</time></trkpt><trkpt lat="46.0921314" lon="12.2785884"><ele>1036.7142857142858</ele><time>2026-04-26T13:18:39.603Z</time></trkpt><trkpt lat="46.092083" lon="12.2786601"><ele>1038.2857142857142</ele><time>2026-04-26T13:18:43.6Z</time></trkpt><trkpt lat="46.0920353" lon="12.2787196"><ele>1039.857142857143</ele><time>2026-04-26T13:19:28.601Z</time></trkpt><trkpt lat="46.0919592" lon="12.2787404"><ele>1041.4285714285713</ele><time>2026-04-26T13:20:48.602Z</time></trkpt><trkpt lat="46.0918965" lon="12.2788216"><ele>1043.0</ele><time>2026-04-26T13:20:52.591Z</time></trkpt><trkpt lat="46.0918687" lon="12.2789031"><ele>1043.7142857142858</ele><time>2026-04-26T13:20:55.605Z</time></trkpt><trkpt lat="46.0918504" lon="12.2790149"><ele>1044.4285714285716</ele><time>2026-04-26T13:20:59.604Z</time></trkpt><trkpt lat="46.091825" lon="12.2791168"><ele>1045.142857142857</ele><time>2026-04-26T13:21:03.602Z</time></trkpt><trkpt lat="46.0917559" lon="12.2791402"><ele>1045.857142857143</ele><time>2026-04-26T13:21:08.597Z</time></trkpt><trkpt lat="46.0916922" lon="12.2791138"><ele>1046.5714285714287</ele><time>2026-04-26T13:21:12.594Z</time></trkpt><trkpt lat="46.0916293" lon="12.2791019"><ele>1047.2857142857142</ele><time>2026-04-26T13:21:16.593Z</time></trkpt><trkpt lat="46.0915561" lon="12.2791125"><ele>1048.0</ele><time>2026-04-26T13:21:21.604Z</time></trkpt><trkpt lat="46.0914811" lon="12.2791282"><ele>1049.0</ele><time>2026-04-26T13:21:26.599Z</time></trkpt><trkpt lat="46.0914133" lon="12.2791708"><ele>1050.0</ele><time>2026-04-26T13:21:31.603Z</time></trkpt><trkpt lat="46.0913705" lon="12.2792647"><ele>1051.0</ele><time>2026-04-26T13:21:36.597Z</time></trkpt><trkpt lat="46.0913615" lon="12.2793742"><ele>1052.0</ele><time>2026-04-26T13:21:40.601Z</time></trkpt><trkpt lat="46.0913469" lon="12.2794811"><ele>1053.0</ele><time>2026-04-26T13:21:44.593Z</time></trkpt><trkpt lat="46.0913327" lon="12.2795721"><ele>1054.0</ele><time>2026-04-26T13:21:48.6Z</time></trkpt><trkpt lat="46.091333" lon="12.2796695"><ele>1055.0</ele><time>2026-04-26T13:21:53.599Z</time></trkpt><trkpt lat="46.0913749" lon="12.2797398"><ele>1055.4285714285716</ele><time>2026-04-26T13:21:58.608Z</time></trkpt><trkpt lat="46.0914139" lon="12.279819"><ele>1055.857142857143</ele><time>2026-04-26T13:22:03.606Z</time></trkpt><trkpt lat="46.0914619" lon="12.2798896"><ele>1056.2857142857142</ele><time>2026-04-26T13:22:09.598Z</time></trkpt><trkpt lat="46.0914937" lon="12.2799692"><ele>1056.7142857142858</ele><time>2026-04-26T13:22:16.603Z</time></trkpt><trkpt lat="46.0915148" lon="12.2800661"><ele>1057.142857142857</ele><time>2026-04-26T13:22:23.593Z</time></trkpt><trkpt lat="46.0915305" lon="12.2801662"><ele>1057.5714285714287</ele><time>2026-04-26T13:22:29.597Z</time></trkpt><trkpt lat="46.0915351" lon="12.2802721"><ele>1058.0</ele><time>2026-04-26T13:22:34.6Z</time></trkpt><trkpt lat="46.0915202" lon="12.2803676"><ele>1058.0</ele><time>2026-04-26T13:22:38.595Z</time></trkpt><trkpt lat="46.0915072" lon="12.2804692"><ele>1058.0</ele><time>2026-04-26T13:22:42.604Z</time></trkpt><trkpt lat="46.0915175" lon="12.2805646"><ele>1058.0</ele><time>2026-04-26T13:22:46.602Z</time></trkpt><trkpt lat="46.0915469" lon="12.2806501"><ele>1058.0</ele><time>2026-04-26T13:23:01.601Z</time></trkpt><trkpt lat="46.0915815" lon="12.2807508"><ele>1058.0</ele><time>2026-04-26T13:23:06.599Z</time></trkpt><trkpt lat="46.0916008" lon="12.2808667"><ele>1058.0</ele><time>2026-04-26T13:23:10.6Z</time></trkpt><trkpt lat="46.0915784" lon="12.2809708"><ele>1058.0</ele><time>2026-04-26T13:23:14.622Z</time></trkpt><trkpt lat="46.091534" lon="12.2810428"><ele>1059.2857142857142</ele><time>2026-04-26T13:23:18.606Z</time></trkpt><trkpt lat="46.0914893" lon="12.2811191"><ele>1060.5714285714284</ele><time>2026-04-26T13:23:22.603Z</time></trkpt><trkpt lat="46.0914451" lon="12.2812072"><ele>1061.8571428571427</ele><time>2026-04-26T13:23:26.602Z</time></trkpt><trkpt lat="46.0914026" lon="12.2812864"><ele>1063.142857142857</ele><time>2026-04-26T13:23:30.599Z</time></trkpt><trkpt lat="46.0913672" lon="12.2813633"><ele>1064.4285714285713</ele><time>2026-04-26T13:23:34.599Z</time></trkpt><trkpt lat="46.0913307" lon="12.281459"><ele>1065.7142857142856</ele><time>2026-04-26T13:23:39.596Z</time></trkpt><trkpt lat="46.0913033" lon="12.2815485"><ele>1067.0</ele><time>2026-04-26T13:23:43.599Z</time></trkpt><trkpt lat="46.0912735" lon="12.2816443"><ele>1068.7142857142856</ele><time>2026-04-26T13:23:47.594Z</time></trkpt><trkpt lat="46.0912523" lon="12.2817349"><ele>1070.4285714285713</ele><time>2026-04-26T13:23:51.601Z</time></trkpt><trkpt lat="46.0912302" lon="12.2818416"><ele>1072.142857142857</ele><time>2026-04-26T13:23:56.591Z</time></trkpt><trkpt lat="46.0912236" lon="12.2819422"><ele>1073.8571428571427</ele><time>2026-04-26T13:24:01.6Z</time></trkpt><trkpt lat="46.0912172" lon="12.2820478"><ele>1075.5714285714284</ele><time>2026-04-26T13:24:06.6Z</time></trkpt><trkpt lat="46.0912256" lon="12.2821574"><ele>1077.2857142857142</ele><time>2026-04-26T13:24:11.601Z</time></trkpt><trkpt lat="46.0912077" lon="12.2822578"><ele>1079.0</ele><time>2026-04-26T13:24:16.599Z</time></trkpt><trkpt lat="46.0911537" lon="12.2823257"><ele>1080.7142857142858</ele><time>2026-04-26T13:24:21.598Z</time></trkpt><trkpt lat="46.091094" lon="12.2823834"><ele>1082.4285714285713</ele><time>2026-04-26T13:24:26.596Z</time></trkpt><trkpt lat="46.0910477" lon="12.282459"><ele>1084.142857142857</ele><time>2026-04-26T13:24:31.6Z</time></trkpt><trkpt lat="46.0909888" lon="12.282525"><ele>1085.857142857143</ele><time>2026-04-26T13:24:36.601Z</time></trkpt><trkpt lat="46.0909237" lon="12.2825847"><ele>1087.5714285714287</ele><time>2026-04-26T13:24:41.601Z</time></trkpt><trkpt lat="46.0908603" lon="12.2826384"><ele>1089.2857142857142</ele><time>2026-04-26T13:24:46.594Z</time></trkpt><trkpt lat="46.0907975" lon="12.2826865"><ele>1091.0</ele><time>2026-04-26T13:24:51.606Z</time></trkpt><trkpt lat="46.0907215" lon="12.2826599"><ele>1091.4285714285713</ele><time>2026-04-26T13:24:56.616Z</time></trkpt><trkpt lat="46.0906536" lon="12.2826539"><ele>1091.857142857143</ele><time>2026-04-26T13:25:00.605Z</time></trkpt><trkpt lat="46.0905862" lon="12.2826513"><ele>1092.2857142857142</ele><time>2026-04-26T13:25:05.599Z</time></trkpt><trkpt lat="46.0905068" lon="12.2826534"><ele>1092.7142857142858</ele><time>2026-04-26T13:25:10.605Z</time></trkpt><trkpt lat="46.0904364" lon="12.2826625"><ele>1093.142857142857</ele><time>2026-04-26T13:25:13.603Z</time></trkpt><trkpt lat="46.0903729" lon="12.2826883"><ele>1093.5714285714284</ele><time>2026-04-26T13:25:16.6Z</time></trkpt><trkpt lat="46.0903083" lon="12.2827175"><ele>1094.0</ele><time>2026-04-26T13:25:19.598Z</time></trkpt><trkpt lat="46.0902439" lon="12.2827413"><ele>1094.0</ele><time>2026-04-26T13:25:22.598Z</time></trkpt><trkpt lat="46.0901685" lon="12.282776"><ele>1094.0</ele><time>2026-04-26T13:25:26.599Z</time></trkpt><trkpt lat="46.0900952" lon="12.2827955"><ele>1094.0</ele><time>2026-04-26T13:25:30.606Z</time></trkpt><trkpt lat="46.0900249" lon="12.2828131"><ele>1094.0</ele><time>2026-04-26T13:25:34.597Z</time></trkpt><trkpt lat="46.0899549" lon="12.2828363"><ele>1094.0</ele><time>2026-04-26T13:25:38.598Z</time></trkpt><trkpt lat="46.0898912" lon="12.2828756"><ele>1094.0</ele><time>2026-04-26T13:25:42.599Z</time></trkpt><trkpt lat="46.0898271" lon="12.2829122"><ele>1094.0</ele><time>2026-04-26T13:25:46.598Z</time></trkpt><trkpt lat="46.0897563" lon="12.2829476"><ele>1096.3333333333335</ele><time>2026-04-26T13:25:50.605Z</time></trkpt><trkpt lat="46.0896902" lon="12.2829945"><ele>1098.6666666666667</ele><time>2026-04-26T13:25:54.602Z</time></trkpt><trkpt lat="46.0896177" lon="12.2830354"><ele>1101.0</ele><time>2026-04-26T13:25:58.593Z</time></trkpt><trkpt lat="46.0895437" lon="12.2830595"><ele>1103.3333333333333</ele><time>2026-04-26T13:26:02.592Z</time></trkpt><trkpt lat="46.0894697" lon="12.2830587"><ele>1105.6666666666665</ele><time>2026-04-26T13:26:06.598Z</time></trkpt><trkpt lat="46.0893929" lon="12.2830494"><ele>1108.0</ele><time>2026-04-26T13:26:10.599Z</time></trkpt><trkpt lat="46.089321" lon="12.2830171"><ele>1108.0</ele><time>2026-04-26T13:26:14.599Z</time></trkpt><trkpt lat="46.089255" lon="12.2829706"><ele>1108.0</ele><time>2026-04-26T13:26:18.598Z</time></trkpt><trkpt lat="46.08921" lon="12.2829033"><ele>1108.0</ele><time>2026-04-26T13:26:22.6Z</time></trkpt><trkpt lat="46.0891454" lon="12.2829357"><ele>1108.0</ele><time>2026-04-26T13:26:33.596Z</time></trkpt><trkpt lat="46.0890785" lon="12.2828851"><ele>1108.0</ele><time>2026-04-26T13:26:38.597Z</time></trkpt><trkpt lat="46.0890126" lon="12.2828454"><ele>1108.0</ele><time>2026-04-26T13:26:42.595Z</time></trkpt><trkpt lat="46.08894" lon="12.2828066"><ele>1108.0</ele><time>2026-04-26T13:26:47.599Z</time></trkpt><trkpt lat="46.0888792" lon="12.2827814"><ele>1110.0</ele><time>2026-04-26T13:26:50.594Z</time></trkpt><trkpt lat="46.0888159" lon="12.2827476"><ele>1112.0</ele><time>2026-04-26T13:26:53.593Z</time></trkpt><trkpt lat="46.0887385" lon="12.2826994"><ele>1114.0</ele><time>2026-04-26T13:26:57.6Z</time></trkpt><trkpt lat="46.0886801" lon="12.2826634"><ele>1116.0</ele><time>2026-04-26T13:27:00.6Z</time></trkpt><trkpt lat="46.0886163" lon="12.2826387"><ele>1118.0</ele><time>2026-04-26T13:27:03.598Z</time></trkpt><trkpt lat="46.0885527" lon="12.282609"><ele>1120.0</ele><time>2026-04-26T13:27:06.599Z</time></trkpt><trkpt lat="46.0884897" lon="12.2825844"><ele>1122.0</ele><time>2026-04-26T13:27:09.606Z</time></trkpt><trkpt lat="46.0884118" lon="12.2825525"><ele>1122.0</ele><time>2026-04-26T13:27:13.601Z</time></trkpt><trkpt lat="46.0883374" lon="12.2825629"><ele>1122.0</ele><time>2026-04-26T13:27:17.604Z</time></trkpt><trkpt lat="46.0882634" lon="12.2825812"><ele>1122.0</ele><time>2026-04-26T13:27:21.591Z</time></trkpt><trkpt lat="46.0881883" lon="12.2826015"><ele>1122.0</ele><time>2026-04-26T13:27:25.6Z</time></trkpt><trkpt lat="46.0881256" lon="12.2826204"><ele>1122.0</ele><time>2026-04-26T13:27:28.598Z</time></trkpt><trkpt lat="46.0880628" lon="12.2826419"><ele>1122.0</ele><time>2026-04-26T13:27:31.599Z</time></trkpt><trkpt lat="46.0879843" lon="12.2826765"><ele>1122.0</ele><time>2026-04-26T13:27:35.598Z</time></trkpt><trkpt lat="46.0879105" lon="12.2827194"><ele>1122.2857142857142</ele><time>2026-04-26T13:27:39.598Z</time></trkpt><trkpt lat="46.0878497" lon="12.2827481"><ele>1122.5714285714284</ele><time>2026-04-26T13:27:42.598Z</time></trkpt><trkpt lat="46.0877866" lon="12.2827859"><ele>1122.857142857143</ele><time>2026-04-26T13:27:45.6Z</time></trkpt><trkpt lat="46.0877207" lon="12.2827963"><ele>1123.142857142857</ele><time>2026-04-26T13:27:48.592Z</time></trkpt><trkpt lat="46.0876409" lon="12.2828128"><ele>1123.4285714285716</ele><time>2026-04-26T13:27:52.6Z</time></trkpt><trkpt lat="46.0875707" lon="12.2828372"><ele>1123.7142857142858</ele><time>2026-04-26T13:27:56.598Z</time></trkpt><trkpt lat="46.0875072" lon="12.2828345"><ele>1124.0</ele><time>2026-04-26T13:28:00.592Z</time></trkpt><trkpt lat="46.0874349" lon="12.2828202"><ele>1123.857142857143</ele><time>2026-04-26T13:28:05.598Z</time></trkpt><trkpt lat="46.0873616" lon="12.2828046"><ele>1123.7142857142858</ele><time>2026-04-26T13:28:10.601Z</time></trkpt><trkpt lat="46.0872962" lon="12.2827954"><ele>1123.5714285714284</ele><time>2026-04-26T13:28:14.599Z</time></trkpt><trkpt lat="46.0872296" lon="12.2827751"><ele>1123.4285714285716</ele><time>2026-04-26T13:28:18.601Z</time></trkpt><trkpt lat="46.0871537" lon="12.2827483"><ele>1123.2857142857142</ele><time>2026-04-26T13:28:23.597Z</time></trkpt><trkpt lat="46.0870869" lon="12.2827246"><ele>1123.142857142857</ele><time>2026-04-26T13:28:27.599Z</time></trkpt><trkpt lat="46.087019" lon="12.2826991"><ele>1123.0</ele><time>2026-04-26T13:28:31.598Z</time></trkpt><trkpt lat="46.0869452" lon="12.2826951"><ele>1122.9999999999998</ele><time>2026-04-26T13:28:35.598Z</time></trkpt><trkpt lat="46.0868806" lon="12.2826956"><ele>1123.0</ele><time>2026-04-26T13:28:39.591Z</time></trkpt><trkpt lat="46.0868168" lon="12.2827213"><ele>1123.0</ele><time>2026-04-26T13:28:43.592Z</time></trkpt><trkpt lat="46.0867518" lon="12.2827557"><ele>1123.0</ele><time>2026-04-26T13:28:47.597Z</time></trkpt><trkpt lat="46.0866882" lon="12.2827887"><ele>1123.0</ele><time>2026-04-26T13:28:51.6Z</time></trkpt><trkpt lat="46.0866211" lon="12.2828138"><ele>1122.9999999999998</ele><time>2026-04-26T13:28:55.596Z</time></trkpt><trkpt lat="46.0865584" lon="12.2828468"><ele>1123.0</ele><time>2026-04-26T13:28:59.604Z</time></trkpt><trkpt lat="46.0864986" lon="12.2829071"><ele>1123.4285714285713</ele><time>2026-04-26T13:29:03.59Z</time></trkpt><trkpt lat="46.0864287" lon="12.2829426"><ele>1123.857142857143</ele><time>2026-04-26T13:29:07.601Z</time></trkpt><trkpt lat="46.0863658" lon="12.2829876"><ele>1124.2857142857142</ele><time>2026-04-26T13:29:11.597Z</time></trkpt><trkpt lat="46.0863057" lon="12.2830462"><ele>1124.7142857142858</ele><time>2026-04-26T13:29:15.601Z</time></trkpt><trkpt lat="46.086246" lon="12.2830978"><ele>1125.142857142857</ele><time>2026-04-26T13:29:19.602Z</time></trkpt><trkpt lat="46.0861854" lon="12.2831411"><ele>1125.5714285714284</ele><time>2026-04-26T13:29:23.599Z</time></trkpt><trkpt lat="46.0861228" lon="12.2831804"><ele>1126.0</ele><time>2026-04-26T13:29:27.595Z</time></trkpt><trkpt lat="46.0860561" lon="12.2831928"><ele>1129.0</ele><time>2026-04-26T13:29:31.606Z</time></trkpt><trkpt lat="46.0859806" lon="12.2831914"><ele>1132.0</ele><time>2026-04-26T13:29:35.594Z</time></trkpt><trkpt lat="46.085904" lon="12.2831832"><ele>1135.0</ele><time>2026-04-26T13:29:39.599Z</time></trkpt><trkpt lat="46.08583" lon="12.2831732"><ele>1138.0</ele><time>2026-04-26T13:29:43.592Z</time></trkpt><trkpt lat="46.085756" lon="12.2831799"><ele>1141.0</ele><time>2026-04-26T13:29:47.593Z</time></trkpt><trkpt lat="46.0856915" lon="12.2832216"><ele>1144.0</ele><time>2026-04-26T13:29:51.601Z</time></trkpt><trkpt lat="46.0856509" lon="12.2832957"><ele>1147.0</ele><time>2026-04-26T13:29:55.598Z</time></trkpt><trkpt lat="46.0855927" lon="12.2833554"><ele>1147.0</ele><time>2026-04-26T13:29:59.595Z</time></trkpt><trkpt lat="46.0855514" lon="12.2834361"><ele>1147.0</ele><time>2026-04-26T13:30:03.603Z</time></trkpt><trkpt lat="46.085512" lon="12.2835226"><ele>1147.0</ele><time>2026-04-26T13:30:07.595Z</time></trkpt><trkpt lat="46.0854765" lon="12.283605"><ele>1147.0</ele><time>2026-04-26T13:30:11.598Z</time></trkpt><trkpt lat="46.0854515" lon="12.2836943"><ele>1147.0</ele><time>2026-04-26T13:30:15.596Z</time></trkpt><trkpt lat="46.0854334" lon="12.2837995"><ele>1147.0</ele><time>2026-04-26T13:30:19.593Z</time></trkpt><trkpt lat="46.085425" lon="12.2839025"><ele>1147.0</ele><time>2026-04-26T13:30:24.605Z</time></trkpt><trkpt lat="46.0854444" lon="12.2840088"><ele>1148.857142857143</ele><time>2026-04-26T13:30:28.601Z</time></trkpt><trkpt lat="46.0854638" lon="12.284116"><ele>1150.7142857142858</ele><time>2026-04-26T13:30:32.608Z</time></trkpt><trkpt lat="46.0854538" lon="12.2842132"><ele>1152.5714285714287</ele><time>2026-04-26T13:30:36.606Z</time></trkpt><trkpt lat="46.0854276" lon="12.2843015"><ele>1154.4285714285716</ele><time>2026-04-26T13:30:40.6Z</time></trkpt><trkpt lat="46.0854006" lon="12.2843943"><ele>1156.2857142857144</ele><time>2026-04-26T13:30:44.601Z</time></trkpt><trkpt lat="46.0853781" lon="12.2844851"><ele>1158.142857142857</ele><time>2026-04-26T13:30:48.595Z</time></trkpt><trkpt lat="46.0854303" lon="12.2845361"><ele>1160.0</ele><time>2026-04-26T13:30:55.595Z</time></trkpt><trkpt lat="46.0854057" lon="12.2844341"><ele>1160.0</ele><time>2026-04-26T13:31:01.598Z</time></trkpt><trkpt lat="46.0853425" lon="12.2844496"><ele>1160.0</ele><time>2026-04-26T13:31:04.599Z</time></trkpt><trkpt lat="46.0853274" lon="12.2845432"><ele>1160.0</ele><time>2026-04-26T13:31:08.599Z</time></trkpt><trkpt lat="46.0852706" lon="12.2846123"><ele>1160.0</ele><time>2026-04-26T13:31:12.605Z</time></trkpt><trkpt lat="46.0852162" lon="12.2846802"><ele>1160.0</ele><time>2026-04-26T13:31:16.599Z</time></trkpt><trkpt lat="46.0851524" lon="12.284737"><ele>1160.0</ele><time>2026-04-26T13:31:21.604Z</time></trkpt><trkpt lat="46.0850926" lon="12.2847661"><ele>1160.0</ele><time>2026-04-26T13:31:25.6Z</time></trkpt><trkpt lat="46.0850411" lon="12.2848459"><ele>1162.4285714285716</ele><time>2026-04-26T13:31:30.601Z</time></trkpt><trkpt lat="46.0849743" lon="12.2849097"><ele>1164.857142857143</ele><time>2026-04-26T13:31:35.6Z</time></trkpt><trkpt lat="46.0849157" lon="12.2849459"><ele>1167.2857142857142</ele><time>2026-04-26T13:31:39.599Z</time></trkpt><trkpt lat="46.0848497" lon="12.2849991"><ele>1169.7142857142858</ele><time>2026-04-26T13:31:43.598Z</time></trkpt><trkpt lat="46.0847748" lon="12.2850519"><ele>1172.142857142857</ele><time>2026-04-26T13:31:47.6Z</time></trkpt><trkpt lat="46.0847089" lon="12.2850839"><ele>1174.5714285714287</ele><time>2026-04-26T13:31:50.602Z</time></trkpt><trkpt lat="46.0846443" lon="12.2851155"><ele>1177.0</ele><time>2026-04-26T13:31:53.599Z</time></trkpt><trkpt lat="46.0845773" lon="12.2851494"><ele>1177.2857142857142</ele><time>2026-04-26T13:31:56.594Z</time></trkpt><trkpt lat="46.084512" lon="12.2851839"><ele>1177.5714285714284</ele><time>2026-04-26T13:31:59.591Z</time></trkpt><trkpt lat="46.0844441" lon="12.2852079"><ele>1177.8571428571427</ele><time>2026-04-26T13:32:02.6Z</time></trkpt><trkpt lat="46.0843786" lon="12.2852166"><ele>1178.142857142857</ele><time>2026-04-26T13:32:05.621Z</time></trkpt><trkpt lat="46.0843112" lon="12.2852022"><ele>1178.4285714285713</ele><time>2026-04-26T13:32:08.599Z</time></trkpt><trkpt lat="46.0842321" lon="12.285166"><ele>1178.7142857142856</ele><time>2026-04-26T13:32:12.598Z</time></trkpt><trkpt lat="46.0841812" lon="12.2851035"><ele>1179.0</ele><time>2026-04-26T13:32:15.598Z</time></trkpt><trkpt lat="46.0841308" lon="12.2850329"><ele>1181.9999999999998</ele><time>2026-04-26T13:32:18.598Z</time></trkpt><trkpt lat="46.0840848" lon="12.2849592"><ele>1185.0</ele><time>2026-04-26T13:32:21.614Z</time></trkpt><trkpt lat="46.0840389" lon="12.2848848"><ele>1188.0</ele><time>2026-04-26T13:32:24.603Z</time></trkpt><trkpt lat="46.0839967" lon="12.2847993"><ele>1191.0</ele><time>2026-04-26T13:32:27.599Z</time></trkpt><trkpt lat="46.0839571" lon="12.2847213"><ele>1194.0</ele><time>2026-04-26T13:32:30.6Z</time></trkpt><trkpt lat="46.08392" lon="12.2846183"><ele>1196.9999999999998</ele><time>2026-04-26T13:32:34.595Z</time></trkpt><trkpt lat="46.0838814" lon="12.2845259"><ele>1200.0</ele><time>2026-04-26T13:32:38.592Z</time></trkpt><trkpt lat="46.0838148" lon="12.2845409"><ele>1199.9999999999998</ele><time>2026-04-26T13:32:43.6Z</time></trkpt><trkpt lat="46.0837601" lon="12.2845891"><ele>1200.0</ele><time>2026-04-26T13:32:48.6Z</time></trkpt><trkpt lat="46.083723" lon="12.2845118"><ele>1200.0</ele><time>2026-04-26T13:35:09.592Z</time></trkpt><trkpt lat="46.0837824" lon="12.2845665"><ele>1200.0</ele><time>2026-04-26T13:35:15.598Z</time></trkpt><trkpt lat="46.0837723" lon="12.2846695"><ele>1200.0</ele><time>2026-04-26T13:35:19.595Z</time></trkpt><trkpt lat="46.0837815" lon="12.2847828"><ele>1199.9999999999998</ele><time>2026-04-26T13:35:23.59Z</time></trkpt><trkpt lat="46.0837574" lon="12.2848802"><ele>1200.0</ele><time>2026-04-26T13:35:27.594Z</time></trkpt><trkpt lat="46.0837092" lon="12.2849618"><ele>1199.9999999999998</ele><time>2026-04-26T13:35:31.598Z</time></trkpt><trkpt lat="46.0836706" lon="12.2850537"><ele>1200.0</ele><time>2026-04-26T13:35:35.594Z</time></trkpt><trkpt lat="46.0836331" lon="12.285132"><ele>1200.0</ele><time>2026-04-26T13:35:39.6Z</time></trkpt><trkpt lat="46.083588" lon="12.2852039"><ele>1200.0</ele><time>2026-04-26T13:35:43.595Z</time></trkpt><trkpt lat="46.0835272" lon="12.2852536"><ele>1200.0</ele><time>2026-04-26T13:35:47.627Z</time></trkpt><trkpt lat="46.0834768" lon="12.285331"><ele>1199.9999999999998</ele><time>2026-04-26T13:35:52.59Z</time></trkpt><trkpt lat="46.0834242" lon="12.2853899"><ele>1200.0</ele><time>2026-04-26T13:35:57.592Z</time></trkpt><trkpt lat="46.083372" lon="12.2854588"><ele>1199.9999999999998</ele><time>2026-04-26T13:36:02.598Z</time></trkpt><trkpt lat="46.0833547" lon="12.285549"><ele>1200.0</ele><time>2026-04-26T13:36:07.594Z</time></trkpt><trkpt lat="46.0833539" lon="12.2856438"><ele>1200.0</ele><time>2026-04-26T13:36:13.601Z</time></trkpt><trkpt lat="46.0833486" lon="12.285741"><ele>1200.0</ele><time>2026-04-26T13:36:18.598Z</time></trkpt><trkpt lat="46.0833367" lon="12.2858427"><ele>1200.0</ele><time>2026-04-26T13:36:52.6Z</time></trkpt><trkpt lat="46.0833094" lon="12.2859433"><ele>1199.9999999999998</ele><time>2026-04-26T13:36:56.591Z</time></trkpt><trkpt lat="46.0832844" lon="12.2860449"><ele>1200.0</ele><time>2026-04-26T13:37:00.606Z</time></trkpt><trkpt lat="46.0832742" lon="12.2861571"><ele>1205.5714285714284</ele><time>2026-04-26T13:37:04.597Z</time></trkpt><trkpt lat="46.0832558" lon="12.2862669"><ele>1211.142857142857</ele><time>2026-04-26T13:37:08.6Z</time></trkpt><trkpt lat="46.0832292" lon="12.2863627"><ele>1216.7142857142858</ele><time>2026-04-26T13:37:12.593Z</time></trkpt><trkpt lat="46.0831946" lon="12.2864429"><ele>1222.2857142857142</ele><time>2026-04-26T13:37:16.589Z</time></trkpt><trkpt lat="46.083135" lon="12.2864976"><ele>1227.857142857143</ele><time>2026-04-26T13:37:21.592Z</time></trkpt><trkpt lat="46.0831133" lon="12.2865873"><ele>1233.4285714285713</ele><time>2026-04-26T13:37:26.597Z</time></trkpt><trkpt lat="46.0831147" lon="12.2866953"><ele>1239.0</ele><time>2026-04-26T13:37:30.598Z</time></trkpt><trkpt lat="46.0831197" lon="12.2867867"><ele>1239.857142857143</ele><time>2026-04-26T13:37:33.597Z</time></trkpt><trkpt lat="46.0831193" lon="12.286885"><ele>1240.7142857142858</ele><time>2026-04-26T13:37:36.6Z</time></trkpt><trkpt lat="46.0831136" lon="12.2869898"><ele>1241.5714285714284</ele><time>2026-04-26T13:37:39.602Z</time></trkpt><trkpt lat="46.0831087" lon="12.2870897"><ele>1242.4285714285716</ele><time>2026-04-26T13:37:42.599Z</time></trkpt><trkpt lat="46.083126" lon="12.2871885"><ele>1243.2857142857142</ele><time>2026-04-26T13:37:45.601Z</time></trkpt><trkpt lat="46.0831577" lon="12.2872797"><ele>1244.142857142857</ele><time>2026-04-26T13:37:48.598Z</time></trkpt><trkpt lat="46.0831904" lon="12.2873759"><ele>1245.0</ele><time>2026-04-26T13:37:51.594Z</time></trkpt><trkpt lat="46.0832309" lon="12.2874471"><ele>1239.3333333333333</ele><time>2026-04-26T13:37:54.603Z</time></trkpt><trkpt lat="46.0832756" lon="12.2875404"><ele>1233.6666666666667</ele><time>2026-04-26T13:37:58.599Z</time></trkpt><trkpt lat="46.0833015" lon="12.2876249"><ele>1228.0</ele><time>2026-04-26T13:38:01.599Z</time></trkpt><trkpt lat="46.0833389" lon="12.2877257"><ele>1222.3333333333335</ele><time>2026-04-26T13:38:05.597Z</time></trkpt><trkpt lat="46.0833793" lon="12.2878253"><ele>1216.6666666666667</ele><time>2026-04-26T13:38:09.587Z</time></trkpt><trkpt lat="46.0834166" lon="12.2879308"><ele>1211.0</ele><time>2026-04-26T13:38:13.599Z</time></trkpt><trkpt lat="46.0834556" lon="12.2880069"><ele>1211.0</ele><time>2026-04-26T13:38:16.597Z</time></trkpt><trkpt lat="46.0834921" lon="12.2880902"><ele>1211.0</ele><time>2026-04-26T13:38:19.595Z</time></trkpt><trkpt lat="46.083523" lon="12.2881747"><ele>1211.0</ele><time>2026-04-26T13:38:22.601Z</time></trkpt><trkpt lat="46.0835548" lon="12.2882636"><ele>1211.0</ele><time>2026-04-26T13:38:33.59Z</time></trkpt><trkpt lat="46.0835096" lon="12.2883611"><ele>1211.0</ele><time>2026-04-26T13:38:37.602Z</time></trkpt><trkpt lat="46.0835732" lon="12.288351"><ele>1211.0</ele><time>2026-04-26T13:39:24.594Z</time></trkpt><trkpt lat="46.0836376" lon="12.2884246"><ele>1211.0</ele><time>2026-04-26T13:39:28.6Z</time></trkpt><trkpt lat="46.0836778" lon="12.2884976"><ele>1213.2857142857142</ele><time>2026-04-26T13:39:31.595Z</time></trkpt><trkpt lat="46.0837269" lon="12.2885583"><ele>1215.5714285714284</ele><time>2026-04-26T13:39:34.601Z</time></trkpt><trkpt lat="46.0837931" lon="12.2886185"><ele>1217.857142857143</ele><time>2026-04-26T13:39:38.592Z</time></trkpt><trkpt lat="46.083864" lon="12.2886676"><ele>1220.142857142857</ele><time>2026-04-26T13:39:42.592Z</time></trkpt><trkpt lat="46.0839241" lon="12.2886959"><ele>1222.4285714285713</ele><time>2026-04-26T13:39:46.591Z</time></trkpt><trkpt lat="46.0839931" lon="12.2886988"><ele>1224.7142857142858</ele><time>2026-04-26T13:39:50.591Z</time></trkpt><trkpt lat="46.0840619" lon="12.2886846"><ele>1227.0</ele><time>2026-04-26T13:39:54.6Z</time></trkpt><trkpt lat="46.0841268" lon="12.2886658"><ele>1227.0</ele><time>2026-04-26T13:39:58.598Z</time></trkpt><trkpt lat="46.0841855" lon="12.2886206"><ele>1227.0</ele><time>2026-04-26T13:40:02.593Z</time></trkpt><trkpt lat="46.0842462" lon="12.2885682"><ele>1227.0</ele><time>2026-04-26T13:40:06.599Z</time></trkpt><trkpt lat="46.0843003" lon="12.2885135"><ele>1227.0</ele><time>2026-04-26T13:40:10.599Z</time></trkpt><trkpt lat="46.0843675" lon="12.288498"><ele>1227.0</ele><time>2026-04-26T13:40:14.593Z</time></trkpt><trkpt lat="46.0844312" lon="12.288479"><ele>1227.0</ele><time>2026-04-26T13:40:18.601Z</time></trkpt><trkpt lat="46.0844978" lon="12.2884536"><ele>1227.0</ele><time>2026-04-26T13:40:22.6Z</time></trkpt><trkpt lat="46.0845612" lon="12.2884285"><ele>1227.0</ele><time>2026-04-26T13:40:26.599Z</time></trkpt><trkpt lat="46.0846316" lon="12.2884152"><ele>1227.0</ele><time>2026-04-26T13:40:30.6Z</time></trkpt><trkpt lat="46.0847006" lon="12.2884005"><ele>1227.0</ele><time>2026-04-26T13:40:34.599Z</time></trkpt><trkpt lat="46.0847712" lon="12.2883881"><ele>1227.0</ele><time>2026-04-26T13:40:38.599Z</time></trkpt><trkpt lat="46.0848357" lon="12.2883899"><ele>1227.0</ele><time>2026-04-26T13:40:42.604Z</time></trkpt><trkpt lat="46.0848993" lon="12.288406"><ele>1227.0</ele><time>2026-04-26T13:40:59.59Z</time></trkpt><trkpt lat="46.0849734" lon="12.2883614"><ele>1227.0</ele><time>2026-04-26T13:41:03.592Z</time></trkpt><trkpt lat="46.0850543" lon="12.2883483"><ele>1231.0</ele><time>2026-04-26T13:41:07.598Z</time></trkpt><trkpt lat="46.0851335" lon="12.2883282"><ele>1235.0</ele><time>2026-04-26T13:41:11.592Z</time></trkpt><trkpt lat="46.0852089" lon="12.2883011"><ele>1239.0</ele><time>2026-04-26T13:41:15.596Z</time></trkpt><trkpt lat="46.0852736" lon="12.288279"><ele>1243.0</ele><time>2026-04-26T13:41:19.593Z</time></trkpt><trkpt lat="46.0853462" lon="12.2882503"><ele>1247.0</ele><time>2026-04-26T13:41:23.599Z</time></trkpt><trkpt lat="46.0854195" lon="12.2882245"><ele>1251.0</ele><time>2026-04-26T13:41:27.591Z</time></trkpt><trkpt lat="46.0854786" lon="12.288193"><ele>1255.0</ele><time>2026-04-26T13:41:31.59Z</time></trkpt><trkpt lat="46.0855413" lon="12.2881743"><ele>1255.0</ele><time>2026-04-26T13:41:35.597Z</time></trkpt><trkpt lat="46.085614" lon="12.2881335"><ele>1255.0</ele><time>2026-04-26T13:41:40.597Z</time></trkpt><trkpt lat="46.0856765" lon="12.2881103"><ele>1255.0</ele><time>2026-04-26T13:41:44.598Z</time></trkpt><trkpt lat="46.085742" lon="12.2880864"><ele>1255.0</ele><time>2026-04-26T13:41:48.598Z</time></trkpt><trkpt lat="46.0858114" lon="12.2880566"><ele>1255.0</ele><time>2026-04-26T13:41:52.599Z</time></trkpt><trkpt lat="46.0858734" lon="12.2880212"><ele>1255.0</ele><time>2026-04-26T13:41:56.591Z</time></trkpt><trkpt lat="46.085922" lon="12.2879571"><ele>1255.0</ele><time>2026-04-26T13:42:00.59Z</time></trkpt><trkpt lat="46.0859798" lon="12.2879151"><ele>1254.142857142857</ele><time>2026-04-26T13:42:04.595Z</time></trkpt><trkpt lat="46.0860536" lon="12.2878732"><ele>1253.2857142857142</ele><time>2026-04-26T13:42:09.592Z</time></trkpt><trkpt lat="46.0861208" lon="12.2878321"><ele>1252.4285714285713</ele><time>2026-04-26T13:42:13.598Z</time></trkpt><trkpt lat="46.0861934" lon="12.2878047"><ele>1251.5714285714284</ele><time>2026-04-26T13:42:17.588Z</time></trkpt><trkpt lat="46.0862686" lon="12.2877774"><ele>1250.7142857142858</ele><time>2026-04-26T13:42:21.597Z</time></trkpt><trkpt lat="46.086337" lon="12.2877614"><ele>1249.8571428571427</ele><time>2026-04-26T13:42:25.596Z</time></trkpt><trkpt lat="46.0864055" lon="12.2877471"><ele>1249.0</ele><time>2026-04-26T13:42:29.596Z</time></trkpt><trkpt lat="46.0864755" lon="12.2877182"><ele>1248.9999999999998</ele><time>2026-04-26T13:42:33.599Z</time></trkpt><trkpt lat="46.0865421" lon="12.2877302"><ele>1249.0</ele><time>2026-04-26T13:42:37.596Z</time></trkpt><trkpt lat="46.0865688" lon="12.2878173"><ele>1249.0</ele><time>2026-04-26T13:42:41.596Z</time></trkpt><trkpt lat="46.0865782" lon="12.2879137"><ele>1249.0</ele><time>2026-04-26T13:42:45.596Z</time></trkpt><trkpt lat="46.0866419" lon="12.2879625"><ele>1249.0</ele><time>2026-04-26T13:42:49.598Z</time></trkpt><trkpt lat="46.0866928" lon="12.2880239"><ele>1248.9999999999998</ele><time>2026-04-26T13:42:53.587Z</time></trkpt><trkpt lat="46.0867215" lon="12.2881161"><ele>1249.0</ele><time>2026-04-26T13:42:57.598Z</time></trkpt><trkpt lat="46.0867408" lon="12.2882099"><ele>1252.7142857142856</ele><time>2026-04-26T13:43:01.6Z</time></trkpt><trkpt lat="46.0867626" lon="12.288304"><ele>1256.4285714285713</ele><time>2026-04-26T13:43:05.597Z</time></trkpt><trkpt lat="46.0867489" lon="12.2883943"><ele>1260.142857142857</ele><time>2026-04-26T13:43:09.598Z</time></trkpt><trkpt lat="46.086692" lon="12.2884565"><ele>1263.8571428571427</ele><time>2026-04-26T13:43:14.598Z</time></trkpt><trkpt lat="46.0866953" lon="12.2885646"><ele>1267.5714285714284</ele><time>2026-04-26T13:49:19.588Z</time></trkpt><trkpt lat="46.0867074" lon="12.2886673"><ele>1271.2857142857142</ele><time>2026-04-26T13:49:23.596Z</time></trkpt><trkpt lat="46.0866585" lon="12.2887259"><ele>1275.0</ele><time>2026-04-26T13:49:27.597Z</time></trkpt><trkpt lat="46.0865961" lon="12.2887787"><ele>1274.6666666666667</ele><time>2026-04-26T13:49:33.597Z</time></trkpt><trkpt lat="46.0865292" lon="12.2888277"><ele>1274.3333333333333</ele><time>2026-04-26T13:49:39.586Z</time></trkpt><trkpt lat="46.0864564" lon="12.288841"><ele>1274.0</ele><time>2026-04-26T13:49:43.598Z</time></trkpt><trkpt lat="46.0864424" lon="12.2889485"><ele>1273.6666666666665</ele><time>2026-04-26T13:49:47.598Z</time></trkpt><trkpt lat="46.08646" lon="12.2890501"><ele>1273.3333333333333</ele><time>2026-04-26T13:49:52.594Z</time></trkpt><trkpt lat="46.0865209" lon="12.2891161"><ele>1273.0</ele><time>2026-04-26T13:49:56.59Z</time></trkpt><trkpt lat="46.0865665" lon="12.2892121"><ele>1274.5714285714284</ele><time>2026-04-26T13:50:00.591Z</time></trkpt><trkpt lat="46.0865985" lon="12.2893139"><ele>1276.142857142857</ele><time>2026-04-26T13:50:04.596Z</time></trkpt><trkpt lat="46.0866284" lon="12.2894037"><ele>1277.7142857142858</ele><time>2026-04-26T13:50:08.592Z</time></trkpt><trkpt lat="46.0866616" lon="12.2895002"><ele>1279.2857142857142</ele><time>2026-04-26T13:50:12.592Z</time></trkpt><trkpt lat="46.086641" lon="12.289602"><ele>1280.857142857143</ele><time>2026-04-26T13:50:17.6Z</time></trkpt><trkpt lat="46.0865732" lon="12.2896205"><ele>1282.4285714285713</ele><time>2026-04-26T13:50:22.597Z</time></trkpt><trkpt lat="46.0865422" lon="12.2897085"><ele>1284.0</ele><time>2026-04-26T13:50:27.587Z</time></trkpt><trkpt lat="46.0864683" lon="12.2897165"><ele>1289.7142857142856</ele><time>2026-04-26T13:50:33.596Z</time></trkpt><trkpt lat="46.0864123" lon="12.2897655"><ele>1295.4285714285713</ele><time>2026-04-26T13:50:39.596Z</time></trkpt><trkpt lat="46.0864301" lon="12.2898693"><ele>1301.142857142857</ele><time>2026-04-26T13:50:43.596Z</time></trkpt><trkpt lat="46.0863742" lon="12.2899237"><ele>1306.8571428571427</ele><time>2026-04-26T13:50:48.597Z</time></trkpt><trkpt lat="46.0863331" lon="12.2900068"><ele>1312.5714285714284</ele><time>2026-04-26T13:51:05.598Z</time></trkpt><trkpt lat="46.0863412" lon="12.2901141"><ele>1318.2857142857142</ele><time>2026-04-26T13:51:10.587Z</time></trkpt><trkpt lat="46.0863045" lon="12.2902179"><ele>1324.0</ele><time>2026-04-26T13:51:14.589Z</time></trkpt><trkpt lat="46.0863044" lon="12.2903323"><ele>1324.0</ele><time>2026-04-26T13:51:19.596Z</time></trkpt><trkpt lat="46.0862968" lon="12.290439"><ele>1324.0</ele><time>2026-04-26T13:51:23.597Z</time></trkpt><trkpt lat="46.0863189" lon="12.2905388"><ele>1324.0</ele><time>2026-04-26T13:51:27.59Z</time></trkpt><trkpt lat="46.086297" lon="12.2906241"><ele>1324.0</ele><time>2026-04-26T13:51:31.598Z</time></trkpt><trkpt lat="46.0862241" lon="12.2906341"><ele>1324.0</ele><time>2026-04-26T13:51:35.596Z</time></trkpt><trkpt lat="46.0862347" lon="12.2907399"><ele>1324.0</ele><time>2026-04-26T13:51:48.589Z</time></trkpt><trkpt lat="46.0862786" lon="12.2908312"><ele>1324.0</ele><time>2026-04-26T13:51:52.598Z</time></trkpt><trkpt lat="46.0862725" lon="12.2909224"><ele>1327.3333333333333</ele><time>2026-04-26T13:51:56.594Z</time></trkpt><trkpt lat="46.0862617" lon="12.2910172"><ele>1330.6666666666665</ele><time>2026-04-26T13:52:00.596Z</time></trkpt><trkpt lat="46.0862022" lon="12.2910826"><ele>1334.0</ele><time>2026-04-26T13:52:05.589Z</time></trkpt><trkpt lat="46.0861262" lon="12.2910257"><ele>1337.3333333333333</ele><time>2026-04-26T13:52:08.59Z</time></trkpt><trkpt lat="46.0860529" lon="12.2909892"><ele>1340.6666666666667</ele><time>2026-04-26T13:52:11.596Z</time></trkpt><trkpt lat="46.0859815" lon="12.2909677"><ele>1344.0</ele><time>2026-04-26T13:52:14.619Z</time></trkpt><trkpt lat="46.0859114" lon="12.2909439"><ele>1344.0</ele><time>2026-04-26T13:52:17.597Z</time></trkpt><trkpt lat="46.0858425" lon="12.2909075"><ele>1344.0</ele><time>2026-04-26T13:52:20.599Z</time></trkpt><trkpt lat="46.0857818" lon="12.2908813"><ele>1344.0</ele><time>2026-04-26T13:52:23.596Z</time></trkpt><trkpt lat="46.0857191" lon="12.2908595"><ele>1344.0</ele><time>2026-04-26T13:52:27.598Z</time></trkpt><trkpt lat="46.0856487" lon="12.2908418"><ele>1344.0</ele><time>2026-04-26T13:52:31.597Z</time></trkpt><trkpt lat="46.085577" lon="12.2908132"><ele>1344.0</ele><time>2026-04-26T13:52:35.597Z</time></trkpt><trkpt lat="46.0855007" lon="12.2907785"><ele>1344.0</ele><time>2026-04-26T13:52:39.598Z</time></trkpt><trkpt lat="46.0854223" lon="12.2907464"><ele>1344.8333333333333</ele><time>2026-04-26T13:52:43.597Z</time></trkpt><trkpt lat="46.0853433" lon="12.2907325"><ele>1345.6666666666667</ele><time>2026-04-26T13:52:47.6Z</time></trkpt><trkpt lat="46.0852641" lon="12.2907322"><ele>1346.5</ele><time>2026-04-26T13:52:51.596Z</time></trkpt><trkpt lat="46.0851864" lon="12.2907046"><ele>1347.3333333333335</ele><time>2026-04-26T13:52:55.597Z</time></trkpt><trkpt lat="46.0851084" lon="12.2906794"><ele>1348.1666666666667</ele><time>2026-04-26T13:52:59.59Z</time></trkpt><trkpt lat="46.0850443" lon="12.2906746"><ele>1349.0</ele><time>2026-04-26T13:53:02.597Z</time></trkpt><trkpt lat="46.0849783" lon="12.2906547"><ele>1347.2857142857142</ele><time>2026-04-26T13:53:05.595Z</time></trkpt><trkpt lat="46.0849154" lon="12.290664"><ele>1345.5714285714287</ele><time>2026-04-26T13:53:08.594Z</time></trkpt><trkpt lat="46.0848521" lon="12.2906832"><ele>1343.857142857143</ele><time>2026-04-26T13:53:11.595Z</time></trkpt><trkpt lat="46.0847821" lon="12.2907283"><ele>1342.142857142857</ele><time>2026-04-26T13:53:15.592Z</time></trkpt><trkpt lat="46.0847192" lon="12.2907849"><ele>1340.4285714285716</ele><time>2026-04-26T13:53:18.597Z</time></trkpt><trkpt lat="46.0846537" lon="12.2908656"><ele>1338.7142857142858</ele><time>2026-04-26T13:53:21.594Z</time></trkpt><trkpt lat="46.0846031" lon="12.2909249"><ele>1337.0</ele><time>2026-04-26T13:53:23.597Z</time></trkpt><trkpt lat="46.0845385" lon="12.2909726"><ele>1337.0</ele><time>2026-04-26T13:53:25.592Z</time></trkpt><trkpt lat="46.0844762" lon="12.2910252"><ele>1337.0</ele><time>2026-04-26T13:53:27.595Z</time></trkpt><trkpt lat="46.0844232" lon="12.2910818"><ele>1337.0</ele><time>2026-04-26T13:53:29.591Z</time></trkpt><trkpt lat="46.0843703" lon="12.2911519"><ele>1337.0</ele><time>2026-04-26T13:53:31.596Z</time></trkpt><trkpt lat="46.0843079" lon="12.291223"><ele>1337.0</ele><time>2026-04-26T13:53:33.591Z</time></trkpt><trkpt lat="46.0842423" lon="12.2912837"><ele>1337.0</ele><time>2026-04-26T13:53:35.596Z</time></trkpt><trkpt lat="46.0841742" lon="12.2913442"><ele>1337.0</ele><time>2026-04-26T13:53:37.589Z</time></trkpt><trkpt lat="46.0841046" lon="12.2914019"><ele>1341.4285714285713</ele><time>2026-04-26T13:53:39.59Z</time></trkpt><trkpt lat="46.0840374" lon="12.2914543"><ele>1345.857142857143</ele><time>2026-04-26T13:53:41.593Z</time></trkpt><trkpt lat="46.0839695" lon="12.2914962"><ele>1350.2857142857142</ele><time>2026-04-26T13:53:43.599Z</time></trkpt><trkpt lat="46.0839031" lon="12.2915318"><ele>1354.7142857142858</ele><time>2026-04-26T13:53:45.594Z</time></trkpt><trkpt lat="46.0838342" lon="12.2915662"><ele>1359.142857142857</ele><time>2026-04-26T13:53:47.597Z</time></trkpt><trkpt lat="46.0837655" lon="12.2915975"><ele>1363.5714285714284</ele><time>2026-04-26T13:53:49.588Z</time></trkpt><trkpt lat="46.0837074" lon="12.2916471"><ele>1368.0</ele><time>2026-04-26T13:53:51.596Z</time></trkpt><trkpt lat="46.0836529" lon="12.2916988"><ele>1368.0</ele><time>2026-04-26T13:53:53.598Z</time></trkpt><trkpt lat="46.0835856" lon="12.2917746"><ele>1368.0</ele><time>2026-04-26T13:53:56.593Z</time></trkpt><trkpt lat="46.0835146" lon="12.2918357"><ele>1368.0</ele><time>2026-04-26T13:53:59.597Z</time></trkpt><trkpt lat="46.0834465" lon="12.2918936"><ele>1368.0</ele><time>2026-04-26T13:54:02.597Z</time></trkpt><trkpt lat="46.0833762" lon="12.2919533"><ele>1368.0</ele><time>2026-04-26T13:54:05.593Z</time></trkpt><trkpt lat="46.0833002" lon="12.2920007"><ele>1368.0</ele><time>2026-04-26T13:54:08.597Z</time></trkpt><trkpt lat="46.0832184" lon="12.2920111"><ele>1367.8333333333333</ele><time>2026-04-26T13:54:11.594Z</time></trkpt><trkpt lat="46.0831503" lon="12.2919418"><ele>1367.6666666666667</ele><time>2026-04-26T13:54:14.596Z</time></trkpt><trkpt lat="46.0830867" lon="12.2918642"><ele>1367.5</ele><time>2026-04-26T13:54:17.594Z</time></trkpt><trkpt lat="46.0830152" lon="12.2918067"><ele>1367.3333333333335</ele><time>2026-04-26T13:54:20.596Z</time></trkpt><trkpt lat="46.0829453" lon="12.2917789"><ele>1367.1666666666667</ele><time>2026-04-26T13:54:23.598Z</time></trkpt><trkpt lat="46.0828726" lon="12.2917546"><ele>1367.0</ele><time>2026-04-26T13:54:26.591Z</time></trkpt><trkpt lat="46.0827889" lon="12.2917531"><ele>1367.0</ele><time>2026-04-26T13:54:29.596Z</time></trkpt><trkpt lat="46.0827106" lon="12.2917897"><ele>1367.0</ele><time>2026-04-26T13:54:32.589Z</time></trkpt><trkpt lat="46.0826431" lon="12.2918372"><ele>1367.0</ele><time>2026-04-26T13:54:35.62Z</time></trkpt><trkpt lat="46.0825839" lon="12.2918849"><ele>1367.0</ele><time>2026-04-26T13:54:38.599Z</time></trkpt><trkpt lat="46.0825258" lon="12.2919432"><ele>1367.0</ele><time>2026-04-26T13:54:41.589Z</time></trkpt><trkpt lat="46.0824573" lon="12.291977"><ele>1367.0</ele><time>2026-04-26T13:54:44.597Z</time></trkpt><trkpt lat="46.0823876" lon="12.2920026"><ele>1367.0</ele><time>2026-04-26T13:54:47.597Z</time></trkpt><trkpt lat="46.082317" lon="12.2920194"><ele>1368.4285714285716</ele><time>2026-04-26T13:54:50.599Z</time></trkpt><trkpt lat="46.0822471" lon="12.2920137"><ele>1369.8571428571427</ele><time>2026-04-26T13:54:53.606Z</time></trkpt><trkpt lat="46.0821765" lon="12.2920004"><ele>1371.2857142857142</ele><time>2026-04-26T13:54:56.597Z</time></trkpt><trkpt lat="46.0821067" lon="12.2919793"><ele>1372.7142857142858</ele><time>2026-04-26T13:54:59.599Z</time></trkpt><trkpt lat="46.08204" lon="12.2919452"><ele>1374.1428571428573</ele><time>2026-04-26T13:55:02.596Z</time></trkpt><trkpt lat="46.081971" lon="12.2919239"><ele>1375.5714285714284</ele><time>2026-04-26T13:55:05.596Z</time></trkpt><trkpt lat="46.0819" lon="12.2919184"><ele>1377.0</ele><time>2026-04-26T13:55:08.598Z</time></trkpt><trkpt lat="46.0818324" lon="12.2919317"><ele>1377.0</ele><time>2026-04-26T13:55:11.59Z</time></trkpt><trkpt lat="46.0817628" lon="12.29193"><ele>1377.0</ele><time>2026-04-26T13:55:14.595Z</time></trkpt><trkpt lat="46.0816933" lon="12.2919194"><ele>1377.0</ele><time>2026-04-26T13:55:17.597Z</time></trkpt><trkpt lat="46.0816195" lon="12.2919101"><ele>1377.0</ele><time>2026-04-26T13:55:20.598Z</time></trkpt><trkpt lat="46.081549" lon="12.291893"><ele>1377.0</ele><time>2026-04-26T13:55:23.597Z</time></trkpt><trkpt lat="46.0814828" lon="12.2918477"><ele>1377.0</ele><time>2026-04-26T13:55:26.593Z</time></trkpt><trkpt lat="46.0814251" lon="12.2917919"><ele>1377.0</ele><time>2026-04-26T13:55:29.59Z</time></trkpt><trkpt lat="46.0813522" lon="12.2917905"><ele>1379.2857142857142</ele><time>2026-04-26T13:55:32.588Z</time></trkpt><trkpt lat="46.0812822" lon="12.2918196"><ele>1381.5714285714287</ele><time>2026-04-26T13:55:35.59Z</time></trkpt><trkpt lat="46.0812168" lon="12.2918222"><ele>1383.857142857143</ele><time>2026-04-26T13:55:38.598Z</time></trkpt><trkpt lat="46.0811376" lon="12.291804"><ele>1386.142857142857</ele><time>2026-04-26T13:55:42.591Z</time></trkpt><trkpt lat="46.0810617" lon="12.2917708"><ele>1388.4285714285716</ele><time>2026-04-26T13:55:48.589Z</time></trkpt><trkpt lat="46.0810127" lon="12.2917076"><ele>1390.7142857142858</ele><time>2026-04-26T13:55:52.617Z</time></trkpt><trkpt lat="46.0810541" lon="12.2916258"><ele>1393.0</ele><time>2026-04-26T13:55:55.598Z</time></trkpt><trkpt lat="46.0810867" lon="12.291535"><ele>1393.0</ele><time>2026-04-26T13:55:58.597Z</time></trkpt><trkpt lat="46.0811206" lon="12.2914319"><ele>1393.0</ele><time>2026-04-26T13:56:02.593Z</time></trkpt><trkpt lat="46.0810823" lon="12.2915121"><ele>1393.0</ele><time>2026-04-26T14:10:52.593Z</time></trkpt><trkpt lat="46.0810676" lon="12.2916043"><ele>1393.0</ele><time>2026-04-26T14:10:54.594Z</time></trkpt><trkpt lat="46.0810185" lon="12.2916851"><ele>1393.0</ele><time>2026-04-26T14:10:56.596Z</time></trkpt><trkpt lat="46.080944" lon="12.2917147"><ele>1393.0</ele><time>2026-04-26T14:10:58.596Z</time></trkpt><trkpt lat="46.0808775" lon="12.291681"><ele>1393.0</ele><time>2026-04-26T14:11:00.597Z</time></trkpt><trkpt lat="46.0808145" lon="12.2916641"><ele>1392.857142857143</ele><time>2026-04-26T14:11:03.596Z</time></trkpt><trkpt lat="46.0807437" lon="12.2916626"><ele>1392.7142857142858</ele><time>2026-04-26T14:11:09.593Z</time></trkpt><trkpt lat="46.0806777" lon="12.291651"><ele>1392.5714285714284</ele><time>2026-04-26T14:11:14.599Z</time></trkpt><trkpt lat="46.0806055" lon="12.2916285"><ele>1392.4285714285716</ele><time>2026-04-26T14:11:19.599Z</time></trkpt><trkpt lat="46.0805327" lon="12.2916112"><ele>1392.2857142857142</ele><time>2026-04-26T14:11:24.598Z</time></trkpt><trkpt lat="46.0804738" lon="12.2915756"><ele>1392.142857142857</ele><time>2026-04-26T14:11:30.59Z</time></trkpt><trkpt lat="46.0804267" lon="12.2914993"><ele>1392.0</ele><time>2026-04-26T14:11:34.589Z</time></trkpt><trkpt lat="46.0803942" lon="12.2914143"><ele>1392.0</ele><time>2026-04-26T14:11:54.596Z</time></trkpt><trkpt lat="46.0803539" lon="12.291317"><ele>1392.0</ele><time>2026-04-26T14:11:58.589Z</time></trkpt><trkpt lat="46.0803004" lon="12.291242"><ele>1392.0</ele><time>2026-04-26T14:12:01.622Z</time></trkpt><trkpt lat="46.0802249" lon="12.2912051"><ele>1392.0</ele><time>2026-04-26T14:12:04.594Z</time></trkpt><trkpt lat="46.0801359" lon="12.2912219"><ele>1392.0</ele><time>2026-04-26T14:12:07.598Z</time></trkpt><trkpt lat="46.0800716" lon="12.2912642"><ele>1392.0</ele><time>2026-04-26T14:12:10.592Z</time></trkpt><trkpt lat="46.0800028" lon="12.2912887"><ele>1392.0</ele><time>2026-04-26T14:12:13.587Z</time></trkpt><trkpt lat="46.0799342" lon="12.2913059"><ele>1392.0</ele><time>2026-04-26T14:12:16.597Z</time></trkpt><trkpt lat="46.0798676" lon="12.2913222"><ele>1392.0</ele><time>2026-04-26T14:12:19.596Z</time></trkpt><trkpt lat="46.0797969" lon="12.2913298"><ele>1392.0</ele><time>2026-04-26T14:12:22.597Z</time></trkpt><trkpt lat="46.0797455" lon="12.2912725"><ele>1392.0</ele><time>2026-04-26T14:12:25.597Z</time></trkpt><trkpt lat="46.0797518" lon="12.2911612"><ele>1392.0</ele><time>2026-04-26T14:12:28.594Z</time></trkpt><trkpt lat="46.079767" lon="12.2910559"><ele>1392.0</ele><time>2026-04-26T14:12:31.595Z</time></trkpt><trkpt lat="46.0797889" lon="12.2909559"><ele>1394.0</ele><time>2026-04-26T14:12:34.591Z</time></trkpt><trkpt lat="46.0797842" lon="12.2908413"><ele>1396.0</ele><time>2026-04-26T14:12:38.587Z</time></trkpt><trkpt lat="46.079739" lon="12.2907519"><ele>1398.0</ele><time>2026-04-26T14:12:42.596Z</time></trkpt><trkpt lat="46.0796749" lon="12.290713"><ele>1400.0</ele><time>2026-04-26T14:12:46.59Z</time></trkpt><trkpt lat="46.0795975" lon="12.2907284"><ele>1402.0</ele><time>2026-04-26T14:12:51.588Z</time></trkpt><trkpt lat="46.079529" lon="12.2907724"><ele>1404.0</ele><time>2026-04-26T14:12:56.588Z</time></trkpt><trkpt lat="46.0794736" lon="12.290845"><ele>1404.0000000000002</ele><time>2026-04-26T14:13:01.599Z</time></trkpt><trkpt lat="46.0794279" lon="12.2909078"><ele>1404.0</ele><time>2026-04-26T14:13:05.594Z</time></trkpt><trkpt lat="46.0793704" lon="12.2909689"><ele>1404.0</ele><time>2026-04-26T14:13:10.59Z</time></trkpt><trkpt lat="46.079325" lon="12.2910324"><ele>1404.0</ele><time>2026-04-26T14:13:15.596Z</time></trkpt><trkpt lat="46.0792756" lon="12.2910977"><ele>1404.0</ele><time>2026-04-26T14:13:20.593Z</time></trkpt><trkpt lat="46.0792213" lon="12.2911545"><ele>1404.0000000000002</ele><time>2026-04-26T14:13:25.593Z</time></trkpt><trkpt lat="46.0791713" lon="12.2912207"><ele>1404.0</ele><time>2026-04-26T14:13:30.597Z</time></trkpt><trkpt lat="46.0791247" lon="12.2913015"><ele>1407.2857142857144</ele><time>2026-04-26T14:13:36.595Z</time></trkpt><trkpt lat="46.0790808" lon="12.2913726"><ele>1410.5714285714287</ele><time>2026-04-26T14:13:41.595Z</time></trkpt><trkpt lat="46.0790221" lon="12.2914328"><ele>1413.857142857143</ele><time>2026-04-26T14:13:46.596Z</time></trkpt><trkpt lat="46.0789537" lon="12.2914716"><ele>1417.1428571428573</ele><time>2026-04-26T14:13:50.62Z</time></trkpt><trkpt lat="46.0788718" lon="12.2914622"><ele>1420.4285714285716</ele><time>2026-04-26T14:13:54.596Z</time></trkpt><trkpt lat="46.0788063" lon="12.2914315"><ele>1423.7142857142858</ele><time>2026-04-26T14:13:57.593Z</time></trkpt><trkpt lat="46.0787437" lon="12.2913904"><ele>1427.0</ele><time>2026-04-26T14:14:00.596Z</time></trkpt><trkpt lat="46.0786748" lon="12.2913537"><ele>1427.0</ele><time>2026-04-26T14:14:03.596Z</time></trkpt><trkpt lat="46.0786022" lon="12.2912868"><ele>1427.0</ele><time>2026-04-26T14:14:06.595Z</time></trkpt><trkpt lat="46.0785669" lon="12.2912026"><ele>1427.0</ele><time>2026-04-26T14:14:08.597Z</time></trkpt><trkpt lat="46.0785353" lon="12.291107"><ele>1427.0</ele><time>2026-04-26T14:14:10.597Z</time></trkpt><trkpt lat="46.0784914" lon="12.2910214"><ele>1427.0</ele><time>2026-04-26T14:14:12.592Z</time></trkpt><trkpt lat="46.0784327" lon="12.2909293"><ele>1427.0</ele><time>2026-04-26T14:14:15.597Z</time></trkpt><trkpt lat="46.078393" lon="12.2908551"><ele>1427.0</ele><time>2026-04-26T14:14:17.597Z</time></trkpt><trkpt lat="46.0783649" lon="12.2907716"><ele>1427.0</ele><time>2026-04-26T14:14:19.597Z</time></trkpt><trkpt lat="46.0783223" lon="12.2906594"><ele>1427.0</ele><time>2026-04-26T14:14:22.604Z</time></trkpt><trkpt lat="46.0782849" lon="12.2905555"><ele>1427.0</ele><time>2026-04-26T14:14:25.595Z</time></trkpt><trkpt lat="46.0782538" lon="12.2904645"><ele>1427.0</ele><time>2026-04-26T14:14:28.594Z</time></trkpt><trkpt lat="46.0782191" lon="12.2903735"><ele>1427.0</ele><time>2026-04-26T14:14:31.597Z</time></trkpt><trkpt lat="46.0781843" lon="12.2902894"><ele>1427.0</ele><time>2026-04-26T14:14:34.593Z</time></trkpt><trkpt lat="46.0781478" lon="12.2902042"><ele>1427.1666666666667</ele><time>2026-04-26T14:14:37.598Z</time></trkpt><trkpt lat="46.0781077" lon="12.2901174"><ele>1427.3333333333335</ele><time>2026-04-26T14:14:40.596Z</time></trkpt><trkpt lat="46.0780718" lon="12.2900307"><ele>1427.5</ele><time>2026-04-26T14:14:43.598Z</time></trkpt><trkpt lat="46.0780261" lon="12.2899432"><ele>1427.6666666666667</ele><time>2026-04-26T14:14:46.598Z</time></trkpt><trkpt lat="46.0779646" lon="12.2898658"><ele>1427.8333333333333</ele><time>2026-04-26T14:14:49.597Z</time></trkpt><trkpt lat="46.0778989" lon="12.2898016"><ele>1428.0</ele><time>2026-04-26T14:14:52.597Z</time></trkpt><trkpt lat="46.0778207" lon="12.2897411"><ele>1428.0</ele><time>2026-04-26T14:14:55.598Z</time></trkpt><trkpt lat="46.0777638" lon="12.2896999"><ele>1428.0</ele><time>2026-04-26T14:14:57.599Z</time></trkpt><trkpt lat="46.0777011" lon="12.2896648"><ele>1428.0</ele><time>2026-04-26T14:14:59.601Z</time></trkpt><trkpt lat="46.0776111" lon="12.2896131"><ele>1428.0</ele><time>2026-04-26T14:15:01.589Z</time></trkpt><trkpt lat="46.0775611" lon="12.2895003"><ele>1428.0</ele><time>2026-04-26T14:15:03.597Z</time></trkpt><trkpt lat="46.0775399" lon="12.2893758"><ele>1428.0</ele><time>2026-04-26T14:15:05.591Z</time></trkpt><trkpt lat="46.0775592" lon="12.2892496"><ele>1428.0</ele><time>2026-04-26T14:15:07.598Z</time></trkpt><trkpt lat="46.0776002" lon="12.289141"><ele>1428.0</ele><time>2026-04-26T14:15:09.597Z</time></trkpt><trkpt lat="46.0776485" lon="12.2890304"><ele>1428.0</ele><time>2026-04-26T14:15:11.594Z</time></trkpt><trkpt lat="46.0777001" lon="12.2889203"><ele>1428.0</ele><time>2026-04-26T14:15:13.595Z</time></trkpt><trkpt lat="46.0777586" lon="12.2888129"><ele>1428.0</ele><time>2026-04-26T14:15:15.603Z</time></trkpt><trkpt lat="46.0778238" lon="12.2887089"><ele>1428.2</ele><time>2026-04-26T14:15:17.598Z</time></trkpt><trkpt lat="46.0778898" lon="12.2886166"><ele>1428.4</ele><time>2026-04-26T14:15:19.621Z</time></trkpt><trkpt lat="46.0779596" lon="12.2885106"><ele>1428.6000000000001</ele><time>2026-04-26T14:15:21.595Z</time></trkpt><trkpt lat="46.0780263" lon="12.2884095"><ele>1428.8000000000002</ele><time>2026-04-26T14:15:23.602Z</time></trkpt><trkpt lat="46.0780946" lon="12.2883243"><ele>1429.0</ele><time>2026-04-26T14:15:25.598Z</time></trkpt><trkpt lat="46.0781711" lon="12.2882599"><ele>1429.0</ele><time>2026-04-26T14:15:27.608Z</time></trkpt><trkpt lat="46.0782503" lon="12.2882098"><ele>1429.0</ele><time>2026-04-26T14:15:29.6Z</time></trkpt><trkpt lat="46.0783065" lon="12.288166"><ele>1429.0</ele><time>2026-04-26T14:15:31.59Z</time></trkpt><trkpt lat="46.0783499" lon="12.2880998"><ele>1429.0</ele><time>2026-04-26T14:16:43.595Z</time></trkpt><trkpt lat="46.0783176" lon="12.2879993"><ele>1429.0</ele><time>2026-04-26T14:16:47.589Z</time></trkpt><trkpt lat="46.0783652" lon="12.2880934"><ele>1429.0</ele><time>2026-04-26T14:19:42.594Z</time></trkpt><trkpt lat="46.078411" lon="12.2881768"><ele>1429.0</ele><time>2026-04-26T14:19:45.586Z</time></trkpt><trkpt lat="46.0785035" lon="12.2881701"><ele>1426.3333333333333</ele><time>2026-04-26T14:19:48.596Z</time></trkpt><trkpt lat="46.0785782" lon="12.2880968"><ele>1423.6666666666665</ele><time>2026-04-26T14:19:51.602Z</time></trkpt><trkpt lat="46.078643" lon="12.2880092"><ele>1421.0</ele><time>2026-04-26T14:19:54.596Z</time></trkpt><trkpt lat="46.0786472" lon="12.2878745"><ele>1418.3333333333333</ele><time>2026-04-26T14:19:57.598Z</time></trkpt><trkpt lat="46.0785994" lon="12.2878063"><ele>1415.6666666666667</ele><time>2026-04-26T14:19:59.6Z</time></trkpt><trkpt lat="46.0785372" lon="12.2877169"><ele>1413.0</ele><time>2026-04-26T14:20:04.612Z</time></trkpt><trkpt lat="46.0784826" lon="12.2876672"><ele>1413.0</ele><time>2026-04-26T14:20:06.699Z</time></trkpt><trkpt lat="46.0784259" lon="12.2876037"><ele>1413.0</ele><time>2026-04-26T14:20:08.594Z</time></trkpt><trkpt lat="46.0783729" lon="12.2875266"><ele>1413.0</ele><time>2026-04-26T14:20:10.61Z</time></trkpt><trkpt lat="46.07832" lon="12.2874657"><ele>1413.0</ele><time>2026-04-26T14:20:12.619Z</time></trkpt><trkpt lat="46.0782302" lon="12.2873757"><ele>1413.0</ele><time>2026-04-26T14:20:14.619Z</time></trkpt><trkpt lat="46.0780475" lon="12.2871827"><ele>1409.857142857143</ele><time>2026-04-26T14:20:16.591Z</time></trkpt><trkpt lat="46.0779826" lon="12.2871395"><ele>1406.7142857142858</ele><time>2026-04-26T14:20:17.588Z</time></trkpt><trkpt lat="46.0779207" lon="12.2871076"><ele>1403.5714285714284</ele><time>2026-04-26T14:20:18.587Z</time></trkpt><trkpt lat="46.0778555" lon="12.2870835"><ele>1400.4285714285716</ele><time>2026-04-26T14:20:19.604Z</time></trkpt><trkpt lat="46.0777877" lon="12.2870701"><ele>1397.2857142857144</ele><time>2026-04-26T14:20:20.598Z</time></trkpt><trkpt lat="46.0777213" lon="12.2870325"><ele>1394.142857142857</ele><time>2026-04-26T14:20:21.6Z</time></trkpt><trkpt lat="46.0776561" lon="12.2869693"><ele>1391.0</ele><time>2026-04-26T14:20:22.601Z</time></trkpt><trkpt lat="46.0775992" lon="12.2869089"><ele>1391.0</ele><time>2026-04-26T14:20:23.593Z</time></trkpt><trkpt lat="46.0775381" lon="12.2868382"><ele>1391.0</ele><time>2026-04-26T14:20:24.594Z</time></trkpt><trkpt lat="46.0774858" lon="12.2867791"><ele>1391.0</ele><time>2026-04-26T14:20:25.597Z</time></trkpt><trkpt lat="46.0774281" lon="12.2867085"><ele>1391.0</ele><time>2026-04-26T14:20:26.592Z</time></trkpt><trkpt lat="46.0773822" lon="12.2866329"><ele>1391.0</ele><time>2026-04-26T14:20:27.593Z</time></trkpt><trkpt lat="46.0773337" lon="12.2865461"><ele>1391.0</ele><time>2026-04-26T14:20:28.6Z</time></trkpt><trkpt lat="46.0772956" lon="12.286438"><ele>1390.5</ele><time>2026-04-26T14:20:29.604Z</time></trkpt><trkpt lat="46.0772823" lon="12.2863112"><ele>1390.0</ele><time>2026-04-26T14:20:30.602Z</time></trkpt><trkpt lat="46.0772795" lon="12.2861928"><ele>1389.5</ele><time>2026-04-26T14:20:31.596Z</time></trkpt><trkpt lat="46.077285" lon="12.2860685"><ele>1389.0</ele><time>2026-04-26T14:20:32.593Z</time></trkpt><trkpt lat="46.0773002" lon="12.2859574"><ele>1388.5</ele><time>2026-04-26T14:20:33.598Z</time></trkpt><trkpt lat="46.0773148" lon="12.2858588"><ele>1388.0</ele><time>2026-04-26T14:20:34.603Z</time></trkpt><trkpt lat="46.0773328" lon="12.2857025"><ele>1388.0</ele><time>2026-04-26T14:20:36.597Z</time></trkpt><trkpt lat="46.0773022" lon="12.28562"><ele>1388.0</ele><time>2026-04-26T14:20:38.6Z</time></trkpt><trkpt lat="46.0773686" lon="12.2856092"><ele>1388.0</ele><time>2026-04-26T14:21:12.597Z</time></trkpt><trkpt lat="46.0773945" lon="12.2855231"><ele>1388.0</ele><time>2026-04-26T14:21:14.592Z</time></trkpt><trkpt lat="46.0773912" lon="12.2854182"><ele>1388.0</ele><time>2026-04-26T14:21:16.598Z</time></trkpt><trkpt lat="46.0773633" lon="12.2853014"><ele>1388.0</ele><time>2026-04-26T14:21:19.597Z</time></trkpt><trkpt lat="46.0773086" lon="12.2852442"><ele>1388.0</ele><time>2026-04-26T14:21:22.584Z</time></trkpt><trkpt lat="46.0773687" lon="12.2852756"><ele>1386.5714285714287</ele><time>2026-04-26T14:21:50.593Z</time></trkpt><trkpt lat="46.0773792" lon="12.2853685"><ele>1385.142857142857</ele><time>2026-04-26T14:22:02.59Z</time></trkpt><trkpt lat="46.0774059" lon="12.2854546"><ele>1383.7142857142858</ele><time>2026-04-26T14:22:05.594Z</time></trkpt><trkpt lat="46.0774872" lon="12.285478"><ele>1382.2857142857142</ele><time>2026-04-26T14:22:08.599Z</time></trkpt><trkpt lat="46.0775332" lon="12.2853963"><ele>1380.857142857143</ele><time>2026-04-26T14:22:10.601Z</time></trkpt><trkpt lat="46.0775812" lon="12.2853191"><ele>1379.4285714285713</ele><time>2026-04-26T14:22:12.596Z</time></trkpt><trkpt lat="46.0776272" lon="12.2852499"><ele>1378.0</ele><time>2026-04-26T14:22:14.602Z</time></trkpt><trkpt lat="46.0777083" lon="12.2852461"><ele>1378.0</ele><time>2026-04-26T14:22:17.594Z</time></trkpt><trkpt lat="46.0777589" lon="12.2851785"><ele>1378.0</ele><time>2026-04-26T14:22:23.605Z</time></trkpt><trkpt lat="46.077729" lon="12.2850681"><ele>1378.0</ele><time>2026-04-26T14:22:26.603Z</time></trkpt><trkpt lat="46.0777151" lon="12.2849757"><ele>1378.0</ele><time>2026-04-26T14:22:30.606Z</time></trkpt><trkpt lat="46.077697" lon="12.2850747"><ele>1378.0</ele><time>2026-04-26T14:22:50.589Z</time></trkpt><trkpt lat="46.0776864" lon="12.2851663"><ele>1378.0</ele><time>2026-04-26T14:22:52.602Z</time></trkpt><trkpt lat="46.0777139" lon="12.2852502"><ele>1378.0</ele><time>2026-04-26T14:22:55.6Z</time></trkpt><trkpt lat="46.0778051" lon="12.2852658"><ele>1378.0</ele><time>2026-04-26T14:22:58.602Z</time></trkpt><trkpt lat="46.0778875" lon="12.2852942"><ele>1378.0</ele><time>2026-04-26T14:23:01.602Z</time></trkpt><trkpt lat="46.0779829" lon="12.2852936"><ele>1378.0</ele><time>2026-04-26T14:23:04.599Z</time></trkpt><trkpt lat="46.0780635" lon="12.2852798"><ele>1378.0</ele><time>2026-04-26T14:23:06.598Z</time></trkpt><trkpt lat="46.0781365" lon="12.2852713"><ele>1378.0</ele><time>2026-04-26T14:23:08.599Z</time></trkpt><trkpt lat="46.0782233" lon="12.2852668"><ele>1378.0</ele><time>2026-04-26T14:23:11.601Z</time></trkpt><trkpt lat="46.0782946" lon="12.2853522"><ele>1375.8333333333333</ele><time>2026-04-26T14:23:14.601Z</time></trkpt><trkpt lat="46.078355" lon="12.2854248"><ele>1373.6666666666665</ele><time>2026-04-26T14:23:17.602Z</time></trkpt><trkpt lat="46.078436" lon="12.2853959"><ele>1371.5</ele><time>2026-04-26T14:23:20.595Z</time></trkpt><trkpt lat="46.0784982" lon="12.2853034"><ele>1369.3333333333333</ele><time>2026-04-26T14:23:23.602Z</time></trkpt><trkpt lat="46.0785005" lon="12.2851934"><ele>1367.1666666666667</ele><time>2026-04-26T14:23:26.596Z</time></trkpt><trkpt lat="46.0785082" lon="12.2850872"><ele>1365.0</ele><time>2026-04-26T14:23:29.596Z</time></trkpt><trkpt lat="46.0785458" lon="12.2850059"><ele>1365.0</ele><time>2026-04-26T14:23:32.604Z</time></trkpt><trkpt lat="46.0785985" lon="12.2849258"><ele>1365.0</ele><time>2026-04-26T14:23:35.604Z</time></trkpt><trkpt lat="46.0786479" lon="12.2848394"><ele>1365.0</ele><time>2026-04-26T14:23:39.602Z</time></trkpt><trkpt lat="46.0787013" lon="12.2847634"><ele>1365.0</ele><time>2026-04-26T14:23:44.599Z</time></trkpt><trkpt lat="46.078761" lon="12.2847253"><ele>1365.0</ele><time>2026-04-26T14:23:49.603Z</time></trkpt><trkpt lat="46.078829" lon="12.2846816"><ele>1365.0</ele><time>2026-04-26T14:23:53.601Z</time></trkpt><trkpt lat="46.0788886" lon="12.2846308"><ele>1365.0</ele><time>2026-04-26T14:23:57.603Z</time></trkpt><trkpt lat="46.0789569" lon="12.2845811"><ele>1363.7142857142858</ele><time>2026-04-26T14:24:01.598Z</time></trkpt><trkpt lat="46.0790089" lon="12.2845091"><ele>1362.4285714285716</ele><time>2026-04-26T14:24:05.597Z</time></trkpt><trkpt lat="46.0790622" lon="12.2844515"><ele>1361.142857142857</ele><time>2026-04-26T14:24:08.598Z</time></trkpt><trkpt lat="46.0791043" lon="12.2843744"><ele>1359.857142857143</ele><time>2026-04-26T14:24:11.602Z</time></trkpt><trkpt lat="46.0791363" lon="12.2842828"><ele>1358.5714285714287</ele><time>2026-04-26T14:24:14.602Z</time></trkpt><trkpt lat="46.0791501" lon="12.2841746"><ele>1357.2857142857142</ele><time>2026-04-26T14:24:18.597Z</time></trkpt><trkpt lat="46.0791422" lon="12.2840752"><ele>1356.0</ele><time>2026-04-26T14:24:21.589Z</time></trkpt><trkpt lat="46.0791235" lon="12.2839664"><ele>1352.0</ele><time>2026-04-26T14:24:24.595Z</time></trkpt><trkpt lat="46.0791852" lon="12.2839147"><ele>1348.0</ele><time>2026-04-26T14:25:37.591Z</time></trkpt><trkpt lat="46.0792591" lon="12.283938"><ele>1344.0</ele><time>2026-04-26T14:25:44.598Z</time></trkpt><trkpt lat="46.079343" lon="12.2840067"><ele>1340.0</ele><time>2026-04-26T14:25:47.598Z</time></trkpt><trkpt lat="46.0794015" lon="12.2840989"><ele>1336.0</ele><time>2026-04-26T14:25:49.598Z</time></trkpt><trkpt lat="46.0794404" lon="12.2842141"><ele>1332.0</ele><time>2026-04-26T14:25:51.598Z</time></trkpt><trkpt lat="46.0794793" lon="12.2843587"><ele>1332.0</ele><time>2026-04-26T14:25:53.597Z</time></trkpt><trkpt lat="46.0794971" lon="12.2845239"><ele>1332.0</ele><time>2026-04-26T14:25:55.597Z</time></trkpt><trkpt lat="46.0795073" lon="12.2846556"><ele>1332.0</ele><time>2026-04-26T14:25:57.597Z</time></trkpt><trkpt lat="46.079575" lon="12.284746"><ele>1332.0</ele><time>2026-04-26T14:25:59.599Z</time></trkpt><trkpt lat="46.0796796" lon="12.2847173"><ele>1332.0</ele><time>2026-04-26T14:26:01.6Z</time></trkpt><trkpt lat="46.0797857" lon="12.2846808"><ele>1332.0</ele><time>2026-04-26T14:26:03.603Z</time></trkpt><trkpt lat="46.0799047" lon="12.2846611"><ele>1332.0</ele><time>2026-04-26T14:26:05.6Z</time></trkpt><trkpt lat="46.0799765" lon="12.2846672"><ele>1332.0</ele><time>2026-04-26T14:26:06.591Z</time></trkpt><trkpt lat="46.0800477" lon="12.2846419"><ele>1332.0</ele><time>2026-04-26T14:26:07.596Z</time></trkpt><trkpt lat="46.0801231" lon="12.2846184"><ele>1332.0</ele><time>2026-04-26T14:26:08.596Z</time></trkpt><trkpt lat="46.0801988" lon="12.2845864"><ele>1332.0</ele><time>2026-04-26T14:26:09.589Z</time></trkpt><trkpt lat="46.0802818" lon="12.2845604"><ele>1329.1666666666667</ele><time>2026-04-26T14:26:10.596Z</time></trkpt><trkpt lat="46.0803505" lon="12.2845433"><ele>1326.3333333333333</ele><time>2026-04-26T14:26:11.594Z</time></trkpt><trkpt lat="46.080463" lon="12.2845178"><ele>1323.5</ele><time>2026-04-26T14:26:13.597Z</time></trkpt><trkpt lat="46.0805326" lon="12.2845125"><ele>1320.6666666666665</ele><time>2026-04-26T14:26:15.596Z</time></trkpt><trkpt lat="46.0805978" lon="12.2844999"><ele>1317.8333333333333</ele><time>2026-04-26T14:26:18.59Z</time></trkpt><trkpt lat="46.0806557" lon="12.2844488"><ele>1315.0</ele><time>2026-04-26T14:26:21.596Z</time></trkpt><trkpt lat="46.0807208" lon="12.2844401"><ele>1312.6666666666665</ele><time>2026-04-26T14:26:24.598Z</time></trkpt><trkpt lat="46.0808003" lon="12.2844435"><ele>1310.3333333333333</ele><time>2026-04-26T14:26:27.597Z</time></trkpt><trkpt lat="46.0808745" lon="12.284493"><ele>1308.0</ele><time>2026-04-26T14:26:30.59Z</time></trkpt><trkpt lat="46.0809509" lon="12.2845036"><ele>1305.6666666666667</ele><time>2026-04-26T14:26:32.596Z</time></trkpt><trkpt lat="46.0810239" lon="12.2845079"><ele>1303.3333333333335</ele><time>2026-04-26T14:26:34.585Z</time></trkpt><trkpt lat="46.081122" lon="12.2845224"><ele>1301.0</ele><time>2026-04-26T14:26:37.588Z</time></trkpt><trkpt lat="46.0811858" lon="12.2845105"><ele>1301.0</ele><time>2026-04-26T14:26:39.596Z</time></trkpt><trkpt lat="46.0812687" lon="12.2845037"><ele>1301.0</ele><time>2026-04-26T14:26:41.597Z</time></trkpt><trkpt lat="46.0813434" lon="12.2844823"><ele>1301.0</ele><time>2026-04-26T14:26:43.589Z</time></trkpt><trkpt lat="46.0814053" lon="12.2844253"><ele>1301.0</ele><time>2026-04-26T14:26:46.598Z</time></trkpt><trkpt lat="46.081479" lon="12.2844149"><ele>1301.0</ele><time>2026-04-26T14:26:49.598Z</time></trkpt><trkpt lat="46.0815467" lon="12.2844547"><ele>1301.0</ele><time>2026-04-26T14:26:53.596Z</time></trkpt><trkpt lat="46.0816071" lon="12.2844815"><ele>1301.0</ele><time>2026-04-26T14:26:57.597Z</time></trkpt><trkpt lat="46.0816647" lon="12.2845269"><ele>1297.6666666666667</ele><time>2026-04-26T14:27:18.597Z</time></trkpt><trkpt lat="46.0817379" lon="12.2845747"><ele>1294.3333333333335</ele><time>2026-04-26T14:27:44.596Z</time></trkpt><trkpt lat="46.0818114" lon="12.2845276"><ele>1291.0</ele><time>2026-04-26T14:27:48.598Z</time></trkpt><trkpt lat="46.0818752" lon="12.284483"><ele>1287.6666666666667</ele><time>2026-04-26T14:27:51.597Z</time></trkpt><trkpt lat="46.0819378" lon="12.2844338"><ele>1284.3333333333333</ele><time>2026-04-26T14:27:54.589Z</time></trkpt><trkpt lat="46.0820065" lon="12.284381"><ele>1281.0</ele><time>2026-04-26T14:27:57.62Z</time></trkpt><trkpt lat="46.0820799" lon="12.2843367"><ele>1281.0</ele><time>2026-04-26T14:28:00.591Z</time></trkpt><trkpt lat="46.0821299" lon="12.28428"><ele>1281.0</ele><time>2026-04-26T14:28:04.619Z</time></trkpt><trkpt lat="46.0821768" lon="12.2841956"><ele>1281.0</ele><time>2026-04-26T14:28:09.594Z</time></trkpt><trkpt lat="46.0821966" lon="12.2841046"><ele>1281.0</ele><time>2026-04-26T14:28:12.596Z</time></trkpt><trkpt lat="46.0821702" lon="12.2840091"><ele>1281.0</ele><time>2026-04-26T14:28:15.615Z</time></trkpt><trkpt lat="46.0821657" lon="12.2838916"><ele>1281.0</ele><time>2026-04-26T14:28:18.594Z</time></trkpt><trkpt lat="46.0821311" lon="12.28377"><ele>1281.0</ele><time>2026-04-26T14:28:22.598Z</time></trkpt><trkpt lat="46.0821159" lon="12.2836469"><ele>1276.8333333333333</ele><time>2026-04-26T14:28:25.619Z</time></trkpt><trkpt lat="46.0821054" lon="12.2835427"><ele>1272.6666666666667</ele><time>2026-04-26T14:28:27.619Z</time></trkpt><trkpt lat="46.0821548" lon="12.283479"><ele>1268.5</ele><time>2026-04-26T14:30:32.594Z</time></trkpt><trkpt lat="46.0822407" lon="12.2834875"><ele>1264.3333333333335</ele><time>2026-04-26T14:30:35.598Z</time></trkpt><trkpt lat="46.082314" lon="12.2835008"><ele>1260.1666666666667</ele><time>2026-04-26T14:30:37.599Z</time></trkpt><trkpt lat="46.0823942" lon="12.2835302"><ele>1256.0</ele><time>2026-04-26T14:30:39.588Z</time></trkpt><trkpt lat="46.0824752" lon="12.2835848"><ele>1252.5</ele><time>2026-04-26T14:30:41.594Z</time></trkpt><trkpt lat="46.0825596" lon="12.2836222"><ele>1249.0</ele><time>2026-04-26T14:30:43.588Z</time></trkpt><trkpt lat="46.0826197" lon="12.2836789"><ele>1245.5</ele><time>2026-04-26T14:30:45.59Z</time></trkpt><trkpt lat="46.0826831" lon="12.2837381"><ele>1242.0</ele><time>2026-04-26T14:30:47.596Z</time></trkpt><trkpt lat="46.0827408" lon="12.2837773"><ele>1238.5</ele><time>2026-04-26T14:30:49.603Z</time></trkpt><trkpt lat="46.0828111" lon="12.2838284"><ele>1235.0</ele><time>2026-04-26T14:30:52.592Z</time></trkpt><trkpt lat="46.0828826" lon="12.2838793"><ele>1237.142857142857</ele><time>2026-04-26T14:30:55.595Z</time></trkpt><trkpt lat="46.082938" lon="12.2839419"><ele>1239.2857142857142</ele><time>2026-04-26T14:30:58.595Z</time></trkpt><trkpt lat="46.0829855" lon="12.2840177"><ele>1241.4285714285716</ele><time>2026-04-26T14:31:02.589Z</time></trkpt><trkpt lat="46.0830234" lon="12.2840948"><ele>1243.5714285714284</ele><time>2026-04-26T14:31:06.597Z</time></trkpt><trkpt lat="46.0830689" lon="12.2841584"><ele>1245.7142857142858</ele><time>2026-04-26T14:31:10.588Z</time></trkpt><trkpt lat="46.0830709" lon="12.2842723"><ele>1247.857142857143</ele><time>2026-04-26T14:31:14.597Z</time></trkpt><trkpt lat="46.0830655" lon="12.2843639"><ele>1250.0</ele><time>2026-04-26T14:31:17.597Z</time></trkpt><trkpt lat="46.0830505" lon="12.2844639"><ele>1250.0</ele><time>2026-04-26T14:31:20.596Z</time></trkpt><trkpt lat="46.0830346" lon="12.2846029"><ele>1250.0</ele><time>2026-04-26T14:31:23.595Z</time></trkpt><trkpt lat="46.0830547" lon="12.2847185"><ele>1250.0</ele><time>2026-04-26T14:31:25.596Z</time></trkpt><trkpt lat="46.0830998" lon="12.284836"><ele>1250.0</ele><time>2026-04-26T14:31:28.588Z</time></trkpt><trkpt lat="46.0831331" lon="12.2849342"><ele>1250.0</ele><time>2026-04-26T14:31:30.596Z</time></trkpt><trkpt lat="46.0831638" lon="12.2850529"><ele>1250.0</ele><time>2026-04-26T14:31:32.596Z</time></trkpt><trkpt lat="46.0831996" lon="12.285193"><ele>1249.6666666666667</ele><time>2026-04-26T14:31:34.603Z</time></trkpt><trkpt lat="46.0832612" lon="12.2853352"><ele>1249.3333333333335</ele><time>2026-04-26T14:31:36.596Z</time></trkpt><trkpt lat="46.0833397" lon="12.2854005"><ele>1249.0</ele><time>2026-04-26T14:31:38.594Z</time></trkpt><trkpt lat="46.0834104" lon="12.28541"><ele>1248.6666666666667</ele><time>2026-04-26T14:31:40.596Z</time></trkpt><trkpt lat="46.0834738" lon="12.2853855"><ele>1248.3333333333333</ele><time>2026-04-26T14:31:43.595Z</time></trkpt><trkpt lat="46.0835198" lon="12.2853011"><ele>1248.0</ele><time>2026-04-26T14:31:52.62Z</time></trkpt><trkpt lat="46.0835672" lon="12.2852222"><ele>1241.0</ele><time>2026-04-26T14:31:55.595Z</time></trkpt><trkpt lat="46.0836271" lon="12.2851286"><ele>1234.0</ele><time>2026-04-26T14:31:58.591Z</time></trkpt><trkpt lat="46.0836645" lon="12.285045"><ele>1227.0</ele><time>2026-04-26T14:32:00.601Z</time></trkpt><trkpt lat="46.0836989" lon="12.2849488"><ele>1220.0</ele><time>2026-04-26T14:32:02.591Z</time></trkpt><trkpt lat="46.0837287" lon="12.2848423"><ele>1213.0</ele><time>2026-04-26T14:32:04.596Z</time></trkpt><trkpt lat="46.0837651" lon="12.2847308"><ele>1206.0</ele><time>2026-04-26T14:32:06.596Z</time></trkpt><trkpt lat="46.0837769" lon="12.2846007"><ele>1206.0</ele><time>2026-04-26T14:32:08.588Z</time></trkpt><trkpt lat="46.0837889" lon="12.2844805"><ele>1206.0</ele><time>2026-04-26T14:32:10.589Z</time></trkpt><trkpt lat="46.0837967" lon="12.2843798"><ele>1206.0</ele><time>2026-04-26T14:32:12.595Z</time></trkpt><trkpt lat="46.0837692" lon="12.2842917"><ele>1206.0</ele><time>2026-04-26T14:32:15.596Z</time></trkpt><trkpt lat="46.0837412" lon="12.2841847"><ele>1206.0</ele><time>2026-04-26T14:32:19.596Z</time></trkpt><trkpt lat="46.0837755" lon="12.2842703"><ele>1206.0</ele><time>2026-04-26T14:32:26.711Z</time></trkpt><trkpt lat="46.0837834" lon="12.2843683"><ele>1206.0</ele><time>2026-04-26T14:33:43.594Z</time></trkpt><trkpt lat="46.0838323" lon="12.284276"><ele>1206.0</ele><time>2026-04-26T14:33:46.599Z</time></trkpt><trkpt lat="46.0838479" lon="12.2841579"><ele>1206.0</ele><time>2026-04-26T14:33:48.595Z</time></trkpt><trkpt lat="46.0838276" lon="12.2840165"><ele>1206.0</ele><time>2026-04-26T14:33:50.597Z</time></trkpt><trkpt lat="46.0837976" lon="12.2838776"><ele>1206.0</ele><time>2026-04-26T14:33:52.6Z</time></trkpt><trkpt lat="46.0837617" lon="12.2837345"><ele>1206.0</ele><time>2026-04-26T14:33:54.589Z</time></trkpt><trkpt lat="46.0837287" lon="12.2835924"><ele>1206.3333333333333</ele><time>2026-04-26T14:33:56.599Z</time></trkpt><trkpt lat="46.0836954" lon="12.2834731"><ele>1206.6666666666667</ele><time>2026-04-26T14:33:58.599Z</time></trkpt><trkpt lat="46.0836526" lon="12.2833825"><ele>1207.0</ele><time>2026-04-26T14:34:00.605Z</time></trkpt><trkpt lat="46.0836149" lon="12.2832944"><ele>1207.3333333333335</ele><time>2026-04-26T14:34:02.598Z</time></trkpt><trkpt lat="46.0835804" lon="12.2831984"><ele>1207.6666666666667</ele><time>2026-04-26T14:34:04.594Z</time></trkpt><trkpt lat="46.0835514" lon="12.2830936"><ele>1208.0</ele><time>2026-04-26T14:34:06.6Z</time></trkpt><trkpt lat="46.083527" lon="12.2829892"><ele>1207.5</ele><time>2026-04-26T14:34:08.588Z</time></trkpt><trkpt lat="46.0835085" lon="12.2828749"><ele>1207.0</ele><time>2026-04-26T14:34:10.595Z</time></trkpt><trkpt lat="46.0834957" lon="12.2827702"><ele>1206.5</ele><time>2026-04-26T14:34:12.597Z</time></trkpt><trkpt lat="46.0834506" lon="12.2826863"><ele>1206.0</ele><time>2026-04-26T14:34:16.589Z</time></trkpt><trkpt lat="46.0833587" lon="12.2826639"><ele>1205.5</ele><time>2026-04-26T14:34:19.596Z</time></trkpt><trkpt lat="46.0832772" lon="12.2826485"><ele>1205.0</ele><time>2026-04-26T14:34:21.599Z</time></trkpt><trkpt lat="46.0831899" lon="12.2826245"><ele>1205.0</ele><time>2026-04-26T14:34:23.595Z</time></trkpt><trkpt lat="46.0830988" lon="12.2825775"><ele>1205.0</ele><time>2026-04-26T14:34:25.599Z</time></trkpt><trkpt lat="46.083016" lon="12.282522"><ele>1205.0</ele><time>2026-04-26T14:34:27.596Z</time></trkpt><trkpt lat="46.0829247" lon="12.2824721"><ele>1205.0</ele><time>2026-04-26T14:34:29.586Z</time></trkpt><trkpt lat="46.0828363" lon="12.2824407"><ele>1205.0</ele><time>2026-04-26T14:34:31.594Z</time></trkpt><trkpt lat="46.0827589" lon="12.28239"><ele>1205.0</ele><time>2026-04-26T14:34:33.595Z</time></trkpt><trkpt lat="46.0826874" lon="12.28234"><ele>1205.0</ele><time>2026-04-26T14:34:35.603Z</time></trkpt><trkpt lat="46.08263" lon="12.2822894"><ele>1205.0</ele><time>2026-04-26T14:34:37.588Z</time></trkpt><trkpt lat="46.0825563" lon="12.2822383"><ele>1205.0</ele><time>2026-04-26T14:34:40.602Z</time></trkpt><trkpt lat="46.0824829" lon="12.2821974"><ele>1205.0</ele><time>2026-04-26T14:34:42.59Z</time></trkpt><trkpt lat="46.0824075" lon="12.2821583"><ele>1205.0</ele><time>2026-04-26T14:34:44.602Z</time></trkpt><trkpt lat="46.0823297" lon="12.2821251"><ele>1208.8333333333335</ele><time>2026-04-26T14:34:46.602Z</time></trkpt><trkpt lat="46.0822413" lon="12.2820848"><ele>1212.6666666666667</ele><time>2026-04-26T14:34:48.602Z</time></trkpt><trkpt lat="46.0821584" lon="12.2820734"><ele>1216.5</ele><time>2026-04-26T14:34:50.588Z</time></trkpt><trkpt lat="46.0820716" lon="12.2820558"><ele>1220.3333333333333</ele><time>2026-04-26T14:34:52.604Z</time></trkpt><trkpt lat="46.0819955" lon="12.2820007"><ele>1224.1666666666665</ele><time>2026-04-26T14:34:54.601Z</time></trkpt><trkpt lat="46.0819626" lon="12.2818753"><ele>1228.0</ele><time>2026-04-26T14:34:56.599Z</time></trkpt><trkpt lat="46.08196" lon="12.2817548"><ele>1228.0</ele><time>2026-04-26T14:34:58.598Z</time></trkpt><trkpt lat="46.0819644" lon="12.2816372"><ele>1228.0</ele><time>2026-04-26T14:35:00.596Z</time></trkpt><trkpt lat="46.0819788" lon="12.2815333"><ele>1228.0</ele><time>2026-04-26T14:35:02.599Z</time></trkpt><trkpt lat="46.0819932" lon="12.2814448"><ele>1228.0</ele><time>2026-04-26T14:35:04.592Z</time></trkpt><trkpt lat="46.082023" lon="12.2813294"><ele>1228.0</ele><time>2026-04-26T14:35:07.602Z</time></trkpt><trkpt lat="46.0820492" lon="12.2812211"><ele>1228.0</ele><time>2026-04-26T14:35:10.595Z</time></trkpt><trkpt lat="46.0820698" lon="12.2811037"><ele>1227.7142857142856</ele><time>2026-04-26T14:35:14.593Z</time></trkpt><trkpt lat="46.082089" lon="12.2810017"><ele>1227.4285714285713</ele><time>2026-04-26T14:35:17.595Z</time></trkpt><trkpt lat="46.0821162" lon="12.2808931"><ele>1227.142857142857</ele><time>2026-04-26T14:35:20.609Z</time></trkpt><trkpt lat="46.0821549" lon="12.2808133"><ele>1226.8571428571427</ele><time>2026-04-26T14:35:22.595Z</time></trkpt><trkpt lat="46.0821935" lon="12.2807403"><ele>1226.5714285714284</ele><time>2026-04-26T14:35:24.596Z</time></trkpt><trkpt lat="46.0822533" lon="12.2806372"><ele>1226.2857142857142</ele><time>2026-04-26T14:35:27.589Z</time></trkpt><trkpt lat="46.0822979" lon="12.280569"><ele>1226.0</ele><time>2026-04-26T14:35:29.587Z</time></trkpt><trkpt lat="46.0823492" lon="12.2804725"><ele>1226.0</ele><time>2026-04-26T14:35:32.597Z</time></trkpt><trkpt lat="46.0823719" lon="12.2803505"><ele>1226.0</ele><time>2026-04-26T14:35:35.597Z</time></trkpt><trkpt lat="46.0823614" lon="12.280229"><ele>1226.0</ele><time>2026-04-26T14:35:38.595Z</time></trkpt><trkpt lat="46.0823392" lon="12.2801378"><ele>1226.0</ele><time>2026-04-26T14:35:40.595Z</time></trkpt><trkpt lat="46.0823132" lon="12.2800463"><ele>1226.0</ele><time>2026-04-26T14:35:42.594Z</time></trkpt><trkpt lat="46.0822844" lon="12.2799476"><ele>1226.0</ele><time>2026-04-26T14:35:44.588Z</time></trkpt><trkpt lat="46.0822543" lon="12.2798599"><ele>1223.6666666666667</ele><time>2026-04-26T14:35:46.596Z</time></trkpt><trkpt lat="46.0822153" lon="12.2797561"><ele>1221.3333333333335</ele><time>2026-04-26T14:35:48.596Z</time></trkpt><trkpt lat="46.0822023" lon="12.2796446"><ele>1219.0</ele><time>2026-04-26T14:35:50.595Z</time></trkpt><trkpt lat="46.082215" lon="12.2795225"><ele>1216.6666666666667</ele><time>2026-04-26T14:35:52.591Z</time></trkpt><trkpt lat="46.0822201" lon="12.2794038"><ele>1214.3333333333333</ele><time>2026-04-26T14:35:54.597Z</time></trkpt><trkpt lat="46.0822135" lon="12.2792812"><ele>1212.0</ele><time>2026-04-26T14:35:56.598Z</time></trkpt><trkpt lat="46.0822076" lon="12.2791758"><ele>1212.0</ele><time>2026-04-26T14:35:58.595Z</time></trkpt><trkpt lat="46.0821725" lon="12.2790583"><ele>1212.0</ele><time>2026-04-26T14:36:00.592Z</time></trkpt><trkpt lat="46.0821251" lon="12.2789682"><ele>1212.0</ele><time>2026-04-26T14:36:02.596Z</time></trkpt><trkpt lat="46.0820758" lon="12.2788898"><ele>1212.0</ele><time>2026-04-26T14:36:04.595Z</time></trkpt><trkpt lat="46.082013" lon="12.2788267"><ele>1212.0</ele><time>2026-04-26T14:36:16.587Z</time></trkpt><trkpt lat="46.0819312" lon="12.27879"><ele>1212.0</ele><time>2026-04-26T14:36:19.595Z</time></trkpt><trkpt lat="46.0818603" lon="12.2787856"><ele>1209.0</ele><time>2026-04-26T14:36:21.587Z</time></trkpt><trkpt lat="46.0817784" lon="12.2787967"><ele>1206.0</ele><time>2026-04-26T14:36:23.596Z</time></trkpt><trkpt lat="46.0816912" lon="12.2788165"><ele>1203.0</ele><time>2026-04-26T14:36:25.593Z</time></trkpt><trkpt lat="46.0815976" lon="12.2788302"><ele>1200.0</ele><time>2026-04-26T14:36:27.588Z</time></trkpt><trkpt lat="46.0815048" lon="12.2788606"><ele>1197.0</ele><time>2026-04-26T14:36:29.596Z</time></trkpt><trkpt lat="46.0814118" lon="12.2788907"><ele>1199.0</ele><time>2026-04-26T14:36:31.595Z</time></trkpt><trkpt lat="46.0813201" lon="12.2789317"><ele>1201.0</ele><time>2026-04-26T14:36:33.591Z</time></trkpt><trkpt lat="46.081229" lon="12.2789849"><ele>1203.0</ele><time>2026-04-26T14:36:35.587Z</time></trkpt><trkpt lat="46.0811345" lon="12.2790374"><ele>1205.0</ele><time>2026-04-26T14:36:37.618Z</time></trkpt><trkpt lat="46.0810368" lon="12.2790855"><ele>1207.0</ele><time>2026-04-26T14:36:39.58Z</time></trkpt><trkpt lat="46.0809267" lon="12.2791018"><ele>1207.0</ele><time>2026-04-26T14:36:41.585Z</time></trkpt><trkpt lat="46.0808345" lon="12.2790568"><ele>1207.0</ele><time>2026-04-26T14:36:43.585Z</time></trkpt><trkpt lat="46.0807494" lon="12.2789827"><ele>1207.0</ele><time>2026-04-26T14:36:45.586Z</time></trkpt><trkpt lat="46.0806739" lon="12.2789224"><ele>1207.0</ele><time>2026-04-26T14:36:47.586Z</time></trkpt><trkpt lat="46.0805941" lon="12.2788584"><ele>1207.0</ele><time>2026-04-26T14:36:49.586Z</time></trkpt><trkpt lat="46.0805225" lon="12.278819"><ele>1200.8333333333333</ele><time>2026-04-26T14:36:51.584Z</time></trkpt><trkpt lat="46.0804457" lon="12.278786"><ele>1194.6666666666665</ele><time>2026-04-26T14:36:53.586Z</time></trkpt><trkpt lat="46.0803579" lon="12.2787441"><ele>1188.5</ele><time>2026-04-26T14:36:55.586Z</time></trkpt><trkpt lat="46.0802746" lon="12.2787391"><ele>1182.3333333333333</ele><time>2026-04-26T14:36:57.587Z</time></trkpt><trkpt lat="46.0802007" lon="12.2787885"><ele>1176.1666666666667</ele><time>2026-04-26T14:36:59.586Z</time></trkpt><trkpt lat="46.0801431" lon="12.2788593"><ele>1170.0</ele><time>2026-04-26T14:37:01.584Z</time></trkpt><trkpt lat="46.0800566" lon="12.2789018"><ele>1170.0</ele><time>2026-04-26T14:37:03.59Z</time></trkpt><trkpt lat="46.0799668" lon="12.2788767"><ele>1170.0</ele><time>2026-04-26T14:37:05.584Z</time></trkpt><trkpt lat="46.079888" lon="12.2788373"><ele>1170.0</ele><time>2026-04-26T14:37:07.586Z</time></trkpt><trkpt lat="46.079803" lon="12.2788605"><ele>1170.0</ele><time>2026-04-26T14:37:09.586Z</time></trkpt><trkpt lat="46.0797099" lon="12.2789038"><ele>1170.0</ele><time>2026-04-26T14:37:11.583Z</time></trkpt><trkpt lat="46.0796086" lon="12.2789496"><ele>1169.6</ele><time>2026-04-26T14:37:13.589Z</time></trkpt><trkpt lat="46.0794926" lon="12.2789598"><ele>1169.2</ele><time>2026-04-26T14:37:15.586Z</time></trkpt><trkpt lat="46.0793897" lon="12.2789801"><ele>1168.8</ele><time>2026-04-26T14:37:17.586Z</time></trkpt><trkpt lat="46.0792883" lon="12.2790431"><ele>1168.4</ele><time>2026-04-26T14:37:19.585Z</time></trkpt><trkpt lat="46.0791894" lon="12.2791197"><ele>1168.0</ele><time>2026-04-26T14:37:21.585Z</time></trkpt><trkpt lat="46.0790846" lon="12.2791978"><ele>1168.0</ele><time>2026-04-26T14:37:23.587Z</time></trkpt><trkpt lat="46.0789811" lon="12.2792744"><ele>1168.0</ele><time>2026-04-26T14:37:25.585Z</time></trkpt><trkpt lat="46.0788803" lon="12.2793577"><ele>1168.0</ele><time>2026-04-26T14:37:27.586Z</time></trkpt><trkpt lat="46.0787878" lon="12.2794598"><ele>1168.0</ele><time>2026-04-26T14:37:29.585Z</time></trkpt><trkpt lat="46.0786813" lon="12.2795324"><ele>1168.0</ele><time>2026-04-26T14:37:31.585Z</time></trkpt><trkpt lat="46.0785737" lon="12.2795566"><ele>1168.0</ele><time>2026-04-26T14:37:33.586Z</time></trkpt><trkpt lat="46.0784656" lon="12.2795686"><ele>1168.0</ele><time>2026-04-26T14:37:35.585Z</time></trkpt><trkpt lat="46.0783682" lon="12.2796112"><ele>1168.0</ele><time>2026-04-26T14:37:37.584Z</time></trkpt><trkpt lat="46.078284" lon="12.2796925"><ele>1168.0</ele><time>2026-04-26T14:37:39.588Z</time></trkpt><trkpt lat="46.0781964" lon="12.2797846"><ele>1169.5</ele><time>2026-04-26T14:37:41.587Z</time></trkpt><trkpt lat="46.0781052" lon="12.279833"><ele>1171.0</ele><time>2026-04-26T14:37:43.585Z</time></trkpt><trkpt lat="46.0780135" lon="12.2798734"><ele>1172.5</ele><time>2026-04-26T14:37:45.585Z</time></trkpt><trkpt lat="46.0779489" lon="12.2798782"><ele>1174.0</ele><time>2026-04-26T14:37:46.587Z</time></trkpt><trkpt lat="46.0778404" lon="12.2799205"><ele>1175.5</ele><time>2026-04-26T14:37:48.583Z</time></trkpt><trkpt lat="46.0777803" lon="12.279959"><ele>1177.0</ele><time>2026-04-26T14:37:49.584Z</time></trkpt><trkpt lat="46.077682" lon="12.2800083"><ele>1177.0</ele><time>2026-04-26T14:37:51.583Z</time></trkpt><trkpt lat="46.0776124" lon="12.2800601"><ele>1177.0</ele><time>2026-04-26T14:37:52.592Z</time></trkpt><trkpt lat="46.0775543" lon="12.2801135"><ele>1177.0</ele><time>2026-04-26T14:37:53.584Z</time></trkpt><trkpt lat="46.0774875" lon="12.2801631"><ele>1177.0</ele><time>2026-04-26T14:37:54.585Z</time></trkpt><trkpt lat="46.0774294" lon="12.280228"><ele>1177.0</ele><time>2026-04-26T14:37:55.584Z</time></trkpt><trkpt lat="46.0773664" lon="12.2802908"><ele>1177.0</ele><time>2026-04-26T14:37:56.585Z</time></trkpt><trkpt lat="46.0772957" lon="12.2803455"><ele>1173.1666666666665</ele><time>2026-04-26T14:37:57.584Z</time></trkpt><trkpt lat="46.0772197" lon="12.2803874"><ele>1169.3333333333333</ele><time>2026-04-26T14:37:58.583Z</time></trkpt><trkpt lat="46.0771418" lon="12.2803786"><ele>1165.5</ele><time>2026-04-26T14:37:59.585Z</time></trkpt><trkpt lat="46.0770656" lon="12.2803817"><ele>1161.6666666666667</ele><time>2026-04-26T14:38:00.582Z</time></trkpt><trkpt lat="46.0769889" lon="12.2803883"><ele>1157.8333333333335</ele><time>2026-04-26T14:38:01.584Z</time></trkpt><trkpt lat="46.0769212" lon="12.2804186"><ele>1154.0</ele><time>2026-04-26T14:38:02.583Z</time></trkpt><trkpt lat="46.0768531" lon="12.2804693"><ele>1154.0</ele><time>2026-04-26T14:38:03.587Z</time></trkpt><trkpt lat="46.0767853" lon="12.28051"><ele>1154.0</ele><time>2026-04-26T14:38:04.585Z</time></trkpt><trkpt lat="46.0767124" lon="12.2805506"><ele>1154.0</ele><time>2026-04-26T14:38:05.584Z</time></trkpt><trkpt lat="46.076638" lon="12.2805721"><ele>1154.0</ele><time>2026-04-26T14:38:06.581Z</time></trkpt><trkpt lat="46.0765665" lon="12.2805839"><ele>1154.0</ele><time>2026-04-26T14:38:07.586Z</time></trkpt><trkpt lat="46.0765061" lon="12.28061"><ele>1154.0</ele><time>2026-04-26T14:38:08.587Z</time></trkpt><trkpt lat="46.0764406" lon="12.2806435"><ele>1154.0</ele><time>2026-04-26T14:38:09.586Z</time></trkpt><trkpt lat="46.0763786" lon="12.2806618"><ele>1161.8</ele><time>2026-04-26T14:38:10.59Z</time></trkpt><trkpt lat="46.0763115" lon="12.2806894"><ele>1169.6000000000001</ele><time>2026-04-26T14:38:11.586Z</time></trkpt><trkpt lat="46.0762441" lon="12.280714"><ele>1177.4</ele><time>2026-04-26T14:38:12.582Z</time></trkpt><trkpt lat="46.0761371" lon="12.2807874"><ele>1185.2</ele><time>2026-04-26T14:38:14.584Z</time></trkpt><trkpt lat="46.0760297" lon="12.2808384"><ele>1193.0</ele><time>2026-04-26T14:38:16.586Z</time></trkpt><trkpt lat="46.0759402" lon="12.2809021"><ele>1193.0</ele><time>2026-04-26T14:38:18.584Z</time></trkpt><trkpt lat="46.0758649" lon="12.2809779"><ele>1193.0</ele><time>2026-04-26T14:38:20.586Z</time></trkpt><trkpt lat="46.0758092" lon="12.2810233"><ele>1193.0</ele><time>2026-04-26T14:38:30.584Z</time></trkpt><trkpt lat="46.0757593" lon="12.281124"><ele>1193.0</ele><time>2026-04-26T14:38:34.584Z</time></trkpt><trkpt lat="46.0757012" lon="12.2812163"><ele>1193.0</ele><time>2026-04-26T14:38:37.586Z</time></trkpt><trkpt lat="46.0756126" lon="12.2811588"><ele>1193.0</ele><time>2026-04-26T14:40:00.589Z</time></trkpt><trkpt lat="46.075571" lon="12.2810472"><ele>1201.8333333333335</ele><time>2026-04-26T14:40:03.596Z</time></trkpt><trkpt lat="46.0755642" lon="12.2809162"><ele>1210.6666666666667</ele><time>2026-04-26T14:40:06.588Z</time></trkpt><trkpt lat="46.0755557" lon="12.2808162"><ele>1219.5</ele><time>2026-04-26T14:40:08.582Z</time></trkpt><trkpt lat="46.0755682" lon="12.2807128"><ele>1228.3333333333333</ele><time>2026-04-26T14:40:10.594Z</time></trkpt><trkpt lat="46.075595" lon="12.2806141"><ele>1237.1666666666665</ele><time>2026-04-26T14:40:12.596Z</time></trkpt><trkpt lat="46.0756195" lon="12.280496"><ele>1246.0</ele><time>2026-04-26T14:40:14.587Z</time></trkpt><trkpt lat="46.0756515" lon="12.2803723"><ele>1246.0</ele><time>2026-04-26T14:40:16.589Z</time></trkpt><trkpt lat="46.0756746" lon="12.2802495"><ele>1246.0</ele><time>2026-04-26T14:40:18.597Z</time></trkpt><trkpt lat="46.0757054" lon="12.2801251"><ele>1246.0</ele><time>2026-04-26T14:40:20.587Z</time></trkpt><trkpt lat="46.0757421" lon="12.2800051"><ele>1246.0</ele><time>2026-04-26T14:40:22.585Z</time></trkpt><trkpt lat="46.0757552" lon="12.2798742"><ele>1246.0</ele><time>2026-04-26T14:40:24.592Z</time></trkpt><trkpt lat="46.0757536" lon="12.2797542"><ele>1246.0</ele><time>2026-04-26T14:40:26.593Z</time></trkpt><trkpt lat="46.0757697" lon="12.2796292"><ele>1237.0</ele><time>2026-04-26T14:40:28.583Z</time></trkpt><trkpt lat="46.0757926" lon="12.2795107"><ele>1228.0</ele><time>2026-04-26T14:40:30.597Z</time></trkpt><trkpt lat="46.0758082" lon="12.2793912"><ele>1219.0</ele><time>2026-04-26T14:40:32.594Z</time></trkpt><trkpt lat="46.0758187" lon="12.2792809"><ele>1210.0</ele><time>2026-04-26T14:40:34.594Z</time></trkpt><trkpt lat="46.0758103" lon="12.2791665"><ele>1201.0</ele><time>2026-04-26T14:40:36.586Z</time></trkpt><trkpt lat="46.0758122" lon="12.2790475"><ele>1192.0</ele><time>2026-04-26T14:40:38.586Z</time></trkpt><trkpt lat="46.0758059" lon="12.2789405"><ele>1191.1666666666665</ele><time>2026-04-26T14:40:40.591Z</time></trkpt><trkpt lat="46.0757983" lon="12.2788373"><ele>1190.3333333333333</ele><time>2026-04-26T14:40:42.599Z</time></trkpt><trkpt lat="46.0757845" lon="12.278727"><ele>1189.5</ele><time>2026-04-26T14:40:44.599Z</time></trkpt><trkpt lat="46.0757698" lon="12.2786029"><ele>1188.6666666666667</ele><time>2026-04-26T14:40:46.585Z</time></trkpt><trkpt lat="46.0757484" lon="12.2784903"><ele>1187.8333333333335</ele><time>2026-04-26T14:40:48.593Z</time></trkpt><trkpt lat="46.0757208" lon="12.278368"><ele>1187.0</ele><time>2026-04-26T14:40:50.583Z</time></trkpt><trkpt lat="46.0756921" lon="12.2782496"><ele>1187.0</ele><time>2026-04-26T14:40:52.594Z</time></trkpt><trkpt lat="46.0756506" lon="12.2781401"><ele>1187.0</ele><time>2026-04-26T14:40:54.587Z</time></trkpt><trkpt lat="46.0755917" lon="12.2780353"><ele>1187.0</ele><time>2026-04-26T14:40:56.587Z</time></trkpt><trkpt lat="46.0755234" lon="12.2779313"><ele>1187.0</ele><time>2026-04-26T14:40:58.583Z</time></trkpt><trkpt lat="46.0754813" lon="12.2778386"><ele>1187.0</ele><time>2026-04-26T14:41:00.587Z</time></trkpt><trkpt lat="46.0754614" lon="12.2777432"><ele>1187.0</ele><time>2026-04-26T14:41:02.584Z</time></trkpt><trkpt lat="46.0754283" lon="12.2776567"><ele>1187.0000000000002</ele><time>2026-04-26T14:41:04.585Z</time></trkpt><trkpt lat="46.0753715" lon="12.2775547"><ele>1187.0</ele><time>2026-04-26T14:41:07.587Z</time></trkpt><trkpt lat="46.0753251" lon="12.2774912"><ele>1187.0</ele><time>2026-04-26T14:41:09.587Z</time></trkpt><trkpt lat="46.0752722" lon="12.2774374"><ele>1187.0</ele><time>2026-04-26T14:41:11.582Z</time></trkpt><trkpt lat="46.0752122" lon="12.2773934"><ele>1187.0</ele><time>2026-04-26T14:41:13.59Z</time></trkpt><trkpt lat="46.0751335" lon="12.2773412"><ele>1187.0000000000002</ele><time>2026-04-26T14:41:16.584Z</time></trkpt><trkpt lat="46.0750722" lon="12.2772782"><ele>1187.0</ele><time>2026-04-26T14:41:19.585Z</time></trkpt><trkpt lat="46.0750217" lon="12.2772208"><ele>1185.3333333333335</ele><time>2026-04-26T14:41:23.589Z</time></trkpt><trkpt lat="46.0749571" lon="12.2772376"><ele>1183.6666666666667</ele><time>2026-04-26T14:41:51.587Z</time></trkpt><trkpt lat="46.0748889" lon="12.2772932"><ele>1182.0</ele><time>2026-04-26T14:41:56.601Z</time></trkpt><trkpt lat="46.0748188" lon="12.277349"><ele>1180.3333333333333</ele><time>2026-04-26T14:41:59.591Z</time></trkpt><trkpt lat="46.0747409" lon="12.2774102"><ele>1178.6666666666665</ele><time>2026-04-26T14:42:02.594Z</time></trkpt><trkpt lat="46.0746804" lon="12.2775118"><ele>1177.0</ele><time>2026-04-26T14:42:04.585Z</time></trkpt><trkpt lat="46.074613" lon="12.2775708"><ele>1177.0</ele><time>2026-04-26T14:42:06.583Z</time></trkpt><trkpt lat="46.0745321" lon="12.2776252"><ele>1177.0</ele><time>2026-04-26T14:42:08.586Z</time></trkpt><trkpt lat="46.074437" lon="12.2776906"><ele>1177.0</ele><time>2026-04-26T14:42:10.589Z</time></trkpt><trkpt lat="46.0743589" lon="12.2777649"><ele>1177.0</ele><time>2026-04-26T14:42:12.584Z</time></trkpt><trkpt lat="46.0742958" lon="12.2778117"><ele>1177.0</ele><time>2026-04-26T14:42:14.587Z</time></trkpt><trkpt lat="46.0741852" lon="12.277869"><ele>1177.0</ele><time>2026-04-26T14:42:16.593Z</time></trkpt><trkpt lat="46.0741121" lon="12.2779001"><ele>1177.0</ele><time>2026-04-26T14:42:18.588Z</time></trkpt><trkpt lat="46.0740058" lon="12.2779588"><ele>1177.0</ele><time>2026-04-26T14:42:20.592Z</time></trkpt><trkpt lat="46.0739222" lon="12.2780502"><ele>1177.0</ele><time>2026-04-26T14:42:22.599Z</time></trkpt><trkpt lat="46.0738263" lon="12.2781078"><ele>1177.0</ele><time>2026-04-26T14:42:24.602Z</time></trkpt><trkpt lat="46.0737611" lon="12.2781354"><ele>1180.4</ele><time>2026-04-26T14:42:25.592Z</time></trkpt><trkpt lat="46.0736664" lon="12.2781884"><ele>1183.8000000000002</ele><time>2026-04-26T14:42:27.586Z</time></trkpt><trkpt lat="46.0735657" lon="12.2782342"><ele>1187.2</ele><time>2026-04-26T14:42:29.601Z</time></trkpt><trkpt lat="46.0734632" lon="12.2783056"><ele>1190.6000000000001</ele><time>2026-04-26T14:42:31.599Z</time></trkpt><trkpt lat="46.0733766" lon="12.2783489"><ele>1194.0</ele><time>2026-04-26T14:42:33.59Z</time></trkpt><trkpt lat="46.073313" lon="12.2783494"><ele>1199.1666666666667</ele><time>2026-04-26T14:42:34.595Z</time></trkpt><trkpt lat="46.0732496" lon="12.278357"><ele>1204.3333333333333</ele><time>2026-04-26T14:42:35.594Z</time></trkpt><trkpt lat="46.073143" lon="12.2783573"><ele>1209.5</ele><time>2026-04-26T14:42:37.604Z</time></trkpt><trkpt lat="46.0730503" lon="12.2783717"><ele>1214.6666666666665</ele><time>2026-04-26T14:42:39.586Z</time></trkpt><trkpt lat="46.0729827" lon="12.2784167"><ele>1219.8333333333333</ele><time>2026-04-26T14:42:40.606Z</time></trkpt><trkpt lat="46.0729186" lon="12.2784397"><ele>1225.0</ele><time>2026-04-26T14:42:41.594Z</time></trkpt><trkpt lat="46.0728185" lon="12.2784701"><ele>1225.0</ele><time>2026-04-26T14:42:43.586Z</time></trkpt><trkpt lat="46.0727949" lon="12.2783797"><ele>1225.0</ele><time>2026-04-26T14:42:45.602Z</time></trkpt><trkpt lat="46.0728217" lon="12.2782859"><ele>1225.0</ele><time>2026-04-26T14:42:47.591Z</time></trkpt><trkpt lat="46.0728676" lon="12.2781603"><ele>1225.0</ele><time>2026-04-26T14:42:49.582Z</time></trkpt><trkpt lat="46.0729132" lon="12.2780329"><ele>1225.0</ele><time>2026-04-26T14:42:51.594Z</time></trkpt><trkpt lat="46.0729612" lon="12.2778913"><ele>1225.0</ele><time>2026-04-26T14:42:53.589Z</time></trkpt><trkpt lat="46.0729704" lon="12.2777996"><ele>1226.6666666666665</ele><time>2026-04-26T14:42:54.598Z</time></trkpt><trkpt lat="46.0730101" lon="12.2776356"><ele>1228.3333333333333</ele><time>2026-04-26T14:42:56.593Z</time></trkpt><trkpt lat="46.0730321" lon="12.2775431"><ele>1230.0</ele><time>2026-04-26T14:42:57.6Z</time></trkpt><trkpt lat="46.0730537" lon="12.2774518"><ele>1231.6666666666667</ele><time>2026-04-26T14:42:58.599Z</time></trkpt><trkpt lat="46.0730708" lon="12.2773549"><ele>1233.3333333333335</ele><time>2026-04-26T14:42:59.602Z</time></trkpt><trkpt lat="46.0730981" lon="12.2771815"><ele>1235.0</ele><time>2026-04-26T14:43:01.6Z</time></trkpt><trkpt lat="46.0731181" lon="12.2770877"><ele>1235.4285714285713</ele><time>2026-04-26T14:43:02.6Z</time></trkpt><trkpt lat="46.073128" lon="12.2769944"><ele>1235.857142857143</ele><time>2026-04-26T14:43:03.588Z</time></trkpt><trkpt lat="46.073145" lon="12.2768897"><ele>1236.2857142857142</ele><time>2026-04-26T14:43:04.586Z</time></trkpt><trkpt lat="46.0731581" lon="12.2767867"><ele>1236.7142857142858</ele><time>2026-04-26T14:43:05.598Z</time></trkpt><trkpt lat="46.0731752" lon="12.2766832"><ele>1237.142857142857</ele><time>2026-04-26T14:43:06.598Z</time></trkpt><trkpt lat="46.0731861" lon="12.2765898"><ele>1237.5714285714284</ele><time>2026-04-26T14:43:07.603Z</time></trkpt><trkpt lat="46.0732048" lon="12.2764847"><ele>1238.0</ele><time>2026-04-26T14:43:08.597Z</time></trkpt><trkpt lat="46.0732179" lon="12.2763719"><ele>1235.6666666666667</ele><time>2026-04-26T14:43:09.599Z</time></trkpt><trkpt lat="46.0732309" lon="12.2762797"><ele>1233.3333333333335</ele><time>2026-04-26T14:43:10.595Z</time></trkpt><trkpt lat="46.0732637" lon="12.276167"><ele>1231.0</ele><time>2026-04-26T14:43:11.595Z</time></trkpt><trkpt lat="46.0732733" lon="12.2760438"><ele>1228.6666666666667</ele><time>2026-04-26T14:43:12.597Z</time></trkpt><trkpt lat="46.0732909" lon="12.275942"><ele>1226.3333333333333</ele><time>2026-04-26T14:43:13.59Z</time></trkpt><trkpt lat="46.0733074" lon="12.2758278"><ele>1224.0</ele><time>2026-04-26T14:43:14.588Z</time></trkpt><trkpt lat="46.0733274" lon="12.2757219"><ele>1219.4285714285713</ele><time>2026-04-26T14:43:15.599Z</time></trkpt><trkpt lat="46.0733461" lon="12.2756099"><ele>1214.857142857143</ele><time>2026-04-26T14:43:16.595Z</time></trkpt><trkpt lat="46.0733727" lon="12.275502"><ele>1210.2857142857142</ele><time>2026-04-26T14:43:17.595Z</time></trkpt><trkpt lat="46.0733905" lon="12.2753999"><ele>1205.7142857142858</ele><time>2026-04-26T14:43:18.6Z</time></trkpt><trkpt lat="46.0734124" lon="12.275301"><ele>1201.142857142857</ele><time>2026-04-26T14:43:19.597Z</time></trkpt><trkpt lat="46.0734338" lon="12.2751994"><ele>1196.5714285714284</ele><time>2026-04-26T14:43:20.599Z</time></trkpt><trkpt lat="46.0734577" lon="12.2751064"><ele>1192.0</ele><time>2026-04-26T14:43:21.591Z</time></trkpt><trkpt lat="46.0734789" lon="12.2750174"><ele>1192.0</ele><time>2026-04-26T14:43:22.592Z</time></trkpt><trkpt lat="46.0734849" lon="12.2749198"><ele>1192.0</ele><time>2026-04-26T14:43:23.596Z</time></trkpt><trkpt lat="46.0734926" lon="12.274824"><ele>1192.0</ele><time>2026-04-26T14:43:24.595Z</time></trkpt><trkpt lat="46.0735012" lon="12.2747309"><ele>1192.0</ele><time>2026-04-26T14:43:25.601Z</time></trkpt><trkpt lat="46.0735167" lon="12.274639"><ele>1192.0</ele><time>2026-04-26T14:43:26.596Z</time></trkpt><trkpt lat="46.0735407" lon="12.2745512"><ele>1192.0</ele><time>2026-04-26T14:43:27.601Z</time></trkpt><trkpt lat="46.0735762" lon="12.2744624"><ele>1192.0</ele><time>2026-04-26T14:43:28.6Z</time></trkpt><trkpt lat="46.073615" lon="12.27438"><ele>1188.4</ele><time>2026-04-26T14:43:29.589Z</time></trkpt><trkpt lat="46.0736616" lon="12.2743078"><ele>1184.8000000000002</ele><time>2026-04-26T14:43:30.591Z</time></trkpt><trkpt lat="46.0737322" lon="12.2741815"><ele>1181.2</ele><time>2026-04-26T14:43:32.601Z</time></trkpt><trkpt lat="46.0736966" lon="12.274061"><ele>1177.6000000000001</ele><time>2026-04-26T14:43:34.598Z</time></trkpt><trkpt lat="46.0736327" lon="12.2739647"><ele>1174.0</ele><time>2026-04-26T14:43:36.595Z</time></trkpt><trkpt lat="46.0735415" lon="12.2738798"><ele>1166.6000000000001</ele><time>2026-04-26T14:43:38.59Z</time></trkpt><trkpt lat="46.0734368" lon="12.2737814"><ele>1159.2</ele><time>2026-04-26T14:43:40.592Z</time></trkpt><trkpt lat="46.0733849" lon="12.2737288"><ele>1151.8000000000002</ele><time>2026-04-26T14:43:41.586Z</time></trkpt><trkpt lat="46.0732719" lon="12.2736872"><ele>1144.4</ele><time>2026-04-26T14:43:43.599Z</time></trkpt><trkpt lat="46.0732067" lon="12.2737506"><ele>1137.0</ele><time>2026-04-26T14:43:45.593Z</time></trkpt><trkpt lat="46.0731372" lon="12.2738607"><ele>1141.4</ele><time>2026-04-26T14:43:47.582Z</time></trkpt><trkpt lat="46.0730493" lon="12.273952"><ele>1145.8000000000002</ele><time>2026-04-26T14:43:49.596Z</time></trkpt><trkpt lat="46.0729426" lon="12.2740463"><ele>1150.2</ele><time>2026-04-26T14:43:51.593Z</time></trkpt><trkpt lat="46.072846" lon="12.2741145"><ele>1154.6000000000001</ele><time>2026-04-26T14:43:53.588Z</time></trkpt><trkpt lat="46.0727908" lon="12.2741689"><ele>1159.0</ele><time>2026-04-26T14:43:54.593Z</time></trkpt><trkpt lat="46.0726777" lon="12.2742443"><ele>1159.0000000000002</ele><time>2026-04-26T14:43:56.593Z</time></trkpt><trkpt lat="46.0726184" lon="12.27428"><ele>1159.0</ele><time>2026-04-26T14:43:57.591Z</time></trkpt><trkpt lat="46.0725564" lon="12.2743086"><ele>1159.0</ele><time>2026-04-26T14:43:58.587Z</time></trkpt><trkpt lat="46.0724908" lon="12.2743292"><ele>1159.0</ele><time>2026-04-26T14:43:59.588Z</time></trkpt><trkpt lat="46.0724251" lon="12.2743588"><ele>1159.0</ele><time>2026-04-26T14:44:00.595Z</time></trkpt><trkpt lat="46.0723587" lon="12.27437"><ele>1159.0000000000002</ele><time>2026-04-26T14:44:01.592Z</time></trkpt><trkpt lat="46.0722933" lon="12.2743936"><ele>1159.0</ele><time>2026-04-26T14:44:02.595Z</time></trkpt><trkpt lat="46.0722273" lon="12.2744196"><ele>1155.1666666666665</ele><time>2026-04-26T14:44:03.594Z</time></trkpt><trkpt lat="46.0721018" lon="12.2744373"><ele>1151.3333333333333</ele><time>2026-04-26T14:44:05.588Z</time></trkpt><trkpt lat="46.0720364" lon="12.2744498"><ele>1147.5</ele><time>2026-04-26T14:44:06.593Z</time></trkpt><trkpt lat="46.0719238" lon="12.2744732"><ele>1143.6666666666667</ele><time>2026-04-26T14:44:08.593Z</time></trkpt><trkpt lat="46.0718606" lon="12.2744916"><ele>1139.8333333333335</ele><time>2026-04-26T14:44:09.585Z</time></trkpt><trkpt lat="46.0717967" lon="12.2745024"><ele>1136.0</ele><time>2026-04-26T14:44:10.587Z</time></trkpt><trkpt lat="46.0717388" lon="12.2745411"><ele>1136.0</ele><time>2026-04-26T14:44:11.594Z</time></trkpt><trkpt lat="46.0716279" lon="12.2746048"><ele>1136.0</ele><time>2026-04-26T14:44:13.589Z</time></trkpt><trkpt lat="46.0715104" lon="12.2746881"><ele>1136.0</ele><time>2026-04-26T14:44:15.597Z</time></trkpt><trkpt lat="46.0714501" lon="12.2747346"><ele>1136.0</ele><time>2026-04-26T14:44:16.596Z</time></trkpt><trkpt lat="46.0713924" lon="12.2747885"><ele>1136.0</ele><time>2026-04-26T14:44:17.594Z</time></trkpt><trkpt lat="46.0713358" lon="12.2748464"><ele>1136.3999999999999</ele><time>2026-04-26T14:44:18.594Z</time></trkpt><trkpt lat="46.0712767" lon="12.274917"><ele>1136.8</ele><time>2026-04-26T14:44:19.599Z</time></trkpt><trkpt lat="46.0712141" lon="12.2749866"><ele>1137.1999999999998</ele><time>2026-04-26T14:44:20.597Z</time></trkpt><trkpt lat="46.0710977" lon="12.2750664"><ele>1137.6</ele><time>2026-04-26T14:44:22.596Z</time></trkpt><trkpt lat="46.0709844" lon="12.2751655"><ele>1138.0</ele><time>2026-04-26T14:44:24.595Z</time></trkpt><trkpt lat="46.0709314" lon="12.2752377"><ele>1138.0</ele><time>2026-04-26T14:44:25.585Z</time></trkpt><trkpt lat="46.0708869" lon="12.2753176"><ele>1138.0</ele><time>2026-04-26T14:44:26.594Z</time></trkpt><trkpt lat="46.0708398" lon="12.2753912"><ele>1138.0</ele><time>2026-04-26T14:44:27.595Z</time></trkpt><trkpt lat="46.0707704" lon="12.2754263"><ele>1138.0</ele><time>2026-04-26T14:44:28.591Z</time></trkpt><trkpt lat="46.0707006" lon="12.2754688"><ele>1138.0</ele><time>2026-04-26T14:44:29.599Z</time></trkpt><trkpt lat="46.0706306" lon="12.2754905"><ele>1138.0</ele><time>2026-04-26T14:44:30.596Z</time></trkpt><trkpt lat="46.070504" lon="12.2754815"><ele>1138.3333333333333</ele><time>2026-04-26T14:44:32.594Z</time></trkpt><trkpt lat="46.070403" lon="12.2754552"><ele>1138.6666666666665</ele><time>2026-04-26T14:44:34.59Z</time></trkpt><trkpt lat="46.0703538" lon="12.2753616"><ele>1139.0</ele><time>2026-04-26T14:44:37.594Z</time></trkpt><trkpt lat="46.0704168" lon="12.2753616"><ele>1139.3333333333333</ele><time>2026-04-26T14:46:48.596Z</time></trkpt><trkpt lat="46.0704957" lon="12.2752383"><ele>1139.6666666666667</ele><time>2026-04-26T14:46:51.623Z</time></trkpt><trkpt lat="46.070536" lon="12.2751646"><ele>1140.0</ele><time>2026-04-26T14:46:52.592Z</time></trkpt><trkpt lat="46.0705829" lon="12.2750785"><ele>1140.0</ele><time>2026-04-26T14:46:53.595Z</time></trkpt><trkpt lat="46.0706321" lon="12.274983"><ele>1140.0</ele><time>2026-04-26T14:46:54.592Z</time></trkpt><trkpt lat="46.0706774" lon="12.274902"><ele>1140.0</ele><time>2026-04-26T14:46:55.594Z</time></trkpt><trkpt lat="46.070727" lon="12.2748388"><ele>1140.0</ele><time>2026-04-26T14:46:56.594Z</time></trkpt><trkpt lat="46.0708079" lon="12.2747306"><ele>1140.0</ele><time>2026-04-26T14:46:58.589Z</time></trkpt><trkpt lat="46.0708553" lon="12.2745899"><ele>1140.0</ele><time>2026-04-26T14:47:00.583Z</time></trkpt><trkpt lat="46.070914" lon="12.2744121"><ele>1136.6</ele><time>2026-04-26T14:47:02.595Z</time></trkpt><trkpt lat="46.0709911" lon="12.2742803"><ele>1133.2</ele><time>2026-04-26T14:47:04.62Z</time></trkpt><trkpt lat="46.0710125" lon="12.2741937"><ele>1129.8</ele><time>2026-04-26T14:47:05.593Z</time></trkpt><trkpt lat="46.0710274" lon="12.2740312"><ele>1126.4</ele><time>2026-04-26T14:47:07.594Z</time></trkpt><trkpt lat="46.0710284" lon="12.2739282"><ele>1123.0</ele><time>2026-04-26T14:47:08.594Z</time></trkpt><trkpt lat="46.0710265" lon="12.2737583"><ele>1123.0</ele><time>2026-04-26T14:47:10.593Z</time></trkpt><trkpt lat="46.0710304" lon="12.2736634"><ele>1123.0</ele><time>2026-04-26T14:47:12.595Z</time></trkpt><trkpt lat="46.0710417" lon="12.2735686"><ele>1123.0</ele><time>2026-04-26T14:47:14.585Z</time></trkpt><trkpt lat="46.0711281" lon="12.2735253"><ele>1123.0</ele><time>2026-04-26T14:47:17.596Z</time></trkpt><trkpt lat="46.0712067" lon="12.2735097"><ele>1123.0</ele><time>2026-04-26T14:47:19.591Z</time></trkpt><trkpt lat="46.0712901" lon="12.2734913"><ele>1123.0</ele><time>2026-04-26T14:47:21.588Z</time></trkpt><trkpt lat="46.0713878" lon="12.2734844"><ele>1123.0</ele><time>2026-04-26T14:47:23.606Z</time></trkpt><trkpt lat="46.0715066" lon="12.2734279"><ele>1123.0</ele><time>2026-04-26T14:47:25.594Z</time></trkpt><trkpt lat="46.0715724" lon="12.2733809"><ele>1123.0</ele><time>2026-04-26T14:47:26.595Z</time></trkpt><trkpt lat="46.0716504" lon="12.2733348"><ele>1123.0</ele><time>2026-04-26T14:47:27.587Z</time></trkpt><trkpt lat="46.0717226" lon="12.2732975"><ele>1123.0</ele><time>2026-04-26T14:47:28.592Z</time></trkpt><trkpt lat="46.0717871" lon="12.2732657"><ele>1123.0</ele><time>2026-04-26T14:47:29.594Z</time></trkpt><trkpt lat="46.0718498" lon="12.2732222"><ele>1121.8571428571427</ele><time>2026-04-26T14:47:30.589Z</time></trkpt><trkpt lat="46.0719152" lon="12.2731659"><ele>1120.7142857142858</ele><time>2026-04-26T14:47:31.593Z</time></trkpt><trkpt lat="46.0719754" lon="12.2730977"><ele>1119.5714285714284</ele><time>2026-04-26T14:47:32.594Z</time></trkpt><trkpt lat="46.0720363" lon="12.2730337"><ele>1118.4285714285713</ele><time>2026-04-26T14:47:33.583Z</time></trkpt><trkpt lat="46.0721017" lon="12.2729894"><ele>1117.2857142857142</ele><time>2026-04-26T14:47:34.594Z</time></trkpt><trkpt lat="46.0721603" lon="12.2729407"><ele>1116.142857142857</ele><time>2026-04-26T14:47:35.593Z</time></trkpt><trkpt lat="46.0722182" lon="12.2728815"><ele>1115.0</ele><time>2026-04-26T14:47:36.593Z</time></trkpt><trkpt lat="46.0722956" lon="12.2727573"><ele>1115.0</ele><time>2026-04-26T14:47:38.587Z</time></trkpt><trkpt lat="46.07237" lon="12.2726645"><ele>1115.0</ele><time>2026-04-26T14:47:40.587Z</time></trkpt><trkpt lat="46.072426" lon="12.2726041"><ele>1115.0</ele><time>2026-04-26T14:47:42.588Z</time></trkpt><trkpt lat="46.0724971" lon="12.2725428"><ele>1115.0</ele><time>2026-04-26T14:47:59.596Z</time></trkpt><trkpt lat="46.0725431" lon="12.2724482"><ele>1115.0</ele><time>2026-04-26T14:48:01.594Z</time></trkpt><trkpt lat="46.0725045" lon="12.2723289"><ele>1115.0</ele><time>2026-04-26T14:48:03.596Z</time></trkpt><trkpt lat="46.0724603" lon="12.2722217"><ele>1112.0</ele><time>2026-04-26T14:48:05.588Z</time></trkpt><trkpt lat="46.0724534" lon="12.2721001"><ele>1109.0</ele><time>2026-04-26T14:48:07.596Z</time></trkpt><trkpt lat="46.0724613" lon="12.2719755"><ele>1106.0</ele><time>2026-04-26T14:48:09.588Z</time></trkpt><trkpt lat="46.0724598" lon="12.2718469"><ele>1103.0</ele><time>2026-04-26T14:48:11.588Z</time></trkpt><trkpt lat="46.072462" lon="12.2717137"><ele>1100.0</ele><time>2026-04-26T14:48:13.595Z</time></trkpt><trkpt lat="46.072483" lon="12.2715961"><ele>1097.0</ele><time>2026-04-26T14:48:15.595Z</time></trkpt><trkpt lat="46.0725313" lon="12.2714823"><ele>1095.8</ele><time>2026-04-26T14:48:17.601Z</time></trkpt><trkpt lat="46.0726004" lon="12.2713905"><ele>1094.6</ele><time>2026-04-26T14:48:19.596Z</time></trkpt><trkpt lat="46.0726724" lon="12.2713207"><ele>1093.3999999999999</ele><time>2026-04-26T14:48:21.588Z</time></trkpt><trkpt lat="46.0727637" lon="12.2712663"><ele>1092.2</ele><time>2026-04-26T14:48:23.587Z</time></trkpt><trkpt lat="46.0728619" lon="12.2712"><ele>1091.0</ele><time>2026-04-26T14:48:25.594Z</time></trkpt><trkpt lat="46.072956" lon="12.2710853"><ele>1091.0</ele><time>2026-04-26T14:48:27.587Z</time></trkpt><trkpt lat="46.0729973" lon="12.2710048"><ele>1091.0</ele><time>2026-04-26T14:48:28.594Z</time></trkpt><trkpt lat="46.07304" lon="12.2709203"><ele>1091.0</ele><time>2026-04-26T14:48:29.595Z</time></trkpt><trkpt lat="46.0730896" lon="12.2708349"><ele>1091.0</ele><time>2026-04-26T14:48:30.596Z</time></trkpt><trkpt lat="46.0731404" lon="12.270749"><ele>1091.0</ele><time>2026-04-26T14:48:31.593Z</time></trkpt><trkpt lat="46.0731779" lon="12.2706579"><ele>1091.0</ele><time>2026-04-26T14:48:32.594Z</time></trkpt><trkpt lat="46.0731986" lon="12.2705653"><ele>1091.0</ele><time>2026-04-26T14:48:33.586Z</time></trkpt><trkpt lat="46.0732201" lon="12.2703998"><ele>1093.2</ele><time>2026-04-26T14:48:35.587Z</time></trkpt><trkpt lat="46.0732342" lon="12.2702726"><ele>1095.3999999999999</ele><time>2026-04-26T14:48:37.594Z</time></trkpt><trkpt lat="46.0732528" lon="12.270145"><ele>1097.6</ele><time>2026-04-26T14:48:39.6Z</time></trkpt><trkpt lat="46.0732891" lon="12.2700135"><ele>1099.8</ele><time>2026-04-26T14:48:41.596Z</time></trkpt><trkpt lat="46.073321" lon="12.2698865"><ele>1102.0</ele><time>2026-04-26T14:48:43.586Z</time></trkpt><trkpt lat="46.0733637" lon="12.2697754"><ele>1099.8333333333333</ele><time>2026-04-26T14:48:45.596Z</time></trkpt><trkpt lat="46.0734062" lon="12.2696763"><ele>1097.6666666666665</ele><time>2026-04-26T14:48:47.594Z</time></trkpt><trkpt lat="46.0734471" lon="12.2695749"><ele>1095.5</ele><time>2026-04-26T14:48:49.597Z</time></trkpt><trkpt lat="46.0734784" lon="12.2694628"><ele>1093.3333333333333</ele><time>2026-04-26T14:48:51.589Z</time></trkpt><trkpt lat="46.073531" lon="12.2693724"><ele>1091.1666666666667</ele><time>2026-04-26T14:48:53.596Z</time></trkpt><trkpt lat="46.0735884" lon="12.2693143"><ele>1089.0</ele><time>2026-04-26T14:48:55.596Z</time></trkpt><trkpt lat="46.0736658" lon="12.2692547"><ele>1089.0</ele><time>2026-04-26T14:48:58.591Z</time></trkpt><trkpt lat="46.0737319" lon="12.2692065"><ele>1089.0</ele><time>2026-04-26T14:49:01.594Z</time></trkpt><trkpt lat="46.073803" lon="12.2691142"><ele>1089.0</ele><time>2026-04-26T14:49:04.596Z</time></trkpt><trkpt lat="46.0738551" lon="12.2690221"><ele>1089.0</ele><time>2026-04-26T14:49:07.596Z</time></trkpt><trkpt lat="46.0738851" lon="12.2689336"><ele>1089.0</ele><time>2026-04-26T14:49:55.594Z</time></trkpt><trkpt lat="46.0738729" lon="12.2688271"><ele>1089.0</ele><time>2026-04-26T14:49:58.597Z</time></trkpt><trkpt lat="46.0738417" lon="12.2687356"><ele>1088.6666666666667</ele><time>2026-04-26T14:50:00.591Z</time></trkpt><trkpt lat="46.0737987" lon="12.2686324"><ele>1088.3333333333333</ele><time>2026-04-26T14:50:02.595Z</time></trkpt><trkpt lat="46.0737677" lon="12.2685179"><ele>1088.0</ele><time>2026-04-26T14:50:04.595Z</time></trkpt><trkpt lat="46.0737464" lon="12.268403"><ele>1087.6666666666665</ele><time>2026-04-26T14:50:06.588Z</time></trkpt><trkpt lat="46.073726" lon="12.2682837"><ele>1087.3333333333333</ele><time>2026-04-26T14:50:08.596Z</time></trkpt><trkpt lat="46.0736967" lon="12.2681864"><ele>1087.0</ele><time>2026-04-26T14:50:10.596Z</time></trkpt><trkpt lat="46.0736554" lon="12.2680851"><ele>1083.0</ele><time>2026-04-26T14:50:12.588Z</time></trkpt><trkpt lat="46.0736126" lon="12.2679721"><ele>1079.0</ele><time>2026-04-26T14:50:14.595Z</time></trkpt><trkpt lat="46.0735708" lon="12.2678311"><ele>1075.0</ele><time>2026-04-26T14:50:16.597Z</time></trkpt><trkpt lat="46.0735393" lon="12.2676999"><ele>1071.0</ele><time>2026-04-26T14:50:18.596Z</time></trkpt><trkpt lat="46.073514" lon="12.2675702"><ele>1067.0</ele><time>2026-04-26T14:50:20.598Z</time></trkpt><trkpt lat="46.073454" lon="12.2674343"><ele>1067.0</ele><time>2026-04-26T14:50:22.588Z</time></trkpt><trkpt lat="46.0733734" lon="12.2672851"><ele>1067.0</ele><time>2026-04-26T14:50:24.599Z</time></trkpt><trkpt lat="46.0733327" lon="12.2671887"><ele>1067.0</ele><time>2026-04-26T14:50:25.595Z</time></trkpt><trkpt lat="46.0732892" lon="12.2670821"><ele>1067.0</ele><time>2026-04-26T14:50:26.596Z</time></trkpt><trkpt lat="46.0732507" lon="12.2669601"><ele>1067.0</ele><time>2026-04-26T14:50:27.595Z</time></trkpt><trkpt lat="46.0732158" lon="12.2668387"><ele>1065.8333333333335</ele><time>2026-04-26T14:50:28.594Z</time></trkpt><trkpt lat="46.0731851" lon="12.266718"><ele>1064.6666666666667</ele><time>2026-04-26T14:50:29.595Z</time></trkpt><trkpt lat="46.0731466" lon="12.266603"><ele>1063.5</ele><time>2026-04-26T14:50:30.593Z</time></trkpt><trkpt lat="46.0731078" lon="12.2664923"><ele>1062.3333333333333</ele><time>2026-04-26T14:50:31.588Z</time></trkpt><trkpt lat="46.0730677" lon="12.2663897"><ele>1061.1666666666665</ele><time>2026-04-26T14:50:32.596Z</time></trkpt><trkpt lat="46.0730262" lon="12.2662922"><ele>1060.0</ele><time>2026-04-26T14:50:33.595Z</time></trkpt><trkpt lat="46.0729871" lon="12.2662006"><ele>1059.9999999999998</ele><time>2026-04-26T14:50:34.585Z</time></trkpt><trkpt lat="46.0729409" lon="12.2661123"><ele>1060.0</ele><time>2026-04-26T14:50:35.595Z</time></trkpt><trkpt lat="46.0729096" lon="12.2660199"><ele>1060.0</ele><time>2026-04-26T14:50:36.596Z</time></trkpt><trkpt lat="46.0728793" lon="12.2659288"><ele>1060.0</ele><time>2026-04-26T14:50:37.6Z</time></trkpt><trkpt lat="46.0728462" lon="12.2658368"><ele>1060.0</ele><time>2026-04-26T14:50:38.595Z</time></trkpt><trkpt lat="46.0728169" lon="12.2657424"><ele>1059.9999999999998</ele><time>2026-04-26T14:50:39.588Z</time></trkpt><trkpt lat="46.0727816" lon="12.2656584"><ele>1060.0</ele><time>2026-04-26T14:50:40.589Z</time></trkpt><trkpt lat="46.0727348" lon="12.2655821"><ele>1060.0</ele><time>2026-04-26T14:50:41.592Z</time></trkpt><trkpt lat="46.0726805" lon="12.265515"><ele>1060.0</ele><time>2026-04-26T14:50:42.596Z</time></trkpt><trkpt lat="46.0726188" lon="12.2654673"><ele>1060.0</ele><time>2026-04-26T14:50:43.597Z</time></trkpt><trkpt lat="46.072553" lon="12.2654257"><ele>1060.0</ele><time>2026-04-26T14:50:44.596Z</time></trkpt><trkpt lat="46.0724472" lon="12.2653453"><ele>1060.0</ele><time>2026-04-26T14:50:46.596Z</time></trkpt><trkpt lat="46.0723522" lon="12.2652641"><ele>1060.0</ele><time>2026-04-26T14:50:48.596Z</time></trkpt><trkpt lat="46.0722794" lon="12.2651717"><ele>1060.0</ele><time>2026-04-26T14:50:50.589Z</time></trkpt><trkpt lat="46.072215" lon="12.2651152"><ele>1060.0</ele><time>2026-04-26T14:50:52.597Z</time></trkpt><trkpt lat="46.0721593" lon="12.2650467"><ele>1060.0</ele><time>2026-04-26T14:50:54.586Z</time></trkpt><trkpt lat="46.0721126" lon="12.2649408"><ele>1060.0</ele><time>2026-04-26T14:50:57.597Z</time></trkpt><trkpt lat="46.072082" lon="12.2648215"><ele>1060.0</ele><time>2026-04-26T14:51:00.594Z</time></trkpt><trkpt lat="46.0720579" lon="12.2647262"><ele>1060.0</ele><time>2026-04-26T14:51:02.589Z</time></trkpt><trkpt lat="46.0720309" lon="12.2646189"><ele>1058.3333333333333</ele><time>2026-04-26T14:51:04.596Z</time></trkpt><trkpt lat="46.071998" lon="12.2645151"><ele>1056.6666666666665</ele><time>2026-04-26T14:51:06.595Z</time></trkpt><trkpt lat="46.0719599" lon="12.2644235"><ele>1055.0</ele><time>2026-04-26T14:51:08.593Z</time></trkpt><trkpt lat="46.0718969" lon="12.264352"><ele>1053.3333333333333</ele><time>2026-04-26T14:51:10.589Z</time></trkpt><trkpt lat="46.0718579" lon="12.2642638"><ele>1051.6666666666667</ele><time>2026-04-26T14:51:12.598Z</time></trkpt><trkpt lat="46.0718655" lon="12.2641538"><ele>1050.0</ele><time>2026-04-26T14:51:15.588Z</time></trkpt><trkpt lat="46.0719335" lon="12.2641142"><ele>1050.0</ele><time>2026-04-26T14:51:22.589Z</time></trkpt><trkpt lat="46.0720089" lon="12.2640968"><ele>1050.0</ele><time>2026-04-26T14:51:26.597Z</time></trkpt><trkpt lat="46.0720025" lon="12.2640021"><ele>1050.0</ele><time>2026-04-26T14:51:30.59Z</time></trkpt><trkpt lat="46.0719737" lon="12.26389"><ele>1050.0</ele><time>2026-04-26T14:51:34.596Z</time></trkpt><trkpt lat="46.0719531" lon="12.2638001"><ele>1050.0</ele><time>2026-04-26T14:51:39.594Z</time></trkpt><trkpt lat="46.0719449" lon="12.2637018"><ele>1050.0</ele><time>2026-04-26T14:52:03.586Z</time></trkpt><trkpt lat="46.0718831" lon="12.2636706"><ele>1050.0</ele><time>2026-04-26T14:52:09.586Z</time></trkpt><trkpt lat="46.0718489" lon="12.2637568"><ele>1048.6666666666667</ele><time>2026-04-26T14:52:12.595Z</time></trkpt><trkpt lat="46.071813" lon="12.2638394"><ele>1047.3333333333333</ele><time>2026-04-26T14:52:15.595Z</time></trkpt><trkpt lat="46.0718764" lon="12.263763"><ele>1046.0</ele><time>2026-04-26T14:52:29.596Z</time></trkpt><trkpt lat="46.0718982" lon="12.2636608"><ele>1044.6666666666665</ele><time>2026-04-26T14:52:33.588Z</time></trkpt><trkpt lat="46.0719247" lon="12.2635389"><ele>1043.3333333333333</ele><time>2026-04-26T14:52:36.593Z</time></trkpt><trkpt lat="46.0718957" lon="12.2634108"><ele>1042.0</ele><time>2026-04-26T14:52:38.591Z</time></trkpt><trkpt lat="46.0718485" lon="12.2632558"><ele>1039.0</ele><time>2026-04-26T14:52:40.594Z</time></trkpt><trkpt lat="46.0717806" lon="12.2631015"><ele>1036.0</ele><time>2026-04-26T14:52:42.588Z</time></trkpt><trkpt lat="46.0717439" lon="12.2630167"><ele>1033.0</ele><time>2026-04-26T14:52:43.596Z</time></trkpt><trkpt lat="46.0717167" lon="12.2629347"><ele>1030.0</ele><time>2026-04-26T14:52:44.596Z</time></trkpt><trkpt lat="46.0716899" lon="12.2628495"><ele>1027.0</ele><time>2026-04-26T14:52:45.594Z</time></trkpt><trkpt lat="46.0716587" lon="12.2627692"><ele>1024.0</ele><time>2026-04-26T14:52:46.596Z</time></trkpt><trkpt lat="46.0716286" lon="12.262688"><ele>1026.6666666666665</ele><time>2026-04-26T14:52:47.596Z</time></trkpt><trkpt lat="46.0715932" lon="12.2625167"><ele>1029.3333333333333</ele><time>2026-04-26T14:52:49.595Z</time></trkpt><trkpt lat="46.0715798" lon="12.2623447"><ele>1032.0</ele><time>2026-04-26T14:52:51.595Z</time></trkpt><trkpt lat="46.0715712" lon="12.2622526"><ele>1034.6666666666667</ele><time>2026-04-26T14:52:52.596Z</time></trkpt><trkpt lat="46.0715644" lon="12.2621562"><ele>1037.3333333333335</ele><time>2026-04-26T14:52:53.589Z</time></trkpt><trkpt lat="46.0715686" lon="12.2620612"><ele>1040.0</ele><time>2026-04-26T14:52:54.595Z</time></trkpt><trkpt lat="46.0715779" lon="12.2618887"><ele>1040.0</ele><time>2026-04-26T14:52:56.597Z</time></trkpt><trkpt lat="46.0715844" lon="12.2617787"><ele>1040.0</ele><time>2026-04-26T14:52:58.589Z</time></trkpt><trkpt lat="46.0715807" lon="12.2616832"><ele>1040.0</ele><time>2026-04-26T14:53:03.595Z</time></trkpt><trkpt lat="46.0715896" lon="12.2615317"><ele>1040.0</ele><time>2026-04-26T14:53:10.594Z</time></trkpt><trkpt lat="46.0715964" lon="12.261434"><ele>1040.0</ele><time>2026-04-26T14:53:12.597Z</time></trkpt><trkpt lat="46.0715967" lon="12.2613375"><ele>1040.0</ele><time>2026-04-26T14:53:16.595Z</time></trkpt><trkpt lat="46.0716695" lon="12.2613195"><ele>1035.3333333333335</ele><time>2026-04-26T14:53:27.592Z</time></trkpt><trkpt lat="46.0717286" lon="12.2613943"><ele>1030.6666666666667</ele><time>2026-04-26T14:53:30.595Z</time></trkpt><trkpt lat="46.0717432" lon="12.2614861"><ele>1026.0</ele><time>2026-04-26T14:53:32.595Z</time></trkpt><trkpt lat="46.0717455" lon="12.2615906"><ele>1021.3333333333333</ele><time>2026-04-26T14:53:34.596Z</time></trkpt><trkpt lat="46.0717643" lon="12.261738"><ele>1016.6666666666666</ele><time>2026-04-26T14:53:36.594Z</time></trkpt><trkpt lat="46.0717915" lon="12.2618369"><ele>1012.0</ele><time>2026-04-26T14:53:38.595Z</time></trkpt><trkpt lat="46.0718601" lon="12.2619608"><ele>1011.9999999999999</ele><time>2026-04-26T14:53:40.594Z</time></trkpt><trkpt lat="46.0719438" lon="12.2620202"><ele>1012.0</ele><time>2026-04-26T14:53:42.596Z</time></trkpt><trkpt lat="46.0720268" lon="12.2619935"><ele>1012.0</ele><time>2026-04-26T14:53:44.593Z</time></trkpt><trkpt lat="46.0721071" lon="12.2618903"><ele>1012.0</ele><time>2026-04-26T14:53:46.597Z</time></trkpt><trkpt lat="46.072168" lon="12.26185"><ele>1011.9999999999999</ele><time>2026-04-26T14:53:47.61Z</time></trkpt><trkpt lat="46.0722242" lon="12.2618011"><ele>1012.0</ele><time>2026-04-26T14:53:48.595Z</time></trkpt><trkpt lat="46.072285" lon="12.2617599"><ele>1011.9999999999999</ele><time>2026-04-26T14:53:49.595Z</time></trkpt><trkpt lat="46.0723532" lon="12.2617131"><ele>1012.0</ele><time>2026-04-26T14:53:50.594Z</time></trkpt><trkpt lat="46.0724727" lon="12.2616769"><ele>1012.0</ele><time>2026-04-26T14:53:52.592Z</time></trkpt><trkpt lat="46.0725358" lon="12.2616825"><ele>1012.0</ele><time>2026-04-26T14:53:53.592Z</time></trkpt><trkpt lat="46.0726102" lon="12.2616926"><ele>1011.9999999999999</ele><time>2026-04-26T14:53:54.596Z</time></trkpt><trkpt lat="46.0726795" lon="12.2616778"><ele>1012.0</ele><time>2026-04-26T14:53:55.595Z</time></trkpt><trkpt lat="46.0727523" lon="12.2616493"><ele>1009.6666666666666</ele><time>2026-04-26T14:53:56.597Z</time></trkpt><trkpt lat="46.0728188" lon="12.2616071"><ele>1007.3333333333333</ele><time>2026-04-26T14:53:57.588Z</time></trkpt><trkpt lat="46.0728785" lon="12.2615423"><ele>1005.0</ele><time>2026-04-26T14:53:58.587Z</time></trkpt><trkpt lat="46.0729404" lon="12.2614764"><ele>1002.6666666666667</ele><time>2026-04-26T14:53:59.595Z</time></trkpt><trkpt lat="46.0729962" lon="12.2614055"><ele>1000.3333333333334</ele><time>2026-04-26T14:54:00.591Z</time></trkpt><trkpt lat="46.0730465" lon="12.2613436"><ele>998.0</ele><time>2026-04-26T14:54:01.592Z</time></trkpt><trkpt lat="46.073151" lon="12.261272"><ele>995.75</ele><time>2026-04-26T14:54:03.596Z</time></trkpt><trkpt lat="46.0732601" lon="12.2612698"><ele>993.5</ele><time>2026-04-26T14:54:05.594Z</time></trkpt><trkpt lat="46.0733488" lon="12.2613615"><ele>991.25</ele><time>2026-04-26T14:54:07.593Z</time></trkpt><trkpt lat="46.073425" lon="12.2614903"><ele>989.0</ele><time>2026-04-26T14:54:09.587Z</time></trkpt><trkpt lat="46.0734948" lon="12.2616363"><ele>988.4285714285713</ele><time>2026-04-26T14:54:11.595Z</time></trkpt><trkpt lat="46.0735226" lon="12.2617288"><ele>987.8571428571428</ele><time>2026-04-26T14:54:12.595Z</time></trkpt><trkpt lat="46.0735532" lon="12.2618152"><ele>987.2857142857142</ele><time>2026-04-26T14:54:13.599Z</time></trkpt><trkpt lat="46.0735839" lon="12.2619157"><ele>986.7142857142858</ele><time>2026-04-26T14:54:14.596Z</time></trkpt><trkpt lat="46.0736115" lon="12.2620038"><ele>986.1428571428572</ele><time>2026-04-26T14:54:15.594Z</time></trkpt><trkpt lat="46.0736641" lon="12.2620769"><ele>985.5714285714287</ele><time>2026-04-26T14:54:16.591Z</time></trkpt><trkpt lat="46.0737033" lon="12.262162"><ele>985.0</ele><time>2026-04-26T14:54:17.592Z</time></trkpt><trkpt lat="46.0737412" lon="12.2622488"><ele>985.9999999999999</ele><time>2026-04-26T14:54:18.595Z</time></trkpt><trkpt lat="46.0737939" lon="12.2623235"><ele>987.0</ele><time>2026-04-26T14:54:19.596Z</time></trkpt><trkpt lat="46.0738473" lon="12.2623878"><ele>988.0</ele><time>2026-04-26T14:54:20.598Z</time></trkpt><trkpt lat="46.0738986" lon="12.2624499"><ele>989.0</ele><time>2026-04-26T14:54:21.603Z</time></trkpt><trkpt lat="46.0740001" lon="12.2625136"><ele>989.9999999999999</ele><time>2026-04-26T14:54:23.593Z</time></trkpt><trkpt lat="46.0740865" lon="12.2625039"><ele>991.0</ele><time>2026-04-26T14:54:25.589Z</time></trkpt><trkpt lat="46.074172" lon="12.2625027"><ele>988.4999999999999</ele><time>2026-04-26T14:54:27.592Z</time></trkpt><trkpt lat="46.0742396" lon="12.2625756"><ele>986.0</ele><time>2026-04-26T14:54:29.588Z</time></trkpt><trkpt lat="46.0743132" lon="12.2626428"><ele>983.5</ele><time>2026-04-26T14:54:31.595Z</time></trkpt><trkpt lat="46.0743811" lon="12.2626819"><ele>981.0</ele><time>2026-04-26T14:54:34.586Z</time></trkpt><trkpt lat="46.0744599" lon="12.2627663"><ele>978.4999999999999</ele><time>2026-04-26T14:54:37.586Z</time></trkpt><trkpt lat="46.0745299" lon="12.2628542"><ele>976.0</ele><time>2026-04-26T14:54:39.596Z</time></trkpt><trkpt lat="46.0745856" lon="12.2629662"><ele>976.0</ele><time>2026-04-26T14:54:41.595Z</time></trkpt><trkpt lat="46.0746535" lon="12.2630809"><ele>976.0</ele><time>2026-04-26T14:54:43.59Z</time></trkpt><trkpt lat="46.0747348" lon="12.2631899"><ele>976.0</ele><time>2026-04-26T14:54:45.594Z</time></trkpt><trkpt lat="46.0748169" lon="12.2633108"><ele>976.0</ele><time>2026-04-26T14:54:47.59Z</time></trkpt><trkpt lat="46.0749067" lon="12.263438"><ele>977.0</ele><time>2026-04-26T14:54:49.596Z</time></trkpt><trkpt lat="46.0749932" lon="12.2635613"><ele>977.9999999999999</ele><time>2026-04-26T14:54:51.59Z</time></trkpt><trkpt lat="46.0750735" lon="12.2636845"><ele>978.9999999999999</ele><time>2026-04-26T14:54:53.599Z</time></trkpt><trkpt lat="46.0751628" lon="12.2638157"><ele>980.0</ele><time>2026-04-26T14:54:55.595Z</time></trkpt><trkpt lat="46.0752147" lon="12.2638918"><ele>981.0</ele><time>2026-04-26T14:54:56.586Z</time></trkpt><trkpt lat="46.0752688" lon="12.2639718"><ele>981.0</ele><time>2026-04-26T14:54:57.597Z</time></trkpt><trkpt lat="46.0753264" lon="12.2640568"><ele>981.0</ele><time>2026-04-26T14:54:58.595Z</time></trkpt><trkpt lat="46.0753815" lon="12.2641423"><ele>981.0</ele><time>2026-04-26T14:54:59.595Z</time></trkpt><trkpt lat="46.0754385" lon="12.2642234"><ele>981.0</ele><time>2026-04-26T14:55:00.595Z</time></trkpt><trkpt lat="46.075486" lon="12.2642934"><ele>981.0</ele><time>2026-04-26T14:55:01.596Z</time></trkpt><trkpt lat="46.0755673" lon="12.2644287"><ele>981.0</ele><time>2026-04-26T14:55:03.596Z</time></trkpt><trkpt lat="46.0756438" lon="12.2645471"><ele>981.0</ele><time>2026-04-26T14:55:05.599Z</time></trkpt><trkpt lat="46.0757206" lon="12.2645421"><ele>981.0</ele><time>2026-04-26T14:55:06.586Z</time></trkpt><trkpt lat="46.0758238" lon="12.2645867"><ele>981.0</ele><time>2026-04-26T14:55:08.596Z</time></trkpt><trkpt lat="46.0759161" lon="12.2646709"><ele>981.0</ele><time>2026-04-26T14:55:10.586Z</time></trkpt><trkpt lat="46.0759617" lon="12.2647431"><ele>981.0</ele><time>2026-04-26T14:55:11.602Z</time></trkpt><trkpt lat="46.0760098" lon="12.2648034"><ele>981.0</ele><time>2026-04-26T14:55:12.596Z</time></trkpt><trkpt lat="46.0760548" lon="12.2648747"><ele>979.1666666666666</ele><time>2026-04-26T14:55:13.596Z</time></trkpt><trkpt lat="46.0761126" lon="12.2649427"><ele>977.3333333333333</ele><time>2026-04-26T14:55:14.585Z</time></trkpt><trkpt lat="46.0761738" lon="12.2650059"><ele>975.5</ele><time>2026-04-26T14:55:15.596Z</time></trkpt><trkpt lat="46.0762468" lon="12.2650558"><ele>973.6666666666666</ele><time>2026-04-26T14:55:16.596Z</time></trkpt><trkpt lat="46.0763226" lon="12.2650824"><ele>971.8333333333333</ele><time>2026-04-26T14:55:17.598Z</time></trkpt><trkpt lat="46.0764014" lon="12.2650942"><ele>970.0</ele><time>2026-04-26T14:55:18.591Z</time></trkpt><trkpt lat="46.0764821" lon="12.2650979"><ele>970.0000000000001</ele><time>2026-04-26T14:55:19.591Z</time></trkpt><trkpt lat="46.0765565" lon="12.2650959"><ele>970.0</ele><time>2026-04-26T14:55:20.597Z</time></trkpt><trkpt lat="46.0766297" lon="12.2650869"><ele>970.0000000000001</ele><time>2026-04-26T14:55:21.595Z</time></trkpt><trkpt lat="46.0767032" lon="12.2650717"><ele>970.0000000000001</ele><time>2026-04-26T14:55:22.596Z</time></trkpt><trkpt lat="46.0767726" lon="12.2650468"><ele>970.0</ele><time>2026-04-26T14:55:23.596Z</time></trkpt><trkpt lat="46.0768409" lon="12.2650221"><ele>970.0000000000001</ele><time>2026-04-26T14:55:24.596Z</time></trkpt><trkpt lat="46.076911" lon="12.2650025"><ele>970.0000000000001</ele><time>2026-04-26T14:55:25.595Z</time></trkpt><trkpt lat="46.0769784" lon="12.2649704"><ele>968.8333333333333</ele><time>2026-04-26T14:55:26.591Z</time></trkpt><trkpt lat="46.0770415" lon="12.2649167"><ele>967.6666666666666</ele><time>2026-04-26T14:55:27.585Z</time></trkpt><trkpt lat="46.077103" lon="12.2648559"><ele>966.5</ele><time>2026-04-26T14:55:28.594Z</time></trkpt><trkpt lat="46.0771594" lon="12.2647864"><ele>965.3333333333333</ele><time>2026-04-26T14:55:29.595Z</time></trkpt><trkpt lat="46.0772205" lon="12.2647182"><ele>964.1666666666666</ele><time>2026-04-26T14:55:30.591Z</time></trkpt><trkpt lat="46.0772795" lon="12.2646478"><ele>963.0</ele><time>2026-04-26T14:55:31.597Z</time></trkpt><trkpt lat="46.0773404" lon="12.2645735"><ele>961.1666666666666</ele><time>2026-04-26T14:55:32.58Z</time></trkpt><trkpt lat="46.0773963" lon="12.2644913"><ele>959.3333333333333</ele><time>2026-04-26T14:55:33.594Z</time></trkpt><trkpt lat="46.0774538" lon="12.2643947"><ele>957.5</ele><time>2026-04-26T14:55:34.594Z</time></trkpt><trkpt lat="46.0775069" lon="12.2642963"><ele>955.6666666666666</ele><time>2026-04-26T14:55:35.595Z</time></trkpt><trkpt lat="46.0775507" lon="12.2642078"><ele>953.8333333333333</ele><time>2026-04-26T14:55:36.594Z</time></trkpt><trkpt lat="46.0775879" lon="12.2641279"><ele>952.0</ele><time>2026-04-26T14:55:37.602Z</time></trkpt><trkpt lat="46.0776777" lon="12.2640777"><ele>951.4999999999999</ele><time>2026-04-26T14:55:39.593Z</time></trkpt><trkpt lat="46.0777169" lon="12.2641902"><ele>951.0</ele><time>2026-04-26T14:55:41.595Z</time></trkpt><trkpt lat="46.0777228" lon="12.2643517"><ele>950.5</ele><time>2026-04-26T14:55:43.594Z</time></trkpt><trkpt lat="46.0777293" lon="12.2644422"><ele>950.0</ele><time>2026-04-26T14:55:44.59Z</time></trkpt><trkpt lat="46.077738" lon="12.2645401"><ele>949.4999999999999</ele><time>2026-04-26T14:55:45.595Z</time></trkpt><trkpt lat="46.0777501" lon="12.2646388"><ele>949.0</ele><time>2026-04-26T14:55:46.594Z</time></trkpt><trkpt lat="46.0777687" lon="12.2647412"><ele>951.6666666666666</ele><time>2026-04-26T14:55:47.596Z</time></trkpt><trkpt lat="46.0777787" lon="12.2648677"><ele>954.3333333333333</ele><time>2026-04-26T14:55:48.595Z</time></trkpt><trkpt lat="46.0777816" lon="12.264987"><ele>957.0</ele><time>2026-04-26T14:55:49.595Z</time></trkpt><trkpt lat="46.0777937" lon="12.2651054"><ele>959.6666666666667</ele><time>2026-04-26T14:55:50.595Z</time></trkpt><trkpt lat="46.0778206" lon="12.2652066"><ele>962.3333333333334</ele><time>2026-04-26T14:55:51.594Z</time></trkpt><trkpt lat="46.0778564" lon="12.2653034"><ele>965.0</ele><time>2026-04-26T14:55:52.595Z</time></trkpt><trkpt lat="46.0778951" lon="12.2653926"><ele>965.0000000000001</ele><time>2026-04-26T14:55:53.595Z</time></trkpt><trkpt lat="46.0779357" lon="12.2654788"><ele>965.0</ele><time>2026-04-26T14:55:54.59Z</time></trkpt><trkpt lat="46.0779869" lon="12.2655375"><ele>965.0</ele><time>2026-04-26T14:55:55.596Z</time></trkpt><trkpt lat="46.0780967" lon="12.2655959"><ele>965.0</ele><time>2026-04-26T14:55:57.595Z</time></trkpt><trkpt lat="46.0781606" lon="12.2655955"><ele>965.0000000000001</ele><time>2026-04-26T14:55:58.596Z</time></trkpt><trkpt lat="46.0782676" lon="12.2655484"><ele>965.0</ele><time>2026-04-26T14:56:00.594Z</time></trkpt><trkpt lat="46.078351" lon="12.2654302"><ele>961.0000000000001</ele><time>2026-04-26T14:56:02.589Z</time></trkpt><trkpt lat="46.0784223" lon="12.2652858"><ele>957.0</ele><time>2026-04-26T14:56:04.595Z</time></trkpt><trkpt lat="46.0784579" lon="12.2652011"><ele>953.0</ele><time>2026-04-26T14:56:05.596Z</time></trkpt><trkpt lat="46.0784961" lon="12.2651174"><ele>949.0</ele><time>2026-04-26T14:56:06.59Z</time></trkpt><trkpt lat="46.0785412" lon="12.2650334"><ele>945.0000000000001</ele><time>2026-04-26T14:56:07.586Z</time></trkpt><trkpt lat="46.0785759" lon="12.2649568"><ele>941.0</ele><time>2026-04-26T14:56:08.586Z</time></trkpt><trkpt lat="46.0786172" lon="12.2648647"><ele>939.6666666666667</ele><time>2026-04-26T14:56:09.587Z</time></trkpt><trkpt lat="46.0786571" lon="12.2647737"><ele>938.3333333333334</ele><time>2026-04-26T14:56:10.596Z</time></trkpt><trkpt lat="46.0786933" lon="12.2646888"><ele>937.0</ele><time>2026-04-26T14:56:11.589Z</time></trkpt><trkpt lat="46.078731" lon="12.2646024"><ele>935.6666666666667</ele><time>2026-04-26T14:56:12.587Z</time></trkpt><trkpt lat="46.0788069" lon="12.2644802"><ele>934.3333333333334</ele><time>2026-04-26T14:56:14.586Z</time></trkpt><trkpt lat="46.0789083" lon="12.2644906"><ele>933.0</ele><time>2026-04-26T14:56:16.597Z</time></trkpt><trkpt lat="46.0789721" lon="12.2646106"><ele>933.0</ele><time>2026-04-26T14:56:18.6Z</time></trkpt><trkpt lat="46.0790053" lon="12.2647428"><ele>933.0</ele><time>2026-04-26T14:56:20.586Z</time></trkpt><trkpt lat="46.0790793" lon="12.2647819"><ele>933.0</ele><time>2026-04-26T14:56:22.587Z</time></trkpt><trkpt lat="46.079146" lon="12.264708"><ele>933.0</ele><time>2026-04-26T14:56:24.592Z</time></trkpt><trkpt lat="46.0791053" lon="12.2645658"><ele>933.0</ele><time>2026-04-26T14:56:26.594Z</time></trkpt><trkpt lat="46.0790605" lon="12.2643989"><ele>933.0</ele><time>2026-04-26T14:56:28.594Z</time></trkpt><trkpt lat="46.0790478" lon="12.2643029"><ele>933.0</ele><time>2026-04-26T14:56:29.584Z</time></trkpt><trkpt lat="46.0790105" lon="12.2641538"><ele>933.0</ele><time>2026-04-26T14:56:31.597Z</time></trkpt><trkpt lat="46.0789155" lon="12.2641048"><ele>933.0</ele><time>2026-04-26T14:56:33.588Z</time></trkpt><trkpt lat="46.0788526" lon="12.2641133"><ele>933.0</ele><time>2026-04-26T14:56:34.595Z</time></trkpt><trkpt lat="46.0787228" lon="12.2640705"><ele>933.0</ele><time>2026-04-26T14:56:36.59Z</time></trkpt><trkpt lat="46.0786665" lon="12.2640067"><ele>933.0</ele><time>2026-04-26T14:56:37.588Z</time></trkpt><trkpt lat="46.0786229" lon="12.2639335"><ele>933.0</ele><time>2026-04-26T14:56:38.586Z</time></trkpt><trkpt lat="46.0785873" lon="12.2637705"><ele>933.0</ele><time>2026-04-26T14:56:40.595Z</time></trkpt><trkpt lat="46.078598" lon="12.2636727"><ele>933.0</ele><time>2026-04-26T14:56:41.599Z</time></trkpt><trkpt lat="46.0786129" lon="12.2635671"><ele>933.0</ele><time>2026-04-26T14:56:42.596Z</time></trkpt><trkpt lat="46.0786256" lon="12.2634582"><ele>932.1666666666666</ele><time>2026-04-26T14:56:43.596Z</time></trkpt><trkpt lat="46.0786518" lon="12.2633071"><ele>931.3333333333333</ele><time>2026-04-26T14:56:45.599Z</time></trkpt><trkpt lat="46.0787257" lon="12.2632467"><ele>930.5</ele><time>2026-04-26T14:56:47.593Z</time></trkpt><trkpt lat="46.0788111" lon="12.2633324"><ele>929.6666666666666</ele><time>2026-04-26T14:56:49.581Z</time></trkpt><trkpt lat="46.0788653" lon="12.2633812"><ele>928.8333333333333</ele><time>2026-04-26T14:56:50.596Z</time></trkpt><trkpt lat="46.0789303" lon="12.2634154"><ele>928.0</ele><time>2026-04-26T14:56:51.593Z</time></trkpt><trkpt lat="46.0790558" lon="12.2634479"><ele>924.6666666666666</ele><time>2026-04-26T14:56:53.59Z</time></trkpt><trkpt lat="46.0791242" lon="12.2634069"><ele>921.3333333333333</ele><time>2026-04-26T14:56:54.588Z</time></trkpt><trkpt lat="46.0791944" lon="12.2633587"><ele>918.0</ele><time>2026-04-26T14:56:55.596Z</time></trkpt><trkpt lat="46.0792603" lon="12.2632986"><ele>914.6666666666667</ele><time>2026-04-26T14:56:56.584Z</time></trkpt><trkpt lat="46.0793346" lon="12.2632434"><ele>911.3333333333334</ele><time>2026-04-26T14:56:57.588Z</time></trkpt><trkpt lat="46.0794004" lon="12.263197"><ele>908.0</ele><time>2026-04-26T14:56:58.587Z</time></trkpt><trkpt lat="46.079465" lon="12.2631654"><ele>908.0</ele><time>2026-04-26T14:56:59.586Z</time></trkpt><trkpt lat="46.0795728" lon="12.263142"><ele>908.0</ele><time>2026-04-26T14:57:01.588Z</time></trkpt><trkpt lat="46.0796221" lon="12.2630527"><ele>908.0</ele><time>2026-04-26T14:57:03.585Z</time></trkpt><trkpt lat="46.0795699" lon="12.2629699"><ele>908.0</ele><time>2026-04-26T14:57:05.584Z</time></trkpt><trkpt lat="46.0794961" lon="12.2628547"><ele>908.0</ele><time>2026-04-26T14:57:07.593Z</time></trkpt><trkpt lat="46.0794617" lon="12.2627581"><ele>907.1666666666667</ele><time>2026-04-26T14:57:08.615Z</time></trkpt><trkpt lat="46.0794345" lon="12.2626559"><ele>906.3333333333334</ele><time>2026-04-26T14:57:09.583Z</time></trkpt><trkpt lat="46.0794003" lon="12.2625654"><ele>905.5</ele><time>2026-04-26T14:57:10.587Z</time></trkpt><trkpt lat="46.0793603" lon="12.2624716"><ele>904.6666666666667</ele><time>2026-04-26T14:57:11.583Z</time></trkpt><trkpt lat="46.0793206" lon="12.2623832"><ele>903.8333333333334</ele><time>2026-04-26T14:57:12.587Z</time></trkpt><trkpt lat="46.0792878" lon="12.2622433"><ele>903.0</ele><time>2026-04-26T14:57:14.588Z</time></trkpt><trkpt lat="46.0793488" lon="12.2621569"><ele>903.0</ele><time>2026-04-26T14:57:16.597Z</time></trkpt><trkpt lat="46.0794597" lon="12.2621829"><ele>903.0</ele><time>2026-04-26T14:57:18.595Z</time></trkpt><trkpt lat="46.0795303" lon="12.2621891"><ele>903.0</ele><time>2026-04-26T14:57:19.589Z</time></trkpt><trkpt lat="46.0795973" lon="12.2621833"><ele>903.0</ele><time>2026-04-26T14:57:20.587Z</time></trkpt><trkpt lat="46.0797224" lon="12.2622232"><ele>903.0</ele><time>2026-04-26T14:57:22.589Z</time></trkpt><trkpt lat="46.0797802" lon="12.2622675"><ele>903.0</ele><time>2026-04-26T14:57:23.592Z</time></trkpt><trkpt lat="46.0798427" lon="12.2623027"><ele>898.0</ele><time>2026-04-26T14:57:24.589Z</time></trkpt><trkpt lat="46.0799614" lon="12.2622684"><ele>893.0</ele><time>2026-04-26T14:57:26.593Z</time></trkpt><trkpt lat="46.0800083" lon="12.2622068"><ele>888.0</ele><time>2026-04-26T14:57:27.585Z</time></trkpt><trkpt lat="46.080083" lon="12.2620852"><ele>883.0</ele><time>2026-04-26T14:57:29.589Z</time></trkpt><trkpt lat="46.0801022" lon="12.2619411"><ele>878.0</ele><time>2026-04-26T14:57:31.586Z</time></trkpt><trkpt lat="46.0800595" lon="12.2618259"><ele>878.0</ele><time>2026-04-26T14:57:33.588Z</time></trkpt><trkpt lat="46.0799474" lon="12.2617793"><ele>878.0</ele><time>2026-04-26T14:57:35.587Z</time></trkpt><trkpt lat="46.079886" lon="12.2617564"><ele>878.0</ele><time>2026-04-26T14:57:36.59Z</time></trkpt><trkpt lat="46.0798202" lon="12.2617366"><ele>878.0</ele><time>2026-04-26T14:57:37.595Z</time></trkpt><trkpt lat="46.0797183" lon="12.2616553"><ele>878.0</ele><time>2026-04-26T14:57:39.594Z</time></trkpt><trkpt lat="46.0796807" lon="12.2615344"><ele>880.0</ele><time>2026-04-26T14:57:41.587Z</time></trkpt><trkpt lat="46.0797109" lon="12.261453"><ele>882.0</ele><time>2026-04-26T14:57:43.591Z</time></trkpt><trkpt lat="46.0796977" lon="12.2613636"><ele>884.0</ele><time>2026-04-26T14:58:13.592Z</time></trkpt><trkpt lat="46.0797638" lon="12.261334"><ele>886.0</ele><time>2026-04-26T15:03:09.592Z</time></trkpt><trkpt lat="46.0797692" lon="12.2614281"><ele>888.0</ele><time>2026-04-26T15:03:11.602Z</time></trkpt><trkpt lat="46.0797724" lon="12.2615246"><ele>890.0</ele><time>2026-04-26T15:03:13.596Z</time></trkpt><trkpt lat="46.079823" lon="12.2616052"><ele>892.0</ele><time>2026-04-26T15:03:15.599Z</time></trkpt><trkpt lat="46.0798991" lon="12.2616634"><ele>889.6666666666666</ele><time>2026-04-26T15:03:18.59Z</time></trkpt><trkpt lat="46.079978" lon="12.2616856"><ele>887.3333333333333</ele><time>2026-04-26T15:03:21.588Z</time></trkpt><trkpt lat="46.0800485" lon="12.2616956"><ele>885.0</ele><time>2026-04-26T15:03:23.596Z</time></trkpt><trkpt lat="46.0801243" lon="12.2617037"><ele>882.6666666666667</ele><time>2026-04-26T15:03:25.586Z</time></trkpt><trkpt lat="46.0801993" lon="12.2617182"><ele>880.3333333333334</ele><time>2026-04-26T15:03:27.59Z</time></trkpt><trkpt lat="46.0802574" lon="12.2617771"><ele>878.0</ele><time>2026-04-26T15:03:29.588Z</time></trkpt><trkpt lat="46.0802937" lon="12.2618752"><ele>878.0</ele><time>2026-04-26T15:03:31.598Z</time></trkpt><trkpt lat="46.080271" lon="12.2619794"><ele>878.0</ele><time>2026-04-26T15:03:33.59Z</time></trkpt><trkpt lat="46.0802313" lon="12.2620842"><ele>878.0</ele><time>2026-04-26T15:03:35.588Z</time></trkpt><trkpt lat="46.0801864" lon="12.2622025"><ele>878.0</ele><time>2026-04-26T15:03:37.588Z</time></trkpt><trkpt lat="46.0801383" lon="12.2623337"><ele>878.0</ele><time>2026-04-26T15:03:39.588Z</time></trkpt><trkpt lat="46.0801255" lon="12.2624919"><ele>878.6666666666667</ele><time>2026-04-26T15:03:41.585Z</time></trkpt><trkpt lat="46.0801309" lon="12.2626757"><ele>879.3333333333334</ele><time>2026-04-26T15:03:43.585Z</time></trkpt><trkpt lat="46.0801363" lon="12.2627733"><ele>880.0</ele><time>2026-04-26T15:03:44.589Z</time></trkpt><trkpt lat="46.0801464" lon="12.2628748"><ele>880.6666666666667</ele><time>2026-04-26T15:03:45.588Z</time></trkpt><trkpt lat="46.0801525" lon="12.2629727"><ele>881.3333333333334</ele><time>2026-04-26T15:03:46.59Z</time></trkpt><trkpt lat="46.0801604" lon="12.263072"><ele>882.0</ele><time>2026-04-26T15:03:47.594Z</time></trkpt><trkpt lat="46.080161" lon="12.2631767"><ele>883.0</ele><time>2026-04-26T15:03:48.587Z</time></trkpt><trkpt lat="46.0801579" lon="12.2632761"><ele>884.0</ele><time>2026-04-26T15:03:49.588Z</time></trkpt><trkpt lat="46.0801623" lon="12.2633747"><ele>885.0</ele><time>2026-04-26T15:03:50.597Z</time></trkpt><trkpt lat="46.0801515" lon="12.2634913"><ele>886.0</ele><time>2026-04-26T15:03:51.589Z</time></trkpt><trkpt lat="46.0801538" lon="12.2635997"><ele>887.0</ele><time>2026-04-26T15:03:52.595Z</time></trkpt><trkpt lat="46.0801666" lon="12.2637014"><ele>888.0</ele><time>2026-04-26T15:03:53.593Z</time></trkpt><trkpt lat="46.0801872" lon="12.2637886"><ele>889.0</ele><time>2026-04-26T15:03:54.589Z</time></trkpt><trkpt lat="46.0802137" lon="12.263889"><ele>890.4000000000001</ele><time>2026-04-26T15:03:55.605Z</time></trkpt><trkpt lat="46.0802432" lon="12.2639784"><ele>891.8000000000001</ele><time>2026-04-26T15:03:56.703Z</time></trkpt><trkpt lat="46.0803012" lon="12.2641477"><ele>893.1999999999999</ele><time>2026-04-26T15:03:58.589Z</time></trkpt><trkpt lat="46.0803233" lon="12.2643194"><ele>894.5999999999999</ele><time>2026-04-26T15:04:00.617Z</time></trkpt><trkpt lat="46.0803124" lon="12.2644953"><ele>896.0</ele><time>2026-04-26T15:04:02.589Z</time></trkpt><trkpt lat="46.0803034" lon="12.264592"><ele>896.0</ele><time>2026-04-26T15:04:03.587Z</time></trkpt><trkpt lat="46.0803108" lon="12.2646928"><ele>896.0</ele><time>2026-04-26T15:04:04.588Z</time></trkpt><trkpt lat="46.0803351" lon="12.2647823"><ele>896.0</ele><time>2026-04-26T15:04:05.585Z</time></trkpt><trkpt lat="46.0803714" lon="12.264861"><ele>896.0</ele><time>2026-04-26T15:04:06.613Z</time></trkpt><trkpt lat="46.0804139" lon="12.2649281"><ele>896.0</ele><time>2026-04-26T15:04:07.597Z</time></trkpt><trkpt lat="46.0804652" lon="12.264992"><ele>896.0</ele><time>2026-04-26T15:04:08.588Z</time></trkpt><trkpt lat="46.0805198" lon="12.2650476"><ele>896.0</ele><time>2026-04-26T15:04:09.594Z</time></trkpt><trkpt lat="46.0805787" lon="12.2650964"><ele>896.5000000000001</ele><time>2026-04-26T15:04:10.598Z</time></trkpt><trkpt lat="46.0806352" lon="12.2651564"><ele>897.0</ele><time>2026-04-26T15:04:11.594Z</time></trkpt><trkpt lat="46.0806869" lon="12.2652172"><ele>897.5</ele><time>2026-04-26T15:04:12.596Z</time></trkpt><trkpt lat="46.0807332" lon="12.265282"><ele>898.0</ele><time>2026-04-26T15:04:13.597Z</time></trkpt><trkpt lat="46.0807833" lon="12.2653425"><ele>898.5000000000001</ele><time>2026-04-26T15:04:14.6Z</time></trkpt><trkpt lat="46.080868" lon="12.265465"><ele>899.0</ele><time>2026-04-26T15:04:16.601Z</time></trkpt><trkpt lat="46.0809535" lon="12.2655863"><ele>896.4000000000001</ele><time>2026-04-26T15:04:18.597Z</time></trkpt><trkpt lat="46.0810363" lon="12.2657038"><ele>893.8000000000001</ele><time>2026-04-26T15:04:20.595Z</time></trkpt><trkpt lat="46.0811152" lon="12.2658149"><ele>891.1999999999999</ele><time>2026-04-26T15:04:22.596Z</time></trkpt><trkpt lat="46.0811803" lon="12.2659368"><ele>888.5999999999999</ele><time>2026-04-26T15:04:24.594Z</time></trkpt><trkpt lat="46.0812098" lon="12.2660796"><ele>886.0</ele><time>2026-04-26T15:04:26.59Z</time></trkpt><trkpt lat="46.0812211" lon="12.2662199"><ele>886.0</ele><time>2026-04-26T15:04:28.595Z</time></trkpt><trkpt lat="46.0812414" lon="12.2663689"><ele>885.9999999999999</ele><time>2026-04-26T15:04:30.599Z</time></trkpt><trkpt lat="46.0812906" lon="12.2665158"><ele>885.9999999999999</ele><time>2026-04-26T15:04:32.592Z</time></trkpt><trkpt lat="46.0813648" lon="12.266626"><ele>886.0</ele><time>2026-04-26T15:04:34.592Z</time></trkpt><trkpt lat="46.0814231" lon="12.2667396"><ele>886.0</ele><time>2026-04-26T15:04:36.595Z</time></trkpt><trkpt lat="46.0814539" lon="12.2668759"><ele>888.5999999999999</ele><time>2026-04-26T15:04:38.597Z</time></trkpt><trkpt lat="46.0814629" lon="12.2670172"><ele>891.1999999999999</ele><time>2026-04-26T15:04:40.597Z</time></trkpt><trkpt lat="46.0814509" lon="12.2671502"><ele>893.8000000000001</ele><time>2026-04-26T15:04:42.592Z</time></trkpt><trkpt lat="46.0814086" lon="12.2672801"><ele>896.4000000000001</ele><time>2026-04-26T15:04:44.596Z</time></trkpt><trkpt lat="46.0813648" lon="12.267423"><ele>899.0</ele><time>2026-04-26T15:04:46.598Z</time></trkpt><trkpt lat="46.081343" lon="12.2675783"><ele>900.0</ele><time>2026-04-26T15:04:48.594Z</time></trkpt><trkpt lat="46.0813716" lon="12.2677262"><ele>901.0000000000001</ele><time>2026-04-26T15:04:50.588Z</time></trkpt><trkpt lat="46.0814304" lon="12.2678374"><ele>902.0000000000001</ele><time>2026-04-26T15:04:52.592Z</time></trkpt><trkpt lat="46.0814997" lon="12.2679087"><ele>903.0</ele><time>2026-04-26T15:04:54.586Z</time></trkpt><trkpt lat="46.0815826" lon="12.2679568"><ele>904.0</ele><time>2026-04-26T15:04:56.586Z</time></trkpt><trkpt lat="46.0816732" lon="12.2679976"><ele>900.6666666666666</ele><time>2026-04-26T15:04:58.585Z</time></trkpt><trkpt lat="46.0817643" lon="12.2680452"><ele>897.3333333333333</ele><time>2026-04-26T15:05:00.593Z</time></trkpt><trkpt lat="46.081863" lon="12.2680876"><ele>894.0</ele><time>2026-04-26T15:05:02.586Z</time></trkpt><trkpt lat="46.0819334" lon="12.2681187"><ele>890.6666666666667</ele><time>2026-04-26T15:05:04.584Z</time></trkpt><trkpt lat="46.0819873" lon="12.2681674"><ele>887.3333333333334</ele><time>2026-04-26T15:05:18.586Z</time></trkpt><trkpt lat="46.0820238" lon="12.2682812"><ele>884.0</ele><time>2026-04-26T15:05:24.591Z</time></trkpt><trkpt lat="46.0820336" lon="12.2683947"><ele>884.0000000000001</ele><time>2026-04-26T15:05:27.585Z</time></trkpt><trkpt lat="46.0820387" lon="12.2685106"><ele>884.0</ele><time>2026-04-26T15:05:30.59Z</time></trkpt><trkpt lat="46.0820842" lon="12.2686035"><ele>884.0</ele><time>2026-04-26T15:05:33.591Z</time></trkpt><trkpt lat="46.0821607" lon="12.2685585"><ele>884.0</ele><time>2026-04-26T15:05:36.589Z</time></trkpt><trkpt lat="46.0821788" lon="12.2684402"><ele>884.0000000000001</ele><time>2026-04-26T15:05:39.588Z</time></trkpt><trkpt lat="46.0821827" lon="12.2683121"><ele>884.0</ele><time>2026-04-26T15:05:42.587Z</time></trkpt><trkpt lat="46.0821961" lon="12.2682122"><ele>884.0000000000001</ele><time>2026-04-26T15:05:44.594Z</time></trkpt><trkpt lat="46.082219" lon="12.2681145"><ele>884.0</ele><time>2026-04-26T15:05:46.589Z</time></trkpt><trkpt lat="46.0822602" lon="12.2680318"><ele>884.0</ele><time>2026-04-26T15:05:48.59Z</time></trkpt><trkpt lat="46.0823099" lon="12.2679665"><ele>884.0</ele><time>2026-04-26T15:05:50.688Z</time></trkpt><trkpt lat="46.0823681" lon="12.2679179"><ele>884.0</ele><time>2026-04-26T15:05:52.597Z</time></trkpt><trkpt lat="46.0824308" lon="12.2678797"><ele>884.0000000000001</ele><time>2026-04-26T15:05:54.589Z</time></trkpt><trkpt lat="46.0824949" lon="12.2678471"><ele>884.0</ele><time>2026-04-26T15:05:56.587Z</time></trkpt><trkpt lat="46.0825578" lon="12.2678091"><ele>883.5714285714287</ele><time>2026-04-26T15:05:58.589Z</time></trkpt><trkpt lat="46.0826248" lon="12.2677803"><ele>883.1428571428571</ele><time>2026-04-26T15:06:00.589Z</time></trkpt><trkpt lat="46.0826916" lon="12.2677535"><ele>882.7142857142858</ele><time>2026-04-26T15:06:02.59Z</time></trkpt><trkpt lat="46.0827601" lon="12.2677229"><ele>882.2857142857143</ele><time>2026-04-26T15:06:04.599Z</time></trkpt><trkpt lat="46.0828301" lon="12.2677121"><ele>881.8571428571429</ele><time>2026-04-26T15:06:06.588Z</time></trkpt><trkpt lat="46.0828945" lon="12.267683"><ele>881.4285714285714</ele><time>2026-04-26T15:06:08.595Z</time></trkpt><trkpt lat="46.0829576" lon="12.267646"><ele>881.0</ele><time>2026-04-26T15:06:10.615Z</time></trkpt><trkpt lat="46.0830186" lon="12.2676057"><ele>881.0000000000001</ele><time>2026-04-26T15:06:12.588Z</time></trkpt><trkpt lat="46.0830661" lon="12.2675412"><ele>881.0</ele><time>2026-04-26T15:06:14.59Z</time></trkpt><trkpt lat="46.0831473" lon="12.2674836"><ele>881.0</ele><time>2026-04-26T15:06:17.585Z</time></trkpt><trkpt lat="46.0832279" lon="12.2674484"><ele>881.0</ele><time>2026-04-26T15:06:20.614Z</time></trkpt><trkpt lat="46.0832906" lon="12.2674251"><ele>881.0000000000001</ele><time>2026-04-26T15:06:22.589Z</time></trkpt><trkpt lat="46.0833497" lon="12.2673909"><ele>881.0</ele><time>2026-04-26T15:06:24.615Z</time></trkpt><trkpt lat="46.0834281" lon="12.2673254"><ele>880.8333333333334</ele><time>2026-04-26T15:06:27.589Z</time></trkpt><trkpt lat="46.0834923" lon="12.2672416"><ele>880.6666666666667</ele><time>2026-04-26T15:06:30.584Z</time></trkpt><trkpt lat="46.0835392" lon="12.2671757"><ele>880.5</ele><time>2026-04-26T15:06:33.621Z</time></trkpt><trkpt lat="46.0835985" lon="12.2671082"><ele>880.3333333333333</ele><time>2026-04-26T15:06:37.589Z</time></trkpt><trkpt lat="46.0836542" lon="12.2670392"><ele>880.1666666666666</ele><time>2026-04-26T15:06:41.584Z</time></trkpt><trkpt lat="46.083701" lon="12.2669654"><ele>880.0</ele><time>2026-04-26T15:06:44.594Z</time></trkpt><trkpt lat="46.0837577" lon="12.2668617"><ele>879.9999999999999</ele><time>2026-04-26T15:06:47.594Z</time></trkpt><trkpt lat="46.0838127" lon="12.2667526"><ele>880.0</ele><time>2026-04-26T15:06:50.593Z</time></trkpt><trkpt lat="46.0838704" lon="12.2666509"><ele>880.0</ele><time>2026-04-26T15:06:53.613Z</time></trkpt><trkpt lat="46.0839245" lon="12.266541"><ele>880.0</ele><time>2026-04-26T15:06:56.588Z</time></trkpt><trkpt lat="46.0839587" lon="12.2664578"><ele>879.9999999999999</ele><time>2026-04-26T15:06:58.585Z</time></trkpt><trkpt lat="46.0839984" lon="12.2663345"><ele>880.0</ele><time>2026-04-26T15:07:01.581Z</time></trkpt><trkpt lat="46.0840242" lon="12.2662453"><ele>877.5714285714286</ele><time>2026-04-26T15:07:03.585Z</time></trkpt><trkpt lat="46.0840511" lon="12.266151"><ele>875.1428571428571</ele><time>2026-04-26T15:07:05.59Z</time></trkpt><trkpt lat="46.0840706" lon="12.2660611"><ele>872.7142857142858</ele><time>2026-04-26T15:07:07.58Z</time></trkpt><trkpt lat="46.0840885" lon="12.2659708"><ele>870.2857142857142</ele><time>2026-04-26T15:07:09.588Z</time></trkpt><trkpt lat="46.0841179" lon="12.2658434"><ele>867.8571428571429</ele><time>2026-04-26T15:07:12.586Z</time></trkpt><trkpt lat="46.0841519" lon="12.2657649"><ele>865.4285714285714</ele><time>2026-04-26T15:07:14.586Z</time></trkpt><trkpt lat="46.0841933" lon="12.2656878"><ele>863.0</ele><time>2026-04-26T15:07:16.586Z</time></trkpt><trkpt lat="46.0842427" lon="12.2655791"><ele>868.8333333333334</ele><time>2026-04-26T15:07:19.588Z</time></trkpt><trkpt lat="46.0842855" lon="12.2654722"><ele>874.6666666666667</ele><time>2026-04-26T15:07:22.587Z</time></trkpt><trkpt lat="46.0842964" lon="12.265354"><ele>880.5</ele><time>2026-04-26T15:07:25.588Z</time></trkpt><trkpt lat="46.0842932" lon="12.2652211"><ele>886.3333333333333</ele><time>2026-04-26T15:07:28.589Z</time></trkpt><trkpt lat="46.084306" lon="12.2651012"><ele>892.1666666666666</ele><time>2026-04-26T15:07:31.59Z</time></trkpt><trkpt lat="46.0843335" lon="12.2649727"><ele>898.0</ele><time>2026-04-26T15:07:34.589Z</time></trkpt><trkpt lat="46.0843586" lon="12.2648413"><ele>897.5714285714286</ele><time>2026-04-26T15:07:37.59Z</time></trkpt><trkpt lat="46.0843607" lon="12.2647462"><ele>897.1428571428571</ele><time>2026-04-26T15:07:39.59Z</time></trkpt><trkpt lat="46.084369" lon="12.2646553"><ele>896.7142857142857</ele><time>2026-04-26T15:07:41.586Z</time></trkpt><trkpt lat="46.0843898" lon="12.2645425"><ele>896.2857142857142</ele><time>2026-04-26T15:07:44.586Z</time></trkpt><trkpt lat="46.0844148" lon="12.2644232"><ele>895.8571428571429</ele><time>2026-04-26T15:07:47.586Z</time></trkpt><trkpt lat="46.084436" lon="12.2643264"><ele>895.4285714285713</ele><time>2026-04-26T15:07:49.588Z</time></trkpt><trkpt lat="46.0844539" lon="12.264233"><ele>895.0</ele><time>2026-04-26T15:07:51.585Z</time></trkpt><trkpt lat="46.0844809" lon="12.2641481"><ele>894.9999999999999</ele><time>2026-04-26T15:07:53.585Z</time></trkpt><trkpt lat="46.0845519" lon="12.264064"><ele>895.0</ele><time>2026-04-26T15:07:56.591Z</time></trkpt><trkpt lat="46.084616" lon="12.2640468"><ele>895.0</ele><time>2026-04-26T15:07:58.602Z</time></trkpt><trkpt lat="46.0846862" lon="12.2640557"><ele>895.0</ele><time>2026-04-26T15:08:00.592Z</time></trkpt><trkpt lat="46.0847618" lon="12.2640609"><ele>894.9999999999999</ele><time>2026-04-26T15:08:02.583Z</time></trkpt><trkpt lat="46.0848345" lon="12.2640799"><ele>895.0</ele><time>2026-04-26T15:08:04.595Z</time></trkpt><trkpt lat="46.0849066" lon="12.2640919"><ele>898.7142857142857</ele><time>2026-04-26T15:08:06.597Z</time></trkpt><trkpt lat="46.0849802" lon="12.2641032"><ele>902.4285714285716</ele><time>2026-04-26T15:08:08.597Z</time></trkpt><trkpt lat="46.0850535" lon="12.2641211"><ele>906.1428571428572</ele><time>2026-04-26T15:08:10.588Z</time></trkpt><trkpt lat="46.0851219" lon="12.2641379"><ele>909.8571428571429</ele><time>2026-04-26T15:08:12.593Z</time></trkpt><trkpt lat="46.0851944" lon="12.2641542"><ele>913.5714285714287</ele><time>2026-04-26T15:08:14.585Z</time></trkpt><trkpt lat="46.0852685" lon="12.2641684"><ele>917.2857142857144</ele><time>2026-04-26T15:08:16.594Z</time></trkpt><trkpt lat="46.0853469" lon="12.2641748"><ele>921.0000000000001</ele><time>2026-04-26T15:08:18.588Z</time></trkpt><trkpt lat="46.0854222" lon="12.2641634"><ele>921.0</ele><time>2026-04-26T15:08:20.597Z</time></trkpt><trkpt lat="46.0854898" lon="12.2641323"><ele>921.0</ele><time>2026-04-26T15:08:22.596Z</time></trkpt><trkpt lat="46.0855505" lon="12.2640897"><ele>921.0</ele><time>2026-04-26T15:08:24.594Z</time></trkpt><trkpt lat="46.0856224" lon="12.264041"><ele>921.0</ele><time>2026-04-26T15:08:26.594Z</time></trkpt><trkpt lat="46.0857025" lon="12.263984"><ele>921.0</ele><time>2026-04-26T15:08:28.592Z</time></trkpt><trkpt lat="46.0857819" lon="12.2639277"><ele>921.0</ele><time>2026-04-26T15:08:30.595Z</time></trkpt><trkpt lat="46.0858638" lon="12.2638715"><ele>918.8333333333334</ele><time>2026-04-26T15:08:32.598Z</time></trkpt><trkpt lat="46.085944" lon="12.2638101"><ele>916.6666666666667</ele><time>2026-04-26T15:08:34.588Z</time></trkpt><trkpt lat="46.0860152" lon="12.2637491"><ele>914.5</ele><time>2026-04-26T15:08:36.597Z</time></trkpt><trkpt lat="46.0860989" lon="12.2637119"><ele>912.3333333333334</ele><time>2026-04-26T15:08:38.586Z</time></trkpt><trkpt lat="46.0861801" lon="12.263662"><ele>910.1666666666667</ele><time>2026-04-26T15:08:40.596Z</time></trkpt><trkpt lat="46.0862645" lon="12.2636363"><ele>908.0</ele><time>2026-04-26T15:08:42.587Z</time></trkpt><trkpt lat="46.0863471" lon="12.2636201"><ele>908.0000000000001</ele><time>2026-04-26T15:08:44.59Z</time></trkpt><trkpt lat="46.0864325" lon="12.2636317"><ele>908.0</ele><time>2026-04-26T15:08:46.591Z</time></trkpt><trkpt lat="46.0865147" lon="12.2636592"><ele>908.0</ele><time>2026-04-26T15:08:48.591Z</time></trkpt><trkpt lat="46.0865908" lon="12.2636955"><ele>908.0</ele><time>2026-04-26T15:08:50.586Z</time></trkpt><trkpt lat="46.0866657" lon="12.2637508"><ele>908.0000000000001</ele><time>2026-04-26T15:08:52.588Z</time></trkpt><trkpt lat="46.0867399" lon="12.2638174"><ele>908.0</ele><time>2026-04-26T15:08:54.59Z</time></trkpt><trkpt lat="46.0868113" lon="12.2638999"><ele>912.0000000000001</ele><time>2026-04-26T15:08:56.588Z</time></trkpt><trkpt lat="46.0868755" lon="12.2639892"><ele>916.0</ele><time>2026-04-26T15:08:58.585Z</time></trkpt><trkpt lat="46.086936" lon="12.2640828"><ele>920.0</ele><time>2026-04-26T15:09:00.586Z</time></trkpt><trkpt lat="46.0869952" lon="12.2641753"><ele>924.0</ele><time>2026-04-26T15:09:02.583Z</time></trkpt><trkpt lat="46.087058" lon="12.2642557"><ele>928.0000000000001</ele><time>2026-04-26T15:09:04.59Z</time></trkpt><trkpt lat="46.0871211" lon="12.2643366"><ele>932.0</ele><time>2026-04-26T15:09:06.587Z</time></trkpt><trkpt lat="46.0871863" lon="12.2644013"><ele>932.0000000000001</ele><time>2026-04-26T15:09:08.587Z</time></trkpt><trkpt lat="46.0872529" lon="12.2644625"><ele>932.0</ele><time>2026-04-26T15:09:10.59Z</time></trkpt><trkpt lat="46.0873107" lon="12.2645247"><ele>932.0</ele><time>2026-04-26T15:09:12.587Z</time></trkpt><trkpt lat="46.0873599" lon="12.2646357"><ele>932.0</ele><time>2026-04-26T15:09:15.586Z</time></trkpt><trkpt lat="46.0874069" lon="12.2647048"><ele>932.0000000000001</ele><time>2026-04-26T15:09:17.59Z</time></trkpt><trkpt lat="46.0874627" lon="12.2647812"><ele>932.0</ele><time>2026-04-26T15:09:19.588Z</time></trkpt><trkpt lat="46.0875098" lon="12.2648434"><ele>931.8</ele><time>2026-04-26T15:09:21.59Z</time></trkpt><trkpt lat="46.0875681" lon="12.2647956"><ele>931.6</ele><time>2026-04-26T15:09:41.594Z</time></trkpt><trkpt lat="46.0875556" lon="12.2646477"><ele>931.3999999999999</ele><time>2026-04-26T15:09:43.6Z</time></trkpt><trkpt lat="46.087548" lon="12.2645529"><ele>931.1999999999999</ele><time>2026-04-26T15:09:44.595Z</time></trkpt><trkpt lat="46.0875298" lon="12.2643948"><ele>931.0</ele><time>2026-04-26T15:09:46.585Z</time></trkpt><trkpt lat="46.0874919" lon="12.2642557"><ele>931.0</ele><time>2026-04-26T15:09:48.596Z</time></trkpt><trkpt lat="46.0874474" lon="12.264127"><ele>930.9999999999999</ele><time>2026-04-26T15:09:50.589Z</time></trkpt><trkpt lat="46.0873938" lon="12.263985"><ele>930.9999999999999</ele><time>2026-04-26T15:09:52.585Z</time></trkpt><trkpt lat="46.0873456" lon="12.2638251"><ele>931.0</ele><time>2026-04-26T15:09:54.586Z</time></trkpt><trkpt lat="46.087321" lon="12.2637116"><ele>931.0</ele><time>2026-04-26T15:09:56.596Z</time></trkpt><trkpt lat="46.0873202" lon="12.26362"><ele>929.8333333333333</ele><time>2026-04-26T15:09:58.584Z</time></trkpt><trkpt lat="46.0873196" lon="12.2635223"><ele>928.6666666666666</ele><time>2026-04-26T15:10:00.596Z</time></trkpt><trkpt lat="46.0873283" lon="12.2634104"><ele>927.5</ele><time>2026-04-26T15:10:02.586Z</time></trkpt><trkpt lat="46.0873447" lon="12.2633051"><ele>926.3333333333333</ele><time>2026-04-26T15:10:04.593Z</time></trkpt><trkpt lat="46.0873743" lon="12.263203"><ele>925.1666666666666</ele><time>2026-04-26T15:10:06.594Z</time></trkpt><trkpt lat="46.087397" lon="12.2630938"><ele>924.0</ele><time>2026-04-26T15:10:08.594Z</time></trkpt><trkpt lat="46.0874758" lon="12.2629294"><ele>924.0</ele><time>2026-04-26T15:10:11.615Z</time></trkpt><trkpt lat="46.0875365" lon="12.26281"><ele>924.0000000000001</ele><time>2026-04-26T15:10:13.588Z</time></trkpt><trkpt lat="46.0875981" lon="12.2626914"><ele>924.0000000000001</ele><time>2026-04-26T15:10:15.59Z</time></trkpt><trkpt lat="46.087661" lon="12.2625736"><ele>924.0</ele><time>2026-04-26T15:10:17.594Z</time></trkpt><trkpt lat="46.0877315" lon="12.2624953"><ele>924.0</ele><time>2026-04-26T15:10:19.586Z</time></trkpt><trkpt lat="46.0878155" lon="12.2624288"><ele>924.0</ele><time>2026-04-26T15:10:21.584Z</time></trkpt><trkpt lat="46.0878971" lon="12.2623734"><ele>924.0000000000001</ele><time>2026-04-26T15:10:23.586Z</time></trkpt><trkpt lat="46.087966" lon="12.2622977"><ele>924.0000000000001</ele><time>2026-04-26T15:10:25.588Z</time></trkpt><trkpt lat="46.0879416" lon="12.2622065"><ele>924.0</ele><time>2026-04-26T15:10:26.586Z</time></trkpt><trkpt lat="46.0879013" lon="12.2620538"><ele>924.0</ele><time>2026-04-26T15:10:28.591Z</time></trkpt><trkpt lat="46.0878905" lon="12.2618958"><ele>922.3333333333334</ele><time>2026-04-26T15:10:30.603Z</time></trkpt><trkpt lat="46.0879149" lon="12.2618045"><ele>920.6666666666667</ele><time>2026-04-26T15:10:31.595Z</time></trkpt><trkpt lat="46.0879559" lon="12.2617128"><ele>919.0</ele><time>2026-04-26T15:10:32.601Z</time></trkpt><trkpt lat="46.0879968" lon="12.2616153"><ele>917.3333333333334</ele><time>2026-04-26T15:10:33.6Z</time></trkpt><trkpt lat="46.0880388" lon="12.2615149"><ele>915.6666666666667</ele><time>2026-04-26T15:10:34.587Z</time></trkpt><trkpt lat="46.0880694" lon="12.2614109"><ele>914.0</ele><time>2026-04-26T15:10:35.593Z</time></trkpt><trkpt lat="46.088094" lon="12.2613048"><ele>910.3333333333334</ele><time>2026-04-26T15:10:36.598Z</time></trkpt><trkpt lat="46.0881168" lon="12.2612082"><ele>906.6666666666667</ele><time>2026-04-26T15:10:37.586Z</time></trkpt><trkpt lat="46.0881354" lon="12.2610985"><ele>903.0</ele><time>2026-04-26T15:10:38.598Z</time></trkpt><trkpt lat="46.0881615" lon="12.2609874"><ele>899.3333333333333</ele><time>2026-04-26T15:10:39.586Z</time></trkpt><trkpt lat="46.0881904" lon="12.2608815"><ele>895.6666666666666</ele><time>2026-04-26T15:10:40.594Z</time></trkpt><trkpt lat="46.0882095" lon="12.2607763"><ele>892.0</ele><time>2026-04-26T15:10:41.584Z</time></trkpt><trkpt lat="46.088229" lon="12.2606746"><ele>887.9999999999999</ele><time>2026-04-26T15:10:42.587Z</time></trkpt><trkpt lat="46.0882436" lon="12.2605678"><ele>884.0</ele><time>2026-04-26T15:10:43.583Z</time></trkpt><trkpt lat="46.0882487" lon="12.2604573"><ele>880.0</ele><time>2026-04-26T15:10:44.585Z</time></trkpt><trkpt lat="46.088248" lon="12.2603433"><ele>876.0</ele><time>2026-04-26T15:10:45.592Z</time></trkpt><trkpt lat="46.088228" lon="12.2602367"><ele>871.9999999999999</ele><time>2026-04-26T15:10:46.595Z</time></trkpt><trkpt lat="46.0882124" lon="12.2601379"><ele>868.0</ele><time>2026-04-26T15:10:47.594Z</time></trkpt><trkpt lat="46.0882244" lon="12.2600351"><ele>867.9999999999999</ele><time>2026-04-26T15:10:48.593Z</time></trkpt><trkpt lat="46.0882505" lon="12.2599399"><ele>868.0</ele><time>2026-04-26T15:10:49.594Z</time></trkpt><trkpt lat="46.0882801" lon="12.2598477"><ele>868.0</ele><time>2026-04-26T15:10:50.593Z</time></trkpt><trkpt lat="46.0883131" lon="12.2597534"><ele>868.0</ele><time>2026-04-26T15:10:51.583Z</time></trkpt><trkpt lat="46.0883557" lon="12.2596533"><ele>867.9999999999999</ele><time>2026-04-26T15:10:52.593Z</time></trkpt><trkpt lat="46.0884118" lon="12.2595599"><ele>868.0</ele><time>2026-04-26T15:10:53.585Z</time></trkpt><trkpt lat="46.0884674" lon="12.2594679"><ele>866.4999999999999</ele><time>2026-04-26T15:10:54.732Z</time></trkpt><trkpt lat="46.0885719" lon="12.2593029"><ele>865.0</ele><time>2026-04-26T15:10:56.587Z</time></trkpt><trkpt lat="46.0886186" lon="12.25923"><ele>863.5</ele><time>2026-04-26T15:10:57.587Z</time></trkpt><trkpt lat="46.0886703" lon="12.259149"><ele>862.0</ele><time>2026-04-26T15:10:58.586Z</time></trkpt><trkpt lat="46.0887188" lon="12.2590622"><ele>860.4999999999999</ele><time>2026-04-26T15:10:59.587Z</time></trkpt><trkpt lat="46.088762" lon="12.2589794"><ele>859.0</ele><time>2026-04-26T15:11:00.586Z</time></trkpt><trkpt lat="46.0887927" lon="12.2588777"><ele>858.9999999999999</ele><time>2026-04-26T15:11:01.586Z</time></trkpt><trkpt lat="46.0888391" lon="12.2587782"><ele>859.0</ele><time>2026-04-26T15:11:02.594Z</time></trkpt><trkpt lat="46.088876" lon="12.2586684"><ele>859.0</ele><time>2026-04-26T15:11:03.587Z</time></trkpt><trkpt lat="46.0889171" lon="12.2585522"><ele>859.0</ele><time>2026-04-26T15:11:04.583Z</time></trkpt><trkpt lat="46.0889506" lon="12.2584302"><ele>858.9999999999999</ele><time>2026-04-26T15:11:05.597Z</time></trkpt><trkpt lat="46.0889838" lon="12.2583197"><ele>859.0</ele><time>2026-04-26T15:11:06.592Z</time></trkpt><trkpt lat="46.0890205" lon="12.2582226"><ele>858.9999999999999</ele><time>2026-04-26T15:11:07.585Z</time></trkpt><trkpt lat="46.0890586" lon="12.2581316"><ele>859.0</ele><time>2026-04-26T15:11:08.583Z</time></trkpt><trkpt lat="46.0891046" lon="12.2580373"><ele>859.0</ele><time>2026-04-26T15:11:09.586Z</time></trkpt><trkpt lat="46.0891539" lon="12.2579552"><ele>859.0</ele><time>2026-04-26T15:11:10.588Z</time></trkpt><trkpt lat="46.0892073" lon="12.2578863"><ele>859.0</ele><time>2026-04-26T15:11:11.581Z</time></trkpt><trkpt lat="46.0892615" lon="12.2578215"><ele>858.9999999999999</ele><time>2026-04-26T15:11:12.581Z</time></trkpt><trkpt lat="46.0893258" lon="12.257773"><ele>859.0</ele><time>2026-04-26T15:11:13.592Z</time></trkpt><trkpt lat="46.089394" lon="12.2577111"><ele>859.1666666666666</ele><time>2026-04-26T15:11:14.587Z</time></trkpt><trkpt lat="46.0894502" lon="12.2576394"><ele>859.3333333333333</ele><time>2026-04-26T15:11:15.584Z</time></trkpt><trkpt lat="46.0894968" lon="12.2575564"><ele>859.5</ele><time>2026-04-26T15:11:16.585Z</time></trkpt><trkpt lat="46.0895759" lon="12.2574437"><ele>859.6666666666667</ele><time>2026-04-26T15:11:18.583Z</time></trkpt><trkpt lat="46.0896354" lon="12.2574019"><ele>859.8333333333334</ele><time>2026-04-26T15:11:20.586Z</time></trkpt><trkpt lat="46.0896933" lon="12.2573384"><ele>860.0</ele><time>2026-04-26T15:11:27.587Z</time></trkpt><trkpt lat="46.0897574" lon="12.2572635"><ele>859.0000000000001</ele><time>2026-04-26T15:11:29.584Z</time></trkpt><trkpt lat="46.0898506" lon="12.2571643"><ele>858.0</ele><time>2026-04-26T15:11:31.592Z</time></trkpt><trkpt lat="46.0899022" lon="12.2570936"><ele>857.0</ele><time>2026-04-26T15:11:32.591Z</time></trkpt><trkpt lat="46.0899466" lon="12.2570085"><ele>856.0</ele><time>2026-04-26T15:11:33.598Z</time></trkpt><trkpt lat="46.0900011" lon="12.2569213"><ele>855.0000000000001</ele><time>2026-04-26T15:11:34.582Z</time></trkpt><trkpt lat="46.0900512" lon="12.25683"><ele>854.0</ele><time>2026-04-26T15:11:35.584Z</time></trkpt><trkpt lat="46.0900997" lon="12.2567395"><ele>854.0</ele><time>2026-04-26T15:11:36.582Z</time></trkpt><trkpt lat="46.0901432" lon="12.2566613"><ele>854.0000000000001</ele><time>2026-04-26T15:11:37.585Z</time></trkpt><trkpt lat="46.0902121" lon="12.2565116"><ele>854.0000000000001</ele><time>2026-04-26T15:11:39.593Z</time></trkpt><trkpt lat="46.0902579" lon="12.256447"><ele>854.0</ele><time>2026-04-26T15:11:40.594Z</time></trkpt><trkpt lat="46.0903564" lon="12.2563532"><ele>854.0</ele><time>2026-04-26T15:11:42.593Z</time></trkpt><trkpt lat="46.0904261" lon="12.2562409"><ele>851.6</ele><time>2026-04-26T15:11:44.583Z</time></trkpt><trkpt lat="46.0904204" lon="12.2560936"><ele>849.2</ele><time>2026-04-26T15:11:46.583Z</time></trkpt><trkpt lat="46.0903303" lon="12.2559846"><ele>846.8000000000001</ele><time>2026-04-26T15:11:48.583Z</time></trkpt><trkpt lat="46.0902532" lon="12.2558559"><ele>844.4000000000001</ele><time>2026-04-26T15:11:50.585Z</time></trkpt><trkpt lat="46.0902225" lon="12.2557131"><ele>842.0</ele><time>2026-04-26T15:11:52.586Z</time></trkpt><trkpt lat="46.0902713" lon="12.2555903"><ele>837.2</ele><time>2026-04-26T15:11:54.593Z</time></trkpt><trkpt lat="46.0903555" lon="12.2555162"><ele>832.4000000000001</ele><time>2026-04-26T15:11:56.584Z</time></trkpt><trkpt lat="46.0904394" lon="12.2554874"><ele>827.5999999999999</ele><time>2026-04-26T15:11:58.582Z</time></trkpt><trkpt lat="46.0905104" lon="12.2554405"><ele>822.8</ele><time>2026-04-26T15:11:59.609Z</time></trkpt><trkpt lat="46.0905671" lon="12.2553929"><ele>818.0</ele><time>2026-04-26T15:12:00.597Z</time></trkpt><trkpt lat="46.0906518" lon="12.2552625"><ele>819.8</ele><time>2026-04-26T15:12:02.586Z</time></trkpt><trkpt lat="46.0907612" lon="12.2551795"><ele>821.5999999999999</ele><time>2026-04-26T15:12:04.591Z</time></trkpt><trkpt lat="46.09086" lon="12.255118"><ele>823.4000000000001</ele><time>2026-04-26T15:12:06.598Z</time></trkpt><trkpt lat="46.0909411" lon="12.2550447"><ele>825.2</ele><time>2026-04-26T15:12:08.584Z</time></trkpt><trkpt lat="46.0909416" lon="12.2548954"><ele>827.0</ele><time>2026-04-26T15:12:10.583Z</time></trkpt><trkpt lat="46.0909093" lon="12.2547563"><ele>823.0</ele><time>2026-04-26T15:12:12.581Z</time></trkpt><trkpt lat="46.0908657" lon="12.2546322"><ele>819.0</ele><time>2026-04-26T15:12:14.584Z</time></trkpt><trkpt lat="46.090849" lon="12.2545159"><ele>815.0</ele><time>2026-04-26T15:12:16.595Z</time></trkpt><trkpt lat="46.0908728" lon="12.2543831"><ele>811.0</ele><time>2026-04-26T15:12:18.584Z</time></trkpt><trkpt lat="46.090924" lon="12.2542598"><ele>807.0</ele><time>2026-04-26T15:12:20.597Z</time></trkpt><trkpt lat="46.0909277" lon="12.2541457"><ele>807.0</ele><time>2026-04-26T15:12:22.585Z</time></trkpt><trkpt lat="46.0908771" lon="12.2540839"><ele>807.0</ele><time>2026-04-26T15:12:24.591Z</time></trkpt><trkpt lat="46.0908037" lon="12.2540297"><ele>807.0</ele><time>2026-04-26T15:12:26.586Z</time></trkpt><trkpt lat="46.0907076" lon="12.2540055"><ele>807.0</ele><time>2026-04-26T15:12:28.587Z</time></trkpt><trkpt lat="46.0906205" lon="12.2540085"><ele>807.0</ele><time>2026-04-26T15:12:30.595Z</time></trkpt><trkpt lat="46.0905194" lon="12.2540268"><ele>807.0</ele><time>2026-04-26T15:12:32.591Z</time></trkpt><trkpt lat="46.0904243" lon="12.2540073"><ele>804.0</ele><time>2026-04-26T15:12:34.586Z</time></trkpt><trkpt lat="46.0903168" lon="12.2539857"><ele>801.0</ele><time>2026-04-26T15:12:36.597Z</time></trkpt><trkpt lat="46.0902068" lon="12.2539865"><ele>798.0</ele><time>2026-04-26T15:12:38.594Z</time></trkpt><trkpt lat="46.0901042" lon="12.2539712"><ele>795.0</ele><time>2026-04-26T15:12:40.589Z</time></trkpt><trkpt lat="46.0900064" lon="12.2539989"><ele>792.0</ele><time>2026-04-26T15:12:42.587Z</time></trkpt><trkpt lat="46.089912" lon="12.25407"><ele>786.6</ele><time>2026-04-26T15:12:44.587Z</time></trkpt><trkpt lat="46.0898326" lon="12.2541439"><ele>781.2</ele><time>2026-04-26T15:12:46.594Z</time></trkpt><trkpt lat="46.0897472" lon="12.2542219"><ele>775.8</ele><time>2026-04-26T15:12:48.6Z</time></trkpt><trkpt lat="46.089652" lon="12.2543034"><ele>770.4</ele><time>2026-04-26T15:12:50.587Z</time></trkpt><trkpt lat="46.0895579" lon="12.2543776"><ele>765.0</ele><time>2026-04-26T15:12:52.595Z</time></trkpt><trkpt lat="46.0894609" lon="12.2544626"><ele>765.0</ele><time>2026-04-26T15:12:54.593Z</time></trkpt><trkpt lat="46.0893564" lon="12.2545502"><ele>765.0</ele><time>2026-04-26T15:12:56.589Z</time></trkpt><trkpt lat="46.0892641" lon="12.2545986"><ele>765.0</ele><time>2026-04-26T15:12:58.587Z</time></trkpt><trkpt lat="46.0892029" lon="12.2546393"><ele>765.0</ele><time>2026-04-26T15:12:59.59Z</time></trkpt><trkpt lat="46.0891387" lon="12.2546601"><ele>765.0</ele><time>2026-04-26T15:13:00.593Z</time></trkpt><trkpt lat="46.0890266" lon="12.2546936"><ele>762.8</ele><time>2026-04-26T15:13:02.597Z</time></trkpt><trkpt lat="46.0889164" lon="12.2547427"><ele>760.6</ele><time>2026-04-26T15:13:04.586Z</time></trkpt><trkpt lat="46.0888191" lon="12.2548097"><ele>758.4000000000001</ele><time>2026-04-26T15:13:06.597Z</time></trkpt><trkpt lat="46.0887275" lon="12.2548909"><ele>756.2</ele><time>2026-04-26T15:13:08.598Z</time></trkpt><trkpt lat="46.0886522" lon="12.2549853"><ele>754.0</ele><time>2026-04-26T15:13:10.597Z</time></trkpt><trkpt lat="46.0885611" lon="12.2551"><ele>754.0</ele><time>2026-04-26T15:13:12.592Z</time></trkpt><trkpt lat="46.0885035" lon="12.2551555"><ele>754.0</ele><time>2026-04-26T15:13:13.586Z</time></trkpt><trkpt lat="46.0884446" lon="12.2552082"><ele>754.0</ele><time>2026-04-26T15:13:14.585Z</time></trkpt><trkpt lat="46.0883509" lon="12.2552974"><ele>754.0</ele><time>2026-04-26T15:13:16.584Z</time></trkpt><trkpt lat="46.0882637" lon="12.2554154"><ele>754.0</ele><time>2026-04-26T15:13:18.584Z</time></trkpt><trkpt lat="46.0881876" lon="12.2555347"><ele>751.8000000000001</ele><time>2026-04-26T15:13:20.589Z</time></trkpt><trkpt lat="46.0881335" lon="12.2555885"><ele>749.6</ele><time>2026-04-26T15:13:21.59Z</time></trkpt><trkpt lat="46.0880363" lon="12.2556611"><ele>747.4</ele><time>2026-04-26T15:13:23.586Z</time></trkpt><trkpt lat="46.0879232" lon="12.2557246"><ele>745.2</ele><time>2026-04-26T15:13:25.586Z</time></trkpt><trkpt lat="46.0878169" lon="12.2557627"><ele>743.0</ele><time>2026-04-26T15:13:27.583Z</time></trkpt><trkpt lat="46.0877389" lon="12.2558444"><ele>743.0</ele><time>2026-04-26T15:13:29.585Z</time></trkpt><trkpt lat="46.0876795" lon="12.255907"><ele>743.0</ele><time>2026-04-26T15:13:31.583Z</time></trkpt><trkpt lat="46.0876676" lon="12.2558066"><ele>743.0</ele><time>2026-04-26T15:14:29.582Z</time></trkpt><trkpt lat="46.0877118" lon="12.2556941"><ele>743.0</ele><time>2026-04-26T15:14:32.583Z</time></trkpt><trkpt lat="46.0877791" lon="12.2555895"><ele>743.0</ele><time>2026-04-26T15:14:35.587Z</time></trkpt><trkpt lat="46.0878311" lon="12.2555074"><ele>743.0</ele><time>2026-04-26T15:14:37.585Z</time></trkpt><trkpt lat="46.0878962" lon="12.2554178"><ele>737.5999999999999</ele><time>2026-04-26T15:14:39.586Z</time></trkpt><trkpt lat="46.087965" lon="12.2553116"><ele>732.1999999999999</ele><time>2026-04-26T15:14:41.596Z</time></trkpt><trkpt lat="46.088027" lon="12.2551825"><ele>726.8</ele><time>2026-04-26T15:14:43.585Z</time></trkpt><trkpt lat="46.088072" lon="12.255024"><ele>721.4</ele><time>2026-04-26T15:14:45.584Z</time></trkpt><trkpt lat="46.0880958" lon="12.2549319"><ele>716.0</ele><time>2026-04-26T15:14:46.584Z</time></trkpt><trkpt lat="46.0881221" lon="12.2548441"><ele>714.4</ele><time>2026-04-26T15:14:47.589Z</time></trkpt><trkpt lat="46.0881432" lon="12.2547545"><ele>712.8</ele><time>2026-04-26T15:14:48.592Z</time></trkpt><trkpt lat="46.0881843" lon="12.2546838"><ele>711.1999999999999</ele><time>2026-04-26T15:14:49.594Z</time></trkpt><trkpt lat="46.0882314" lon="12.2545146"><ele>709.5999999999999</ele><time>2026-04-26T15:14:51.596Z</time></trkpt><trkpt lat="46.0882124" lon="12.2543627"><ele>708.0</ele><time>2026-04-26T15:14:53.594Z</time></trkpt><trkpt lat="46.0881647" lon="12.2542483"><ele>708.0</ele><time>2026-04-26T15:14:55.584Z</time></trkpt><trkpt lat="46.0881297" lon="12.2541267"><ele>708.0</ele><time>2026-04-26T15:14:57.581Z</time></trkpt><trkpt lat="46.0880892" lon="12.2540336"><ele>708.0</ele><time>2026-04-26T15:14:59.588Z</time></trkpt><trkpt lat="46.0880446" lon="12.2539525"><ele>708.0</ele><time>2026-04-26T15:15:02.584Z</time></trkpt><trkpt lat="46.0880039" lon="12.2538813"><ele>708.0</ele><time>2026-04-26T15:15:05.595Z</time></trkpt><trkpt lat="46.088017" lon="12.2537899"><ele>708.0</ele><time>2026-04-26T15:15:08.593Z</time></trkpt><trkpt lat="46.0880581" lon="12.2537023"><ele>708.0</ele><time>2026-04-26T15:15:11.588Z</time></trkpt><trkpt lat="46.0881063" lon="12.2536303"><ele>709.5</ele><time>2026-04-26T15:15:13.588Z</time></trkpt><trkpt lat="46.0881562" lon="12.2535583"><ele>711.0</ele><time>2026-04-26T15:15:15.587Z</time></trkpt><trkpt lat="46.0882063" lon="12.2534912"><ele>712.5</ele><time>2026-04-26T15:15:17.585Z</time></trkpt><trkpt lat="46.088253" lon="12.2534253"><ele>714.0</ele><time>2026-04-26T15:15:19.585Z</time></trkpt><trkpt lat="46.0883163" lon="12.2533403"><ele>715.5</ele><time>2026-04-26T15:15:22.591Z</time></trkpt><trkpt lat="46.0883761" lon="12.2532728"><ele>717.0</ele><time>2026-04-26T15:15:24.587Z</time></trkpt><trkpt lat="46.0884597" lon="12.253203"><ele>717.8</ele><time>2026-04-26T15:15:26.585Z</time></trkpt><trkpt lat="46.0885518" lon="12.2531023"><ele>718.6</ele><time>2026-04-26T15:15:28.585Z</time></trkpt><trkpt lat="46.0886219" lon="12.2529966"><ele>719.4</ele><time>2026-04-26T15:15:30.584Z</time></trkpt><trkpt lat="46.0886745" lon="12.2528531"><ele>720.1999999999999</ele><time>2026-04-26T15:15:32.586Z</time></trkpt><trkpt lat="46.0886931" lon="12.2527634"><ele>721.0</ele><time>2026-04-26T15:15:33.585Z</time></trkpt><trkpt lat="46.0886964" lon="12.2526653"><ele>721.0</ele><time>2026-04-26T15:15:34.584Z</time></trkpt><trkpt lat="46.0887014" lon="12.2525724"><ele>721.0</ele><time>2026-04-26T15:15:35.592Z</time></trkpt><trkpt lat="46.0887037" lon="12.2524049"><ele>721.0</ele><time>2026-04-26T15:15:37.592Z</time></trkpt><trkpt lat="46.0887551" lon="12.2522622"><ele>721.0</ele><time>2026-04-26T15:15:39.592Z</time></trkpt><trkpt lat="46.0888065" lon="12.2521992"><ele>721.0</ele><time>2026-04-26T15:15:40.621Z</time></trkpt><trkpt lat="46.0888898" lon="12.2521558"><ele>721.0</ele><time>2026-04-26T15:15:41.617Z</time></trkpt><trkpt lat="46.0889685" lon="12.2521052"><ele>719.3333333333334</ele><time>2026-04-26T15:15:42.595Z</time></trkpt><trkpt lat="46.0890277" lon="12.2520297"><ele>717.6666666666667</ele><time>2026-04-26T15:15:43.586Z</time></trkpt><trkpt lat="46.0890937" lon="12.2519454"><ele>716.0</ele><time>2026-04-26T15:15:44.595Z</time></trkpt><trkpt lat="46.0891505" lon="12.2518469"><ele>714.3333333333334</ele><time>2026-04-26T15:15:45.594Z</time></trkpt><trkpt lat="46.0892036" lon="12.2517572"><ele>712.6666666666666</ele><time>2026-04-26T15:15:46.585Z</time></trkpt><trkpt lat="46.089252" lon="12.2516602"><ele>711.0</ele><time>2026-04-26T15:15:47.594Z</time></trkpt><trkpt lat="46.0892929" lon="12.2515676"><ele>711.0</ele><time>2026-04-26T15:15:48.593Z</time></trkpt><trkpt lat="46.0893305" lon="12.2514726"><ele>711.0</ele><time>2026-04-26T15:15:49.585Z</time></trkpt><trkpt lat="46.0893684" lon="12.2513841"><ele>711.0</ele><time>2026-04-26T15:15:50.587Z</time></trkpt><trkpt lat="46.0894021" lon="12.2512952"><ele>711.0</ele><time>2026-04-26T15:15:51.611Z</time></trkpt><trkpt lat="46.0894718" lon="12.2511716"><ele>711.0</ele><time>2026-04-26T15:15:53.594Z</time></trkpt><trkpt lat="46.0895967" lon="12.2511242"><ele>708.4</ele><time>2026-04-26T15:15:55.586Z</time></trkpt><trkpt lat="46.0896668" lon="12.251111"><ele>705.8</ele><time>2026-04-26T15:15:56.593Z</time></trkpt><trkpt lat="46.0897311" lon="12.2510826"><ele>703.1999999999999</ele><time>2026-04-26T15:15:57.587Z</time></trkpt><trkpt lat="46.0898176" lon="12.2509625"><ele>700.5999999999999</ele><time>2026-04-26T15:15:59.621Z</time></trkpt><trkpt lat="46.0898737" lon="12.2508466"><ele>698.0</ele><time>2026-04-26T15:16:01.593Z</time></trkpt><trkpt lat="46.0899509" lon="12.2507479"><ele>698.0</ele><time>2026-04-26T15:16:03.595Z</time></trkpt><trkpt lat="46.0900265" lon="12.2506391"><ele>698.0</ele><time>2026-04-26T15:16:05.588Z</time></trkpt><trkpt lat="46.0900945" lon="12.2505075"><ele>698.0</ele><time>2026-04-26T15:16:07.596Z</time></trkpt><trkpt lat="46.0901391" lon="12.2504228"><ele>698.0</ele><time>2026-04-26T15:16:08.601Z</time></trkpt><trkpt lat="46.0901797" lon="12.2503484"><ele>698.0</ele><time>2026-04-26T15:16:09.597Z</time></trkpt><trkpt lat="46.0902585" lon="12.2502085"><ele>693.6666666666666</ele><time>2026-04-26T15:16:11.598Z</time></trkpt><trkpt lat="46.0903052" lon="12.2501368"><ele>689.3333333333333</ele><time>2026-04-26T15:16:12.594Z</time></trkpt><trkpt lat="46.0903529" lon="12.2500768"><ele>685.0</ele><time>2026-04-26T15:16:13.586Z</time></trkpt><trkpt lat="46.0904361" lon="12.2500011"><ele>680.6666666666666</ele><time>2026-04-26T15:16:15.593Z</time></trkpt><trkpt lat="46.0905428" lon="12.2499596"><ele>676.3333333333334</ele><time>2026-04-26T15:16:17.62Z</time></trkpt><trkpt lat="46.0906112" lon="12.2499619"><ele>672.0</ele><time>2026-04-26T15:16:18.594Z</time></trkpt><trkpt lat="46.0906843" lon="12.249959"><ele>670.6</ele><time>2026-04-26T15:16:19.586Z</time></trkpt><trkpt lat="46.0907628" lon="12.2499431"><ele>669.2</ele><time>2026-04-26T15:16:20.588Z</time></trkpt><trkpt lat="46.0908407" lon="12.2499117"><ele>667.8</ele><time>2026-04-26T15:16:21.583Z</time></trkpt><trkpt lat="46.0909068" lon="12.2498659"><ele>666.4</ele><time>2026-04-26T15:16:22.581Z</time></trkpt><trkpt lat="46.0909992" lon="12.249763"><ele>665.0</ele><time>2026-04-26T15:16:24.583Z</time></trkpt><trkpt lat="46.0910495" lon="12.2496134"><ele>665.0</ele><time>2026-04-26T15:16:26.586Z</time></trkpt><trkpt lat="46.0910577" lon="12.2495156"><ele>665.0</ele><time>2026-04-26T15:16:27.595Z</time></trkpt><trkpt lat="46.0910743" lon="12.24933"><ele>665.0</ele><time>2026-04-26T15:16:29.593Z</time></trkpt><trkpt lat="46.0910755" lon="12.2492256"><ele>665.0</ele><time>2026-04-26T15:16:30.591Z</time></trkpt><trkpt lat="46.091051" lon="12.2491217"><ele>665.0</ele><time>2026-04-26T15:16:31.589Z</time></trkpt><trkpt lat="46.0910305" lon="12.2490323"><ele>665.0</ele><time>2026-04-26T15:16:32.586Z</time></trkpt><trkpt lat="46.0909864" lon="12.2488856"><ele>665.0</ele><time>2026-04-26T15:16:34.595Z</time></trkpt><trkpt lat="46.0909315" lon="12.2487889"><ele>665.0</ele><time>2026-04-26T15:16:36.594Z</time></trkpt><trkpt lat="46.0908499" lon="12.2488474"><ele>665.0</ele><time>2026-04-26T15:16:39.583Z</time></trkpt><trkpt lat="46.0908113" lon="12.2489676"><ele>665.0</ele><time>2026-04-26T15:16:41.613Z</time></trkpt><trkpt lat="46.0907612" lon="12.2491341"><ele>665.0</ele><time>2026-04-26T15:16:43.585Z</time></trkpt><trkpt lat="46.0906698" lon="12.2491932"><ele>661.8</ele><time>2026-04-26T15:16:45.585Z</time></trkpt><trkpt lat="46.0906045" lon="12.2491179"><ele>658.6</ele><time>2026-04-26T15:16:47.587Z</time></trkpt><trkpt lat="46.0906018" lon="12.2490031"><ele>655.4000000000001</ele><time>2026-04-26T15:16:49.589Z</time></trkpt><trkpt lat="46.0906509" lon="12.2488824"><ele>652.2</ele><time>2026-04-26T15:16:51.581Z</time></trkpt><trkpt lat="46.0906831" lon="12.2487247"><ele>649.0</ele><time>2026-04-26T15:16:53.585Z</time></trkpt><trkpt lat="46.0906566" lon="12.2485748"><ele>646.3333333333334</ele><time>2026-04-26T15:16:55.586Z</time></trkpt><trkpt lat="46.0906137" lon="12.2485081"><ele>643.6666666666667</ele><time>2026-04-26T15:16:56.594Z</time></trkpt><trkpt lat="46.0905717" lon="12.248436"><ele>641.0</ele><time>2026-04-26T15:16:57.586Z</time></trkpt><trkpt lat="46.090545" lon="12.2483508"><ele>638.3333333333334</ele><time>2026-04-26T15:16:58.595Z</time></trkpt><trkpt lat="46.0905079" lon="12.2482609"><ele>635.6666666666666</ele><time>2026-04-26T15:16:59.586Z</time></trkpt><trkpt lat="46.0904454" lon="12.2480863"><ele>633.0</ele><time>2026-04-26T15:17:01.586Z</time></trkpt><trkpt lat="46.0904148" lon="12.248003"><ele>633.0</ele><time>2026-04-26T15:17:02.587Z</time></trkpt><trkpt lat="46.0903379" lon="12.2478771"><ele>633.0</ele><time>2026-04-26T15:17:04.586Z</time></trkpt><trkpt lat="46.0902456" lon="12.2478655"><ele>633.0</ele><time>2026-04-26T15:17:06.593Z</time></trkpt><trkpt lat="46.0902016" lon="12.2479694"><ele>633.0</ele><time>2026-04-26T15:17:08.584Z</time></trkpt><trkpt lat="46.0902094" lon="12.2481032"><ele>633.0</ele><time>2026-04-26T15:17:10.61Z</time></trkpt><trkpt lat="46.0902004" lon="12.2482014"><ele>633.0</ele><time>2026-04-26T15:17:12.592Z</time></trkpt><trkpt lat="46.0901459" lon="12.2481437"><ele>633.0</ele><time>2026-04-26T15:18:36.582Z</time></trkpt><trkpt lat="46.090089" lon="12.2480323"><ele>633.0</ele><time>2026-04-26T15:18:40.587Z</time></trkpt><trkpt lat="46.0900943" lon="12.2479178"><ele>633.0</ele><time>2026-04-26T15:18:42.585Z</time></trkpt><trkpt lat="46.0901005" lon="12.2477799"><ele>633.0</ele><time>2026-04-26T15:18:44.593Z</time></trkpt><trkpt lat="46.0900973" lon="12.2476852"><ele>633.0</ele><time>2026-04-26T15:18:45.61Z</time></trkpt><trkpt lat="46.0901033" lon="12.2475944"><ele>631.4</ele><time>2026-04-26T15:18:46.597Z</time></trkpt><trkpt lat="46.0901239" lon="12.2474549"><ele>629.8</ele><time>2026-04-26T15:18:48.593Z</time></trkpt><trkpt lat="46.0902048" lon="12.2473725"><ele>628.2</ele><time>2026-04-26T15:18:50.593Z</time></trkpt><trkpt lat="46.0903088" lon="12.2473015"><ele>626.6</ele><time>2026-04-26T15:18:52.594Z</time></trkpt><trkpt lat="46.0903733" lon="12.2471824"><ele>625.0</ele><time>2026-04-26T15:18:54.594Z</time></trkpt><trkpt lat="46.0904016" lon="12.2470309"><ele>622.6</ele><time>2026-04-26T15:18:56.695Z</time></trkpt><trkpt lat="46.0904274" lon="12.2468722"><ele>620.2</ele><time>2026-04-26T15:18:58.59Z</time></trkpt><trkpt lat="46.0904306" lon="12.2467737"><ele>617.8</ele><time>2026-04-26T15:18:59.602Z</time></trkpt><trkpt lat="46.0904392" lon="12.2466771"><ele>615.4</ele><time>2026-04-26T15:19:00.596Z</time></trkpt><trkpt lat="46.0904424" lon="12.2464758"><ele>613.0</ele><time>2026-04-26T15:19:02.597Z</time></trkpt><trkpt lat="46.0904348" lon="12.2463612"><ele>611.5714285714286</ele><time>2026-04-26T15:19:03.585Z</time></trkpt><trkpt lat="46.0904387" lon="12.2462623"><ele>610.1428571428571</ele><time>2026-04-26T15:19:04.592Z</time></trkpt><trkpt lat="46.0904322" lon="12.2461284"><ele>608.7142857142858</ele><time>2026-04-26T15:19:06.594Z</time></trkpt><trkpt lat="46.0903746" lon="12.246078"><ele>607.2857142857142</ele><time>2026-04-26T15:19:11.597Z</time></trkpt><trkpt lat="46.0903082" lon="12.2460487"><ele>605.8571428571428</ele><time>2026-04-26T15:19:29.596Z</time></trkpt><trkpt lat="46.0902652" lon="12.2459751"><ele>604.4285714285714</ele><time>2026-04-26T15:19:31.588Z</time></trkpt><trkpt lat="46.0902263" lon="12.245884"><ele>603.0</ele><time>2026-04-26T15:19:34.596Z</time></trkpt><trkpt lat="46.0901618" lon="12.2457996"><ele>603.0</ele><time>2026-04-26T15:19:37.593Z</time></trkpt><trkpt lat="46.0901106" lon="12.2457051"><ele>603.0</ele><time>2026-04-26T15:19:39.596Z</time></trkpt><trkpt lat="46.0900676" lon="12.2455909"><ele>603.0</ele><time>2026-04-26T15:19:41.595Z</time></trkpt><trkpt lat="46.0900541" lon="12.2454511"><ele>603.0</ele><time>2026-04-26T15:19:43.594Z</time></trkpt><trkpt lat="46.0900664" lon="12.2453272"><ele>603.0</ele><time>2026-04-26T15:19:45.6Z</time></trkpt><trkpt lat="46.0900542" lon="12.2452057"><ele>603.0</ele><time>2026-04-26T15:19:47.596Z</time></trkpt><trkpt lat="46.0900178" lon="12.2450872"><ele>602.3333333333334</ele><time>2026-04-26T15:19:49.594Z</time></trkpt><trkpt lat="46.0900026" lon="12.2449667"><ele>601.6666666666666</ele><time>2026-04-26T15:19:51.594Z</time></trkpt><trkpt lat="46.0900154" lon="12.2448436"><ele>601.0</ele><time>2026-04-26T15:19:53.593Z</time></trkpt><trkpt lat="46.090041" lon="12.2447349"><ele>600.3333333333333</ele><time>2026-04-26T15:19:55.597Z</time></trkpt><trkpt lat="46.0899996" lon="12.2446408"><ele>599.6666666666666</ele><time>2026-04-26T15:20:10.596Z</time></trkpt><trkpt lat="46.0899403" lon="12.2445855"><ele>599.0</ele><time>2026-04-26T15:20:13.595Z</time></trkpt><trkpt lat="46.0898698" lon="12.2445085"><ele>597.0</ele><time>2026-04-26T15:20:16.594Z</time></trkpt><trkpt lat="46.0897991" lon="12.2444244"><ele>595.0</ele><time>2026-04-26T15:20:19.594Z</time></trkpt><trkpt lat="46.0897444" lon="12.2443206"><ele>593.0</ele><time>2026-04-26T15:20:22.596Z</time></trkpt><trkpt lat="46.0897195" lon="12.2442008"><ele>591.0</ele><time>2026-04-26T15:20:25.595Z</time></trkpt><trkpt lat="46.0897121" lon="12.2441103"><ele>589.0</ele><time>2026-04-26T15:20:28.595Z</time></trkpt><trkpt lat="46.0897341" lon="12.2440221"><ele>587.0</ele><time>2026-04-26T15:21:00.594Z</time></trkpt><trkpt lat="46.0897537" lon="12.2438868"><ele>586.3333333333333</ele><time>2026-04-26T15:21:02.596Z</time></trkpt><trkpt lat="46.0897895" lon="12.2437176"><ele>585.6666666666666</ele><time>2026-04-26T15:21:04.594Z</time></trkpt><trkpt lat="46.0898094" lon="12.2436197"><ele>585.0</ele><time>2026-04-26T15:21:05.594Z</time></trkpt><trkpt lat="46.0898291" lon="12.2435143"><ele>584.3333333333334</ele><time>2026-04-26T15:21:06.593Z</time></trkpt><trkpt lat="46.0898526" lon="12.2434025"><ele>583.6666666666667</ele><time>2026-04-26T15:21:07.588Z</time></trkpt><trkpt lat="46.0898748" lon="12.2432856"><ele>583.0</ele><time>2026-04-26T15:21:08.595Z</time></trkpt><trkpt lat="46.0898996" lon="12.2431663"><ele>582.5</ele><time>2026-04-26T15:21:09.594Z</time></trkpt><trkpt lat="46.0899248" lon="12.2430496"><ele>582.0</ele><time>2026-04-26T15:21:10.594Z</time></trkpt><trkpt lat="46.0899502" lon="12.2429319"><ele>581.5</ele><time>2026-04-26T15:21:11.594Z</time></trkpt><trkpt lat="46.0899776" lon="12.2428169"><ele>581.0</ele><time>2026-04-26T15:21:12.593Z</time></trkpt><trkpt lat="46.0900073" lon="12.2427015"><ele>580.5</ele><time>2026-04-26T15:21:13.596Z</time></trkpt><trkpt lat="46.0900403" lon="12.2425935"><ele>580.0</ele><time>2026-04-26T15:21:14.585Z</time></trkpt><trkpt lat="46.0900796" lon="12.2424908"><ele>579.4285714285714</ele><time>2026-04-26T15:21:15.596Z</time></trkpt><trkpt lat="46.0901249" lon="12.2423944"><ele>578.8571428571429</ele><time>2026-04-26T15:21:16.595Z</time></trkpt><trkpt lat="46.0901805" lon="12.2423192"><ele>578.2857142857143</ele><time>2026-04-26T15:21:17.586Z</time></trkpt><trkpt lat="46.0902313" lon="12.2422401"><ele>577.7142857142858</ele><time>2026-04-26T15:21:18.588Z</time></trkpt><trkpt lat="46.0902752" lon="12.2421579"><ele>577.1428571428571</ele><time>2026-04-26T15:21:19.584Z</time></trkpt><trkpt lat="46.0903128" lon="12.2420725"><ele>576.5714285714287</ele><time>2026-04-26T15:21:20.588Z</time></trkpt><trkpt lat="46.0903374" lon="12.241982"><ele>576.0</ele><time>2026-04-26T15:21:21.582Z</time></trkpt><trkpt lat="46.0903564" lon="12.2418928"><ele>575.6</ele><time>2026-04-26T15:21:22.586Z</time></trkpt><trkpt lat="46.0903674" lon="12.241801"><ele>575.2</ele><time>2026-04-26T15:21:23.596Z</time></trkpt><trkpt lat="46.0903757" lon="12.2416313"><ele>574.8</ele><time>2026-04-26T15:21:25.584Z</time></trkpt><trkpt lat="46.0903606" lon="12.2414608"><ele>574.4</ele><time>2026-04-26T15:21:27.586Z</time></trkpt><trkpt lat="46.090322" lon="12.2412907"><ele>574.0</ele><time>2026-04-26T15:21:29.584Z</time></trkpt><trkpt lat="46.090291" lon="12.2411353"><ele>574.0</ele><time>2026-04-26T15:21:31.585Z</time></trkpt><trkpt lat="46.0902612" lon="12.2409776"><ele>574.0</ele><time>2026-04-26T15:21:33.585Z</time></trkpt><trkpt lat="46.090269" lon="12.2408347"><ele>574.0</ele><time>2026-04-26T15:21:35.595Z</time></trkpt><trkpt lat="46.0902952" lon="12.2406979"><ele>574.0</ele><time>2026-04-26T15:21:37.606Z</time></trkpt><trkpt lat="46.0903424" lon="12.240565"><ele>574.0</ele><time>2026-04-26T15:21:39.586Z</time></trkpt><trkpt lat="46.0904024" lon="12.240428"><ele>572.5</ele><time>2026-04-26T15:21:41.591Z</time></trkpt><trkpt lat="46.0904861" lon="12.2403025"><ele>571.0</ele><time>2026-04-26T15:21:43.591Z</time></trkpt><trkpt lat="46.0905686" lon="12.2401868"><ele>569.5</ele><time>2026-04-26T15:21:45.593Z</time></trkpt><trkpt lat="46.0906512" lon="12.2400668"><ele>568.0</ele><time>2026-04-26T15:21:47.588Z</time></trkpt><trkpt lat="46.0907554" lon="12.2399594"><ele>568.4</ele><time>2026-04-26T15:21:49.594Z</time></trkpt><trkpt lat="46.09085" lon="12.2399023"><ele>568.8</ele><time>2026-04-26T15:21:51.594Z</time></trkpt><trkpt lat="46.0909499" lon="12.2399013"><ele>569.2</ele><time>2026-04-26T15:21:53.593Z</time></trkpt><trkpt lat="46.0910127" lon="12.2399427"><ele>569.6</ele><time>2026-04-26T15:21:54.588Z</time></trkpt><trkpt lat="46.091115" lon="12.2399345"><ele>570.0</ele><time>2026-04-26T15:21:56.595Z</time></trkpt><trkpt lat="46.0911928" lon="12.2398198"><ele>567.0</ele><time>2026-04-26T15:21:58.596Z</time></trkpt><trkpt lat="46.0912545" lon="12.2396709"><ele>564.0</ele><time>2026-04-26T15:22:00.593Z</time></trkpt><trkpt lat="46.0912837" lon="12.239588"><ele>561.0</ele><time>2026-04-26T15:22:01.587Z</time></trkpt><trkpt lat="46.0913168" lon="12.2395028"><ele>558.0</ele><time>2026-04-26T15:22:02.587Z</time></trkpt><trkpt lat="46.091355" lon="12.2394126"><ele>555.0</ele><time>2026-04-26T15:22:03.595Z</time></trkpt><trkpt lat="46.0913923" lon="12.2393293"><ele>552.0</ele><time>2026-04-26T15:22:04.617Z</time></trkpt><trkpt lat="46.0914458" lon="12.2392695"><ele>552.0</ele><time>2026-04-26T15:22:05.589Z</time></trkpt><trkpt lat="46.0915083" lon="12.2392292"><ele>552.0</ele><time>2026-04-26T15:22:06.587Z</time></trkpt><trkpt lat="46.0915711" lon="12.2391972"><ele>552.0</ele><time>2026-04-26T15:22:07.595Z</time></trkpt><trkpt lat="46.0916387" lon="12.2391669"><ele>552.0</ele><time>2026-04-26T15:22:08.588Z</time></trkpt><trkpt lat="46.0917" lon="12.2391259"><ele>552.0</ele><time>2026-04-26T15:22:09.585Z</time></trkpt><trkpt lat="46.091802" lon="12.239033"><ele>552.0</ele><time>2026-04-26T15:22:11.584Z</time></trkpt><trkpt lat="46.0918508" lon="12.2388985"><ele>548.6666666666666</ele><time>2026-04-26T15:22:13.586Z</time></trkpt><trkpt lat="46.091859" lon="12.2387232"><ele>545.3333333333334</ele><time>2026-04-26T15:22:15.583Z</time></trkpt><trkpt lat="46.0918447" lon="12.2386343"><ele>542.0</ele><time>2026-04-26T15:22:16.592Z</time></trkpt><trkpt lat="46.0918445" lon="12.2385322"><ele>538.6666666666667</ele><time>2026-04-26T15:22:17.6Z</time></trkpt><trkpt lat="46.0918652" lon="12.238427"><ele>535.3333333333334</ele><time>2026-04-26T15:22:18.588Z</time></trkpt><trkpt lat="46.0918943" lon="12.2383324"><ele>532.0</ele><time>2026-04-26T15:22:19.588Z</time></trkpt><trkpt lat="46.0919267" lon="12.2382369"><ele>532.0</ele><time>2026-04-26T15:22:20.597Z</time></trkpt><trkpt lat="46.0919642" lon="12.2381456"><ele>532.0</ele><time>2026-04-26T15:22:21.591Z</time></trkpt><trkpt lat="46.0920008" lon="12.2380598"><ele>532.0</ele><time>2026-04-26T15:22:22.589Z</time></trkpt><trkpt lat="46.0920285" lon="12.237967"><ele>532.0</ele><time>2026-04-26T15:22:23.599Z</time></trkpt><trkpt lat="46.0920329" lon="12.2378697"><ele>532.0</ele><time>2026-04-26T15:22:24.593Z</time></trkpt><trkpt lat="46.0920444" lon="12.2377739"><ele>532.0</ele><time>2026-04-26T15:22:25.592Z</time></trkpt><trkpt lat="46.0920184" lon="12.2376778"><ele>532.0</ele><time>2026-04-26T15:22:26.596Z</time></trkpt><trkpt lat="46.0919793" lon="12.2375715"><ele>529.8333333333334</ele><time>2026-04-26T15:22:27.595Z</time></trkpt><trkpt lat="46.0919379" lon="12.2374809"><ele>527.6666666666667</ele><time>2026-04-26T15:22:28.585Z</time></trkpt><trkpt lat="46.091873" lon="12.2373825"><ele>525.5</ele><time>2026-04-26T15:22:29.599Z</time></trkpt><trkpt lat="46.0918187" lon="12.237276"><ele>523.3333333333334</ele><time>2026-04-26T15:22:30.586Z</time></trkpt><trkpt lat="46.0917759" lon="12.2371581"><ele>521.1666666666666</ele><time>2026-04-26T15:22:31.593Z</time></trkpt><trkpt lat="46.0917461" lon="12.2370386"><ele>519.0</ele><time>2026-04-26T15:22:32.595Z</time></trkpt><trkpt lat="46.0917178" lon="12.2369201"><ele>517.8571428571429</ele><time>2026-04-26T15:22:33.589Z</time></trkpt><trkpt lat="46.0917157" lon="12.2368063"><ele>516.7142857142857</ele><time>2026-04-26T15:22:34.603Z</time></trkpt><trkpt lat="46.0917065" lon="12.2366949"><ele>515.5714285714286</ele><time>2026-04-26T15:22:35.595Z</time></trkpt><trkpt lat="46.091702" lon="12.2365822"><ele>514.4285714285714</ele><time>2026-04-26T15:22:36.69Z</time></trkpt><trkpt lat="46.0917118" lon="12.2364886"><ele>513.2857142857142</ele><time>2026-04-26T15:22:37.595Z</time></trkpt><trkpt lat="46.0917186" lon="12.236395"><ele>512.1428571428571</ele><time>2026-04-26T15:22:38.59Z</time></trkpt><trkpt lat="46.0917262" lon="12.2362877"><ele>511.0</ele><time>2026-04-26T15:22:39.586Z</time></trkpt><trkpt lat="46.0917345" lon="12.2361837"><ele>510.1666666666667</ele><time>2026-04-26T15:22:40.595Z</time></trkpt><trkpt lat="46.0917436" lon="12.2360817"><ele>509.33333333333337</ele><time>2026-04-26T15:22:41.59Z</time></trkpt><trkpt lat="46.091749" lon="12.2359732"><ele>508.5</ele><time>2026-04-26T15:22:42.583Z</time></trkpt><trkpt lat="46.0917595" lon="12.2358619"><ele>507.66666666666663</ele><time>2026-04-26T15:22:43.588Z</time></trkpt><trkpt lat="46.0917647" lon="12.2357477"><ele>506.8333333333333</ele><time>2026-04-26T15:22:44.586Z</time></trkpt><trkpt lat="46.0917718" lon="12.2356315"><ele>506.0</ele><time>2026-04-26T15:22:45.584Z</time></trkpt><trkpt lat="46.0917729" lon="12.2355174"><ele>504.8333333333333</ele><time>2026-04-26T15:22:46.582Z</time></trkpt><trkpt lat="46.0917731" lon="12.2354035"><ele>503.66666666666663</ele><time>2026-04-26T15:22:47.591Z</time></trkpt><trkpt lat="46.091771" lon="12.2352882"><ele>502.5</ele><time>2026-04-26T15:22:48.587Z</time></trkpt><trkpt lat="46.0917749" lon="12.2351733"><ele>501.33333333333337</ele><time>2026-04-26T15:22:49.592Z</time></trkpt><trkpt lat="46.0917752" lon="12.2350599"><ele>500.1666666666667</ele><time>2026-04-26T15:22:50.599Z</time></trkpt><trkpt lat="46.0917739" lon="12.2349436"><ele>499.0</ele><time>2026-04-26T15:22:51.594Z</time></trkpt><trkpt lat="46.0917715" lon="12.2348199"><ele>498.33333333333337</ele><time>2026-04-26T15:22:52.597Z</time></trkpt><trkpt lat="46.0917593" lon="12.2347003"><ele>497.6666666666667</ele><time>2026-04-26T15:22:53.594Z</time></trkpt><trkpt lat="46.0917423" lon="12.2345856"><ele>497.0</ele><time>2026-04-26T15:22:54.595Z</time></trkpt><trkpt lat="46.0917214" lon="12.2344612"><ele>496.33333333333337</ele><time>2026-04-26T15:22:55.592Z</time></trkpt><trkpt lat="46.0917077" lon="12.2343323"><ele>495.6666666666667</ele><time>2026-04-26T15:22:56.591Z</time></trkpt><trkpt lat="46.0916979" lon="12.2342011"><ele>495.0</ele><time>2026-04-26T15:22:57.593Z</time></trkpt><trkpt lat="46.0917041" lon="12.2340822"><ele>495.0</ele><time>2026-04-26T15:22:58.593Z</time></trkpt><trkpt lat="46.091703" lon="12.2339729"><ele>495.0</ele><time>2026-04-26T15:22:59.593Z</time></trkpt><trkpt lat="46.0917125" lon="12.2338786"><ele>495.0</ele><time>2026-04-26T15:23:00.618Z</time></trkpt><trkpt lat="46.0917755" lon="12.2337211"><ele>495.0</ele><time>2026-04-26T15:23:02.6Z</time></trkpt><trkpt lat="46.0918184" lon="12.2336438"><ele>495.0</ele><time>2026-04-26T15:23:03.595Z</time></trkpt><trkpt lat="46.0918611" lon="12.2334972"><ele>495.0</ele><time>2026-04-26T15:23:05.586Z</time></trkpt><trkpt lat="46.0917906" lon="12.2334071"><ele>491.75</ele><time>2026-04-26T15:23:07.587Z</time></trkpt><trkpt lat="46.0916911" lon="12.2334235"><ele>488.5</ele><time>2026-04-26T15:23:09.587Z</time></trkpt><trkpt lat="46.0916037" lon="12.2335165"><ele>485.25</ele><time>2026-04-26T15:23:11.585Z</time></trkpt><trkpt lat="46.091554" lon="12.2336722"><ele>482.0</ele><time>2026-04-26T15:23:13.586Z</time></trkpt><trkpt lat="46.0915143" lon="12.2338431"><ele>478.66666666666663</ele><time>2026-04-26T15:23:15.587Z</time></trkpt><trkpt lat="46.0915043" lon="12.2339447"><ele>475.3333333333333</ele><time>2026-04-26T15:23:16.587Z</time></trkpt><trkpt lat="46.0914961" lon="12.2340519"><ele>472.0</ele><time>2026-04-26T15:23:17.587Z</time></trkpt><trkpt lat="46.0914671" lon="12.2341612"><ele>468.66666666666663</ele><time>2026-04-26T15:23:18.586Z</time></trkpt><trkpt lat="46.0914415" lon="12.2342688"><ele>465.3333333333333</ele><time>2026-04-26T15:23:19.587Z</time></trkpt><trkpt lat="46.0914356" lon="12.2343954"><ele>462.0</ele><time>2026-04-26T15:23:20.585Z</time></trkpt><trkpt lat="46.0914273" lon="12.2345188"><ele>462.0</ele><time>2026-04-26T15:23:21.59Z</time></trkpt><trkpt lat="46.0914186" lon="12.2346281"><ele>462.0</ele><time>2026-04-26T15:23:22.589Z</time></trkpt><trkpt lat="46.0914022" lon="12.2347255"><ele>462.0</ele><time>2026-04-26T15:23:23.585Z</time></trkpt><trkpt lat="46.0913586" lon="12.2348213"><ele>462.0</ele><time>2026-04-26T15:23:24.589Z</time></trkpt><trkpt lat="46.0913011" lon="12.2348747"><ele>462.0</ele><time>2026-04-26T15:23:25.586Z</time></trkpt><trkpt lat="46.0912603" lon="12.2349556"><ele>462.0</ele><time>2026-04-26T15:23:26.588Z</time></trkpt><trkpt lat="46.0912307" lon="12.2350437"><ele>462.0</ele><time>2026-04-26T15:23:27.588Z</time></trkpt><trkpt lat="46.0911817" lon="12.2351693"><ele>462.0</ele><time>2026-04-26T15:23:29.586Z</time></trkpt><trkpt lat="46.0911023" lon="12.2351313"><ele>462.0</ele><time>2026-04-26T15:23:31.592Z</time></trkpt><trkpt lat="46.0911075" lon="12.234981"><ele>462.0</ele><time>2026-04-26T15:23:33.593Z</time></trkpt><trkpt lat="46.0911146" lon="12.2348815"><ele>462.0</ele><time>2026-04-26T15:23:34.595Z</time></trkpt><trkpt lat="46.0911227" lon="12.2347664"><ele>462.0</ele><time>2026-04-26T15:23:35.586Z</time></trkpt><trkpt lat="46.0911436" lon="12.2346747"><ele>462.0</ele><time>2026-04-26T15:23:36.585Z</time></trkpt><trkpt lat="46.0911569" lon="12.2345417"><ele>462.0</ele><time>2026-04-26T15:23:38.588Z</time></trkpt><trkpt lat="46.0910688" lon="12.2345232"><ele>462.0</ele><time>2026-04-26T15:23:40.588Z</time></trkpt><trkpt lat="46.0910085" lon="12.2345578"><ele>462.0</ele><time>2026-04-26T15:23:41.585Z</time></trkpt><trkpt lat="46.0909287" lon="12.2345562"><ele>462.0</ele><time>2026-04-26T15:23:42.59Z</time></trkpt><trkpt lat="46.0908583" lon="12.2345058"><ele>462.0</ele><time>2026-04-26T15:23:43.586Z</time></trkpt><trkpt lat="46.090792" lon="12.2344239"><ele>462.0</ele><time>2026-04-26T15:23:44.586Z</time></trkpt><trkpt lat="46.090742" lon="12.2343352"><ele>458.6666666666667</ele><time>2026-04-26T15:23:45.586Z</time></trkpt><trkpt lat="46.0906906" lon="12.2342618"><ele>455.33333333333337</ele><time>2026-04-26T15:23:46.588Z</time></trkpt><trkpt lat="46.0906284" lon="12.2342162"><ele>452.0</ele><time>2026-04-26T15:23:47.586Z</time></trkpt><trkpt lat="46.0905056" lon="12.2341987"><ele>448.6666666666667</ele><time>2026-04-26T15:23:49.585Z</time></trkpt><trkpt lat="46.0904266" lon="12.2342201"><ele>445.33333333333337</ele><time>2026-04-26T15:23:50.585Z</time></trkpt><trkpt lat="46.0903428" lon="12.2342536"><ele>442.0</ele><time>2026-04-26T15:23:51.586Z</time></trkpt><trkpt lat="46.0902521" lon="12.234295"><ele>442.00000000000006</ele><time>2026-04-26T15:23:52.594Z</time></trkpt><trkpt lat="46.0901644" lon="12.2343303"><ele>442.0</ele><time>2026-04-26T15:23:53.585Z</time></trkpt><trkpt lat="46.0900889" lon="12.2343496"><ele>442.0</ele><time>2026-04-26T15:23:54.587Z</time></trkpt><trkpt lat="46.0900182" lon="12.2343766"><ele>442.0</ele><time>2026-04-26T15:23:55.586Z</time></trkpt><trkpt lat="46.0899617" lon="12.2344193"><ele>442.00000000000006</ele><time>2026-04-26T15:23:56.586Z</time></trkpt><trkpt lat="46.089898" lon="12.234555"><ele>442.0</ele><time>2026-04-26T15:23:58.587Z</time></trkpt><trkpt lat="46.0898309" lon="12.2346206"><ele>440.20000000000005</ele><time>2026-04-26T15:24:00.591Z</time></trkpt><trkpt lat="46.0897791" lon="12.2344855"><ele>438.40000000000003</ele><time>2026-04-26T15:24:02.595Z</time></trkpt><trkpt lat="46.0897676" lon="12.2343892"><ele>436.59999999999997</ele><time>2026-04-26T15:24:03.587Z</time></trkpt><trkpt lat="46.0897582" lon="12.2342889"><ele>434.79999999999995</ele><time>2026-04-26T15:24:04.586Z</time></trkpt><trkpt lat="46.0897676" lon="12.2341487"><ele>433.0</ele><time>2026-04-26T15:24:06.586Z</time></trkpt><trkpt lat="46.0908583" lon="12.2345058"><ele>434.50000000000006</ele><time>2026-04-26T15:23:43.586Z</time></trkpt><trkpt lat="46.090792" lon="12.2344239"><ele>436.0</ele><time>2026-04-26T15:23:44.586Z</time></trkpt><trkpt lat="46.090742" lon="12.2343352"><ele>437.5</ele><time>2026-04-26T15:23:45.586Z</time></trkpt><trkpt lat="46.0906906" lon="12.2342618"><ele>439.0</ele><time>2026-04-26T15:23:46.588Z</time></trkpt><trkpt lat="46.0906284" lon="12.2342162"><ele>440.50000000000006</ele><time>2026-04-26T15:23:47.586Z</time></trkpt><trkpt lat="46.0905056" lon="12.2341987"><ele>442.0</ele><time>2026-04-26T15:23:49.585Z</time></trkpt><trkpt lat="46.0904266" lon="12.2342201"><ele>442.00000000000006</ele><time>2026-04-26T15:23:50.585Z</time></trkpt><trkpt lat="46.0903428" lon="12.2342536"><ele>442.0</ele><time>2026-04-26T15:23:51.586Z</time></trkpt><trkpt lat="46.0902521" lon="12.234295"><ele>442.0</ele><time>2026-04-26T15:23:52.594Z</time></trkpt><trkpt lat="46.0901644" lon="12.2343303"><ele>442.0</ele><time>2026-04-26T15:23:53.585Z</time></trkpt><trkpt lat="46.0900889" lon="12.2343496"><ele>442.00000000000006</ele><time>2026-04-26T15:23:54.587Z</time></trkpt><trkpt lat="46.0900182" lon="12.2343766"><ele>442.0</ele><time>2026-04-26T15:23:55.586Z</time></trkpt><trkpt lat="46.0899617" lon="12.2344193"><ele>440.50000000000006</ele><time>2026-04-26T15:23:56.586Z</time></trkpt><trkpt lat="46.089898" lon="12.234555"><ele>439.0</ele><time>2026-04-26T15:23:58.587Z</time></trkpt><trkpt lat="46.0898309" lon="12.2346206"><ele>437.5</ele><time>2026-04-26T15:24:00.591Z</time></trkpt><trkpt lat="46.0897791" lon="12.2344855"><ele>436.0</ele><time>2026-04-26T15:24:02.595Z</time></trkpt><trkpt lat="46.0897676" lon="12.2343892"><ele>434.50000000000006</ele><time>2026-04-26T15:24:03.587Z</time></trkpt><trkpt lat="46.0897582" lon="12.2342889"><ele>433.0</ele><time>2026-04-26T15:24:04.586Z</time></trkpt><trkpt lat="46.0897676" lon="12.2341487"><ele>432.99999999999994</ele><time>2026-04-26T15:24:06.586Z</time></trkpt><trkpt lat="46.0897645" lon="12.2340548"><ele>433.0</ele><time>2026-04-26T15:25:26.584Z</time></trkpt><trkpt lat="46.0898392" lon="12.2340068"><ele>433.0</ele><time>2026-04-26T15:25:30.585Z</time></trkpt><trkpt lat="46.0899047" lon="12.2340092"><ele>433.0</ele><time>2026-04-26T15:25:32.59Z</time></trkpt><trkpt lat="46.0899694" lon="12.2339898"><ele>433.0</ele><time>2026-04-26T15:25:34.587Z</time></trkpt><trkpt lat="46.0900355" lon="12.2339577"><ele>432.99999999999994</ele><time>2026-04-26T15:25:36.589Z</time></trkpt><trkpt lat="46.0901036" lon="12.2339188"><ele>433.0</ele><time>2026-04-26T15:25:38.585Z</time></trkpt><trkpt lat="46.0901753" lon="12.2338826"><ele>433.0</ele><time>2026-04-26T15:25:40.585Z</time></trkpt><trkpt lat="46.0902547" lon="12.2338207"><ele>432.99999999999994</ele><time>2026-04-26T15:25:42.586Z</time></trkpt><trkpt lat="46.0903276" lon="12.2337182"><ele>432.99999999999994</ele><time>2026-04-26T15:25:44.588Z</time></trkpt><trkpt lat="46.0903998" lon="12.2335918"><ele>433.0</ele><time>2026-04-26T15:25:46.585Z</time></trkpt><trkpt lat="46.0904685" lon="12.2334507"><ele>433.0</ele><time>2026-04-26T15:25:48.586Z</time></trkpt><trkpt lat="46.090535" lon="12.233308"><ele>433.0</ele><time>2026-04-26T15:25:50.585Z</time></trkpt><trkpt lat="46.0906023" lon="12.2331705"><ele>432.99999999999994</ele><time>2026-04-26T15:25:52.586Z</time></trkpt><trkpt lat="46.090672" lon="12.2330169"><ele>432.99999999999994</ele><time>2026-04-26T15:25:54.586Z</time></trkpt><trkpt lat="46.0907093" lon="12.2329367"><ele>433.0</ele><time>2026-04-26T15:25:55.587Z</time></trkpt><trkpt lat="46.0907524" lon="12.2328512"><ele>433.0</ele><time>2026-04-26T15:25:56.584Z</time></trkpt><trkpt lat="46.0907913" lon="12.2327668"><ele>432.99999999999994</ele><time>2026-04-26T15:25:57.586Z</time></trkpt><trkpt lat="46.0908314" lon="12.2326783"><ele>433.0</ele><time>2026-04-26T15:25:58.584Z</time></trkpt><trkpt lat="46.0908715" lon="12.2325884"><ele>433.0</ele><time>2026-04-26T15:25:59.585Z</time></trkpt><trkpt lat="46.090911" lon="12.2325014"><ele>433.0</ele><time>2026-04-26T15:26:00.585Z</time></trkpt><trkpt lat="46.0909515" lon="12.2324176"><ele>433.0</ele><time>2026-04-26T15:26:01.584Z</time></trkpt><trkpt lat="46.0909916" lon="12.2323323"><ele>432.99999999999994</ele><time>2026-04-26T15:26:02.587Z</time></trkpt><trkpt lat="46.0910279" lon="12.232249"><ele>433.0</ele><time>2026-04-26T15:26:03.584Z</time></trkpt><trkpt lat="46.091069" lon="12.2321658"><ele>432.1428571428571</ele><time>2026-04-26T15:26:04.584Z</time></trkpt><trkpt lat="46.0911074" lon="12.2320875"><ele>431.2857142857143</ele><time>2026-04-26T15:26:05.584Z</time></trkpt><trkpt lat="46.0911482" lon="12.2320058"><ele>430.42857142857144</ele><time>2026-04-26T15:26:06.588Z</time></trkpt><trkpt lat="46.09119" lon="12.2319279"><ele>429.57142857142856</ele><time>2026-04-26T15:26:07.585Z</time></trkpt><trkpt lat="46.0912369" lon="12.2318542"><ele>428.7142857142857</ele><time>2026-04-26T15:26:08.584Z</time></trkpt><trkpt lat="46.0912861" lon="12.2317805"><ele>427.85714285714283</ele><time>2026-04-26T15:26:09.584Z</time></trkpt><trkpt lat="46.0913421" lon="12.2317184"><ele>427.0</ele><time>2026-04-26T15:26:10.587Z</time></trkpt><trkpt lat="46.0914018" lon="12.2316733"><ele>427.0</ele><time>2026-04-26T15:26:11.586Z</time></trkpt><trkpt lat="46.0914674" lon="12.2316292"><ele>427.0</ele><time>2026-04-26T15:26:12.588Z</time></trkpt><trkpt lat="46.0915289" lon="12.2315895"><ele>427.0</ele><time>2026-04-26T15:26:13.59Z</time></trkpt><trkpt lat="46.0915914" lon="12.231551"><ele>427.0</ele><time>2026-04-26T15:26:14.588Z</time></trkpt><trkpt lat="46.0916556" lon="12.2315084"><ele>427.0</ele><time>2026-04-26T15:26:15.587Z</time></trkpt><trkpt lat="46.0917148" lon="12.2314663"><ele>427.0</ele><time>2026-04-26T15:26:16.587Z</time></trkpt><trkpt lat="46.0917775" lon="12.2314207"><ele>427.0</ele><time>2026-04-26T15:26:17.584Z</time></trkpt><trkpt lat="46.091836" lon="12.2313692"><ele>426.85714285714283</ele><time>2026-04-26T15:26:18.586Z</time></trkpt><trkpt lat="46.0918952" lon="12.2313098"><ele>426.7142857142857</ele><time>2026-04-26T15:26:19.586Z</time></trkpt><trkpt lat="46.0919503" lon="12.2312442"><ele>426.57142857142856</ele><time>2026-04-26T15:26:20.586Z</time></trkpt><trkpt lat="46.0920062" lon="12.2311774"><ele>426.42857142857144</ele><time>2026-04-26T15:26:21.587Z</time></trkpt><trkpt lat="46.0920599" lon="12.2311114"><ele>426.2857142857143</ele><time>2026-04-26T15:26:22.586Z</time></trkpt><trkpt lat="46.0921082" lon="12.2310268"><ele>426.1428571428571</ele><time>2026-04-26T15:26:23.585Z</time></trkpt><trkpt lat="46.0921519" lon="12.2309475"><ele>426.0</ele><time>2026-04-26T15:26:24.584Z</time></trkpt><trkpt lat="46.0921904" lon="12.2308586"><ele>426.0</ele><time>2026-04-26T15:26:25.585Z</time></trkpt><trkpt lat="46.092233" lon="12.2307685"><ele>426.0</ele><time>2026-04-26T15:26:26.587Z</time></trkpt><trkpt lat="46.0922725" lon="12.2306776"><ele>426.0</ele><time>2026-04-26T15:26:27.587Z</time></trkpt><trkpt lat="46.0923125" lon="12.2305847"><ele>426.0</ele><time>2026-04-26T15:26:28.584Z</time></trkpt><trkpt lat="46.0923531" lon="12.230495"><ele>426.0</ele><time>2026-04-26T15:26:29.584Z</time></trkpt><trkpt lat="46.0923926" lon="12.2304056"><ele>426.0</ele><time>2026-04-26T15:26:30.584Z</time></trkpt><trkpt lat="46.0924315" lon="12.2303096"><ele>426.0</ele><time>2026-04-26T15:26:31.586Z</time></trkpt><trkpt lat="46.0924701" lon="12.2302119"><ele>426.0</ele><time>2026-04-26T15:26:32.586Z</time></trkpt><trkpt lat="46.0925077" lon="12.2301132"><ele>426.0</ele><time>2026-04-26T15:26:33.585Z</time></trkpt><trkpt lat="46.0925455" lon="12.2300169"><ele>426.0</ele><time>2026-04-26T15:26:34.586Z</time></trkpt><trkpt lat="46.0925749" lon="12.229917"><ele>426.0</ele><time>2026-04-26T15:26:35.586Z</time></trkpt><trkpt lat="46.0926014" lon="12.229814"><ele>426.0</ele><time>2026-04-26T15:26:36.585Z</time></trkpt><trkpt lat="46.0926136" lon="12.2297072"><ele>426.0</ele><time>2026-04-26T15:26:37.588Z</time></trkpt><trkpt lat="46.0926131" lon="12.2296016"><ele>426.0</ele><time>2026-04-26T15:26:38.587Z</time></trkpt><trkpt lat="46.0926031" lon="12.2294968"><ele>426.0</ele><time>2026-04-26T15:26:39.587Z</time></trkpt><trkpt lat="46.0925827" lon="12.2294041"><ele>426.0</ele><time>2026-04-26T15:26:40.586Z</time></trkpt><trkpt lat="46.0925542" lon="12.2293138"><ele>426.0</ele><time>2026-04-26T15:26:41.584Z</time></trkpt><trkpt lat="46.0925245" lon="12.2291441"><ele>426.0</ele><time>2026-04-26T15:26:43.588Z</time></trkpt><trkpt lat="46.0925102" lon="12.2289816"><ele>425.0</ele><time>2026-04-26T15:26:45.587Z</time></trkpt><trkpt lat="46.0925138" lon="12.2288154"><ele>424.0</ele><time>2026-04-26T15:26:47.586Z</time></trkpt><trkpt lat="46.0925445" lon="12.2286539"><ele>423.0</ele><time>2026-04-26T15:26:49.587Z</time></trkpt><trkpt lat="46.0926022" lon="12.2285"><ele>422.0</ele><time>2026-04-26T15:26:51.586Z</time></trkpt><trkpt lat="46.092688" lon="12.2283631"><ele>422.0</ele><time>2026-04-26T15:26:53.587Z</time></trkpt><trkpt lat="46.0927422" lon="12.2283168"><ele>422.0</ele><time>2026-04-26T15:26:54.591Z</time></trkpt><trkpt lat="46.0928062" lon="12.2282963"><ele>422.0</ele><time>2026-04-26T15:26:55.587Z</time></trkpt><trkpt lat="46.0928749" lon="12.2282932"><ele>422.0</ele><time>2026-04-26T15:26:56.587Z</time></trkpt><trkpt lat="46.0929386" lon="12.2283268"><ele>422.0</ele><time>2026-04-26T15:26:57.584Z</time></trkpt><trkpt lat="46.0930011" lon="12.2283681"><ele>422.0</ele><time>2026-04-26T15:26:58.586Z</time></trkpt><trkpt lat="46.0930619" lon="12.2284085"><ele>422.0</ele><time>2026-04-26T15:26:59.584Z</time></trkpt><trkpt lat="46.0931237" lon="12.2284545"><ele>422.0</ele><time>2026-04-26T15:27:00.584Z</time></trkpt><trkpt lat="46.0931861" lon="12.2285042"><ele>422.0</ele><time>2026-04-26T15:27:01.584Z</time></trkpt><trkpt lat="46.0932515" lon="12.2285458"><ele>422.0</ele><time>2026-04-26T15:27:02.586Z</time></trkpt><trkpt lat="46.0933134" lon="12.228591"><ele>422.0</ele><time>2026-04-26T15:27:03.586Z</time></trkpt><trkpt lat="46.0933766" lon="12.2286437"><ele>422.0</ele><time>2026-04-26T15:27:04.584Z</time></trkpt><trkpt lat="46.0934435" lon="12.2286858"><ele>422.0</ele><time>2026-04-26T15:27:05.585Z</time></trkpt><trkpt lat="46.0935072" lon="12.2287336"><ele>422.0</ele><time>2026-04-26T15:27:06.585Z</time></trkpt><trkpt lat="46.0935711" lon="12.2287803"><ele>421.8571428571429</ele><time>2026-04-26T15:27:07.585Z</time></trkpt><trkpt lat="46.0936357" lon="12.2288306"><ele>421.7142857142857</ele><time>2026-04-26T15:27:08.586Z</time></trkpt><trkpt lat="46.0936981" lon="12.2288784"><ele>421.57142857142856</ele><time>2026-04-26T15:27:09.586Z</time></trkpt><trkpt lat="46.0937611" lon="12.2289263"><ele>421.42857142857144</ele><time>2026-04-26T15:27:10.586Z</time></trkpt><trkpt lat="46.0938218" lon="12.2289826"><ele>421.2857142857143</ele><time>2026-04-26T15:27:11.584Z</time></trkpt><trkpt lat="46.0938774" lon="12.229047"><ele>421.14285714285717</ele><time>2026-04-26T15:27:12.587Z</time></trkpt><trkpt lat="46.0939289" lon="12.2291164"><ele>421.0</ele><time>2026-04-26T15:27:13.587Z</time></trkpt><trkpt lat="46.0939787" lon="12.2291924"><ele>421.00000000000006</ele><time>2026-04-26T15:27:14.585Z</time></trkpt><trkpt lat="46.0940217" lon="12.2292664"><ele>421.0</ele><time>2026-04-26T15:27:15.587Z</time></trkpt><trkpt lat="46.0940635" lon="12.2293493"><ele>421.0</ele><time>2026-04-26T15:27:16.587Z</time></trkpt><trkpt lat="46.0941136" lon="12.2294339"><ele>421.0</ele><time>2026-04-26T15:27:17.585Z</time></trkpt><trkpt lat="46.0941652" lon="12.229514"><ele>421.0</ele><time>2026-04-26T15:27:18.587Z</time></trkpt><trkpt lat="46.0942236" lon="12.2295887"><ele>421.00000000000006</ele><time>2026-04-26T15:27:19.586Z</time></trkpt><trkpt lat="46.0942879" lon="12.2296535"><ele>421.0</ele><time>2026-04-26T15:27:20.585Z</time></trkpt><trkpt lat="46.0943494" lon="12.229722"><ele>421.00000000000006</ele><time>2026-04-26T15:27:21.587Z</time></trkpt><trkpt lat="46.0944135" lon="12.2297928"><ele>421.0</ele><time>2026-04-26T15:27:22.587Z</time></trkpt><trkpt lat="46.0944775" lon="12.2298597"><ele>421.0</ele><time>2026-04-26T15:27:23.587Z</time></trkpt><trkpt lat="46.0945442" lon="12.2299345"><ele>421.0</ele><time>2026-04-26T15:27:24.586Z</time></trkpt><trkpt lat="46.0946078" lon="12.230009"><ele>421.00000000000006</ele><time>2026-04-26T15:27:25.586Z</time></trkpt><trkpt lat="46.094675" lon="12.2300841"><ele>421.0</ele><time>2026-04-26T15:27:26.587Z</time></trkpt><trkpt lat="46.0947425" lon="12.2301595"><ele>420.0</ele><time>2026-04-26T15:27:27.587Z</time></trkpt><trkpt lat="46.0948153" lon="12.230233"><ele>419.0</ele><time>2026-04-26T15:27:28.588Z</time></trkpt><trkpt lat="46.094885" lon="12.2303058"><ele>418.0</ele><time>2026-04-26T15:27:29.585Z</time></trkpt><trkpt lat="46.0949561" lon="12.2303772"><ele>417.0</ele><time>2026-04-26T15:27:30.588Z</time></trkpt><trkpt lat="46.0950993" lon="12.2305003"><ele>416.0</ele><time>2026-04-26T15:27:32.586Z</time></trkpt><trkpt lat="46.0951733" lon="12.2305575"><ele>416.0</ele><time>2026-04-26T15:27:33.586Z</time></trkpt><trkpt lat="46.095236" lon="12.2306111"><ele>416.0</ele><time>2026-04-26T15:27:34.587Z</time></trkpt><trkpt lat="46.0953019" lon="12.2306509"><ele>416.0</ele><time>2026-04-26T15:27:35.586Z</time></trkpt><trkpt lat="46.0953709" lon="12.230658"><ele>416.0</ele><time>2026-04-26T15:27:36.585Z</time></trkpt><trkpt lat="46.0954445" lon="12.230627"><ele>416.0</ele><time>2026-04-26T15:27:37.587Z</time></trkpt><trkpt lat="46.0955088" lon="12.2305686"><ele>416.0</ele><time>2026-04-26T15:27:38.586Z</time></trkpt><trkpt lat="46.0955748" lon="12.2305003"><ele>416.0</ele><time>2026-04-26T15:27:39.584Z</time></trkpt><trkpt lat="46.0956418" lon="12.2304235"><ele>416.0</ele><time>2026-04-26T15:27:40.586Z</time></trkpt><trkpt lat="46.0957093" lon="12.230344"><ele>416.0</ele><time>2026-04-26T15:27:41.587Z</time></trkpt><trkpt lat="46.095782" lon="12.2302646"><ele>416.0</ele><time>2026-04-26T15:27:42.586Z</time></trkpt><trkpt lat="46.0958527" lon="12.2301868"><ele>416.0</ele><time>2026-04-26T15:27:43.599Z</time></trkpt><trkpt lat="46.0959222" lon="12.2301057"><ele>416.0</ele><time>2026-04-26T15:27:44.586Z</time></trkpt><trkpt lat="46.0960026" lon="12.2300271"><ele>416.20000000000005</ele><time>2026-04-26T15:27:45.586Z</time></trkpt><trkpt lat="46.0960793" lon="12.2299489"><ele>416.40000000000003</ele><time>2026-04-26T15:27:46.586Z</time></trkpt><trkpt lat="46.0961512" lon="12.229866"><ele>416.6</ele><time>2026-04-26T15:27:47.584Z</time></trkpt><trkpt lat="46.0962247" lon="12.2297858"><ele>416.8</ele><time>2026-04-26T15:27:48.584Z</time></trkpt><trkpt lat="46.0962946" lon="12.2297061"><ele>417.0</ele><time>2026-04-26T15:27:49.586Z</time></trkpt><trkpt lat="46.0963618" lon="12.229629"><ele>416.8333333333333</ele><time>2026-04-26T15:27:50.595Z</time></trkpt><trkpt lat="46.0964325" lon="12.229553"><ele>416.66666666666663</ele><time>2026-04-26T15:27:51.587Z</time></trkpt><trkpt lat="46.0964958" lon="12.2294808"><ele>416.5</ele><time>2026-04-26T15:27:52.594Z</time></trkpt><trkpt lat="46.0965572" lon="12.2294081"><ele>416.3333333333333</ele><time>2026-04-26T15:27:53.586Z</time></trkpt><trkpt lat="46.0966196" lon="12.2293342"><ele>416.16666666666663</ele><time>2026-04-26T15:27:54.594Z</time></trkpt><trkpt lat="46.096679" lon="12.2292649"><ele>416.0</ele><time>2026-04-26T15:27:55.595Z</time></trkpt><trkpt lat="46.0967416" lon="12.2291984"><ele>415.99999999999994</ele><time>2026-04-26T15:27:56.585Z</time></trkpt><trkpt lat="46.096806" lon="12.229135"><ele>416.0</ele><time>2026-04-26T15:27:57.587Z</time></trkpt><trkpt lat="46.0968622" lon="12.2290612"><ele>416.0</ele><time>2026-04-26T15:27:58.585Z</time></trkpt><trkpt lat="46.0969244" lon="12.2289869"><ele>416.0</ele><time>2026-04-26T15:27:59.583Z</time></trkpt><trkpt lat="46.0969882" lon="12.2289137"><ele>415.99999999999994</ele><time>2026-04-26T15:28:00.586Z</time></trkpt><trkpt lat="46.0970538" lon="12.2288373"><ele>416.0</ele><time>2026-04-26T15:28:01.586Z</time></trkpt><trkpt lat="46.09712" lon="12.2287609"><ele>415.99999999999994</ele><time>2026-04-26T15:28:02.585Z</time></trkpt><trkpt lat="46.0971871" lon="12.2286847"><ele>416.0</ele><time>2026-04-26T15:28:03.586Z</time></trkpt><trkpt lat="46.0972573" lon="12.2286069"><ele>416.0</ele><time>2026-04-26T15:28:04.583Z</time></trkpt><trkpt lat="46.09732" lon="12.2285276"><ele>416.0</ele><time>2026-04-26T15:28:05.593Z</time></trkpt><trkpt lat="46.0973873" lon="12.2284489"><ele>415.99999999999994</ele><time>2026-04-26T15:28:06.588Z</time></trkpt><trkpt lat="46.0974528" lon="12.2283707"><ele>416.0</ele><time>2026-04-26T15:28:07.592Z</time></trkpt><trkpt lat="46.0975171" lon="12.2282926"><ele>415.99999999999994</ele><time>2026-04-26T15:28:08.586Z</time></trkpt><trkpt lat="46.0975831" lon="12.2282169"><ele>416.0</ele><time>2026-04-26T15:28:09.588Z</time></trkpt><trkpt lat="46.0976481" lon="12.2281475"><ele>416.0</ele><time>2026-04-26T15:28:10.593Z</time></trkpt><trkpt lat="46.0977146" lon="12.2280786"><ele>416.0</ele><time>2026-04-26T15:28:11.594Z</time></trkpt><trkpt lat="46.0977784" lon="12.2280078"><ele>415.99999999999994</ele><time>2026-04-26T15:28:12.593Z</time></trkpt><trkpt lat="46.0978396" lon="12.2279382"><ele>416.0</ele><time>2026-04-26T15:28:13.596Z</time></trkpt><trkpt lat="46.0979007" lon="12.2278706"><ele>413.99999999999994</ele><time>2026-04-26T15:28:14.592Z</time></trkpt><trkpt lat="46.0979632" lon="12.2278054"><ele>412.0</ele><time>2026-04-26T15:28:15.591Z</time></trkpt><trkpt lat="46.0980165" lon="12.2277417"><ele>410.0</ele><time>2026-04-26T15:28:16.596Z</time></trkpt><trkpt lat="46.0980656" lon="12.2276172"><ele>408.0</ele><time>2026-04-26T15:28:18.593Z</time></trkpt><trkpt lat="46.0980168" lon="12.2275219"><ele>405.99999999999994</ele><time>2026-04-26T15:28:20.587Z</time></trkpt><trkpt lat="46.0979489" lon="12.2274453"><ele>404.0</ele><time>2026-04-26T15:28:22.584Z</time></trkpt><trkpt lat="46.0978503" lon="12.2273435"><ele>403.99999999999994</ele><time>2026-04-26T15:28:24.595Z</time></trkpt><trkpt lat="46.0977896" lon="12.2273034"><ele>404.0</ele><time>2026-04-26T15:28:25.594Z</time></trkpt><trkpt lat="46.0977275" lon="12.2272758"><ele>404.0</ele><time>2026-04-26T15:28:26.593Z</time></trkpt><trkpt lat="46.0976183" lon="12.2272276"><ele>404.0</ele><time>2026-04-26T15:28:28.585Z</time></trkpt><trkpt lat="46.0975525" lon="12.2271368"><ele>403.99999999999994</ele><time>2026-04-26T15:28:30.589Z</time></trkpt><trkpt lat="46.0974878" lon="12.227056"><ele>404.0</ele><time>2026-04-26T15:28:32.595Z</time></trkpt><trkpt lat="46.0974582" lon="12.226959"><ele>404.0</ele><time>2026-04-26T15:28:34.583Z</time></trkpt><trkpt lat="46.0974822" lon="12.2268533"><ele>404.0</ele><time>2026-04-26T15:28:37.583Z</time></trkpt><trkpt lat="46.0975071" lon="12.2267459"><ele>404.0</ele><time>2026-04-26T15:28:40.585Z</time></trkpt><trkpt lat="46.0975216" lon="12.2266491"><ele>404.0</ele><time>2026-04-26T15:28:42.589Z</time></trkpt><trkpt lat="46.0975177" lon="12.2265399"><ele>404.0</ele><time>2026-04-26T15:28:44.584Z</time></trkpt><trkpt lat="46.097513" lon="12.2264439"><ele>404.0</ele><time>2026-04-26T15:28:46.583Z</time></trkpt><trkpt lat="46.0975153" lon="12.2263491"><ele>404.0</ele><time>2026-04-26T15:28:48.583Z</time></trkpt><trkpt lat="46.0975207" lon="12.2262202"><ele>404.42857142857144</ele><time>2026-04-26T15:28:50.592Z</time></trkpt><trkpt lat="46.0975127" lon="12.2260958"><ele>404.85714285714283</ele><time>2026-04-26T15:28:52.584Z</time></trkpt><trkpt lat="46.0975018" lon="12.2259999"><ele>405.28571428571433</ele><time>2026-04-26T15:28:54.584Z</time></trkpt><trkpt lat="46.0974981" lon="12.2259006"><ele>405.7142857142857</ele><time>2026-04-26T15:28:56.583Z</time></trkpt><trkpt lat="46.0974988" lon="12.2258017"><ele>406.14285714285717</ele><time>2026-04-26T15:28:58.579Z</time></trkpt><trkpt lat="46.0974976" lon="12.2256942"><ele>406.5714285714286</ele><time>2026-04-26T15:29:00.586Z</time></trkpt><trkpt lat="46.0974993" lon="12.2255837"><ele>407.0</ele><time>2026-04-26T15:29:02.586Z</time></trkpt><trkpt lat="46.0975112" lon="12.2254744"><ele>407.7142857142857</ele><time>2026-04-26T15:29:04.591Z</time></trkpt><trkpt lat="46.097513" lon="12.225365"><ele>408.42857142857144</ele><time>2026-04-26T15:29:06.585Z</time></trkpt><trkpt lat="46.0974919" lon="12.2252587"><ele>409.1428571428571</ele><time>2026-04-26T15:29:08.587Z</time></trkpt><trkpt lat="46.0974614" lon="12.2251611"><ele>409.8571428571429</ele><time>2026-04-26T15:29:10.587Z</time></trkpt><trkpt lat="46.0974333" lon="12.2250707"><ele>410.57142857142856</ele><time>2026-04-26T15:29:12.587Z</time></trkpt><trkpt lat="46.0974056" lon="12.2249855"><ele>411.2857142857143</ele><time>2026-04-26T15:29:14.587Z</time></trkpt><trkpt lat="46.0973737" lon="12.2249069"><ele>412.0</ele><time>2026-04-26T15:29:16.595Z</time></trkpt><trkpt lat="46.0973317" lon="12.2247963"><ele>415.6666666666667</ele><time>2026-04-26T15:29:19.587Z</time></trkpt><trkpt lat="46.0972902" lon="12.2246866"><ele>419.33333333333337</ele><time>2026-04-26T15:29:22.587Z</time></trkpt><trkpt lat="46.0972544" lon="12.2245798"><ele>423.0</ele><time>2026-04-26T15:29:25.586Z</time></trkpt><trkpt lat="46.0972081" lon="12.2244848"><ele>426.66666666666663</ele><time>2026-04-26T15:29:28.587Z</time></trkpt><trkpt lat="46.0971563" lon="12.2244156"><ele>430.3333333333333</ele><time>2026-04-26T15:29:31.59Z</time></trkpt><trkpt lat="46.0970954" lon="12.2243727"><ele>434.0</ele><time>2026-04-26T15:29:34.588Z</time></trkpt><trkpt lat="46.0970383" lon="12.2243288"><ele>434.0</ele><time>2026-04-26T15:29:37.593Z</time></trkpt><trkpt lat="46.0969727" lon="12.224307"><ele>434.0</ele><time>2026-04-26T15:29:40.584Z</time></trkpt><trkpt lat="46.0969108" lon="12.2242812"><ele>434.0</ele><time>2026-04-26T15:29:43.584Z</time></trkpt><trkpt lat="46.0968353" lon="12.2242563"><ele>434.0</ele><time>2026-04-26T15:29:47.585Z</time></trkpt><trkpt lat="46.0967595" lon="12.2242382"><ele>434.0</ele><time>2026-04-26T15:29:51.582Z</time></trkpt><trkpt lat="46.0966868" lon="12.2242271"><ele>434.0</ele><time>2026-04-26T15:29:55.589Z</time></trkpt><trkpt lat="46.0966102" lon="12.2242392"><ele>434.0</ele><time>2026-04-26T15:29:59.593Z</time></trkpt><trkpt lat="46.0965378" lon="12.2242489"><ele>437.8571428571429</ele><time>2026-04-26T15:30:03.593Z</time></trkpt><trkpt lat="46.0964621" lon="12.2242367"><ele>441.7142857142857</ele><time>2026-04-26T15:30:07.593Z</time></trkpt><trkpt lat="46.0964052" lon="12.2241771"><ele>445.57142857142856</ele><time>2026-04-26T15:30:11.594Z</time></trkpt><trkpt lat="46.0963635" lon="12.2240808"><ele>449.42857142857144</ele><time>2026-04-26T15:30:34.592Z</time></trkpt><trkpt lat="46.0963523" lon="12.2239674"><ele>453.28571428571433</ele><time>2026-04-26T15:30:38.593Z</time></trkpt><trkpt lat="46.096326" lon="12.223859"><ele>457.14285714285717</ele><time>2026-04-26T15:30:42.592Z</time></trkpt><trkpt lat="46.0963163" lon="12.2237674"><ele>461.0</ele><time>2026-04-26T15:30:45.592Z</time></trkpt><trkpt lat="46.0963054" lon="12.2236769"><ele>463.14285714285717</ele><time>2026-04-26T15:30:48.595Z</time></trkpt><trkpt lat="46.0963112" lon="12.2235857"><ele>465.28571428571433</ele><time>2026-04-26T15:30:51.592Z</time></trkpt><trkpt lat="46.096334" lon="12.223495"><ele>467.42857142857144</ele><time>2026-04-26T15:30:54.594Z</time></trkpt><trkpt lat="46.0963561" lon="12.2234054"><ele>469.57142857142856</ele><time>2026-04-26T15:30:57.594Z</time></trkpt><trkpt lat="46.0963812" lon="12.2233131"><ele>471.7142857142857</ele><time>2026-04-26T15:31:00.593Z</time></trkpt><trkpt lat="46.0964027" lon="12.2232219"><ele>473.8571428571429</ele><time>2026-04-26T15:31:03.594Z</time></trkpt><trkpt lat="46.0964232" lon="12.2231319"><ele>476.0</ele><time>2026-04-26T15:31:06.583Z</time></trkpt><trkpt lat="46.0964307" lon="12.2230354"><ele>476.7142857142857</ele><time>2026-04-26T15:31:09.583Z</time></trkpt><trkpt lat="46.0964394" lon="12.222936"><ele>477.42857142857144</ele><time>2026-04-26T15:31:12.589Z</time></trkpt><trkpt lat="46.0964395" lon="12.2228411"><ele>478.1428571428571</ele><time>2026-04-26T15:31:15.593Z</time></trkpt><trkpt lat="46.0964323" lon="12.2227467"><ele>478.85714285714283</ele><time>2026-04-26T15:31:18.589Z</time></trkpt><trkpt lat="46.0964274" lon="12.2226482"><ele>479.57142857142856</ele><time>2026-04-26T15:31:21.599Z</time></trkpt><trkpt lat="46.0964253" lon="12.2225557"><ele>480.2857142857142</ele><time>2026-04-26T15:31:24.618Z</time></trkpt><trkpt lat="46.0964224" lon="12.2224374"><ele>480.99999999999994</ele><time>2026-04-26T15:31:28.593Z</time></trkpt><trkpt lat="46.0964134" lon="12.2223387"><ele>480.1428571428571</ele><time>2026-04-26T15:31:31.592Z</time></trkpt><trkpt lat="46.0963978" lon="12.2222324"><ele>479.2857142857143</ele><time>2026-04-26T15:31:34.607Z</time></trkpt><trkpt lat="46.0963796" lon="12.2221361"><ele>478.42857142857144</ele><time>2026-04-26T15:31:37.585Z</time></trkpt><trkpt lat="46.0963599" lon="12.2220427"><ele>477.57142857142856</ele><time>2026-04-26T15:31:40.592Z</time></trkpt><trkpt lat="46.0963317" lon="12.2219442"><ele>476.7142857142858</ele><time>2026-04-26T15:31:43.582Z</time></trkpt><trkpt lat="46.0962859" lon="12.2218473"><ele>475.8571428571429</ele><time>2026-04-26T15:31:46.588Z</time></trkpt><trkpt lat="46.0962478" lon="12.2217522"><ele>475.0</ele><time>2026-04-26T15:31:49.596Z</time></trkpt><trkpt lat="46.0962038" lon="12.2216736"><ele>475.0</ele><time>2026-04-26T15:31:52.587Z</time></trkpt><trkpt lat="46.0961476" lon="12.2216081"><ele>475.00000000000006</ele><time>2026-04-26T15:31:55.592Z</time></trkpt><trkpt lat="46.096084" lon="12.2215656"><ele>475.0</ele><time>2026-04-26T15:31:58.586Z</time></trkpt><trkpt lat="46.0960179" lon="12.2215358"><ele>475.0</ele><time>2026-04-26T15:32:01.595Z</time></trkpt><trkpt lat="46.0959518" lon="12.221511"><ele>475.00000000000006</ele><time>2026-04-26T15:32:04.594Z</time></trkpt><trkpt lat="46.0958908" lon="12.2214775"><ele>475.0</ele><time>2026-04-26T15:32:07.593Z</time></trkpt><trkpt lat="46.0958346" lon="12.2214329"><ele>475.0</ele><time>2026-04-26T15:32:10.596Z</time></trkpt><trkpt lat="46.0957784" lon="12.2213781"><ele>476.42857142857144</ele><time>2026-04-26T15:32:13.594Z</time></trkpt><trkpt lat="46.095728" lon="12.2213093"><ele>477.8571428571429</ele><time>2026-04-26T15:32:16.584Z</time></trkpt><trkpt lat="46.0956626" lon="12.2212695"><ele>479.28571428571433</ele><time>2026-04-26T15:32:19.585Z</time></trkpt><trkpt lat="46.0955903" lon="12.2212714"><ele>480.7142857142858</ele><time>2026-04-26T15:32:22.593Z</time></trkpt><trkpt lat="46.0955316" lon="12.2213149"><ele>482.14285714285717</ele><time>2026-04-26T15:32:25.595Z</time></trkpt><trkpt lat="46.0954835" lon="12.2214114"><ele>483.57142857142867</ele><time>2026-04-26T15:32:29.594Z</time></trkpt><trkpt lat="46.0954621" lon="12.2214974"><ele>485.00000000000006</ele><time>2026-04-26T15:32:32.584Z</time></trkpt><trkpt lat="46.0954368" lon="12.2216098"><ele>485.8333333333333</ele><time>2026-04-26T15:32:36.583Z</time></trkpt><trkpt lat="46.0954076" lon="12.2217228"><ele>486.66666666666663</ele><time>2026-04-26T15:32:40.584Z</time></trkpt><trkpt lat="46.095384" lon="12.2218145"><ele>487.5</ele><time>2026-04-26T15:32:43.606Z</time></trkpt><trkpt lat="46.0953613" lon="12.2219267"><ele>488.33333333333337</ele><time>2026-04-26T15:32:47.592Z</time></trkpt><trkpt lat="46.0953365" lon="12.2220373"><ele>489.1666666666667</ele><time>2026-04-26T15:32:51.594Z</time></trkpt><trkpt lat="46.0953064" lon="12.2221421"><ele>490.0</ele><time>2026-04-26T15:32:55.592Z</time></trkpt><trkpt lat="46.0952749" lon="12.2222473"><ele>490.50000000000006</ele><time>2026-04-26T15:32:59.594Z</time></trkpt><trkpt lat="46.0952442" lon="12.2223452"><ele>491.0</ele><time>2026-04-26T15:33:03.584Z</time></trkpt><trkpt lat="46.0952088" lon="12.2224424"><ele>491.5</ele><time>2026-04-26T15:33:07.586Z</time></trkpt><trkpt lat="46.0951807" lon="12.2225418"><ele>492.0</ele><time>2026-04-26T15:33:11.594Z</time></trkpt><trkpt lat="46.0951525" lon="12.2226473"><ele>492.50000000000006</ele><time>2026-04-26T15:33:15.589Z</time></trkpt><trkpt lat="46.0951065" lon="12.2227272"><ele>493.0</ele><time>2026-04-26T15:33:19.592Z</time></trkpt><trkpt lat="46.095061" lon="12.2228183"><ele>493.0</ele><time>2026-04-26T15:33:23.594Z</time></trkpt><trkpt lat="46.0950186" lon="12.2229184"><ele>493.0</ele><time>2026-04-26T15:33:27.592Z</time></trkpt><trkpt lat="46.0949638" lon="12.2230011"><ele>493.0</ele><time>2026-04-26T15:33:31.593Z</time></trkpt><trkpt lat="46.094914" lon="12.2230575"><ele>493.0</ele><time>2026-04-26T15:33:35.592Z</time></trkpt><trkpt lat="46.0948567" lon="12.2231082"><ele>493.0</ele><time>2026-04-26T15:33:38.594Z</time></trkpt><trkpt lat="46.0947942" lon="12.2231487"><ele>493.0</ele><time>2026-04-26T15:33:41.593Z</time></trkpt><trkpt lat="46.094738" lon="12.2231914"><ele>493.0</ele><time>2026-04-26T15:33:44.594Z</time></trkpt><trkpt lat="46.0946833" lon="12.2232513"><ele>495.1428571428571</ele><time>2026-04-26T15:33:47.592Z</time></trkpt><trkpt lat="46.094617" lon="12.2233443"><ele>497.28571428571433</ele><time>2026-04-26T15:33:50.596Z</time></trkpt><trkpt lat="46.094568" lon="12.2234128"><ele>499.42857142857144</ele><time>2026-04-26T15:33:52.593Z</time></trkpt><trkpt lat="46.0945227" lon="12.2234867"><ele>501.57142857142856</ele><time>2026-04-26T15:33:54.589Z</time></trkpt><trkpt lat="46.0944743" lon="12.2235631"><ele>503.71428571428567</ele><time>2026-04-26T15:33:56.59Z</time></trkpt><trkpt lat="46.0944272" lon="12.223635"><ele>505.8571428571429</ele><time>2026-04-26T15:33:58.592Z</time></trkpt><trkpt lat="46.0943823" lon="12.2237172"><ele>508.0</ele><time>2026-04-26T15:34:00.595Z</time></trkpt><trkpt lat="46.0943494" lon="12.223798"><ele>508.00000000000006</ele><time>2026-04-26T15:34:02.59Z</time></trkpt><trkpt lat="46.0943211" lon="12.2238821"><ele>508.0</ele><time>2026-04-26T15:34:04.592Z</time></trkpt><trkpt lat="46.0942741" lon="12.2239832"><ele>508.0</ele><time>2026-04-26T15:34:07.593Z</time></trkpt><trkpt lat="46.094211" lon="12.2240508"><ele>508.0</ele><time>2026-04-26T15:34:10.591Z</time></trkpt><trkpt lat="46.0941441" lon="12.2240892"><ele>508.00000000000006</ele><time>2026-04-26T15:34:13.588Z</time></trkpt><trkpt lat="46.0940765" lon="12.2241206"><ele>508.0</ele><time>2026-04-26T15:34:16.593Z</time></trkpt><trkpt lat="46.0939983" lon="12.2241514"><ele>509.57142857142856</ele><time>2026-04-26T15:34:20.585Z</time></trkpt><trkpt lat="46.0939267" lon="12.22416"><ele>511.1428571428571</ele><time>2026-04-26T15:34:24.593Z</time></trkpt><trkpt lat="46.0938606" lon="12.2241642"><ele>512.7142857142857</ele><time>2026-04-26T15:34:28.591Z</time></trkpt><trkpt lat="46.0937957" lon="12.2241644"><ele>514.2857142857142</ele><time>2026-04-26T15:34:32.594Z</time></trkpt><trkpt lat="46.0937152" lon="12.2241534"><ele>515.8571428571428</ele><time>2026-04-26T15:34:37.587Z</time></trkpt><trkpt lat="46.0936445" lon="12.2241201"><ele>517.4285714285714</ele><time>2026-04-26T15:34:41.593Z</time></trkpt><trkpt lat="46.0935848" lon="12.2240685"><ele>519.0</ele><time>2026-04-26T15:34:45.584Z</time></trkpt><trkpt lat="46.0935252" lon="12.2240136"><ele>520.1428571428571</ele><time>2026-04-26T15:34:49.592Z</time></trkpt><trkpt lat="46.0934697" lon="12.2239701"><ele>521.2857142857142</ele><time>2026-04-26T15:34:53.591Z</time></trkpt><trkpt lat="46.0934159" lon="12.2238913"><ele>522.4285714285714</ele><time>2026-04-26T15:34:58.587Z</time></trkpt><trkpt lat="46.0933702" lon="12.2238214"><ele>523.5714285714286</ele><time>2026-04-26T15:35:02.593Z</time></trkpt><trkpt lat="46.0933095" lon="12.22378"><ele>524.7142857142858</ele><time>2026-04-26T15:35:06.611Z</time></trkpt><trkpt lat="46.0932459" lon="12.223758"><ele>525.8571428571429</ele><time>2026-04-26T15:35:10.593Z</time></trkpt><trkpt lat="46.0931791" lon="12.2237555"><ele>527.0</ele><time>2026-04-26T15:35:14.587Z</time></trkpt><trkpt lat="46.0931135" lon="12.2237745"><ele>529.0000000000001</ele><time>2026-04-26T15:35:18.596Z</time></trkpt><trkpt lat="46.0930358" lon="12.2237886"><ele>531.0</ele><time>2026-04-26T15:35:22.589Z</time></trkpt><trkpt lat="46.0929654" lon="12.2238004"><ele>533.0</ele><time>2026-04-26T15:35:26.585Z</time></trkpt><trkpt lat="46.0928971" lon="12.2237837"><ele>535.0</ele><time>2026-04-26T15:35:30.591Z</time></trkpt><trkpt lat="46.0928303" lon="12.2237703"><ele>537.0</ele><time>2026-04-26T15:35:34.594Z</time></trkpt><trkpt lat="46.0927653" lon="12.2237402"><ele>539.0000000000001</ele><time>2026-04-26T15:35:38.583Z</time></trkpt><trkpt lat="46.0927017" lon="12.2236862"><ele>541.0</ele><time>2026-04-26T15:35:42.593Z</time></trkpt><trkpt lat="46.0926528" lon="12.2236094"><ele>541.0000000000001</ele><time>2026-04-26T15:35:46.583Z</time></trkpt><trkpt lat="46.0926096" lon="12.223526"><ele>541.0</ele><time>2026-04-26T15:35:50.591Z</time></trkpt><trkpt lat="46.0925659" lon="12.2234462"><ele>541.0</ele><time>2026-04-26T15:35:54.59Z</time></trkpt><trkpt lat="46.0925045" lon="12.2233895"><ele>541.0</ele><time>2026-04-26T15:35:59.596Z</time></trkpt><trkpt lat="46.0925763" lon="12.2234115"><ele>541.0</ele><time>2026-04-26T15:36:04.587Z</time></trkpt><trkpt lat="46.0925304" lon="12.2234774"><ele>541.0000000000001</ele><time>2026-04-26T15:36:08.591Z</time></trkpt><trkpt lat="46.0925933" lon="12.2234635"><ele>541.0</ele><time>2026-04-26T15:36:22.581Z</time></trkpt><trkpt lat="46.0925959" lon="12.2233694"><ele>541.0000000000001</ele><time>2026-04-26T15:38:17.594Z</time></trkpt><trkpt lat="46.092583" lon="12.2232626"><ele>541.0</ele><time>2026-04-26T15:38:20.595Z</time></trkpt><trkpt lat="46.0925832" lon="12.2231658"><ele>541.0</ele><time>2026-04-26T15:38:23.584Z</time></trkpt><trkpt lat="46.0925535" lon="12.2230522"><ele>541.0</ele><time>2026-04-26T15:38:27.588Z</time></trkpt><trkpt lat="46.0925375" lon="12.2229531"><ele>541.0</ele><time>2026-04-26T15:38:30.584Z</time></trkpt><trkpt lat="46.0925276" lon="12.222841"><ele>541.0000000000001</ele><time>2026-04-26T15:38:33.587Z</time></trkpt><trkpt lat="46.0925152" lon="12.222747"><ele>541.0</ele><time>2026-04-26T15:38:35.582Z</time></trkpt><trkpt lat="46.0925122" lon="12.2226557"><ele>541.1666666666667</ele><time>2026-04-26T15:38:37.592Z</time></trkpt><trkpt lat="46.0925124" lon="12.2225611"><ele>541.3333333333334</ele><time>2026-04-26T15:38:39.586Z</time></trkpt><trkpt lat="46.0925032" lon="12.2224662"><ele>541.5</ele><time>2026-04-26T15:38:41.586Z</time></trkpt><trkpt lat="46.0924938" lon="12.2223534"><ele>541.6666666666666</ele><time>2026-04-26T15:38:43.582Z</time></trkpt><trkpt lat="46.0924897" lon="12.2222268"><ele>541.8333333333333</ele><time>2026-04-26T15:38:45.599Z</time></trkpt><trkpt lat="46.0924806" lon="12.2220959"><ele>542.0</ele><time>2026-04-26T15:38:47.589Z</time></trkpt><trkpt lat="46.0924749" lon="12.2219636"><ele>541.1666666666666</ele><time>2026-04-26T15:38:49.579Z</time></trkpt><trkpt lat="46.0924455" lon="12.2218266"><ele>540.3333333333333</ele><time>2026-04-26T15:38:51.58Z</time></trkpt><trkpt lat="46.0923995" lon="12.2217149"><ele>539.5</ele><time>2026-04-26T15:38:53.582Z</time></trkpt><trkpt lat="46.0923539" lon="12.2216247"><ele>538.6666666666666</ele><time>2026-04-26T15:38:55.583Z</time></trkpt><trkpt lat="46.0923047" lon="12.2215274"><ele>537.8333333333334</ele><time>2026-04-26T15:38:57.596Z</time></trkpt><trkpt lat="46.0922609" lon="12.2214361"><ele>537.0</ele><time>2026-04-26T15:38:59.592Z</time></trkpt><trkpt lat="46.0922141" lon="12.2213449"><ele>540.0</ele><time>2026-04-26T15:39:01.592Z</time></trkpt><trkpt lat="46.0921785" lon="12.2212629"><ele>543.0</ele><time>2026-04-26T15:39:03.594Z</time></trkpt><trkpt lat="46.0921315" lon="12.2211477"><ele>546.0</ele><time>2026-04-26T15:39:06.592Z</time></trkpt><trkpt lat="46.0920809" lon="12.2210429"><ele>549.0</ele><time>2026-04-26T15:39:09.591Z</time></trkpt><trkpt lat="46.0920377" lon="12.2209372"><ele>552.0</ele><time>2026-04-26T15:39:12.583Z</time></trkpt><trkpt lat="46.0919909" lon="12.2208358"><ele>555.0</ele><time>2026-04-26T15:39:15.584Z</time></trkpt><trkpt lat="46.091947" lon="12.2207405"><ele>555.0000000000001</ele><time>2026-04-26T15:39:18.591Z</time></trkpt><trkpt lat="46.0918997" lon="12.2206546"><ele>555.0</ele><time>2026-04-26T15:39:21.587Z</time></trkpt><trkpt lat="46.0918445" lon="12.2205796"><ele>555.0</ele><time>2026-04-26T15:39:24.592Z</time></trkpt><trkpt lat="46.091783" lon="12.2205169"><ele>555.0</ele><time>2026-04-26T15:39:27.602Z</time></trkpt><trkpt lat="46.0917252" lon="12.220465"><ele>555.0</ele><time>2026-04-26T15:39:30.591Z</time></trkpt><trkpt lat="46.0916621" lon="12.220424"><ele>555.0000000000001</ele><time>2026-04-26T15:39:33.583Z</time></trkpt><trkpt lat="46.0916016" lon="12.2203842"><ele>555.0</ele><time>2026-04-26T15:39:36.592Z</time></trkpt><trkpt lat="46.0915402" lon="12.2203399"><ele>558.5714285714287</ele><time>2026-04-26T15:39:39.591Z</time></trkpt><trkpt lat="46.0914902" lon="12.220277"><ele>562.1428571428571</ele><time>2026-04-26T15:39:49.584Z</time></trkpt><trkpt lat="46.0914457" lon="12.2201626"><ele>565.7142857142858</ele><time>2026-04-26T15:39:52.593Z</time></trkpt><trkpt lat="46.0914281" lon="12.2200694"><ele>569.2857142857143</ele><time>2026-04-26T15:39:54.586Z</time></trkpt><trkpt lat="46.0914004" lon="12.219973"><ele>572.8571428571429</ele><time>2026-04-26T15:39:57.587Z</time></trkpt><trkpt lat="46.0914582" lon="12.2199353"><ele>576.4285714285714</ele><time>2026-04-26T15:40:07.596Z</time></trkpt><trkpt lat="46.0915082" lon="12.2198718"><ele>580.0</ele><time>2026-04-26T15:40:09.591Z</time></trkpt><trkpt lat="46.0915364" lon="12.2197729"><ele>580.0</ele><time>2026-04-26T15:40:11.587Z</time></trkpt><trkpt lat="46.0915455" lon="12.2196403"><ele>580.0</ele><time>2026-04-26T15:40:13.592Z</time></trkpt><trkpt lat="46.0915343" lon="12.2195015"><ele>580.0</ele><time>2026-04-26T15:40:15.591Z</time></trkpt><trkpt lat="46.0915301" lon="12.2193518"><ele>580.0</ele><time>2026-04-26T15:40:17.585Z</time></trkpt><trkpt lat="46.0915153" lon="12.2192076"><ele>580.0</ele><time>2026-04-26T15:40:19.586Z</time></trkpt><trkpt lat="46.0914906" lon="12.2190605"><ele>578.5</ele><time>2026-04-26T15:40:21.581Z</time></trkpt><trkpt lat="46.0914573" lon="12.2188946"><ele>577.0</ele><time>2026-04-26T15:40:23.586Z</time></trkpt><trkpt lat="46.0914366" lon="12.2188058"><ele>575.5</ele><time>2026-04-26T15:40:24.592Z</time></trkpt><trkpt lat="46.091425" lon="12.2187062"><ele>574.0</ele><time>2026-04-26T15:40:25.592Z</time></trkpt><trkpt lat="46.0914151" lon="12.2186044"><ele>572.5</ele><time>2026-04-26T15:40:26.587Z</time></trkpt><trkpt lat="46.0914126" lon="12.2184974"><ele>571.0</ele><time>2026-04-26T15:40:27.588Z</time></trkpt><trkpt lat="46.0914164" lon="12.2183869"><ele>571.0</ele><time>2026-04-26T15:40:28.583Z</time></trkpt><trkpt lat="46.0914383" lon="12.218281"><ele>571.0</ele><time>2026-04-26T15:40:29.582Z</time></trkpt><trkpt lat="46.0914738" lon="12.2181788"><ele>571.0</ele><time>2026-04-26T15:40:30.583Z</time></trkpt><trkpt lat="46.0915098" lon="12.2180792"><ele>571.0</ele><time>2026-04-26T15:40:31.584Z</time></trkpt><trkpt lat="46.0915487" lon="12.2179748"><ele>571.0</ele><time>2026-04-26T15:40:32.591Z</time></trkpt><trkpt lat="46.0915858" lon="12.2178647"><ele>571.0</ele><time>2026-04-26T15:40:33.586Z</time></trkpt><trkpt lat="46.0916174" lon="12.2177486"><ele>564.0</ele><time>2026-04-26T15:40:34.588Z</time></trkpt><trkpt lat="46.0916356" lon="12.2176142"><ele>557.0</ele><time>2026-04-26T15:40:35.592Z</time></trkpt><trkpt lat="46.0916407" lon="12.2174757"><ele>550.0</ele><time>2026-04-26T15:40:36.593Z</time></trkpt><trkpt lat="46.0916331" lon="12.2173298"><ele>543.0</ele><time>2026-04-26T15:40:37.586Z</time></trkpt><trkpt lat="46.0916254" lon="12.2171746"><ele>536.0</ele><time>2026-04-26T15:40:38.592Z</time></trkpt><trkpt lat="46.0916234" lon="12.2170099"><ele>534.0</ele><time>2026-04-26T15:40:39.592Z</time></trkpt><trkpt lat="46.0916324" lon="12.2168355"><ele>532.0</ele><time>2026-04-26T15:40:40.587Z</time></trkpt><trkpt lat="46.0916483" lon="12.2166588"><ele>530.0</ele><time>2026-04-26T15:40:41.587Z</time></trkpt><trkpt lat="46.0916745" lon="12.2164845"><ele>528.0</ele><time>2026-04-26T15:40:42.583Z</time></trkpt><trkpt lat="46.091709" lon="12.2163223"><ele>528.0</ele><time>2026-04-26T15:40:43.584Z</time></trkpt><trkpt lat="46.0917394" lon="12.2161771"><ele>528.0</ele><time>2026-04-26T15:40:44.62Z</time></trkpt><trkpt lat="46.0917746" lon="12.2160583"><ele>528.0</ele><time>2026-04-26T15:40:45.595Z</time></trkpt><trkpt lat="46.091819" lon="12.2159737"><ele>528.0</ele><time>2026-04-26T15:40:46.593Z</time></trkpt><trkpt lat="46.0918847" lon="12.2159175"><ele>528.0</ele><time>2026-04-26T15:40:47.593Z</time></trkpt><trkpt lat="46.0919667" lon="12.2158987"><ele>528.0</ele><time>2026-04-26T15:40:48.593Z</time></trkpt><trkpt lat="46.0920525" lon="12.2159017"><ele>528.0</ele><time>2026-04-26T15:40:49.593Z</time></trkpt><trkpt lat="46.0921466" lon="12.2159008"><ele>528.0</ele><time>2026-04-26T15:40:50.588Z</time></trkpt><trkpt lat="46.0922376" lon="12.2159126"><ele>528.0</ele><time>2026-04-26T15:40:51.596Z</time></trkpt><trkpt lat="46.0923137" lon="12.2159138"><ele>528.0</ele><time>2026-04-26T15:40:52.591Z</time></trkpt><trkpt lat="46.0923867" lon="12.2158609"><ele>528.0</ele><time>2026-04-26T15:40:53.591Z</time></trkpt><trkpt lat="46.0924389" lon="12.2157645"><ele>528.0</ele><time>2026-04-26T15:40:54.592Z</time></trkpt><trkpt lat="46.0924724" lon="12.2156425"><ele>525.1666666666666</ele><time>2026-04-26T15:40:55.591Z</time></trkpt><trkpt lat="46.0924968" lon="12.2155132"><ele>522.3333333333334</ele><time>2026-04-26T15:40:56.592Z</time></trkpt><trkpt lat="46.0925211" lon="12.2153937"><ele>519.5</ele><time>2026-04-26T15:40:57.592Z</time></trkpt><trkpt lat="46.0925408" lon="12.2152801"><ele>516.6666666666667</ele><time>2026-04-26T15:40:58.588Z</time></trkpt><trkpt lat="46.0925463" lon="12.2151801"><ele>513.8333333333334</ele><time>2026-04-26T15:40:59.596Z</time></trkpt><trkpt lat="46.0925272" lon="12.2150338"><ele>511.0</ele><time>2026-04-26T15:41:01.587Z</time></trkpt><trkpt lat="46.0924895" lon="12.2149416"><ele>511.00000000000006</ele><time>2026-04-26T15:41:03.585Z</time></trkpt><trkpt lat="46.0924479" lon="12.2148643"><ele>511.0</ele><time>2026-04-26T15:41:05.593Z</time></trkpt><trkpt lat="46.0923994" lon="12.2147831"><ele>511.0</ele><time>2026-04-26T15:41:08.594Z</time></trkpt><trkpt lat="46.0923624" lon="12.2146972"><ele>511.0</ele><time>2026-04-26T15:41:12.594Z</time></trkpt><trkpt lat="46.092394" lon="12.2147932"><ele>511.00000000000006</ele><time>2026-04-26T15:41:21.587Z</time></trkpt><trkpt lat="46.0924309" lon="12.2148724"><ele>511.0</ele><time>2026-04-26T15:41:22.586Z</time></trkpt><trkpt lat="46.0925005" lon="12.2150118"><ele>511.00000000000006</ele><time>2026-04-26T15:41:24.586Z</time></trkpt><trkpt lat="46.0925471" lon="12.2150793"><ele>511.0</ele><time>2026-04-26T15:41:25.593Z</time></trkpt><trkpt lat="46.0926071" lon="12.2151157"><ele>511.0</ele><time>2026-04-26T15:41:26.592Z</time></trkpt><trkpt lat="46.0926708" lon="12.2151324"><ele>511.0</ele><time>2026-04-26T15:41:27.589Z</time></trkpt><trkpt lat="46.0927357" lon="12.215137"><ele>511.00000000000006</ele><time>2026-04-26T15:41:28.585Z</time></trkpt><trkpt lat="46.0928589" lon="12.2151523"><ele>511.0</ele><time>2026-04-26T15:41:30.593Z</time></trkpt><trkpt lat="46.0929741" lon="12.2151954"><ele>511.0</ele><time>2026-04-26T15:41:32.591Z</time></trkpt><trkpt lat="46.0930807" lon="12.2152237"><ele>511.0</ele><time>2026-04-26T15:41:34.584Z</time></trkpt><trkpt lat="46.0931726" lon="12.2152562"><ele>511.0</ele><time>2026-04-26T15:41:36.586Z</time></trkpt><trkpt lat="46.0932558" lon="12.2152819"><ele>511.0</ele><time>2026-04-26T15:41:38.586Z</time></trkpt><trkpt lat="46.0933346" lon="12.2153203"><ele>511.0</ele><time>2026-04-26T15:41:40.584Z</time></trkpt><trkpt lat="46.0934197" lon="12.2153493"><ele>510.50000000000006</ele><time>2026-04-26T15:41:42.593Z</time></trkpt><trkpt lat="46.0935282" lon="12.2153905"><ele>510.0</ele><time>2026-04-26T15:41:44.593Z</time></trkpt><trkpt lat="46.0935909" lon="12.2154132"><ele>509.5</ele><time>2026-04-26T15:41:45.588Z</time></trkpt><trkpt lat="46.0936567" lon="12.2154343"><ele>509.0</ele><time>2026-04-26T15:41:46.585Z</time></trkpt><trkpt lat="46.0937225" lon="12.2154614"><ele>508.50000000000006</ele><time>2026-04-26T15:41:47.589Z</time></trkpt><trkpt lat="46.0937926" lon="12.2154836"><ele>508.0</ele><time>2026-04-26T15:41:48.591Z</time></trkpt><trkpt lat="46.0938651" lon="12.215509"><ele>508.00000000000006</ele><time>2026-04-26T15:41:49.586Z</time></trkpt><trkpt lat="46.0939394" lon="12.2155389"><ele>508.0</ele><time>2026-04-26T15:41:50.584Z</time></trkpt><trkpt lat="46.0940144" lon="12.215571"><ele>508.0</ele><time>2026-04-26T15:41:51.589Z</time></trkpt><trkpt lat="46.0940884" lon="12.2156016"><ele>508.0</ele><time>2026-04-26T15:41:52.594Z</time></trkpt><trkpt lat="46.0941623" lon="12.215631"><ele>508.00000000000006</ele><time>2026-04-26T15:41:53.583Z</time></trkpt><trkpt lat="46.0942351" lon="12.2156625"><ele>508.0</ele><time>2026-04-26T15:41:54.593Z</time></trkpt><trkpt lat="46.0943081" lon="12.2157022"><ele>507.0</ele><time>2026-04-26T15:41:55.595Z</time></trkpt><trkpt lat="46.0943792" lon="12.2157432"><ele>506.0</ele><time>2026-04-26T15:41:56.591Z</time></trkpt><trkpt lat="46.0944478" lon="12.2157893"><ele>505.0</ele><time>2026-04-26T15:41:57.588Z</time></trkpt><trkpt lat="46.0945119" lon="12.2158397"><ele>504.0</ele><time>2026-04-26T15:41:58.592Z</time></trkpt><trkpt lat="46.0945755" lon="12.2158886"><ele>503.0</ele><time>2026-04-26T15:41:59.587Z</time></trkpt><trkpt lat="46.0946351" lon="12.2159428"><ele>502.0</ele><time>2026-04-26T15:42:00.59Z</time></trkpt><trkpt lat="46.0946972" lon="12.2159825"><ele>501.0</ele><time>2026-04-26T15:42:01.593Z</time></trkpt><trkpt lat="46.0947586" lon="12.2160103"><ele>501.0</ele><time>2026-04-26T15:42:02.592Z</time></trkpt><trkpt lat="46.0948852" lon="12.216037"><ele>501.0</ele><time>2026-04-26T15:42:04.591Z</time></trkpt><trkpt lat="46.0949505" lon="12.2160443"><ele>501.0</ele><time>2026-04-26T15:42:05.585Z</time></trkpt><trkpt lat="46.0950147" lon="12.2160436"><ele>501.0</ele><time>2026-04-26T15:42:06.592Z</time></trkpt><trkpt lat="46.0951318" lon="12.21598"><ele>501.0</ele><time>2026-04-26T15:42:08.595Z</time></trkpt><trkpt lat="46.095191" lon="12.2159256"><ele>500.4</ele><time>2026-04-26T15:42:09.591Z</time></trkpt><trkpt lat="46.0952586" lon="12.2158609"><ele>499.8</ele><time>2026-04-26T15:42:10.594Z</time></trkpt><trkpt lat="46.0953354" lon="12.2158035"><ele>499.19999999999993</ele><time>2026-04-26T15:42:11.583Z</time></trkpt><trkpt lat="46.0954173" lon="12.2157462"><ele>498.59999999999997</ele><time>2026-04-26T15:42:12.589Z</time></trkpt><trkpt lat="46.0955033" lon="12.2156773"><ele>498.0</ele><time>2026-04-26T15:42:13.587Z</time></trkpt><trkpt lat="46.0955876" lon="12.2155977"><ele>497.79999999999995</ele><time>2026-04-26T15:42:14.594Z</time></trkpt><trkpt lat="46.0956735" lon="12.2155129"><ele>497.59999999999997</ele><time>2026-04-26T15:42:15.591Z</time></trkpt><trkpt lat="46.0957594" lon="12.2154288"><ele>497.40000000000003</ele><time>2026-04-26T15:42:16.591Z</time></trkpt><trkpt lat="46.0958452" lon="12.2153518"><ele>497.20000000000005</ele><time>2026-04-26T15:42:17.591Z</time></trkpt><trkpt lat="46.0959319" lon="12.2152926"><ele>497.0</ele><time>2026-04-26T15:42:18.589Z</time></trkpt><trkpt lat="46.0960185" lon="12.2152438"><ele>496.99999999999994</ele><time>2026-04-26T15:42:19.591Z</time></trkpt><trkpt lat="46.0961014" lon="12.2152117"><ele>497.0</ele><time>2026-04-26T15:42:20.594Z</time></trkpt><trkpt lat="46.0961793" lon="12.2151796"><ele>497.0</ele><time>2026-04-26T15:42:21.588Z</time></trkpt><trkpt lat="46.0962479" lon="12.2151484"><ele>497.0</ele><time>2026-04-26T15:42:22.594Z</time></trkpt><trkpt lat="46.0963204" lon="12.2151172"><ele>496.99999999999994</ele><time>2026-04-26T15:42:23.593Z</time></trkpt><trkpt lat="46.0963938" lon="12.2150823"><ele>497.0</ele><time>2026-04-26T15:42:24.593Z</time></trkpt><trkpt lat="46.0964545" lon="12.2150385"><ele>496.99999999999994</ele><time>2026-04-26T15:42:25.592Z</time></trkpt><trkpt lat="46.0965172" lon="12.2149824"><ele>497.0</ele><time>2026-04-26T15:42:26.592Z</time></trkpt><trkpt lat="46.096583" lon="12.2149146"><ele>497.0</ele><time>2026-04-26T15:42:27.584Z</time></trkpt><trkpt lat="46.0966485" lon="12.2148406"><ele>497.0</ele><time>2026-04-26T15:42:28.588Z</time></trkpt><trkpt lat="46.0967022" lon="12.21474"><ele>496.99999999999994</ele><time>2026-04-26T15:42:29.59Z</time></trkpt><trkpt lat="46.0967532" lon="12.2146319"><ele>497.0</ele><time>2026-04-26T15:42:30.585Z</time></trkpt><trkpt lat="46.0967949" lon="12.2145048"><ele>496.6</ele><time>2026-04-26T15:42:31.594Z</time></trkpt><trkpt lat="46.0968314" lon="12.214369"><ele>496.20000000000005</ele><time>2026-04-26T15:42:32.594Z</time></trkpt><trkpt lat="46.0968655" lon="12.2142274"><ele>495.8</ele><time>2026-04-26T15:42:33.589Z</time></trkpt><trkpt lat="46.0969045" lon="12.2140832"><ele>495.4</ele><time>2026-04-26T15:42:34.596Z</time></trkpt><trkpt lat="46.0969385" lon="12.2139357"><ele>495.0</ele><time>2026-04-26T15:42:35.58Z</time></trkpt><trkpt lat="46.0969678" lon="12.21378"><ele>495.0</ele><time>2026-04-26T15:42:36.587Z</time></trkpt><trkpt lat="46.0969965" lon="12.2136268"><ele>495.0</ele><time>2026-04-26T15:42:37.592Z</time></trkpt><trkpt lat="46.0970295" lon="12.2134684"><ele>495.0</ele><time>2026-04-26T15:42:38.593Z</time></trkpt><trkpt lat="46.0970607" lon="12.2133063"><ele>495.0</ele><time>2026-04-26T15:42:39.591Z</time></trkpt><trkpt lat="46.0970933" lon="12.2131527"><ele>494.0</ele><time>2026-04-26T15:42:40.597Z</time></trkpt><trkpt lat="46.0971338" lon="12.212998"><ele>493.0</ele><time>2026-04-26T15:42:41.596Z</time></trkpt><trkpt lat="46.0971933" lon="12.2128603"><ele>492.0</ele><time>2026-04-26T15:42:42.593Z</time></trkpt><trkpt lat="46.0972538" lon="12.2127262"><ele>491.0</ele><time>2026-04-26T15:42:43.591Z</time></trkpt><trkpt lat="46.0973144" lon="12.2125885"><ele>491.0</ele><time>2026-04-26T15:42:44.596Z</time></trkpt><trkpt lat="46.0973726" lon="12.2124643"><ele>491.0</ele><time>2026-04-26T15:42:45.58Z</time></trkpt><trkpt lat="46.0974177" lon="12.212339"><ele>491.0</ele><time>2026-04-26T15:42:46.592Z</time></trkpt><trkpt lat="46.0974514" lon="12.2122026"><ele>491.0</ele><time>2026-04-26T15:42:47.585Z</time></trkpt><trkpt lat="46.0974675" lon="12.2120552"><ele>491.0</ele><time>2026-04-26T15:42:48.595Z</time></trkpt><trkpt lat="46.0974595" lon="12.2118993"><ele>490.20000000000005</ele><time>2026-04-26T15:42:49.597Z</time></trkpt><trkpt lat="46.097442" lon="12.2117428"><ele>489.40000000000003</ele><time>2026-04-26T15:42:50.596Z</time></trkpt><trkpt lat="46.0974233" lon="12.211596"><ele>488.6</ele><time>2026-04-26T15:42:51.594Z</time></trkpt><trkpt lat="46.0974012" lon="12.2114529"><ele>487.8</ele><time>2026-04-26T15:42:52.593Z</time></trkpt><trkpt lat="46.0973743" lon="12.2113149"><ele>487.0</ele><time>2026-04-26T15:42:53.595Z</time></trkpt><trkpt lat="46.0973641" lon="12.2111876"><ele>487.00000000000006</ele><time>2026-04-26T15:42:54.592Z</time></trkpt><trkpt lat="46.0973694" lon="12.2110654"><ele>487.0</ele><time>2026-04-26T15:42:55.589Z</time></trkpt><trkpt lat="46.0973989" lon="12.2109688"><ele>487.0</ele><time>2026-04-26T15:42:56.595Z</time></trkpt><trkpt lat="46.0974546" lon="12.2108979"><ele>487.0</ele><time>2026-04-26T15:42:57.618Z</time></trkpt><trkpt lat="46.0975249" lon="12.210873"><ele>487.00000000000006</ele><time>2026-04-26T15:42:58.59Z</time></trkpt><trkpt lat="46.0975992" lon="12.2108903"><ele>487.0</ele><time>2026-04-26T15:42:59.595Z</time></trkpt><trkpt lat="46.0976646" lon="12.2109438"><ele>483.6666666666667</ele><time>2026-04-26T15:43:00.595Z</time></trkpt><trkpt lat="46.0977367" lon="12.2109824"><ele>480.33333333333337</ele><time>2026-04-26T15:43:01.587Z</time></trkpt><trkpt lat="46.0978135" lon="12.2109822"><ele>477.0</ele><time>2026-04-26T15:43:02.594Z</time></trkpt><trkpt lat="46.0978838" lon="12.2109426"><ele>473.66666666666663</ele><time>2026-04-26T15:43:03.592Z</time></trkpt><trkpt lat="46.0979338" lon="12.2108636"><ele>470.3333333333333</ele><time>2026-04-26T15:43:04.592Z</time></trkpt><trkpt lat="46.0979669" lon="12.2107606"><ele>467.0</ele><time>2026-04-26T15:43:05.594Z</time></trkpt><trkpt lat="46.0979893" lon="12.2106411"><ele>467.0</ele><time>2026-04-26T15:43:06.594Z</time></trkpt><trkpt lat="46.0980196" lon="12.2105107"><ele>467.00000000000006</ele><time>2026-04-26T15:43:07.595Z</time></trkpt><trkpt lat="46.0980492" lon="12.2103745"><ele>467.00000000000006</ele><time>2026-04-26T15:43:08.596Z</time></trkpt><trkpt lat="46.0980836" lon="12.2102332"><ele>467.0</ele><time>2026-04-26T15:43:09.584Z</time></trkpt><trkpt lat="46.0981191" lon="12.2100968"><ele>467.0</ele><time>2026-04-26T15:43:10.592Z</time></trkpt><trkpt lat="46.0981496" lon="12.2099786"><ele>466.99999999999994</ele><time>2026-04-26T15:43:11.595Z</time></trkpt><trkpt lat="46.0981742" lon="12.2098545"><ele>467.0</ele><time>2026-04-26T15:43:12.597Z</time></trkpt><trkpt lat="46.0981934" lon="12.2097389"><ele>467.0</ele><time>2026-04-26T15:43:13.593Z</time></trkpt><trkpt lat="46.0982174" lon="12.2096309"><ele>467.0</ele><time>2026-04-26T15:43:14.591Z</time></trkpt><trkpt lat="46.0982419" lon="12.2095346"><ele>466.99999999999994</ele><time>2026-04-26T15:43:15.593Z</time></trkpt><trkpt lat="46.0982599" lon="12.2094413"><ele>467.0</ele><time>2026-04-26T15:43:16.595Z</time></trkpt><trkpt lat="46.0982696" lon="12.2093453"><ele>465.40000000000003</ele><time>2026-04-26T15:43:17.592Z</time></trkpt><trkpt lat="46.0982671" lon="12.2092478"><ele>463.80000000000007</ele><time>2026-04-26T15:43:18.59Z</time></trkpt><trkpt lat="46.0982593" lon="12.2091518"><ele>462.2</ele><time>2026-04-26T15:43:19.597Z</time></trkpt><trkpt lat="46.0982375" lon="12.2089719"><ele>460.6</ele><time>2026-04-26T15:43:21.585Z</time></trkpt><trkpt lat="46.0982196" lon="12.2088375"><ele>459.0</ele><time>2026-04-26T15:43:23.588Z</time></trkpt><trkpt lat="46.098175" lon="12.2086945"><ele>459.0</ele><time>2026-04-26T15:43:25.583Z</time></trkpt><trkpt lat="46.0981896" lon="12.2085679"><ele>459.0</ele><time>2026-04-26T15:43:27.583Z</time></trkpt><trkpt lat="46.098231" lon="12.2084578"><ele>459.0</ele><time>2026-04-26T15:43:29.594Z</time></trkpt><trkpt lat="46.0982713" lon="12.208354"><ele>459.0</ele><time>2026-04-26T15:43:31.584Z</time></trkpt><trkpt lat="46.0983121" lon="12.2082303"><ele>459.0</ele><time>2026-04-26T15:43:33.587Z</time></trkpt><trkpt lat="46.0982539" lon="12.2081935"><ele>459.0</ele><time>2026-04-26T15:43:34.585Z</time></trkpt><trkpt lat="46.0982134" lon="12.2080955"><ele>458.0</ele><time>2026-04-26T15:43:36.587Z</time></trkpt><trkpt lat="46.09819" lon="12.2079782"><ele>457.0</ele><time>2026-04-26T15:43:39.616Z</time></trkpt><trkpt lat="46.0981821" lon="12.2078251"><ele>456.0</ele><time>2026-04-26T15:43:41.591Z</time></trkpt><trkpt lat="46.0981182" lon="12.2076922"><ele>455.0</ele><time>2026-04-26T15:43:43.587Z</time></trkpt><trkpt lat="46.0980291" lon="12.2075491"><ele>454.0</ele><time>2026-04-26T15:43:45.597Z</time></trkpt><trkpt lat="46.0979572" lon="12.2074596"><ele>454.0</ele><time>2026-04-26T15:43:47.593Z</time></trkpt><trkpt lat="46.0979178" lon="12.2073502"><ele>454.00000000000006</ele><time>2026-04-26T15:43:49.593Z</time></trkpt><trkpt lat="46.0978877" lon="12.2072668"><ele>454.0</ele><time>2026-04-26T15:43:51.586Z</time></trkpt><trkpt lat="46.0978347" lon="12.20717"><ele>454.0</ele><time>2026-04-26T15:43:55.588Z</time></trkpt><trkpt lat="46.0977951" lon="12.2070746"><ele>454.00000000000006</ele><time>2026-04-26T15:43:58.585Z</time></trkpt><trkpt lat="46.0977752" lon="12.2069865"><ele>454.0</ele><time>2026-04-26T15:44:00.585Z</time></trkpt><trkpt lat="46.0977797" lon="12.2068946"><ele>454.0</ele><time>2026-04-26T15:44:05.588Z</time></trkpt><trkpt lat="46.0977844" lon="12.2067928"><ele>452.83333333333337</ele><time>2026-04-26T15:44:07.584Z</time></trkpt><trkpt lat="46.0978124" lon="12.2066652"><ele>451.6666666666667</ele><time>2026-04-26T15:44:09.592Z</time></trkpt><trkpt lat="46.0978549" lon="12.2065805"><ele>450.5</ele><time>2026-04-26T15:44:11.593Z</time></trkpt><trkpt lat="46.0979006" lon="12.2064899"><ele>449.33333333333337</ele><time>2026-04-26T15:44:13.592Z</time></trkpt><trkpt lat="46.0979224" lon="12.2064003"><ele>448.1666666666667</ele><time>2026-04-26T15:44:15.593Z</time></trkpt><trkpt lat="46.0979358" lon="12.2062952"><ele>447.0</ele><time>2026-04-26T15:44:17.594Z</time></trkpt><trkpt lat="46.0979599" lon="12.206181"><ele>445.1666666666667</ele><time>2026-04-26T15:44:20.584Z</time></trkpt><trkpt lat="46.0979739" lon="12.2060782"><ele>443.33333333333337</ele><time>2026-04-26T15:44:22.583Z</time></trkpt><trkpt lat="46.0979886" lon="12.205948"><ele>441.5</ele><time>2026-04-26T15:44:24.587Z</time></trkpt><trkpt lat="46.0980058" lon="12.2058424"><ele>439.6666666666667</ele><time>2026-04-26T15:44:25.592Z</time></trkpt><trkpt lat="46.098074" lon="12.2057754"><ele>437.83333333333337</ele><time>2026-04-26T15:44:27.586Z</time></trkpt><trkpt lat="46.0981471" lon="12.2056744"><ele>436.0</ele><time>2026-04-26T15:44:31.588Z</time></trkpt><trkpt lat="46.0981951" lon="12.2055796"><ele>434.6666666666667</ele><time>2026-04-26T15:44:34.598Z</time></trkpt><trkpt lat="46.098224" lon="12.2054526"><ele>433.33333333333337</ele><time>2026-04-26T15:44:37.596Z</time></trkpt><trkpt lat="46.0982612" lon="12.2053656"><ele>432.0</ele><time>2026-04-26T15:44:39.586Z</time></trkpt><trkpt lat="46.0983083" lon="12.2052648"><ele>430.66666666666663</ele><time>2026-04-26T15:44:42.596Z</time></trkpt><trkpt lat="46.0983697" lon="12.2052023"><ele>429.3333333333333</ele><time>2026-04-26T15:44:44.596Z</time></trkpt><trkpt lat="46.0984387" lon="12.2051157"><ele>428.0</ele><time>2026-04-26T15:44:46.592Z</time></trkpt><trkpt lat="46.0984714" lon="12.2050102"><ele>426.16666666666663</ele><time>2026-04-26T15:44:48.585Z</time></trkpt><trkpt lat="46.0985013" lon="12.204893"><ele>424.3333333333333</ele><time>2026-04-26T15:44:50.582Z</time></trkpt><trkpt lat="46.0985442" lon="12.204802"><ele>422.5</ele><time>2026-04-26T15:44:52.585Z</time></trkpt><trkpt lat="46.0985777" lon="12.2047042"><ele>420.66666666666663</ele><time>2026-04-26T15:44:55.586Z</time></trkpt><trkpt lat="46.0985944" lon="12.2045716"><ele>418.8333333333333</ele><time>2026-04-26T15:44:57.596Z</time></trkpt><trkpt lat="46.0985951" lon="12.2044391"><ele>417.0</ele><time>2026-04-26T15:44:59.585Z</time></trkpt><trkpt lat="46.0986171" lon="12.2043249"><ele>414.6</ele><time>2026-04-26T15:45:01.595Z</time></trkpt><trkpt lat="46.0986391" lon="12.204205"><ele>412.20000000000005</ele><time>2026-04-26T15:45:03.595Z</time></trkpt><trkpt lat="46.098654" lon="12.2040845"><ele>409.8</ele><time>2026-04-26T15:45:05.596Z</time></trkpt><trkpt lat="46.0986688" lon="12.2039536"><ele>407.4</ele><time>2026-04-26T15:45:07.596Z</time></trkpt><trkpt lat="46.0986889" lon="12.2038087"><ele>405.0</ele><time>2026-04-26T15:45:09.586Z</time></trkpt><trkpt lat="46.0987093" lon="12.2036675"><ele>404.0</ele><time>2026-04-26T15:45:11.595Z</time></trkpt><trkpt lat="46.0987322" lon="12.2035443"><ele>403.0</ele><time>2026-04-26T15:45:13.584Z</time></trkpt><trkpt lat="46.0987271" lon="12.2034398"><ele>402.0</ele><time>2026-04-26T15:45:15.587Z</time></trkpt><trkpt lat="46.0987263" lon="12.2033236"><ele>401.0</ele><time>2026-04-26T15:45:17.595Z</time></trkpt><trkpt lat="46.098724" lon="12.203201"><ele>400.0</ele><time>2026-04-26T15:45:19.596Z</time></trkpt><trkpt lat="46.0987193" lon="12.203066"><ele>399.0</ele><time>2026-04-26T15:45:21.594Z</time></trkpt><trkpt lat="46.0986914" lon="12.2029185"><ele>398.6</ele><time>2026-04-26T15:45:23.586Z</time></trkpt><trkpt lat="46.0986641" lon="12.202758"><ele>398.2</ele><time>2026-04-26T15:45:25.597Z</time></trkpt><trkpt lat="46.0986336" lon="12.202587"><ele>397.8</ele><time>2026-04-26T15:45:27.59Z</time></trkpt><trkpt lat="46.0986164" lon="12.2023998"><ele>397.40000000000003</ele><time>2026-04-26T15:45:29.596Z</time></trkpt><trkpt lat="46.098595" lon="12.2022994"><ele>397.0</ele><time>2026-04-26T15:45:30.586Z</time></trkpt><trkpt lat="46.0985734" lon="12.2022029"><ele>396.20000000000005</ele><time>2026-04-26T15:45:31.593Z</time></trkpt><trkpt lat="46.0985496" lon="12.2020293"><ele>395.4</ele><time>2026-04-26T15:45:33.586Z</time></trkpt><trkpt lat="46.0986098" lon="12.2019286"><ele>394.6</ele><time>2026-04-26T15:45:35.588Z</time></trkpt><trkpt lat="46.0986649" lon="12.2018396"><ele>393.79999999999995</ele><time>2026-04-26T15:45:37.586Z</time></trkpt><trkpt lat="46.0986985" lon="12.2017571"><ele>393.0</ele><time>2026-04-26T15:45:39.597Z</time></trkpt><trkpt lat="46.0987498" lon="12.2016437"><ele>393.0</ele><time>2026-04-26T15:45:42.591Z</time></trkpt><trkpt lat="46.0988048" lon="12.2015413"><ele>393.0</ele><time>2026-04-26T15:45:45.594Z</time></trkpt><trkpt lat="46.0988657" lon="12.2014545"><ele>393.0</ele><time>2026-04-26T15:45:48.592Z</time></trkpt><trkpt lat="46.0989288" lon="12.2013902"><ele>393.0</ele><time>2026-04-26T15:45:51.585Z</time></trkpt><trkpt lat="46.0989914" lon="12.2013396"><ele>393.0</ele><time>2026-04-26T15:45:54.586Z</time></trkpt><trkpt lat="46.0990694" lon="12.2013084"><ele>393.0</ele><time>2026-04-26T15:45:57.596Z</time></trkpt><trkpt lat="46.0991593" lon="12.2012603"><ele>391.8333333333333</ele><time>2026-04-26T15:46:00.59Z</time></trkpt><trkpt lat="46.0992324" lon="12.2012089"><ele>390.66666666666663</ele><time>2026-04-26T15:46:02.594Z</time></trkpt><trkpt lat="46.099318" lon="12.2011054"><ele>389.5</ele><time>2026-04-26T15:46:04.593Z</time></trkpt><trkpt lat="46.0993654" lon="12.2010339"><ele>388.3333333333333</ele><time>2026-04-26T15:46:05.595Z</time></trkpt><trkpt lat="46.0994213" lon="12.2009576"><ele>387.16666666666663</ele><time>2026-04-26T15:46:06.59Z</time></trkpt><trkpt lat="46.0994888" lon="12.2008896"><ele>386.0</ele><time>2026-04-26T15:46:07.594Z</time></trkpt><trkpt lat="46.0995597" lon="12.2008121"><ele>386.0</ele><time>2026-04-26T15:46:08.593Z</time></trkpt><trkpt lat="46.0996372" lon="12.2007284"><ele>386.0</ele><time>2026-04-26T15:46:09.583Z</time></trkpt><trkpt lat="46.0997089" lon="12.2006291"><ele>386.0</ele><time>2026-04-26T15:46:10.593Z</time></trkpt><trkpt lat="46.0997765" lon="12.2005331"><ele>386.0</ele><time>2026-04-26T15:46:11.586Z</time></trkpt><trkpt lat="46.0998404" lon="12.2004306"><ele>386.0</ele><time>2026-04-26T15:46:12.592Z</time></trkpt><trkpt lat="46.0999097" lon="12.200326"><ele>385.49999999999994</ele><time>2026-04-26T15:46:13.595Z</time></trkpt><trkpt lat="46.0999801" lon="12.2002396"><ele>385.0</ele><time>2026-04-26T15:46:14.595Z</time></trkpt><trkpt lat="46.10005" lon="12.200162"><ele>384.5</ele><time>2026-04-26T15:46:15.593Z</time></trkpt><trkpt lat="46.1001265" lon="12.2001031"><ele>384.0</ele><time>2026-04-26T15:46:16.587Z</time></trkpt><trkpt lat="46.1002015" lon="12.200055"><ele>383.5</ele><time>2026-04-26T15:46:17.592Z</time></trkpt><trkpt lat="46.1002713" lon="12.2000047"><ele>383.0</ele><time>2026-04-26T15:46:18.586Z</time></trkpt><trkpt lat="46.1003257" lon="12.1999508"><ele>383.0</ele><time>2026-04-26T15:46:19.586Z</time></trkpt><trkpt lat="46.1004162" lon="12.1998628"><ele>383.0</ele><time>2026-04-26T15:46:21.587Z</time></trkpt><trkpt lat="46.1004799" lon="12.1997724"><ele>383.0</ele><time>2026-04-26T15:46:23.578Z</time></trkpt><trkpt lat="46.1005189" lon="12.1996847"><ele>383.0</ele><time>2026-04-26T15:46:25.581Z</time></trkpt><trkpt lat="46.1005601" lon="12.199576"><ele>383.0</ele><time>2026-04-26T15:46:28.587Z</time></trkpt><trkpt lat="46.1005625" lon="12.1994732"><ele>383.0</ele><time>2026-04-26T15:46:33.6Z</time></trkpt><trkpt lat="46.1004889" lon="12.1994203"><ele>382.83333333333337</ele><time>2026-04-26T15:46:36.589Z</time></trkpt><trkpt lat="46.1004357" lon="12.1993096"><ele>382.6666666666667</ele><time>2026-04-26T15:46:39.597Z</time></trkpt><trkpt lat="46.1003905" lon="12.1992304"><ele>382.5</ele><time>2026-04-26T15:46:41.597Z</time></trkpt><trkpt lat="46.1003368" lon="12.199149"><ele>382.3333333333333</ele><time>2026-04-26T15:46:43.595Z</time></trkpt><trkpt lat="46.1002731" lon="12.1990712"><ele>382.16666666666663</ele><time>2026-04-26T15:46:45.589Z</time></trkpt><trkpt lat="46.1002099" lon="12.1990063"><ele>382.0</ele><time>2026-04-26T15:46:47.587Z</time></trkpt><trkpt lat="46.1001537" lon="12.1989551"><ele>380.0</ele><time>2026-04-26T15:46:49.606Z</time></trkpt><trkpt lat="46.1001008" lon="12.1989019"><ele>380.0</ele><time>2026-04-26T15:46:51.595Z</time></trkpt><trkpt lat="46.1000496" lon="12.1988446"><ele>380.0</ele><time>2026-04-26T15:46:53.589Z</time></trkpt></trkseg></trk></gpx>